<?xml version='1.0' encoding='UTF-8'?><gpx version="1.1" creator="JPX - https://github.com/jenetics/jpx" xmlns="http://www.topografix.com/GPX/1/1"><trk><trkseg><trkpt lat="45.68055877743731" lon="8.711655134045877"><ele>280.0</ele><time>2026-04-12T05:59:43.001Z</time></trkpt><trkpt lat="45.68050127304845" lon="8.71158873304499"><ele>280.0</ele><time>2026-04-12T06:01:08.999Z</time></trkpt><trkpt lat="45.68043377348864" lon="8.711552440271408"><ele>280.0</ele><time>2026-04-12T06:01:14.999Z</time></trkpt><trkpt lat="45.68037155994396" lon="8.711499750863682"><ele>280.0</ele><time>2026-04-12T06:01:21.999Z</time></trkpt><trkpt lat="45.68042657583989" lon="8.711441155606083"><ele>280.0</ele><time>2026-04-12T06:04:10.996Z</time></trkpt><trkpt lat="45.680448762843305" lon="8.711352507664845"><ele>280.0</ele><time>2026-04-12T06:04:18.996Z</time></trkpt><trkpt lat="45.68047046796653" lon="8.711262841501256"><ele>280.0</ele><time>2026-04-12T06:04:47.995Z</time></trkpt><trkpt lat="45.68050084737997" lon="8.711177076554286"><ele>280.0</ele><time>2026-04-12T06:05:18.995Z</time></trkpt><trkpt lat="45.68053560591647" lon="8.711095672689517"><ele>280.0</ele><time>2026-04-12T06:05:31.994Z</time></trkpt><trkpt lat="45.68055486624672" lon="8.711001232606886"><ele>280.0</ele><time>2026-04-12T06:05:47.994Z</time></trkpt><trkpt lat="45.68059935835277" lon="8.710924405889617"><ele>280.0</ele><time>2026-04-12T06:07:38.992Z</time></trkpt><trkpt lat="45.680647565272956" lon="8.710857796914778"><ele>280.0</ele><time>2026-04-12T06:07:42.992Z</time></trkpt><trkpt lat="45.680678030484636" lon="8.710773167430105"><ele>280.0</ele><time>2026-04-12T06:07:46.992Z</time></trkpt><trkpt lat="45.680708896673984" lon="8.710658310017932"><ele>280.0</ele><time>2026-04-12T06:08:08.992Z</time></trkpt><trkpt lat="45.680824493380555" lon="8.710581478655444"><ele>279.8333333333333</ele><time>2026-04-12T06:08:23.992Z</time></trkpt><trkpt lat="45.6808818850717" lon="8.710619337341644"><ele>279.66666666666663</ele><time>2026-04-12T06:08:25.992Z</time></trkpt><trkpt lat="45.68097989384904" lon="8.710647038863637"><ele>279.5</ele><time>2026-04-12T06:08:28.992Z</time></trkpt><trkpt lat="45.68104243032018" lon="8.710660157576172"><ele>279.3333333333333</ele><time>2026-04-12T06:08:30.991Z</time></trkpt><trkpt lat="45.681117920173605" lon="8.710693754313757"><ele>279.1666666666667</ele><time>2026-04-12T06:08:33.991Z</time></trkpt><trkpt lat="45.68116189220314" lon="8.71078592453039"><ele>279.0</ele><time>2026-04-12T06:08:36.991Z</time></trkpt><trkpt lat="45.681168822216726" lon="8.710891040275527"><ele>279.2</ele><time>2026-04-12T06:08:38.991Z</time></trkpt><trkpt lat="45.68113373649634" lon="8.710993002490847"><ele>279.4</ele><time>2026-04-12T06:08:40.991Z</time></trkpt><trkpt lat="45.68109504535964" lon="8.711098215826052"><ele>279.6</ele><time>2026-04-12T06:08:42.991Z</time></trkpt><trkpt lat="45.681059236772356" lon="8.711234416121695"><ele>279.8</ele><time>2026-04-12T06:08:44.991Z</time></trkpt><trkpt lat="45.681025911993956" lon="8.711366008515537"><ele>280.0</ele><time>2026-04-12T06:08:46.991Z</time></trkpt><trkpt lat="45.68098045744246" lon="8.711496607035224"><ele>280.0</ele><time>2026-04-12T06:08:48.991Z</time></trkpt><trkpt lat="45.68094772388541" lon="8.711642125129393"><ele>280.0</ele><time>2026-04-12T06:08:50.991Z</time></trkpt><trkpt lat="45.68092352103757" lon="8.711771272588107"><ele>280.0</ele><time>2026-04-12T06:08:52.991Z</time></trkpt><trkpt lat="45.68090119367182" lon="8.711893181021738"><ele>280.0</ele><time>2026-04-12T06:08:54.991Z</time></trkpt><trkpt lat="45.680866978562136" lon="8.712020960742155"><ele>280.0</ele><time>2026-04-12T06:08:56.991Z</time></trkpt><trkpt lat="45.68082603143098" lon="8.712192359039816"><ele>280.0</ele><time>2026-04-12T06:08:58.991Z</time></trkpt><trkpt lat="45.68077107852904" lon="8.712343628870057"><ele>280.0</ele><time>2026-04-12T06:09:00.991Z</time></trkpt><trkpt lat="45.68075001668143" lon="8.71243133745788"><ele>280.0</ele><time>2026-04-12T06:09:01.991Z</time></trkpt><trkpt lat="45.680716434621914" lon="8.712571184785054"><ele>280.0</ele><time>2026-04-12T06:09:03.991Z</time></trkpt><trkpt lat="45.68067572502111" lon="8.712740713474368"><ele>280.0</ele><time>2026-04-12T06:09:05.991Z</time></trkpt><trkpt lat="45.68064095262889" lon="8.712885931073057"><ele>280.0</ele><time>2026-04-12T06:09:07.991Z</time></trkpt><trkpt lat="45.680615956538546" lon="8.713040797196252"><ele>280.0</ele><time>2026-04-12T06:09:09.991Z</time></trkpt><trkpt lat="45.68059050725257" lon="8.71313341903896"><ele>280.0</ele><time>2026-04-12T06:09:10.991Z</time></trkpt><trkpt lat="45.68056786238676" lon="8.713226425843894"><ele>280.0</ele><time>2026-04-12T06:09:11.991Z</time></trkpt><trkpt lat="45.68055208580153" lon="8.71331551508415"><ele>280.0</ele><time>2026-04-12T06:09:12.991Z</time></trkpt><trkpt lat="45.68052875268244" lon="8.713401782364013"><ele>280.0</ele><time>2026-04-12T06:09:13.991Z</time></trkpt><trkpt lat="45.6804946603981" lon="8.713554801613185"><ele>279.6</ele><time>2026-04-12T06:09:15.991Z</time></trkpt><trkpt lat="45.68046412529006" lon="8.7137054587384"><ele>279.2</ele><time>2026-04-12T06:09:17.991Z</time></trkpt><trkpt lat="45.68042966128352" lon="8.713860501661939"><ele>278.8</ele><time>2026-04-12T06:09:19.991Z</time></trkpt><trkpt lat="45.680519127127766" lon="8.713937129456266"><ele>278.4</ele><time>2026-04-12T06:09:20.991Z</time></trkpt><trkpt lat="45.68058137822238" lon="8.713963737367262"><ele>278.0</ele><time>2026-04-12T06:09:21.991Z</time></trkpt><trkpt lat="45.680644177718584" lon="8.713973694355383"><ele>278.0</ele><time>2026-04-12T06:09:22.991Z</time></trkpt><trkpt lat="45.68075789179042" lon="8.713985284608457"><ele>278.0</ele><time>2026-04-12T06:09:24.991Z</time></trkpt><trkpt lat="45.68082736674131" lon="8.713989707162094"><ele>278.0</ele><time>2026-04-12T06:09:25.991Z</time></trkpt><trkpt lat="45.68088588954024" lon="8.7140315356644"><ele>278.0</ele><time>2026-04-12T06:09:26.991Z</time></trkpt><trkpt lat="45.68099388916967" lon="8.714029002851813"><ele>278.0</ele><time>2026-04-12T06:09:28.991Z</time></trkpt><trkpt lat="45.68107911990967" lon="8.714071301390005"><ele>278.0</ele><time>2026-04-12T06:09:30.99Z</time></trkpt><trkpt lat="45.681186710733336" lon="8.714091775764294"><ele>278.1666666666667</ele><time>2026-04-12T06:09:32.99Z</time></trkpt><trkpt lat="45.68129413544343" lon="8.714097462633244"><ele>278.33333333333337</ele><time>2026-04-12T06:09:34.99Z</time></trkpt><trkpt lat="45.68137292050456" lon="8.714132337645724"><ele>278.5</ele><time>2026-04-12T06:09:36.99Z</time></trkpt><trkpt lat="45.681452573256" lon="8.714140871728635"><ele>278.6666666666667</ele><time>2026-04-12T06:09:38.99Z</time></trkpt><trkpt lat="45.68153656849561" lon="8.714162770302217"><ele>278.8333333333333</ele><time>2026-04-12T06:09:40.99Z</time></trkpt><trkpt lat="45.68161510678191" lon="8.71418841080162"><ele>279.0</ele><time>2026-04-12T06:09:42.99Z</time></trkpt><trkpt lat="45.68168345135704" lon="8.714212485008298"><ele>279.0</ele><time>2026-04-12T06:09:44.99Z</time></trkpt><trkpt lat="45.68175009253571" lon="8.714236496738941"><ele>279.0</ele><time>2026-04-12T06:09:46.99Z</time></trkpt><trkpt lat="45.6818198969391" lon="8.714298849012037"><ele>279.0</ele><time>2026-04-12T06:09:49.99Z</time></trkpt><trkpt lat="45.68185552910943" lon="8.714387285342664"><ele>279.0</ele><time>2026-04-12T06:09:51.99Z</time></trkpt><trkpt lat="45.681751103931944" lon="8.714591402258291"><ele>279.0</ele><time>2026-04-12T06:09:53.99Z</time></trkpt><trkpt lat="45.681765276944304" lon="8.714682015507835"><ele>278.8</ele><time>2026-04-12T06:09:54.99Z</time></trkpt><trkpt lat="45.68172460377606" lon="8.71483455154472"><ele>278.59999999999997</ele><time>2026-04-12T06:09:56.99Z</time></trkpt><trkpt lat="45.681700679301585" lon="8.714980838268472"><ele>278.4</ele><time>2026-04-12T06:09:58.99Z</time></trkpt><trkpt lat="45.68165230304299" lon="8.715143080541786"><ele>278.2</ele><time>2026-04-12T06:10:00.99Z</time></trkpt><trkpt lat="45.681623724787826" lon="8.715227093171906"><ele>278.0</ele><time>2026-04-12T06:10:01.99Z</time></trkpt><trkpt lat="45.6815790986625" lon="8.715378194721863"><ele>278.4</ele><time>2026-04-12T06:10:03.99Z</time></trkpt><trkpt lat="45.68154966163434" lon="8.715499440650222"><ele>278.8</ele><time>2026-04-12T06:10:05.99Z</time></trkpt><trkpt lat="45.681509768939875" lon="8.715636033473864"><ele>279.2</ele><time>2026-04-12T06:10:07.99Z</time></trkpt><trkpt lat="45.681463262728926" lon="8.715749964593543"><ele>279.6</ele><time>2026-04-12T06:10:09.99Z</time></trkpt><trkpt lat="45.68140217168876" lon="8.715842481836955"><ele>280.0</ele><time>2026-04-12T06:10:11.99Z</time></trkpt><trkpt lat="45.6813397967439" lon="8.715963001077402"><ele>280.0</ele><time>2026-04-12T06:10:13.99Z</time></trkpt><trkpt lat="45.68131037186721" lon="8.71612530914713"><ele>280.0</ele><time>2026-04-12T06:10:15.99Z</time></trkpt><trkpt lat="45.68135612738821" lon="8.716221872391309"><ele>280.0</ele><time>2026-04-12T06:10:16.99Z</time></trkpt><trkpt lat="45.68134850287409" lon="8.716357273025029"><ele>280.0</ele><time>2026-04-12T06:10:18.99Z</time></trkpt><trkpt lat="45.68131375577069" lon="8.716488491063762"><ele>280.0</ele><time>2026-04-12T06:10:20.99Z</time></trkpt><trkpt lat="45.68127837042155" lon="8.716633303015326"><ele>280.0</ele><time>2026-04-12T06:10:22.99Z</time></trkpt><trkpt lat="45.681239884315296" lon="8.716773311345897"><ele>280.0</ele><time>2026-04-12T06:10:24.99Z</time></trkpt><trkpt lat="45.68121363396789" lon="8.716920875791656"><ele>280.0</ele><time>2026-04-12T06:10:26.99Z</time></trkpt><trkpt lat="45.68117198738596" lon="8.717071601999645"><ele>280.0</ele><time>2026-04-12T06:10:28.99Z</time></trkpt><trkpt lat="45.68114579312403" lon="8.717191894502575"><ele>280.0</ele><time>2026-04-12T06:10:30.989Z</time></trkpt><trkpt lat="45.68114135717296" lon="8.717321696712919"><ele>279.8</ele><time>2026-04-12T06:10:32.989Z</time></trkpt><trkpt lat="45.68108929126517" lon="8.71748335529553"><ele>279.6</ele><time>2026-04-12T06:10:34.989Z</time></trkpt><trkpt lat="45.681047317749695" lon="8.717627348888435"><ele>279.4</ele><time>2026-04-12T06:10:36.989Z</time></trkpt><trkpt lat="45.681008688166294" lon="8.717761100728273"><ele>279.2</ele><time>2026-04-12T06:10:38.989Z</time></trkpt><trkpt lat="45.68097718283091" lon="8.717906988952834"><ele>279.0</ele><time>2026-04-12T06:10:40.989Z</time></trkpt><trkpt lat="45.680938031327976" lon="8.718048068440078"><ele>278.75</ele><time>2026-04-12T06:10:42.989Z</time></trkpt><trkpt lat="45.68090302431426" lon="8.718179492465012"><ele>278.5</ele><time>2026-04-12T06:10:44.989Z</time></trkpt><trkpt lat="45.68087081240264" lon="8.7183335210242"><ele>278.25</ele><time>2026-04-12T06:10:46.989Z</time></trkpt><trkpt lat="45.6808411907583" lon="8.718508805006465"><ele>278.0</ele><time>2026-04-12T06:10:48.989Z</time></trkpt><trkpt lat="45.680786129766574" lon="8.718656634728468"><ele>277.8</ele><time>2026-04-12T06:10:50.989Z</time></trkpt><trkpt lat="45.68075003269469" lon="8.718796151811143"><ele>277.6</ele><time>2026-04-12T06:10:52.989Z</time></trkpt><trkpt lat="45.680711007304225" lon="8.718945532092885"><ele>277.4</ele><time>2026-04-12T06:10:54.989Z</time></trkpt><trkpt lat="45.68068218461604" lon="8.71910416214218"><ele>277.2</ele><time>2026-04-12T06:10:56.989Z</time></trkpt><trkpt lat="45.680640783206336" lon="8.71924585715645"><ele>277.0</ele><time>2026-04-12T06:10:58.989Z</time></trkpt><trkpt lat="45.68061880281696" lon="8.719402472311996"><ele>277.0</ele><time>2026-04-12T06:11:00.989Z</time></trkpt><trkpt lat="45.68057112031754" lon="8.719555083433956"><ele>277.0</ele><time>2026-04-12T06:11:02.989Z</time></trkpt><trkpt lat="45.680536663104" lon="8.719689707180004"><ele>277.0</ele><time>2026-04-12T06:11:04.989Z</time></trkpt><trkpt lat="45.680507850833365" lon="8.719850382931533"><ele>277.0</ele><time>2026-04-12T06:11:06.989Z</time></trkpt><trkpt lat="45.68048504851054" lon="8.71998498381689"><ele>277.0</ele><time>2026-04-12T06:11:08.989Z</time></trkpt><trkpt lat="45.680468244802725" lon="8.720127001717252"><ele>277.2</ele><time>2026-04-12T06:11:10.989Z</time></trkpt><trkpt lat="45.6804274205105" lon="8.720280848398598"><ele>277.4</ele><time>2026-04-12T06:11:12.989Z</time></trkpt><trkpt lat="45.68039532881175" lon="8.720362861424489"><ele>277.6</ele><time>2026-04-12T06:11:13.989Z</time></trkpt><trkpt lat="45.68035423359979" lon="8.720508229514584"><ele>277.8</ele><time>2026-04-12T06:11:15.989Z</time></trkpt><trkpt lat="45.68032173354353" lon="8.720661600912795"><ele>278.0</ele><time>2026-04-12T06:11:17.989Z</time></trkpt><trkpt lat="45.68029033116031" lon="8.720829578413035"><ele>278.0</ele><time>2026-04-12T06:11:19.989Z</time></trkpt><trkpt lat="45.6802484042593" lon="8.720988921565649"><ele>278.0</ele><time>2026-04-12T06:11:21.989Z</time></trkpt><trkpt lat="45.68021467398209" lon="8.721151391937253"><ele>278.0</ele><time>2026-04-12T06:11:23.989Z</time></trkpt><trkpt lat="45.68019635252057" lon="8.721241019706827"><ele>278.0</ele><time>2026-04-12T06:11:24.989Z</time></trkpt><trkpt lat="45.680164274902154" lon="8.72138693667172"><ele>278.0</ele><time>2026-04-12T06:11:26.989Z</time></trkpt><trkpt lat="45.68013449355067" lon="8.721548652888282"><ele>277.6</ele><time>2026-04-12T06:11:28.989Z</time></trkpt><trkpt lat="45.68011376117588" lon="8.721639908010397"><ele>277.20000000000005</ele><time>2026-04-12T06:11:29.989Z</time></trkpt><trkpt lat="45.68007466154268" lon="8.721782228665228"><ele>276.8</ele><time>2026-04-12T06:11:31.988Z</time></trkpt><trkpt lat="45.68003640989447" lon="8.721927642550723"><ele>276.40000000000003</ele><time>2026-04-12T06:11:33.988Z</time></trkpt><trkpt lat="45.68000620781566" lon="8.722079967078548"><ele>276.0</ele><time>2026-04-12T06:11:35.988Z</time></trkpt><trkpt lat="45.67998411474182" lon="8.722230323355046"><ele>276.0</ele><time>2026-04-12T06:11:37.988Z</time></trkpt><trkpt lat="45.679962510623845" lon="8.722370200006914"><ele>276.0</ele><time>2026-04-12T06:11:39.988Z</time></trkpt><trkpt lat="45.67992445629629" lon="8.72250727307548"><ele>276.0</ele><time>2026-04-12T06:11:41.988Z</time></trkpt><trkpt lat="45.679892286498934" lon="8.722652626887326"><ele>276.0</ele><time>2026-04-12T06:11:43.988Z</time></trkpt><trkpt lat="45.679854517375496" lon="8.722806433616745"><ele>276.0</ele><time>2026-04-12T06:11:45.988Z</time></trkpt><trkpt lat="45.67982995189132" lon="8.722901390340935"><ele>276.0</ele><time>2026-04-12T06:11:46.988Z</time></trkpt><trkpt lat="45.67981124442453" lon="8.72299742050672"><ele>276.0</ele><time>2026-04-12T06:11:47.988Z</time></trkpt><trkpt lat="45.67976996312643" lon="8.723162164641037"><ele>276.0</ele><time>2026-04-12T06:11:49.988Z</time></trkpt><trkpt lat="45.679745675627714" lon="8.72324819225555"><ele>276.0</ele><time>2026-04-12T06:11:50.988Z</time></trkpt><trkpt lat="45.67971768527135" lon="8.723332100215933"><ele>276.0</ele><time>2026-04-12T06:11:51.988Z</time></trkpt><trkpt lat="45.67967404640965" lon="8.723495091044235"><ele>276.0</ele><time>2026-04-12T06:11:53.988Z</time></trkpt><trkpt lat="45.67961619379311" lon="8.723639680812353"><ele>276.0</ele><time>2026-04-12T06:11:55.988Z</time></trkpt><trkpt lat="45.67954072416144" lon="8.723762032954246"><ele>276.0</ele><time>2026-04-12T06:11:57.988Z</time></trkpt><trkpt lat="45.67945091298729" lon="8.723868350550967"><ele>276.0</ele><time>2026-04-12T06:11:59.988Z</time></trkpt><trkpt lat="45.6793801759358" lon="8.723993930189572"><ele>276.0</ele><time>2026-04-12T06:12:01.988Z</time></trkpt><trkpt lat="45.679363425690845" lon="8.724116884982237"><ele>276.0</ele><time>2026-04-12T06:12:03.988Z</time></trkpt><trkpt lat="45.679431278744126" lon="8.724217244852465"><ele>276.0</ele><time>2026-04-12T06:12:05.988Z</time></trkpt><trkpt lat="45.679535873464204" lon="8.724246045651086"><ele>276.0</ele><time>2026-04-12T06:12:07.988Z</time></trkpt><trkpt lat="45.67964341935099" lon="8.724202611907153"><ele>276.0</ele><time>2026-04-12T06:12:09.988Z</time></trkpt><trkpt lat="45.67973543451766" lon="8.724106606502108"><ele>276.0</ele><time>2026-04-12T06:12:11.988Z</time></trkpt><trkpt lat="45.6798123970325" lon="8.724037823603036"><ele>276.0</ele><time>2026-04-12T06:12:13.988Z</time></trkpt><trkpt lat="45.67987431616973" lon="8.724020005529379"><ele>276.0</ele><time>2026-04-12T06:12:14.988Z</time></trkpt><trkpt lat="45.67998094819059" lon="8.72396059047596"><ele>276.0</ele><time>2026-04-12T06:12:16.988Z</time></trkpt><trkpt lat="45.68008805385227" lon="8.72390164019795"><ele>276.0</ele><time>2026-04-12T06:12:18.988Z</time></trkpt><trkpt lat="45.680205742520684" lon="8.72386788882255"><ele>276.0</ele><time>2026-04-12T06:12:20.988Z</time></trkpt><trkpt lat="45.680321208211936" lon="8.723836427638965"><ele>276.40000000000003</ele><time>2026-04-12T06:12:22.988Z</time></trkpt><trkpt lat="45.68042948724875" lon="8.723800668679354"><ele>276.8</ele><time>2026-04-12T06:12:24.988Z</time></trkpt><trkpt lat="45.68053843291342" lon="8.72376921683622"><ele>277.20000000000005</ele><time>2026-04-12T06:12:26.988Z</time></trkpt><trkpt lat="45.6806026612538" lon="8.723755457221953"><ele>277.6</ele><time>2026-04-12T06:12:27.988Z</time></trkpt><trkpt lat="45.680715444642935" lon="8.723724767677002"><ele>278.0</ele><time>2026-04-12T06:12:29.988Z</time></trkpt><trkpt lat="45.68082028493139" lon="8.723687125981412"><ele>278.0</ele><time>2026-04-12T06:12:31.987Z</time></trkpt><trkpt lat="45.68093223131865" lon="8.72364909404765"><ele>278.0</ele><time>2026-04-12T06:12:33.987Z</time></trkpt><trkpt lat="45.68103814380231" lon="8.723606856261801"><ele>278.0</ele><time>2026-04-12T06:12:35.987Z</time></trkpt><trkpt lat="45.68114388778798" lon="8.72358851374234"><ele>278.0</ele><time>2026-04-12T06:12:37.987Z</time></trkpt><trkpt lat="45.68124993328808" lon="8.723604641774935"><ele>278.0</ele><time>2026-04-12T06:12:39.987Z</time></trkpt><trkpt lat="45.68136789584518" lon="8.723609549426063"><ele>278.0</ele><time>2026-04-12T06:12:41.987Z</time></trkpt><trkpt lat="45.68148575464986" lon="8.723616283284787"><ele>278.0</ele><time>2026-04-12T06:12:43.987Z</time></trkpt><trkpt lat="45.68160030567012" lon="8.72362713314932"><ele>278.0</ele><time>2026-04-12T06:12:45.987Z</time></trkpt><trkpt lat="45.68171826397418" lon="8.723635717311977"><ele>278.0</ele><time>2026-04-12T06:12:47.987Z</time></trkpt><trkpt lat="45.68181542751639" lon="8.723575046448962"><ele>278.0</ele><time>2026-04-12T06:12:49.987Z</time></trkpt><trkpt lat="45.68188202307155" lon="8.723444687410257"><ele>278.0</ele><time>2026-04-12T06:12:51.987Z</time></trkpt><trkpt lat="45.68193192227007" lon="8.723303088470047"><ele>278.0</ele><time>2026-04-12T06:12:53.987Z</time></trkpt><trkpt lat="45.68198893136027" lon="8.723163817013411"><ele>278.0</ele><time>2026-04-12T06:12:55.987Z</time></trkpt><trkpt lat="45.682048216603" lon="8.723031379503462"><ele>278.0</ele><time>2026-04-12T06:12:57.987Z</time></trkpt><trkpt lat="45.68210673722803" lon="8.722890103134015"><ele>278.0</ele><time>2026-04-12T06:12:59.987Z</time></trkpt><trkpt lat="45.68214360743034" lon="8.722810737176381"><ele>278.0</ele><time>2026-04-12T06:13:00.987Z</time></trkpt><trkpt lat="45.682176301144416" lon="8.722732424603523"><ele>278.0</ele><time>2026-04-12T06:13:01.987Z</time></trkpt><trkpt lat="45.682238531360454" lon="8.722578216125005"><ele>278.0</ele><time>2026-04-12T06:13:03.987Z</time></trkpt><trkpt lat="45.68230013263363" lon="8.722415163360257"><ele>278.0</ele><time>2026-04-12T06:13:05.987Z</time></trkpt><trkpt lat="45.68233375239363" lon="8.722335747416341"><ele>278.0</ele><time>2026-04-12T06:13:06.987Z</time></trkpt><trkpt lat="45.68236898049768" lon="8.72225215119174"><ele>277.8</ele><time>2026-04-12T06:13:07.987Z</time></trkpt><trkpt lat="45.68243841979904" lon="8.722096600791957"><ele>277.6</ele><time>2026-04-12T06:13:09.987Z</time></trkpt><trkpt lat="45.682470437992706" lon="8.722017502213124"><ele>277.4</ele><time>2026-04-12T06:13:10.987Z</time></trkpt><trkpt lat="45.68254128674071" lon="8.721867799666127"><ele>277.2</ele><time>2026-04-12T06:13:12.987Z</time></trkpt><trkpt lat="45.68257740174638" lon="8.721789806172087"><ele>277.0</ele><time>2026-04-12T06:13:13.987Z</time></trkpt><trkpt lat="45.68264498195353" lon="8.721644022122737"><ele>277.0</ele><time>2026-04-12T06:13:15.987Z</time></trkpt><trkpt lat="45.68269664215206" lon="8.721508239904091"><ele>277.0</ele><time>2026-04-12T06:13:17.987Z</time></trkpt><trkpt lat="45.682742784639565" lon="8.721373152270422"><ele>277.0</ele><time>2026-04-12T06:13:19.987Z</time></trkpt><trkpt lat="45.682803305841006" lon="8.721258156377917"><ele>277.0</ele><time>2026-04-12T06:13:21.987Z</time></trkpt><trkpt lat="45.68284704787878" lon="8.721145625275616"><ele>277.0</ele><time>2026-04-12T06:13:23.987Z</time></trkpt><trkpt lat="45.68290573353359" lon="8.72101576691511"><ele>277.6</ele><time>2026-04-12T06:13:25.987Z</time></trkpt><trkpt lat="45.68296563090517" lon="8.72087979687154"><ele>278.2</ele><time>2026-04-12T06:13:27.987Z</time></trkpt><trkpt lat="45.68302438889392" lon="8.720754496327052"><ele>278.8</ele><time>2026-04-12T06:13:29.987Z</time></trkpt><trkpt lat="45.68309396984303" lon="8.720620015908754"><ele>279.4</ele><time>2026-04-12T06:13:31.987Z</time></trkpt><trkpt lat="45.68314013186341" lon="8.720487488385324"><ele>280.0</ele><time>2026-04-12T06:13:33.986Z</time></trkpt><trkpt lat="45.68319653988479" lon="8.720352083048667"><ele>280.2</ele><time>2026-04-12T06:13:35.986Z</time></trkpt><trkpt lat="45.68324394111781" lon="8.720222355143807"><ele>280.4</ele><time>2026-04-12T06:13:37.986Z</time></trkpt><trkpt lat="45.68330128396685" lon="8.720098221195055"><ele>280.6</ele><time>2026-04-12T06:13:39.986Z</time></trkpt><trkpt lat="45.6833619470569" lon="8.719974591870526"><ele>280.8</ele><time>2026-04-12T06:13:41.986Z</time></trkpt><trkpt lat="45.68340908004339" lon="8.719858421865199"><ele>281.0</ele><time>2026-04-12T06:13:43.986Z</time></trkpt><trkpt lat="45.683462732774316" lon="8.719739315509743"><ele>281.0</ele><time>2026-04-12T06:13:45.986Z</time></trkpt><trkpt lat="45.683518523129976" lon="8.719611505344172"><ele>281.0</ele><time>2026-04-12T06:13:47.986Z</time></trkpt><trkpt lat="45.68357314616658" lon="8.719488983666572"><ele>281.0</ele><time>2026-04-12T06:13:49.986Z</time></trkpt><trkpt lat="45.68362533022511" lon="8.719369246407418"><ele>281.0</ele><time>2026-04-12T06:13:51.986Z</time></trkpt><trkpt lat="45.683663765380956" lon="8.71926120119421"><ele>281.0</ele><time>2026-04-12T06:13:53.986Z</time></trkpt><trkpt lat="45.6837111322898" lon="8.71915827972011"><ele>281.1666666666667</ele><time>2026-04-12T06:13:55.986Z</time></trkpt><trkpt lat="45.68373956656437" lon="8.719028888782798"><ele>281.33333333333337</ele><time>2026-04-12T06:13:57.986Z</time></trkpt><trkpt lat="45.68377538421942" lon="8.718907904762519"><ele>281.5</ele><time>2026-04-12T06:13:59.986Z</time></trkpt><trkpt lat="45.6837907558647" lon="8.71881324356162"><ele>281.6666666666667</ele><time>2026-04-12T06:14:03.986Z</time></trkpt><trkpt lat="45.683857189135956" lon="8.71870509621188"><ele>281.8333333333333</ele><time>2026-04-12T06:14:06.986Z</time></trkpt><trkpt lat="45.68393165591948" lon="8.718622982753311"><ele>282.0</ele><time>2026-04-12T06:14:08.986Z</time></trkpt><trkpt lat="45.68397330327023" lon="8.718501734572264"><ele>282.0</ele><time>2026-04-12T06:14:10.986Z</time></trkpt><trkpt lat="45.68399688061784" lon="8.718366936937887"><ele>282.0</ele><time>2026-04-12T06:14:12.986Z</time></trkpt><trkpt lat="45.6840570224293" lon="8.718238056078302"><ele>282.0</ele><time>2026-04-12T06:14:14.986Z</time></trkpt><trkpt lat="45.684122633307084" lon="8.718115926451725"><ele>282.0</ele><time>2026-04-12T06:14:16.986Z</time></trkpt><trkpt lat="45.68418456423722" lon="8.717990142334402"><ele>282.0</ele><time>2026-04-12T06:14:18.986Z</time></trkpt><trkpt lat="45.68424369003432" lon="8.717868249316634"><ele>282.0</ele><time>2026-04-12T06:14:20.986Z</time></trkpt><trkpt lat="45.68430429087965" lon="8.717748078262948"><ele>282.0</ele><time>2026-04-12T06:14:22.986Z</time></trkpt><trkpt lat="45.6843621446331" lon="8.717633400091346"><ele>282.0</ele><time>2026-04-12T06:14:24.986Z</time></trkpt><trkpt lat="45.684419959478916" lon="8.717505963938187"><ele>282.0</ele><time>2026-04-12T06:14:26.986Z</time></trkpt><trkpt lat="45.684478121704316" lon="8.717374578116026"><ele>282.0</ele><time>2026-04-12T06:14:28.986Z</time></trkpt><trkpt lat="45.6845202849649" lon="8.717244298535194"><ele>282.6</ele><time>2026-04-12T06:14:30.986Z</time></trkpt><trkpt lat="45.68456677604345" lon="8.717114191380766"><ele>283.2</ele><time>2026-04-12T06:14:32.985Z</time></trkpt><trkpt lat="45.68460691103011" lon="8.716989321252672"><ele>283.8</ele><time>2026-04-12T06:14:34.985Z</time></trkpt><trkpt lat="45.68464839915901" lon="8.716871850135233"><ele>284.4</ele><time>2026-04-12T06:14:36.985Z</time></trkpt><trkpt lat="45.68469287853259" lon="8.716759012421143"><ele>285.0</ele><time>2026-04-12T06:14:38.985Z</time></trkpt><trkpt lat="45.68474152392429" lon="8.716686071122856"><ele>285.0</ele><time>2026-04-12T06:14:40.985Z</time></trkpt><trkpt lat="45.68480463647632" lon="8.716671126342957"><ele>285.0</ele><time>2026-04-12T06:14:42.985Z</time></trkpt><trkpt lat="45.684864451016765" lon="8.716700938653416"><ele>285.0</ele><time>2026-04-12T06:14:44.985Z</time></trkpt><trkpt lat="45.684938182028795" lon="8.716723686503045"><ele>285.0</ele><time>2026-04-12T06:14:46.985Z</time></trkpt><trkpt lat="45.68515064096293" lon="8.716669886017629"><ele>285.0</ele><time>2026-04-12T06:14:50.985Z</time></trkpt><trkpt lat="45.68524687684721" lon="8.716651847718305"><ele>285.2</ele><time>2026-04-12T06:14:52.985Z</time></trkpt><trkpt lat="45.685337221209906" lon="8.716618893353731"><ele>285.4</ele><time>2026-04-12T06:14:54.985Z</time></trkpt><trkpt lat="45.68542239892718" lon="8.71658233742251"><ele>285.6</ele><time>2026-04-12T06:14:56.985Z</time></trkpt><trkpt lat="45.685518866019294" lon="8.716536719383765"><ele>285.8</ele><time>2026-04-12T06:14:58.985Z</time></trkpt><trkpt lat="45.68561624695258" lon="8.716503535625568"><ele>286.0</ele><time>2026-04-12T06:15:00.985Z</time></trkpt><trkpt lat="45.6857093207775" lon="8.71647872488877"><ele>286.0</ele><time>2026-04-12T06:15:02.985Z</time></trkpt><trkpt lat="45.685803848167645" lon="8.716447317053548"><ele>286.0</ele><time>2026-04-12T06:15:04.985Z</time></trkpt><trkpt lat="45.685893365108136" lon="8.716418961929618"><ele>286.0</ele><time>2026-04-12T06:15:06.985Z</time></trkpt><trkpt lat="45.685958878189865" lon="8.716368822406636"><ele>286.0</ele><time>2026-04-12T06:15:08.985Z</time></trkpt><trkpt lat="45.686022658699954" lon="8.716353287820807"><ele>286.0</ele><time>2026-04-12T06:15:10.985Z</time></trkpt><trkpt lat="45.68610197568875" lon="8.716295045297361"><ele>286.0</ele><time>2026-04-12T06:15:13.985Z</time></trkpt><trkpt lat="45.68615415212331" lon="8.716242607346821"><ele>286.3333333333333</ele><time>2026-04-12T06:15:15.985Z</time></trkpt><trkpt lat="45.68623652103831" lon="8.716197083994944"><ele>286.66666666666663</ele><time>2026-04-12T06:15:17.985Z</time></trkpt><trkpt lat="45.686292375872696" lon="8.716149979863934"><ele>287.0</ele><time>2026-04-12T06:15:19.985Z</time></trkpt><trkpt lat="45.68634386247067" lon="8.716094027807035"><ele>287.3333333333333</ele><time>2026-04-12T06:15:21.985Z</time></trkpt><trkpt lat="45.6864246507959" lon="8.71604342273729"><ele>287.6666666666667</ele><time>2026-04-12T06:15:24.985Z</time></trkpt><trkpt lat="45.68650860646457" lon="8.71604689726721"><ele>288.0</ele><time>2026-04-12T06:15:27.985Z</time></trkpt><trkpt lat="45.68655177969868" lon="8.716150464962391"><ele>288.42857142857144</ele><time>2026-04-12T06:15:30.985Z</time></trkpt><trkpt lat="45.68656034164837" lon="8.716265314115697"><ele>288.8571428571429</ele><time>2026-04-12T06:15:32.985Z</time></trkpt><trkpt lat="45.68658862168732" lon="8.71635270381727"><ele>289.2857142857143</ele><time>2026-04-12T06:15:34.984Z</time></trkpt><trkpt lat="45.68662703208899" lon="8.716425210664873"><ele>289.7142857142857</ele><time>2026-04-12T06:15:36.984Z</time></trkpt><trkpt lat="45.68669787098044" lon="8.716515138494522"><ele>290.1428571428571</ele><time>2026-04-12T06:15:39.984Z</time></trkpt><trkpt lat="45.68675021396051" lon="8.716590760146127"><ele>290.57142857142856</ele><time>2026-04-12T06:15:41.984Z</time></trkpt><trkpt lat="45.68679512977682" lon="8.716662730741065"><ele>291.0</ele><time>2026-04-12T06:15:43.984Z</time></trkpt><trkpt lat="45.686861225651214" lon="8.716730244127673"><ele>291.6</ele><time>2026-04-12T06:15:46.984Z</time></trkpt><trkpt lat="45.68694224103341" lon="8.716719620694244"><ele>292.20000000000005</ele><time>2026-04-12T06:15:48.984Z</time></trkpt><trkpt lat="45.687006858349605" lon="8.716747191443584"><ele>292.79999999999995</ele><time>2026-04-12T06:15:50.984Z</time></trkpt><trkpt lat="45.6870824261692" lon="8.716764320047119"><ele>293.4</ele><time>2026-04-12T06:15:53.984Z</time></trkpt><trkpt lat="45.687258178391616" lon="8.716785711871294"><ele>294.0</ele><time>2026-04-12T06:16:00.984Z</time></trkpt><trkpt lat="45.68731645098956" lon="8.716825963854093"><ele>294.0</ele><time>2026-04-12T06:16:03.984Z</time></trkpt><trkpt lat="45.6874304446351" lon="8.716856173516891"><ele>294.0</ele><time>2026-04-12T06:16:07.984Z</time></trkpt><trkpt lat="45.687507693374684" lon="8.716894718162223"><ele>294.0</ele><time>2026-04-12T06:16:10.984Z</time></trkpt><trkpt lat="45.68761010099739" lon="8.716917504278854"><ele>294.0</ele><time>2026-04-12T06:16:13.984Z</time></trkpt><trkpt lat="45.68761394251754" lon="8.71702107931736"><ele>294.0</ele><time>2026-04-12T06:16:14.984Z</time></trkpt><trkpt lat="45.6876206343488" lon="8.717121275691914"><ele>294.0</ele><time>2026-04-12T06:16:15.984Z</time></trkpt><trkpt lat="45.68763952960731" lon="8.717229648813074"><ele>294.0</ele><time>2026-04-12T06:16:16.984Z</time></trkpt><trkpt lat="45.687662137377345" lon="8.71738764376066"><ele>294.0</ele><time>2026-04-12T06:16:18.984Z</time></trkpt><trkpt lat="45.68766648605346" lon="8.717549065323418"><ele>294.0</ele><time>2026-04-12T06:16:20.984Z</time></trkpt><trkpt lat="45.6876701361604" lon="8.717687379300486"><ele>294.0</ele><time>2026-04-12T06:16:22.984Z</time></trkpt><trkpt lat="45.687704976620196" lon="8.71782115392704"><ele>294.0</ele><time>2026-04-12T06:16:24.984Z</time></trkpt><trkpt lat="45.68770954466639" lon="8.717999730823214"><ele>294.0</ele><time>2026-04-12T06:16:26.984Z</time></trkpt><trkpt lat="45.687721308732996" lon="8.71810616919042"><ele>294.0</ele><time>2026-04-12T06:16:27.984Z</time></trkpt><trkpt lat="45.68775373599393" lon="8.718200422602125"><ele>294.0</ele><time>2026-04-12T06:16:28.984Z</time></trkpt><trkpt lat="45.68779071740139" lon="8.718289667935181"><ele>294.0</ele><time>2026-04-12T06:16:29.984Z</time></trkpt><trkpt lat="45.68782223516176" lon="8.718379838148111"><ele>294.0</ele><time>2026-04-12T06:16:30.984Z</time></trkpt><trkpt lat="45.68786440855589" lon="8.718479805685583"><ele>294.0</ele><time>2026-04-12T06:16:31.984Z</time></trkpt><trkpt lat="45.687887344534396" lon="8.718568969341396"><ele>294.0</ele><time>2026-04-12T06:16:32.984Z</time></trkpt><trkpt lat="45.68794029620729" lon="8.718719118423166"><ele>292.8</ele><time>2026-04-12T06:16:34.983Z</time></trkpt><trkpt lat="45.687976977505016" lon="8.718845701115768"><ele>291.59999999999997</ele><time>2026-04-12T06:16:36.983Z</time></trkpt><trkpt lat="45.68800409855372" lon="8.718975021351346"><ele>290.4</ele><time>2026-04-12T06:16:38.983Z</time></trkpt><trkpt lat="45.688029833419385" lon="8.719084292216886"><ele>289.2</ele><time>2026-04-12T06:16:40.983Z</time></trkpt><trkpt lat="45.68807719172896" lon="8.71921436649658"><ele>288.0</ele><time>2026-04-12T06:16:42.983Z</time></trkpt><trkpt lat="45.68811908938097" lon="8.719333981524239"><ele>288.1666666666667</ele><time>2026-04-12T06:16:44.983Z</time></trkpt><trkpt lat="45.68815904961894" lon="8.719447929823374"><ele>288.3333333333333</ele><time>2026-04-12T06:16:46.983Z</time></trkpt><trkpt lat="45.68820591611337" lon="8.719548035077208"><ele>288.5</ele><time>2026-04-12T06:16:48.983Z</time></trkpt><trkpt lat="45.68824222960527" lon="8.719665392445293"><ele>288.66666666666663</ele><time>2026-04-12T06:16:50.983Z</time></trkpt><trkpt lat="45.688317544943644" lon="8.719715067199827"><ele>288.8333333333333</ele><time>2026-04-12T06:16:52.983Z</time></trkpt><trkpt lat="45.688398291225006" lon="8.719724490634624"><ele>289.0</ele><time>2026-04-12T06:16:54.983Z</time></trkpt><trkpt lat="45.68846527915732" lon="8.719731336531058"><ele>289.0</ele><time>2026-04-12T06:16:56.983Z</time></trkpt><trkpt lat="45.68855535930025" lon="8.719753613006706"><ele>289.0</ele><time>2026-04-12T06:16:59.983Z</time></trkpt><trkpt lat="45.68862008317508" lon="8.719780059313951"><ele>289.0</ele><time>2026-04-12T06:17:01.983Z</time></trkpt><trkpt lat="45.6886681950509" lon="8.719905201836635"><ele>289.0</ele><time>2026-04-12T06:17:04.983Z</time></trkpt><trkpt lat="45.68870380722486" lon="8.720034145892546"><ele>289.0</ele><time>2026-04-12T06:17:06.983Z</time></trkpt><trkpt lat="45.68873042816759" lon="8.720152776496898"><ele>289.0</ele><time>2026-04-12T06:17:08.983Z</time></trkpt><trkpt lat="45.68875796385386" lon="8.720248607315023"><ele>290.3333333333333</ele><time>2026-04-12T06:17:10.983Z</time></trkpt><trkpt lat="45.688789274232406" lon="8.720345728024997"><ele>291.66666666666663</ele><time>2026-04-12T06:17:12.983Z</time></trkpt><trkpt lat="45.68882380442355" lon="8.72047672613978"><ele>293.0</ele><time>2026-04-12T06:17:14.983Z</time></trkpt><trkpt lat="45.688873041573316" lon="8.720584476049074"><ele>294.3333333333333</ele><time>2026-04-12T06:17:16.983Z</time></trkpt><trkpt lat="45.68894504554132" lon="8.720674671844673"><ele>295.6666666666667</ele><time>2026-04-12T06:17:18.983Z</time></trkpt><trkpt lat="45.68899261522808" lon="8.720767838140926"><ele>297.0</ele><time>2026-04-12T06:17:20.983Z</time></trkpt><trkpt lat="45.68902467901258" lon="8.720866076739542"><ele>297.0</ele><time>2026-04-12T06:17:22.983Z</time></trkpt><trkpt lat="45.68904473783127" lon="8.720976977509991"><ele>297.0</ele><time>2026-04-12T06:17:24.983Z</time></trkpt><trkpt lat="45.68907065483923" lon="8.721072211510679"><ele>297.0</ele><time>2026-04-12T06:17:26.983Z</time></trkpt><trkpt lat="45.689085090362695" lon="8.7211807555587"><ele>297.0</ele><time>2026-04-12T06:17:28.983Z</time></trkpt><trkpt lat="45.68910136240522" lon="8.721314373471316"><ele>297.0</ele><time>2026-04-12T06:17:30.983Z</time></trkpt><trkpt lat="45.689126948117305" lon="8.72142795613877"><ele>297.0</ele><time>2026-04-12T06:17:32.983Z</time></trkpt><trkpt lat="45.68915897090117" lon="8.721551514724146"><ele>296.2</ele><time>2026-04-12T06:17:34.982Z</time></trkpt><trkpt lat="45.68918545214772" lon="8.72166230908213"><ele>295.4</ele><time>2026-04-12T06:17:36.982Z</time></trkpt><trkpt lat="45.689211086148205" lon="8.721783826319012"><ele>294.6</ele><time>2026-04-12T06:17:38.982Z</time></trkpt><trkpt lat="45.689240851147694" lon="8.721919241778163"><ele>293.8</ele><time>2026-04-12T06:17:40.982Z</time></trkpt><trkpt lat="45.68927266096047" lon="8.722037984364803"><ele>293.0</ele><time>2026-04-12T06:17:42.982Z</time></trkpt><trkpt lat="45.6893062330143" lon="8.722165087848502"><ele>293.0</ele><time>2026-04-12T06:17:44.982Z</time></trkpt><trkpt lat="45.68933377416341" lon="8.722278657063766"><ele>293.0</ele><time>2026-04-12T06:17:47.982Z</time></trkpt><trkpt lat="45.689362563109015" lon="8.722371285327"><ele>293.0</ele><time>2026-04-12T06:17:50.982Z</time></trkpt><trkpt lat="45.6893879395903" lon="8.722514141179323"><ele>293.0</ele><time>2026-04-12T06:17:53.982Z</time></trkpt><trkpt lat="45.68941271817104" lon="8.72263548146774"><ele>293.0</ele><time>2026-04-12T06:17:55.982Z</time></trkpt><trkpt lat="45.6894291016463" lon="8.722764565627074"><ele>293.0</ele><time>2026-04-12T06:17:57.982Z</time></trkpt><trkpt lat="45.68943822036703" lon="8.722871985691457"><ele>293.2</ele><time>2026-04-12T06:17:59.982Z</time></trkpt><trkpt lat="45.68945039296873" lon="8.722991433292034"><ele>293.4</ele><time>2026-04-12T06:18:01.982Z</time></trkpt><trkpt lat="45.68942384173929" lon="8.723105830138"><ele>293.59999999999997</ele><time>2026-04-12T06:18:03.982Z</time></trkpt><trkpt lat="45.68937975212706" lon="8.72323200539984"><ele>293.8</ele><time>2026-04-12T06:18:05.982Z</time></trkpt><trkpt lat="45.68931388369634" lon="8.723318107675894"><ele>294.0</ele><time>2026-04-12T06:18:07.982Z</time></trkpt><trkpt lat="45.68919427299381" lon="8.723346384542483"><ele>294.0</ele><time>2026-04-12T06:18:09.982Z</time></trkpt><trkpt lat="45.68909185630399" lon="8.723376458563223"><ele>294.0</ele><time>2026-04-12T06:18:11.982Z</time></trkpt><trkpt lat="45.689001144615325" lon="8.723451224623268"><ele>294.0</ele><time>2026-04-12T06:18:13.982Z</time></trkpt><trkpt lat="45.68894761488976" lon="8.723574388423087"><ele>294.0</ele><time>2026-04-12T06:18:15.982Z</time></trkpt><trkpt lat="45.68896030230892" lon="8.723711443562298"><ele>294.0</ele><time>2026-04-12T06:18:17.982Z</time></trkpt><trkpt lat="45.688981140614565" lon="8.723854467606888"><ele>294.0</ele><time>2026-04-12T06:18:19.982Z</time></trkpt><trkpt lat="45.688965463329104" lon="8.724024217345196"><ele>294.0</ele><time>2026-04-12T06:18:21.982Z</time></trkpt><trkpt lat="45.68895950427011" lon="8.724182755158724"><ele>294.0</ele><time>2026-04-12T06:18:23.982Z</time></trkpt><trkpt lat="45.688957447568974" lon="8.72434190056988"><ele>294.0</ele><time>2026-04-12T06:18:25.982Z</time></trkpt><trkpt lat="45.68895805454002" lon="8.72448456964589"><ele>294.0</ele><time>2026-04-12T06:18:27.982Z</time></trkpt><trkpt lat="45.688981189443155" lon="8.724623910096852"><ele>295.5</ele><time>2026-04-12T06:18:30.982Z</time></trkpt><trkpt lat="45.688992887124535" lon="8.724749968402218"><ele>297.0</ele><time>2026-04-12T06:18:32.982Z</time></trkpt><trkpt lat="45.689019789539756" lon="8.724854185507708"><ele>298.5</ele><time>2026-04-12T06:18:34.981Z</time></trkpt><trkpt lat="45.68902422163632" lon="8.724958300087684"><ele>300.0</ele><time>2026-04-12T06:18:36.981Z</time></trkpt><trkpt lat="45.689023098545164" lon="8.725062595362653"><ele>301.5</ele><time>2026-04-12T06:18:38.981Z</time></trkpt><trkpt lat="45.6890286847367" lon="8.725157124060779"><ele>303.0</ele><time>2026-04-12T06:18:40.981Z</time></trkpt><trkpt lat="45.68904814151869" lon="8.725260796822168"><ele>303.57142857142856</ele><time>2026-04-12T06:18:43.981Z</time></trkpt><trkpt lat="45.6890535326851" lon="8.725350671064964"><ele>304.1428571428571</ele><time>2026-04-12T06:18:47.981Z</time></trkpt><trkpt lat="45.68908466949561" lon="8.725456784333277"><ele>304.71428571428567</ele><time>2026-04-12T06:18:50.981Z</time></trkpt><trkpt lat="45.68910521825412" lon="8.72556684786154"><ele>305.2857142857143</ele><time>2026-04-12T06:18:52.981Z</time></trkpt><trkpt lat="45.68911726195125" lon="8.725669402629546"><ele>305.85714285714283</ele><time>2026-04-12T06:18:54.981Z</time></trkpt><trkpt lat="45.6891208003142" lon="8.725762273260257"><ele>306.4285714285714</ele><time>2026-04-12T06:18:56.981Z</time></trkpt><trkpt lat="45.689147164939385" lon="8.725873029336773"><ele>307.0</ele><time>2026-04-12T06:18:58.981Z</time></trkpt><trkpt lat="45.68911461984734" lon="8.72598905309786"><ele>307.0</ele><time>2026-04-12T06:19:00.981Z</time></trkpt><trkpt lat="45.68905286372584" lon="8.726049056514153"><ele>307.0</ele><time>2026-04-12T06:19:01.981Z</time></trkpt><trkpt lat="45.68899474819642" lon="8.726173241972868"><ele>307.0</ele><time>2026-04-12T06:19:03.981Z</time></trkpt><trkpt lat="45.688936563242734" lon="8.726309750999413"><ele>307.0</ele><time>2026-04-12T06:19:05.981Z</time></trkpt><trkpt lat="45.68891601997764" lon="8.726462703900863"><ele>307.0</ele><time>2026-04-12T06:19:07.981Z</time></trkpt><trkpt lat="45.688934241636005" lon="8.726607652692866"><ele>306.0</ele><time>2026-04-12T06:19:09.981Z</time></trkpt><trkpt lat="45.688974252185325" lon="8.726713710997062"><ele>305.0</ele><time>2026-04-12T06:19:11.981Z</time></trkpt><trkpt lat="45.68903058652381" lon="8.72681914756113"><ele>304.0</ele><time>2026-04-12T06:19:13.981Z</time></trkpt><trkpt lat="45.68910004641364" lon="8.726921679831205"><ele>303.0</ele><time>2026-04-12T06:19:15.981Z</time></trkpt><trkpt lat="45.689165492619374" lon="8.727024803819644"><ele>302.0</ele><time>2026-04-12T06:19:17.981Z</time></trkpt><trkpt lat="45.68921992395347" lon="8.727112252566336"><ele>302.0</ele><time>2026-04-12T06:19:19.981Z</time></trkpt><trkpt lat="45.68927275935751" lon="8.72721639311274"><ele>302.0</ele><time>2026-04-12T06:19:21.981Z</time></trkpt><trkpt lat="45.689305161943885" lon="8.727316768668754"><ele>302.0</ele><time>2026-04-12T06:19:23.981Z</time></trkpt><trkpt lat="45.689334060049596" lon="8.727419808543466"><ele>302.0</ele><time>2026-04-12T06:19:25.981Z</time></trkpt><trkpt lat="45.689373144960534" lon="8.727502327044034"><ele>302.0</ele><time>2026-04-12T06:19:29.981Z</time></trkpt><trkpt lat="45.68940231241059" lon="8.727608103942423"><ele>302.0</ele><time>2026-04-12T06:19:32.981Z</time></trkpt><trkpt lat="45.68942333851136" lon="8.727728495474924"><ele>301.7142857142857</ele><time>2026-04-12T06:19:35.98Z</time></trkpt><trkpt lat="45.68946262897225" lon="8.727807181393825"><ele>301.42857142857144</ele><time>2026-04-12T06:19:38.997Z</time></trkpt><trkpt lat="45.68952931559194" lon="8.727886003743569"><ele>301.1428571428571</ele><time>2026-04-12T06:19:41.997Z</time></trkpt><trkpt lat="45.68957913109888" lon="8.727951419867924"><ele>300.8571428571429</ele><time>2026-04-12T06:19:43.997Z</time></trkpt><trkpt lat="45.68965834893238" lon="8.728023410283912"><ele>300.57142857142856</ele><time>2026-04-12T06:19:46.997Z</time></trkpt><trkpt lat="45.689699681847486" lon="8.728098152164018"><ele>300.2857142857143</ele><time>2026-04-12T06:19:48.997Z</time></trkpt><trkpt lat="45.68971771065762" lon="8.72818614334787"><ele>300.0</ele><time>2026-04-12T06:19:50.997Z</time></trkpt><trkpt lat="45.689724660556095" lon="8.728354624756822"><ele>300.0</ele><time>2026-04-12T06:19:52.997Z</time></trkpt><trkpt lat="45.6896893250281" lon="8.72850672273338"><ele>300.0</ele><time>2026-04-12T06:19:54.997Z</time></trkpt><trkpt lat="45.68967381827928" lon="8.7286488680572"><ele>300.0</ele><time>2026-04-12T06:19:56.997Z</time></trkpt><trkpt lat="45.689660446059754" lon="8.728784518764245"><ele>300.0</ele><time>2026-04-12T06:19:58.997Z</time></trkpt><trkpt lat="45.689654961567626" lon="8.728922688022847"><ele>300.0</ele><time>2026-04-12T06:20:00.997Z</time></trkpt><trkpt lat="45.68964567155759" lon="8.72905008655246"><ele>300.0</ele><time>2026-04-12T06:20:02.997Z</time></trkpt><trkpt lat="45.68962948729039" lon="8.729185950884592"><ele>300.0</ele><time>2026-04-12T06:20:04.997Z</time></trkpt><trkpt lat="45.689632021942785" lon="8.72930997137761"><ele>300.0</ele><time>2026-04-12T06:20:06.997Z</time></trkpt><trkpt lat="45.68961802026411" lon="8.729430895552236"><ele>300.0</ele><time>2026-04-12T06:20:08.997Z</time></trkpt><trkpt lat="45.68958773821034" lon="8.729548904183332"><ele>300.0</ele><time>2026-04-12T06:20:10.997Z</time></trkpt><trkpt lat="45.689571021143536" lon="8.729697122997525"><ele>299.5</ele><time>2026-04-12T06:20:12.997Z</time></trkpt><trkpt lat="45.689575780963246" lon="8.729856981795658"><ele>299.0</ele><time>2026-04-12T06:20:14.997Z</time></trkpt><trkpt lat="45.68956584957495" lon="8.730035777078594"><ele>298.5</ele><time>2026-04-12T06:20:16.997Z</time></trkpt><trkpt lat="45.68958705908833" lon="8.730204832152198"><ele>298.0</ele><time>2026-04-12T06:20:18.997Z</time></trkpt><trkpt lat="45.68960354399466" lon="8.730354560694146"><ele>298.0</ele><time>2026-04-12T06:20:20.997Z</time></trkpt><trkpt lat="45.68963782177755" lon="8.730513497338778"><ele>298.0</ele><time>2026-04-12T06:20:22.998Z</time></trkpt><trkpt lat="45.68966239610362" lon="8.730629112469849"><ele>298.0</ele><time>2026-04-12T06:20:24.998Z</time></trkpt><trkpt lat="45.68969697633972" lon="8.730709346292107"><ele>298.0</ele><time>2026-04-12T06:20:26.998Z</time></trkpt><trkpt lat="45.689716831674104" lon="8.730832794561646"><ele>298.0</ele><time>2026-04-12T06:20:29.998Z</time></trkpt><trkpt lat="45.689699560034526" lon="8.730953726439827"><ele>298.0</ele><time>2026-04-12T06:20:32.998Z</time></trkpt><trkpt lat="45.68962242189417" lon="8.731000765072146"><ele>298.0</ele><time>2026-04-12T06:20:34.998Z</time></trkpt><trkpt lat="45.689549463263056" lon="8.731066418650029"><ele>298.0</ele><time>2026-04-12T06:20:36.998Z</time></trkpt><trkpt lat="45.689454010887516" lon="8.731116264352263"><ele>298.0</ele><time>2026-04-12T06:20:38.998Z</time></trkpt><trkpt lat="45.68936388693243" lon="8.731190637086991"><ele>298.0</ele><time>2026-04-12T06:20:40.998Z</time></trkpt><trkpt lat="45.68928770193314" lon="8.731255790967806"><ele>298.0</ele><time>2026-04-12T06:20:42.998Z</time></trkpt><trkpt lat="45.689180343224415" lon="8.731351804887812"><ele>298.0</ele><time>2026-04-12T06:20:44.998Z</time></trkpt><trkpt lat="45.68912752487423" lon="8.731407213020846"><ele>298.0</ele><time>2026-04-12T06:20:45.998Z</time></trkpt><trkpt lat="45.689045356362364" lon="8.731461961050854"><ele>298.0</ele><time>2026-04-12T06:20:47.998Z</time></trkpt><trkpt lat="45.6889472759058" lon="8.73148659455632"><ele>298.0</ele><time>2026-04-12T06:20:49.997Z</time></trkpt><trkpt lat="45.68883679891037" lon="8.73149392223069"><ele>298.0</ele><time>2026-04-12T06:20:51.997Z</time></trkpt><trkpt lat="45.68874554739405" lon="8.73152484290419"><ele>298.0</ele><time>2026-04-12T06:20:53.997Z</time></trkpt><trkpt lat="45.68864120962505" lon="8.731539638438305"><ele>298.0</ele><time>2026-04-12T06:20:55.997Z</time></trkpt><trkpt lat="45.68853498023536" lon="8.73154141803805"><ele>298.0</ele><time>2026-04-12T06:20:57.997Z</time></trkpt><trkpt lat="45.688434198737795" lon="8.731542157380371"><ele>298.0</ele><time>2026-04-12T06:20:59.997Z</time></trkpt><trkpt lat="45.68830521266107" lon="8.731504253259404"><ele>298.0</ele><time>2026-04-12T06:21:01.997Z</time></trkpt><trkpt lat="45.688197204573385" lon="8.731495629460241"><ele>297.4</ele><time>2026-04-12T06:21:03.997Z</time></trkpt><trkpt lat="45.688103673495434" lon="8.731530497151072"><ele>296.8</ele><time>2026-04-12T06:21:05.997Z</time></trkpt><trkpt lat="45.688042906677154" lon="8.731560742537772"><ele>296.2</ele><time>2026-04-12T06:21:06.997Z</time></trkpt><trkpt lat="45.68794330505845" lon="8.731618042656901"><ele>295.6</ele><time>2026-04-12T06:21:08.997Z</time></trkpt><trkpt lat="45.687815778580855" lon="8.731686701115118"><ele>295.0</ele><time>2026-04-12T06:21:10.997Z</time></trkpt><trkpt lat="45.68774918009148" lon="8.731714585762186"><ele>294.66666666666663</ele><time>2026-04-12T06:21:11.997Z</time></trkpt><trkpt lat="45.687688502301704" lon="8.731747435364184"><ele>294.3333333333333</ele><time>2026-04-12T06:21:12.997Z</time></trkpt><trkpt lat="45.68757175637339" lon="8.731788437205449"><ele>294.0</ele><time>2026-04-12T06:21:14.997Z</time></trkpt><trkpt lat="45.68750322470462" lon="8.731818019995648"><ele>293.6666666666667</ele><time>2026-04-12T06:21:15.997Z</time></trkpt><trkpt lat="45.6874223303697" lon="8.7318288073149"><ele>293.33333333333337</ele><time>2026-04-12T06:21:16.997Z</time></trkpt><trkpt lat="45.68735914663764" lon="8.731847368682622"><ele>293.0</ele><time>2026-04-12T06:21:17.997Z</time></trkpt><trkpt lat="45.68724733042887" lon="8.731918402297758"><ele>292.83333333333337</ele><time>2026-04-12T06:21:19.997Z</time></trkpt><trkpt lat="45.687187434286415" lon="8.731953573352177"><ele>292.6666666666667</ele><time>2026-04-12T06:21:20.997Z</time></trkpt><trkpt lat="45.68712288401718" lon="8.73196441572272"><ele>292.5</ele><time>2026-04-12T06:21:21.997Z</time></trkpt><trkpt lat="45.6870496654128" lon="8.731995094757828"><ele>292.3333333333333</ele><time>2026-04-12T06:21:22.997Z</time></trkpt><trkpt lat="45.686985814257746" lon="8.732024428637539"><ele>292.16666666666663</ele><time>2026-04-12T06:21:23.997Z</time></trkpt><trkpt lat="45.68692140905755" lon="8.732055734104296"><ele>292.0</ele><time>2026-04-12T06:21:24.997Z</time></trkpt><trkpt lat="45.686800291801504" lon="8.732121733343869"><ele>291.8</ele><time>2026-04-12T06:21:26.997Z</time></trkpt><trkpt lat="45.68673833131328" lon="8.73216738346089"><ele>291.6</ele><time>2026-04-12T06:21:27.997Z</time></trkpt><trkpt lat="45.686631259981375" lon="8.732226013824851"><ele>291.40000000000003</ele><time>2026-04-12T06:21:29.997Z</time></trkpt><trkpt lat="45.686511338237814" lon="8.732284447626874"><ele>291.2</ele><time>2026-04-12T06:21:31.997Z</time></trkpt><trkpt lat="45.686455919361684" lon="8.732328321189073"><ele>291.0</ele><time>2026-04-12T06:21:32.997Z</time></trkpt><trkpt lat="45.68634326984652" lon="8.732381273559337"><ele>291.0</ele><time>2026-04-12T06:21:34.997Z</time></trkpt><trkpt lat="45.68627860253089" lon="8.732410033458287"><ele>291.0</ele><time>2026-04-12T06:21:35.997Z</time></trkpt><trkpt lat="45.68617903407965" lon="8.732474922151729"><ele>291.0</ele><time>2026-04-12T06:21:37.997Z</time></trkpt><trkpt lat="45.686082740438486" lon="8.73253078671599"><ele>291.0</ele><time>2026-04-12T06:21:39.997Z</time></trkpt><trkpt lat="45.68597004149639" lon="8.732603846073296"><ele>291.0</ele><time>2026-04-12T06:21:41.997Z</time></trkpt><trkpt lat="45.68584985702364" lon="8.732675772366182"><ele>290.85714285714283</ele><time>2026-04-12T06:21:43.997Z</time></trkpt><trkpt lat="45.685784112353254" lon="8.73270665933823"><ele>290.71428571428567</ele><time>2026-04-12T06:21:44.997Z</time></trkpt><trkpt lat="45.68572485423652" lon="8.73274003764631"><ele>290.57142857142856</ele><time>2026-04-12T06:21:45.997Z</time></trkpt><trkpt lat="45.68566477146445" lon="8.73277803170682"><ele>290.42857142857144</ele><time>2026-04-12T06:21:46.997Z</time></trkpt><trkpt lat="45.685602884895104" lon="8.732807192998388"><ele>290.28571428571433</ele><time>2026-04-12T06:21:47.997Z</time></trkpt><trkpt lat="45.68553863585003" lon="8.732833904237683"><ele>290.14285714285717</ele><time>2026-04-12T06:21:48.996Z</time></trkpt><trkpt lat="45.68547461905569" lon="8.732846142903153"><ele>290.0</ele><time>2026-04-12T06:21:49.996Z</time></trkpt><trkpt lat="45.685405286748015" lon="8.73287259132685"><ele>289.8571428571429</ele><time>2026-04-12T06:21:50.996Z</time></trkpt><trkpt lat="45.68534319791695" lon="8.732914360312257"><ele>289.7142857142857</ele><time>2026-04-12T06:21:51.996Z</time></trkpt><trkpt lat="45.68528443293778" lon="8.732952384097263"><ele>289.57142857142856</ele><time>2026-04-12T06:21:52.996Z</time></trkpt><trkpt lat="45.68522128338069" lon="8.73298422190979"><ele>289.42857142857144</ele><time>2026-04-12T06:21:53.996Z</time></trkpt><trkpt lat="45.68516040125564" lon="8.73302033748748"><ele>289.2857142857143</ele><time>2026-04-12T06:21:54.996Z</time></trkpt><trkpt lat="45.685093290214816" lon="8.733053660244579"><ele>289.14285714285717</ele><time>2026-04-12T06:21:55.996Z</time></trkpt><trkpt lat="45.685026056112285" lon="8.733081436330588"><ele>289.0</ele><time>2026-04-12T06:21:56.996Z</time></trkpt><trkpt lat="45.68496132700176" lon="8.733119462312787"><ele>289.0</ele><time>2026-04-12T06:21:57.996Z</time></trkpt><trkpt lat="45.68490028898694" lon="8.733154338914153"><ele>289.0</ele><time>2026-04-12T06:21:58.996Z</time></trkpt><trkpt lat="45.68483957967282" lon="8.7331887232402"><ele>289.0</ele><time>2026-04-12T06:21:59.996Z</time></trkpt><trkpt lat="45.68477370477884" lon="8.73322200950272"><ele>289.0</ele><time>2026-04-12T06:22:00.996Z</time></trkpt><trkpt lat="45.684713775882955" lon="8.73325597429146"><ele>289.0</ele><time>2026-04-12T06:22:01.996Z</time></trkpt><trkpt lat="45.684651104620485" lon="8.733288522644836"><ele>289.0</ele><time>2026-04-12T06:22:02.996Z</time></trkpt><trkpt lat="45.6845941765584" lon="8.733329876941161"><ele>289.0</ele><time>2026-04-12T06:22:03.996Z</time></trkpt><trkpt lat="45.68453222206739" lon="8.733367722009547"><ele>289.0</ele><time>2026-04-12T06:22:04.996Z</time></trkpt><trkpt lat="45.684469808607425" lon="8.733403175881815"><ele>289.0</ele><time>2026-04-12T06:22:05.996Z</time></trkpt><trkpt lat="45.684349203635186" lon="8.733467624269624"><ele>289.0</ele><time>2026-04-12T06:22:07.996Z</time></trkpt><trkpt lat="45.684236774757125" lon="8.733524813153924"><ele>289.0</ele><time>2026-04-12T06:22:09.996Z</time></trkpt><trkpt lat="45.68412300814649" lon="8.733581357343304"><ele>289.0</ele><time>2026-04-12T06:22:11.996Z</time></trkpt><trkpt lat="45.68400814490361" lon="8.733638945853453"><ele>288.5</ele><time>2026-04-12T06:22:13.996Z</time></trkpt><trkpt lat="45.683887104444736" lon="8.733685506317212"><ele>288.0</ele><time>2026-04-12T06:22:15.996Z</time></trkpt><trkpt lat="45.68377086511474" lon="8.733763458140366"><ele>287.5</ele><time>2026-04-12T06:22:17.996Z</time></trkpt><trkpt lat="45.683667563562715" lon="8.733851373415778"><ele>287.0</ele><time>2026-04-12T06:22:19.996Z</time></trkpt><trkpt lat="45.6835527387522" lon="8.733917323030552"><ele>287.0</ele><time>2026-04-12T06:22:21.996Z</time></trkpt><trkpt lat="45.68349589318054" lon="8.733961747107202"><ele>287.0</ele><time>2026-04-12T06:22:22.996Z</time></trkpt><trkpt lat="45.683433072789754" lon="8.733995090917325"><ele>287.0</ele><time>2026-04-12T06:22:23.996Z</time></trkpt><trkpt lat="45.68332280633677" lon="8.734064571258473"><ele>287.0</ele><time>2026-04-12T06:22:25.996Z</time></trkpt><trkpt lat="45.683214045856694" lon="8.734137257877306"><ele>287.0</ele><time>2026-04-12T06:22:27.996Z</time></trkpt><trkpt lat="45.68311922796453" lon="8.734246643286589"><ele>287.0</ele><time>2026-04-12T06:22:29.998Z</time></trkpt><trkpt lat="45.68306193397636" lon="8.734308867958324"><ele>287.0</ele><time>2026-04-12T06:22:30.998Z</time></trkpt><trkpt lat="45.682977185324376" lon="8.734445246840885"><ele>287.0</ele><time>2026-04-12T06:22:32.998Z</time></trkpt><trkpt lat="45.68290890546113" lon="8.734591193826281"><ele>287.0</ele><time>2026-04-12T06:22:34.997Z</time></trkpt><trkpt lat="45.68285286980534" lon="8.734736178852367"><ele>287.0</ele><time>2026-04-12T06:22:36.997Z</time></trkpt><trkpt lat="45.68280562275345" lon="8.73487922800544"><ele>287.0</ele><time>2026-04-12T06:22:38.997Z</time></trkpt><trkpt lat="45.68277245502857" lon="8.73495817698777"><ele>287.0</ele><time>2026-04-12T06:22:39.997Z</time></trkpt><trkpt lat="45.68270402362954" lon="8.735109288779855"><ele>287.0</ele><time>2026-04-12T06:22:41.998Z</time></trkpt><trkpt lat="45.68266891893959" lon="8.735191088332295"><ele>287.0</ele><time>2026-04-12T06:22:42.998Z</time></trkpt><trkpt lat="45.682632482275686" lon="8.735272669861564"><ele>287.0</ele><time>2026-04-12T06:22:43.998Z</time></trkpt><trkpt lat="45.682602017928936" lon="8.735352434987457"><ele>287.0</ele><time>2026-04-12T06:22:44.998Z</time></trkpt><trkpt lat="45.682564604143835" lon="8.735430593531818"><ele>287.0</ele><time>2026-04-12T06:22:45.998Z</time></trkpt><trkpt lat="45.682529089927115" lon="8.735508292605838"><ele>287.0</ele><time>2026-04-12T06:22:46.998Z</time></trkpt><trkpt lat="45.682477522282525" lon="8.735643448215766"><ele>287.0</ele><time>2026-04-12T06:22:48.998Z</time></trkpt><trkpt lat="45.68243085932454" lon="8.735724905188647"><ele>287.0</ele><time>2026-04-12T06:22:49.998Z</time></trkpt><trkpt lat="45.682375606323696" lon="8.735867181624466"><ele>287.0</ele><time>2026-04-12T06:22:51.998Z</time></trkpt><trkpt lat="45.68229833445144" lon="8.736013290757391"><ele>287.1666666666667</ele><time>2026-04-12T06:22:53.998Z</time></trkpt><trkpt lat="45.682259530669675" lon="8.73609430469492"><ele>287.33333333333337</ele><time>2026-04-12T06:22:54.998Z</time></trkpt><trkpt lat="45.682216698230356" lon="8.736165647308756"><ele>287.5</ele><time>2026-04-12T06:22:55.998Z</time></trkpt><trkpt lat="45.68213907114855" lon="8.736295195250745"><ele>287.6666666666667</ele><time>2026-04-12T06:22:57.998Z</time></trkpt><trkpt lat="45.68208842308151" lon="8.736350330582516"><ele>287.8333333333333</ele><time>2026-04-12T06:22:58.998Z</time></trkpt><trkpt lat="45.68203511750368" lon="8.736404862257082"><ele>288.0</ele><time>2026-04-12T06:22:59.998Z</time></trkpt><trkpt lat="45.68192445321656" lon="8.736519707476996"><ele>287.4</ele><time>2026-04-12T06:23:01.998Z</time></trkpt><trkpt lat="45.681869698958565" lon="8.736573158225266"><ele>286.8</ele><time>2026-04-12T06:23:02.998Z</time></trkpt><trkpt lat="45.68177435608361" lon="8.7366764219977"><ele>286.2</ele><time>2026-04-12T06:23:04.997Z</time></trkpt><trkpt lat="45.68168826735531" lon="8.736772254017943"><ele>285.6</ele><time>2026-04-12T06:23:06.997Z</time></trkpt><trkpt lat="45.68160590805145" lon="8.736830542936886"><ele>285.0</ele><time>2026-04-12T06:23:08.997Z</time></trkpt><trkpt lat="45.68149783190765" lon="8.736836905137322"><ele>285.0</ele><time>2026-04-12T06:23:10.997Z</time></trkpt><trkpt lat="45.68137911055692" lon="8.736882589862958"><ele>285.0</ele><time>2026-04-12T06:23:12.997Z</time></trkpt><trkpt lat="45.68127452954389" lon="8.73695982375536"><ele>285.0</ele><time>2026-04-12T06:23:14.997Z</time></trkpt><trkpt lat="45.681182915213945" lon="8.737024601482386"><ele>285.0</ele><time>2026-04-12T06:23:16.997Z</time></trkpt><trkpt lat="45.68107125196841" lon="8.737097808500033"><ele>285.6666666666667</ele><time>2026-04-12T06:23:18.997Z</time></trkpt><trkpt lat="45.680961656491434" lon="8.737155217750217"><ele>286.3333333333333</ele><time>2026-04-12T06:23:20.997Z</time></trkpt><trkpt lat="45.68084345522281" lon="8.737209019303721"><ele>287.0</ele><time>2026-04-12T06:23:22.997Z</time></trkpt><trkpt lat="45.680775622236524" lon="8.737226888786"><ele>287.66666666666663</ele><time>2026-04-12T06:23:23.997Z</time></trkpt><trkpt lat="45.68070731538789" lon="8.737243740801194"><ele>288.3333333333333</ele><time>2026-04-12T06:23:24.997Z</time></trkpt><trkpt lat="45.680644843768704" lon="8.737258801883838"><ele>289.0</ele><time>2026-04-12T06:23:25.997Z</time></trkpt><trkpt lat="45.68058013401693" lon="8.73727303692846"><ele>289.0</ele><time>2026-04-12T06:23:26.997Z</time></trkpt><trkpt lat="45.68045841586074" lon="8.737299825182642"><ele>289.0</ele><time>2026-04-12T06:23:28.997Z</time></trkpt><trkpt lat="45.68033077312835" lon="8.737332148426573"><ele>289.0</ele><time>2026-04-12T06:23:30.997Z</time></trkpt><trkpt lat="45.680265269452214" lon="8.737342093038775"><ele>289.0</ele><time>2026-04-12T06:23:31.997Z</time></trkpt><trkpt lat="45.68020087748434" lon="8.737354598299769"><ele>289.0</ele><time>2026-04-12T06:23:32.997Z</time></trkpt><trkpt lat="45.68013224964509" lon="8.73736443497012"><ele>288.16666666666663</ele><time>2026-04-12T06:23:33.997Z</time></trkpt><trkpt lat="45.680065959163514" lon="8.737376759298787"><ele>287.3333333333333</ele><time>2026-04-12T06:23:34.997Z</time></trkpt><trkpt lat="45.6799468402955" lon="8.73741102907499"><ele>286.5</ele><time>2026-04-12T06:23:36.997Z</time></trkpt><trkpt lat="45.67987910877896" lon="8.737430069936838"><ele>285.6666666666667</ele><time>2026-04-12T06:23:37.997Z</time></trkpt><trkpt lat="45.67980625290103" lon="8.737444283027655"><ele>284.83333333333337</ele><time>2026-04-12T06:23:38.997Z</time></trkpt><trkpt lat="45.679736660437904" lon="8.737467464579856"><ele>284.0</ele><time>2026-04-12T06:23:39.997Z</time></trkpt><trkpt lat="45.67967102092186" lon="8.7374933589107"><ele>284.0</ele><time>2026-04-12T06:23:40.997Z</time></trkpt><trkpt lat="45.67960235198859" lon="8.737516871764592"><ele>284.0</ele><time>2026-04-12T06:23:41.997Z</time></trkpt><trkpt lat="45.67954000782846" lon="8.737544343774616"><ele>284.0</ele><time>2026-04-12T06:23:42.997Z</time></trkpt><trkpt lat="45.679474805422934" lon="8.737572176073295"><ele>284.0</ele><time>2026-04-12T06:23:43.997Z</time></trkpt><trkpt lat="45.67941349580329" lon="8.737604981334046"><ele>284.0</ele><time>2026-04-12T06:23:44.997Z</time></trkpt><trkpt lat="45.67934748114384" lon="8.737632030338668"><ele>284.0</ele><time>2026-04-12T06:23:45.997Z</time></trkpt><trkpt lat="45.679236598947796" lon="8.737701622878498"><ele>283.8</ele><time>2026-04-12T06:23:47.997Z</time></trkpt><trkpt lat="45.67912371254519" lon="8.737776875273596"><ele>283.59999999999997</ele><time>2026-04-12T06:23:49.997Z</time></trkpt><trkpt lat="45.67901493109529" lon="8.737850391554979"><ele>283.4</ele><time>2026-04-12T06:23:51.997Z</time></trkpt><trkpt lat="45.67895611220634" lon="8.737884380982486"><ele>283.2</ele><time>2026-04-12T06:23:52.997Z</time></trkpt><trkpt lat="45.6788415541253" lon="8.73795217972779"><ele>283.0</ele><time>2026-04-12T06:23:54.997Z</time></trkpt><trkpt lat="45.67872698787126" lon="8.738024306206176"><ele>283.0</ele><time>2026-04-12T06:23:56.997Z</time></trkpt><trkpt lat="45.67861125908841" lon="8.738091423466297"><ele>283.0</ele><time>2026-04-12T06:23:58.997Z</time></trkpt><trkpt lat="45.67850051089039" lon="8.738163099456992"><ele>283.0</ele><time>2026-04-12T06:24:00.997Z</time></trkpt><trkpt lat="45.678440868693485" lon="8.738197583435902"><ele>283.0</ele><time>2026-04-12T06:24:01.997Z</time></trkpt><trkpt lat="45.67833532142314" lon="8.738275671162286"><ele>283.0</ele><time>2026-04-12T06:24:03.997Z</time></trkpt><trkpt lat="45.67827667441502" lon="8.73832105725754"><ele>283.0</ele><time>2026-04-12T06:24:04.997Z</time></trkpt><trkpt lat="45.678168936128436" lon="8.738389199066154"><ele>283.0</ele><time>2026-04-12T06:24:06.996Z</time></trkpt><trkpt lat="45.67806974276416" lon="8.738455271183394"><ele>283.0</ele><time>2026-04-12T06:24:08.996Z</time></trkpt><trkpt lat="45.67797518399058" lon="8.738507877545477"><ele>283.0</ele><time>2026-04-12T06:24:10.996Z</time></trkpt><trkpt lat="45.67787721481572" lon="8.738547153704598"><ele>283.0</ele><time>2026-04-12T06:24:12.996Z</time></trkpt><trkpt lat="45.67778384803555" lon="8.738596812356622"><ele>282.8</ele><time>2026-04-12T06:24:14.996Z</time></trkpt><trkpt lat="45.6776856086458" lon="8.738665221754086"><ele>282.6</ele><time>2026-04-12T06:24:16.996Z</time></trkpt><trkpt lat="45.67760040111527" lon="8.738715629762323"><ele>282.4</ele><time>2026-04-12T06:24:18.996Z</time></trkpt><trkpt lat="45.677581865300866" lon="8.738835223904621"><ele>282.2</ele><time>2026-04-12T06:24:20.996Z</time></trkpt><trkpt lat="45.67761557094595" lon="8.738980855130773"><ele>282.0</ele><time>2026-04-12T06:24:22.996Z</time></trkpt><trkpt lat="45.6776333611997" lon="8.73914171446176"><ele>282.0</ele><time>2026-04-12T06:24:24.996Z</time></trkpt><trkpt lat="45.677654374023895" lon="8.739298769732867"><ele>282.0</ele><time>2026-04-12T06:24:26.996Z</time></trkpt><trkpt lat="45.67766142615287" lon="8.73938963750976"><ele>282.0</ele><time>2026-04-12T06:24:27.996Z</time></trkpt><trkpt lat="45.677668073756244" lon="8.739485050872219"><ele>282.0</ele><time>2026-04-12T06:24:28.996Z</time></trkpt><trkpt lat="45.67769595217979" lon="8.739655164816748"><ele>282.0</ele><time>2026-04-12T06:24:30.996Z</time></trkpt><trkpt lat="45.67770847828855" lon="8.739823259535703"><ele>281.8571428571429</ele><time>2026-04-12T06:24:32.996Z</time></trkpt><trkpt lat="45.6777259932996" lon="8.739914324612448"><ele>281.7142857142857</ele><time>2026-04-12T06:24:33.997Z</time></trkpt><trkpt lat="45.67774138025368" lon="8.740005839423501"><ele>281.57142857142856</ele><time>2026-04-12T06:24:34.998Z</time></trkpt><trkpt lat="45.677746683874595" lon="8.740104194861804"><ele>281.42857142857144</ele><time>2026-04-12T06:24:35.998Z</time></trkpt><trkpt lat="45.67774542986262" lon="8.740198336778356"><ele>281.2857142857143</ele><time>2026-04-12T06:24:36.997Z</time></trkpt><trkpt lat="45.677758668457976" lon="8.740292625962516"><ele>281.14285714285717</ele><time>2026-04-12T06:24:37.997Z</time></trkpt><trkpt lat="45.677765471757496" lon="8.740389234984548"><ele>281.0</ele><time>2026-04-12T06:24:38.997Z</time></trkpt><trkpt lat="45.677769785381166" lon="8.740481740294795"><ele>281.0</ele><time>2026-04-12T06:24:39.997Z</time></trkpt><trkpt lat="45.67778967287201" lon="8.74056732629766"><ele>281.0</ele><time>2026-04-12T06:24:40.998Z</time></trkpt><trkpt lat="45.67781610262472" lon="8.74065482859194"><ele>281.0</ele><time>2026-04-12T06:24:41.998Z</time></trkpt><trkpt lat="45.67784677003062" lon="8.74073524840561"><ele>281.0</ele><time>2026-04-12T06:24:42.997Z</time></trkpt><trkpt lat="45.67785456288557" lon="8.740828483281229"><ele>281.0</ele><time>2026-04-12T06:24:43.998Z</time></trkpt><trkpt lat="45.67787268595801" lon="8.740987430848188"><ele>281.0</ele><time>2026-04-12T06:24:45.998Z</time></trkpt><trkpt lat="45.67787273266821" lon="8.741146235394071"><ele>281.0</ele><time>2026-04-12T06:24:47.998Z</time></trkpt><trkpt lat="45.67787298753022" lon="8.741297903255994"><ele>281.0</ele><time>2026-04-12T06:24:49.998Z</time></trkpt><trkpt lat="45.677883304680506" lon="8.7414279505567"><ele>281.0</ele><time>2026-04-12T06:24:51.998Z</time></trkpt><trkpt lat="45.67790474492306" lon="8.741579550459543"><ele>281.0</ele><time>2026-04-12T06:24:53.998Z</time></trkpt><trkpt lat="45.67793086730466" lon="8.741748959430922"><ele>281.0</ele><time>2026-04-12T06:24:55.998Z</time></trkpt><trkpt lat="45.67795277276197" lon="8.741915181407759"><ele>280.6666666666667</ele><time>2026-04-12T06:24:57.997Z</time></trkpt><trkpt lat="45.67796445542681" lon="8.742004391747422"><ele>280.33333333333337</ele><time>2026-04-12T06:24:58.997Z</time></trkpt><trkpt lat="45.67797860867337" lon="8.74217010636729"><ele>280.0</ele><time>2026-04-12T06:25:00.997Z</time></trkpt><trkpt lat="45.6779765527273" lon="8.742352853718163"><ele>279.6666666666667</ele><time>2026-04-12T06:25:02.997Z</time></trkpt><trkpt lat="45.677978472823575" lon="8.742445762714807"><ele>279.3333333333333</ele><time>2026-04-12T06:25:03.997Z</time></trkpt><trkpt lat="45.67798079056243" lon="8.742538671585638"><ele>279.0</ele><time>2026-04-12T06:25:04.997Z</time></trkpt><trkpt lat="45.6779898621447" lon="8.742709846636826"><ele>279.2</ele><time>2026-04-12T06:25:06.997Z</time></trkpt><trkpt lat="45.67799833900801" lon="8.742837700093126"><ele>279.4</ele><time>2026-04-12T06:25:08.997Z</time></trkpt><trkpt lat="45.6779774130569" lon="8.74298088386886"><ele>279.6</ele><time>2026-04-12T06:25:10.997Z</time></trkpt><trkpt lat="45.677934681179394" lon="8.743126786066243"><ele>279.8</ele><time>2026-04-12T06:25:12.997Z</time></trkpt><trkpt lat="45.67788787940414" lon="8.743249546144861"><ele>280.0</ele><time>2026-04-12T06:25:14.997Z</time></trkpt><trkpt lat="45.677810174266774" lon="8.743361003230216"><ele>280.0</ele><time>2026-04-12T06:25:16.997Z</time></trkpt><trkpt lat="45.677734535356045" lon="8.743489103725423"><ele>280.0</ele><time>2026-04-12T06:25:18.997Z</time></trkpt><trkpt lat="45.67767626095386" lon="8.743615640565416"><ele>280.0</ele><time>2026-04-12T06:25:20.997Z</time></trkpt><trkpt lat="45.67764283501296" lon="8.743758130063116"><ele>280.0</ele><time>2026-04-12T06:25:22.997Z</time></trkpt><trkpt lat="45.6776110736081" lon="8.743881401995901"><ele>280.0</ele><time>2026-04-12T06:25:24.997Z</time></trkpt><trkpt lat="45.67758784353916" lon="8.74396808673214"><ele>280.0</ele><time>2026-04-12T06:25:25.997Z</time></trkpt><trkpt lat="45.67756300029563" lon="8.744094661080311"><ele>280.0</ele><time>2026-04-12T06:25:27.997Z</time></trkpt><trkpt lat="45.67753144987331" lon="8.744224342554965"><ele>280.0</ele><time>2026-04-12T06:25:29.997Z</time></trkpt><trkpt lat="45.67749032326816" lon="8.744339664729432"><ele>280.0</ele><time>2026-04-12T06:25:31.997Z</time></trkpt><trkpt lat="45.67744358757686" lon="8.744502453459114"><ele>280.0</ele><time>2026-04-12T06:25:33.997Z</time></trkpt><trkpt lat="45.677416486326585" lon="8.744594068492106"><ele>280.25</ele><time>2026-04-12T06:25:34.997Z</time></trkpt><trkpt lat="45.67736461052103" lon="8.74474428514636"><ele>280.5</ele><time>2026-04-12T06:25:36.997Z</time></trkpt><trkpt lat="45.677310590793596" lon="8.744892046162994"><ele>280.75</ele><time>2026-04-12T06:25:38.997Z</time></trkpt><trkpt lat="45.677249798623826" lon="8.745061590392732"><ele>281.0</ele><time>2026-04-12T06:25:40.997Z</time></trkpt><trkpt lat="45.67718460162481" lon="8.745220049338428"><ele>280.6666666666667</ele><time>2026-04-12T06:25:42.997Z</time></trkpt><trkpt lat="45.677127125357785" lon="8.745366000918354"><ele>280.33333333333337</ele><time>2026-04-12T06:25:44.997Z</time></trkpt><trkpt lat="45.67709251734085" lon="8.745447209248098"><ele>280.0</ele><time>2026-04-12T06:25:45.997Z</time></trkpt><trkpt lat="45.67704957159534" lon="8.745533410145116"><ele>279.6666666666667</ele><time>2026-04-12T06:25:46.997Z</time></trkpt><trkpt lat="45.67700798336377" lon="8.745623567703474"><ele>279.3333333333333</ele><time>2026-04-12T06:25:47.997Z</time></trkpt><trkpt lat="45.67697092586742" lon="8.7457075471236"><ele>279.0</ele><time>2026-04-12T06:25:48.997Z</time></trkpt><trkpt lat="45.67693479664242" lon="8.745790141724282"><ele>278.6666666666667</ele><time>2026-04-12T06:25:49.997Z</time></trkpt><trkpt lat="45.676901189158386" lon="8.745869483307507"><ele>278.3333333333333</ele><time>2026-04-12T06:25:50.997Z</time></trkpt><trkpt lat="45.67686661142298" lon="8.745957787141688"><ele>278.0</ele><time>2026-04-12T06:25:51.997Z</time></trkpt><trkpt lat="45.67683390376788" lon="8.746043228565942"><ele>277.66666666666663</ele><time>2026-04-12T06:25:52.997Z</time></trkpt><trkpt lat="45.676799105326005" lon="8.746125267017115"><ele>277.3333333333333</ele><time>2026-04-12T06:25:53.997Z</time></trkpt><trkpt lat="45.67673472105007" lon="8.746271256031982"><ele>277.0</ele><time>2026-04-12T06:25:55.997Z</time></trkpt><trkpt lat="45.67666696881171" lon="8.746391750983829"><ele>277.16666666666663</ele><time>2026-04-12T06:25:57.997Z</time></trkpt><trkpt lat="45.67658735939433" lon="8.746486924442141"><ele>277.3333333333333</ele><time>2026-04-12T06:25:59.996Z</time></trkpt><trkpt lat="45.67654693073514" lon="8.746564569188653"><ele>277.5</ele><time>2026-04-12T06:26:00.996Z</time></trkpt><trkpt lat="45.676505437199644" lon="8.746649195590411"><ele>277.6666666666667</ele><time>2026-04-12T06:26:01.996Z</time></trkpt><trkpt lat="45.67646644059592" lon="8.746733302021571"><ele>277.83333333333337</ele><time>2026-04-12T06:26:02.996Z</time></trkpt><trkpt lat="45.676429225981636" lon="8.746817712537297"><ele>278.0</ele><time>2026-04-12T06:26:03.996Z</time></trkpt><trkpt lat="45.67638729657162" lon="8.746906602310995"><ele>278.0</ele><time>2026-04-12T06:26:04.996Z</time></trkpt><trkpt lat="45.676345849514995" lon="8.746990588766058"><ele>278.0</ele><time>2026-04-12T06:26:05.996Z</time></trkpt><trkpt lat="45.67630879524796" lon="8.747083455115268"><ele>278.0</ele><time>2026-04-12T06:26:06.996Z</time></trkpt><trkpt lat="45.67627759461464" lon="8.747164707665767"><ele>278.0</ele><time>2026-04-12T06:26:07.996Z</time></trkpt><trkpt lat="45.67624391696982" lon="8.747250995528509"><ele>278.0</ele><time>2026-04-12T06:26:08.996Z</time></trkpt><trkpt lat="45.67620421078854" lon="8.747350815222623"><ele>278.0</ele><time>2026-04-12T06:26:09.996Z</time></trkpt><trkpt lat="45.67614935766712" lon="8.747506293779699"><ele>278.83333333333337</ele><time>2026-04-12T06:26:11.996Z</time></trkpt><trkpt lat="45.676088839059865" lon="8.747645714773576"><ele>279.6666666666667</ele><time>2026-04-12T06:26:13.996Z</time></trkpt><trkpt lat="45.67605004749998" lon="8.747745097539102"><ele>280.5</ele><time>2026-04-12T06:26:15.996Z</time></trkpt><trkpt lat="45.67604770318174" lon="8.747867564890907"><ele>281.3333333333333</ele><time>2026-04-12T06:26:17.996Z</time></trkpt><trkpt lat="45.67607052799489" lon="8.747975868818791"><ele>282.16666666666663</ele><time>2026-04-12T06:26:19.996Z</time></trkpt><trkpt lat="45.67604387884906" lon="8.748090241757833"><ele>283.0</ele><time>2026-04-12T06:26:21.996Z</time></trkpt><trkpt lat="45.676018789075606" lon="8.748218904904851"><ele>283.2</ele><time>2026-04-12T06:26:23.996Z</time></trkpt><trkpt lat="45.675980711051565" lon="8.748380756582732"><ele>283.4</ele><time>2026-04-12T06:26:25.996Z</time></trkpt><trkpt lat="45.675959598019574" lon="8.74850523152081"><ele>283.59999999999997</ele><time>2026-04-12T06:26:27.996Z</time></trkpt><trkpt lat="45.67591628710128" lon="8.74862396998086"><ele>283.8</ele><time>2026-04-12T06:26:29.996Z</time></trkpt><trkpt lat="45.675848151924356" lon="8.74878750719034"><ele>284.0</ele><time>2026-04-12T06:26:31.996Z</time></trkpt><trkpt lat="45.67578631497961" lon="8.748888277325744"><ele>284.33333333333337</ele><time>2026-04-12T06:26:33.996Z</time></trkpt><trkpt lat="45.675749814337955" lon="8.748967527328425"><ele>284.6666666666667</ele><time>2026-04-12T06:26:34.996Z</time></trkpt><trkpt lat="45.67573030245752" lon="8.749065935609107"><ele>285.0</ele><time>2026-04-12T06:26:35.996Z</time></trkpt><trkpt lat="45.675715955523906" lon="8.749154681262784"><ele>285.3333333333333</ele><time>2026-04-12T06:26:36.996Z</time></trkpt><trkpt lat="45.67566233444713" lon="8.749287720173413"><ele>285.66666666666663</ele><time>2026-04-12T06:26:38.996Z</time></trkpt><trkpt lat="45.67564946898215" lon="8.749393385266101"><ele>286.0</ele><time>2026-04-12T06:26:40.997Z</time></trkpt><trkpt lat="45.67563183988324" lon="8.749511649207564"><ele>285.0</ele><time>2026-04-12T06:26:42.997Z</time></trkpt><trkpt lat="45.67561048258299" lon="8.749602855584783"><ele>284.0</ele><time>2026-04-12T06:26:44.997Z</time></trkpt><trkpt lat="45.67561764907302" lon="8.749720791013031"><ele>283.0</ele><time>2026-04-12T06:26:46.997Z</time></trkpt><trkpt lat="45.675622845596884" lon="8.749833679050225"><ele>282.0</ele><time>2026-04-12T06:26:48.997Z</time></trkpt><trkpt lat="45.67561299461054" lon="8.749958469059472"><ele>281.0</ele><time>2026-04-12T06:26:50.997Z</time></trkpt><trkpt lat="45.67559804370299" lon="8.750086630770895"><ele>280.0</ele><time>2026-04-12T06:26:52.997Z</time></trkpt><trkpt lat="45.675588111871996" lon="8.750233871750975"><ele>279.5</ele><time>2026-04-12T06:26:54.997Z</time></trkpt><trkpt lat="45.675576722190186" lon="8.750342323948072"><ele>279.0</ele><time>2026-04-12T06:26:56.997Z</time></trkpt><trkpt lat="45.67558056218634" lon="8.750457986042955"><ele>278.5</ele><time>2026-04-12T06:26:58.997Z</time></trkpt><trkpt lat="45.67554928761978" lon="8.750637963606067"><ele>278.0</ele><time>2026-04-12T06:27:00.997Z</time></trkpt><trkpt lat="45.67552767011698" lon="8.750733698395369"><ele>277.5</ele><time>2026-04-12T06:27:01.997Z</time></trkpt><trkpt lat="45.67550044581407" lon="8.75083128438492"><ele>277.0</ele><time>2026-04-12T06:27:02.997Z</time></trkpt><trkpt lat="45.675477885282376" lon="8.750923533429452"><ele>278.4</ele><time>2026-04-12T06:27:03.997Z</time></trkpt><trkpt lat="45.67543392845015" lon="8.751082648773501"><ele>279.79999999999995</ele><time>2026-04-12T06:27:05.997Z</time></trkpt><trkpt lat="45.67538055154397" lon="8.751180605945901"><ele>281.2</ele><time>2026-04-12T06:27:06.997Z</time></trkpt><trkpt lat="45.675337110165906" lon="8.751270435924516"><ele>282.59999999999997</ele><time>2026-04-12T06:27:07.997Z</time></trkpt><trkpt lat="45.67530508623535" lon="8.751354543467228"><ele>284.0</ele><time>2026-04-12T06:27:08.997Z</time></trkpt><trkpt lat="45.675254581698255" lon="8.751533561130367"><ele>284.8</ele><time>2026-04-12T06:27:10.996Z</time></trkpt><trkpt lat="45.675226455791304" lon="8.75161697882146"><ele>285.59999999999997</ele><time>2026-04-12T06:27:11.996Z</time></trkpt><trkpt lat="45.67517202650452" lon="8.751772640243965"><ele>286.4</ele><time>2026-04-12T06:27:13.996Z</time></trkpt><trkpt lat="45.67512914763213" lon="8.751926001628853"><ele>287.2</ele><time>2026-04-12T06:27:15.996Z</time></trkpt><trkpt lat="45.67508331457482" lon="8.752086647369254"><ele>288.0</ele><time>2026-04-12T06:27:17.996Z</time></trkpt><trkpt lat="45.67505560703456" lon="8.752168482265908"><ele>288.8</ele><time>2026-04-12T06:27:18.996Z</time></trkpt><trkpt lat="45.674965310042" lon="8.752304870540804"><ele>289.6</ele><time>2026-04-12T06:27:20.996Z</time></trkpt><trkpt lat="45.67492383291021" lon="8.752385713932712"><ele>290.4</ele><time>2026-04-12T06:27:21.996Z</time></trkpt><trkpt lat="45.674878976339635" lon="8.752532384229225"><ele>291.2</ele><time>2026-04-12T06:27:23.996Z</time></trkpt><trkpt lat="45.674816414475494" lon="8.752659555682515"><ele>292.0</ele><time>2026-04-12T06:27:25.996Z</time></trkpt><trkpt lat="45.674769260506054" lon="8.752775715544537"><ele>292.4</ele><time>2026-04-12T06:27:27.996Z</time></trkpt><trkpt lat="45.67473235382537" lon="8.75287992913842"><ele>292.79999999999995</ele><time>2026-04-12T06:27:29.996Z</time></trkpt><trkpt lat="45.67468759569407" lon="8.753016104668985"><ele>293.2</ele><time>2026-04-12T06:27:31.996Z</time></trkpt><trkpt lat="45.67462690372596" lon="8.753131984908123"><ele>293.59999999999997</ele><time>2026-04-12T06:27:33.996Z</time></trkpt><trkpt lat="45.67456666164368" lon="8.753223202439836"><ele>294.0</ele><time>2026-04-12T06:27:35.996Z</time></trkpt><trkpt lat="45.67453975678392" lon="8.753336673328004"><ele>294.0</ele><time>2026-04-12T06:27:38.996Z</time></trkpt><trkpt lat="45.674616970975435" lon="8.753420032987146"><ele>294.0</ele><time>2026-04-12T06:27:42.996Z</time></trkpt><trkpt lat="45.67466254252399" lon="8.753526410031327"><ele>294.0</ele><time>2026-04-12T06:27:45.996Z</time></trkpt><trkpt lat="45.674698770278496" lon="8.753655831128183"><ele>294.0</ele><time>2026-04-12T06:27:48.996Z</time></trkpt><trkpt lat="45.67471693730472" lon="8.753788601390879"><ele>294.0</ele><time>2026-04-12T06:27:50.996Z</time></trkpt><trkpt lat="45.67473604306342" lon="8.753905892052899"><ele>294.59999999999997</ele><time>2026-04-12T06:27:52.996Z</time></trkpt><trkpt lat="45.67473454020748" lon="8.75405893788514"><ele>295.2</ele><time>2026-04-12T06:27:54.996Z</time></trkpt><trkpt lat="45.67474942105949" lon="8.754208685487251"><ele>295.79999999999995</ele><time>2026-04-12T06:27:56.996Z</time></trkpt><trkpt lat="45.67477752117571" lon="8.75431305193769"><ele>296.4</ele><time>2026-04-12T06:27:58.996Z</time></trkpt><trkpt lat="45.674798315751" lon="8.754422476793605"><ele>297.0</ele><time>2026-04-12T06:28:00.996Z</time></trkpt><trkpt lat="45.67482517610872" lon="8.754553812109307"><ele>297.3333333333333</ele><time>2026-04-12T06:28:02.996Z</time></trkpt><trkpt lat="45.67485308990909" lon="8.75467309261123"><ele>297.6666666666667</ele><time>2026-04-12T06:28:04.996Z</time></trkpt><trkpt lat="45.67488304300408" lon="8.754783735908363"><ele>298.0</ele><time>2026-04-12T06:28:06.996Z</time></trkpt><trkpt lat="45.674874948858026" lon="8.754877644740445"><ele>298.33333333333337</ele><time>2026-04-12T06:28:08.996Z</time></trkpt><trkpt lat="45.67488485720263" lon="8.755019787757739"><ele>298.6666666666667</ele><time>2026-04-12T06:28:10.995Z</time></trkpt><trkpt lat="45.67491427269019" lon="8.755138305043998"><ele>299.0</ele><time>2026-04-12T06:28:12.995Z</time></trkpt><trkpt lat="45.67493478136184" lon="8.755238400952255"><ele>299.2</ele><time>2026-04-12T06:28:14.995Z</time></trkpt><trkpt lat="45.67494904501174" lon="8.755350151712197"><ele>299.4</ele><time>2026-04-12T06:28:16.995Z</time></trkpt><trkpt lat="45.674986727476686" lon="8.755453687891073"><ele>299.6</ele><time>2026-04-12T06:28:18.995Z</time></trkpt><trkpt lat="45.674983540578815" lon="8.755611528038187"><ele>299.8</ele><time>2026-04-12T06:28:21.995Z</time></trkpt><trkpt lat="45.6749882345275" lon="8.755722631903494"><ele>300.0</ele><time>2026-04-12T06:28:23.995Z</time></trkpt><trkpt lat="45.67501960242531" lon="8.755862269795532"><ele>300.0</ele><time>2026-04-12T06:28:26.995Z</time></trkpt><trkpt lat="45.675036014684345" lon="8.75601820197418"><ele>300.0</ele><time>2026-04-12T06:28:28.995Z</time></trkpt><trkpt lat="45.67505781547842" lon="8.756157798066658"><ele>300.0</ele><time>2026-04-12T06:28:31.995Z</time></trkpt><trkpt lat="45.67509856523932" lon="8.756326924829066"><ele>300.0</ele><time>2026-04-12T06:28:33.995Z</time></trkpt><trkpt lat="45.675140959665" lon="8.756400450840749"><ele>300.0</ele><time>2026-04-12T06:28:35.995Z</time></trkpt><trkpt lat="45.675159523483224" lon="8.75651044043886"><ele>299.8</ele><time>2026-04-12T06:28:36.995Z</time></trkpt><trkpt lat="45.675179885948204" lon="8.756602590763915"><ele>299.6</ele><time>2026-04-12T06:28:37.995Z</time></trkpt><trkpt lat="45.67518501264354" lon="8.756752316233534"><ele>299.4</ele><time>2026-04-12T06:28:39.995Z</time></trkpt><trkpt lat="45.67523921337818" lon="8.756865814626684"><ele>299.2</ele><time>2026-04-12T06:28:41.995Z</time></trkpt><trkpt lat="45.67525483583372" lon="8.757002005623752"><ele>299.0</ele><time>2026-04-12T06:28:42.995Z</time></trkpt><trkpt lat="45.675271556313746" lon="8.757121490728197"><ele>298.59999999999997</ele><time>2026-04-12T06:28:44.995Z</time></trkpt><trkpt lat="45.67533675142309" lon="8.757262970000482"><ele>298.2</ele><time>2026-04-12T06:28:46.997Z</time></trkpt><trkpt lat="45.67538122551422" lon="8.757342399394854"><ele>297.79999999999995</ele><time>2026-04-12T06:28:47.997Z</time></trkpt><trkpt lat="45.67543760998014" lon="8.75749116833527"><ele>297.4</ele><time>2026-04-12T06:28:49.996Z</time></trkpt><trkpt lat="45.67545755984712" lon="8.757609696251517"><ele>297.0</ele><time>2026-04-12T06:28:50.996Z</time></trkpt><trkpt lat="45.675496500662604" lon="8.757708059456078"><ele>297.0</ele><time>2026-04-12T06:28:51.997Z</time></trkpt><trkpt lat="45.67554190984143" lon="8.757830609715239"><ele>297.0</ele><time>2026-04-12T06:28:53.997Z</time></trkpt><trkpt lat="45.675556768806366" lon="8.757935976229133"><ele>297.0</ele><time>2026-04-12T06:28:54.997Z</time></trkpt><trkpt lat="45.6755885960406" lon="8.758032513561563"><ele>297.0</ele><time>2026-04-12T06:28:55.997Z</time></trkpt><trkpt lat="45.67560794319688" lon="8.758161812316763"><ele>297.0</ele><time>2026-04-12T06:28:56.997Z</time></trkpt><trkpt lat="45.675617294519306" lon="8.758268097089509"><ele>297.0</ele><time>2026-04-12T06:28:57.996Z</time></trkpt><trkpt lat="45.675630594557944" lon="8.758409626627433"><ele>297.0</ele><time>2026-04-12T06:28:59.996Z</time></trkpt><trkpt lat="45.67565076336292" lon="8.758498730285728"><ele>297.0</ele><time>2026-04-12T06:29:00.996Z</time></trkpt><trkpt lat="45.67566786693318" lon="8.75859582644468"><ele>297.0</ele><time>2026-04-12T06:29:01.996Z</time></trkpt><trkpt lat="45.67566717017925" lon="8.75869819437711"><ele>297.0</ele><time>2026-04-12T06:29:02.996Z</time></trkpt><trkpt lat="45.67565478425443" lon="8.758826444945372"><ele>297.0</ele><time>2026-04-12T06:29:03.996Z</time></trkpt><trkpt lat="45.67565825376106" lon="8.758965022244485"><ele>297.0</ele><time>2026-04-12T06:29:04.996Z</time></trkpt><trkpt lat="45.67567332374864" lon="8.75907441408205"><ele>297.0</ele><time>2026-04-12T06:29:05.996Z</time></trkpt><trkpt lat="45.67567864299936" lon="8.759207754473787"><ele>297.0</ele><time>2026-04-12T06:29:06.996Z</time></trkpt><trkpt lat="45.67568235942987" lon="8.759315842737811"><ele>297.0</ele><time>2026-04-12T06:29:07.996Z</time></trkpt><trkpt lat="45.67568811810442" lon="8.75944775445064"><ele>297.0</ele><time>2026-04-12T06:29:08.996Z</time></trkpt><trkpt lat="45.675692890954885" lon="8.7595463069977"><ele>297.0</ele><time>2026-04-12T06:29:09.996Z</time></trkpt><trkpt lat="45.67571053954041" lon="8.759705814145612"><ele>297.0</ele><time>2026-04-12T06:29:11.996Z</time></trkpt><trkpt lat="45.675734630358875" lon="8.759851218131507"><ele>296.8</ele><time>2026-04-12T06:29:13.996Z</time></trkpt><trkpt lat="45.675729254193506" lon="8.75999566980318"><ele>296.6</ele><time>2026-04-12T06:29:15.996Z</time></trkpt><trkpt lat="45.67572994412675" lon="8.760141797410071"><ele>296.40000000000003</ele><time>2026-04-12T06:29:17.996Z</time></trkpt><trkpt lat="45.67575375401066" lon="8.760287602156767"><ele>296.2</ele><time>2026-04-12T06:29:19.996Z</time></trkpt><trkpt lat="45.67577370653487" lon="8.76038340790434"><ele>296.0</ele><time>2026-04-12T06:29:21.996Z</time></trkpt><trkpt lat="45.67579790955259" lon="8.760527591970035"><ele>295.83333333333337</ele><time>2026-04-12T06:29:23.996Z</time></trkpt><trkpt lat="45.67583689441707" lon="8.760633633765206"><ele>295.6666666666667</ele><time>2026-04-12T06:29:25.996Z</time></trkpt><trkpt lat="45.67587125371673" lon="8.760709863252066"><ele>295.5</ele><time>2026-04-12T06:29:26.996Z</time></trkpt><trkpt lat="45.675895617113085" lon="8.760854269701493"><ele>295.3333333333333</ele><time>2026-04-12T06:29:28.996Z</time></trkpt><trkpt lat="45.6759270934722" lon="8.760989090507236"><ele>295.16666666666663</ele><time>2026-04-12T06:29:30.996Z</time></trkpt><trkpt lat="45.67598122708278" lon="8.76107440227805"><ele>295.0</ele><time>2026-04-12T06:29:32.996Z</time></trkpt><trkpt lat="45.67602187954455" lon="8.761153577556568"><ele>294.8</ele><time>2026-04-12T06:29:33.996Z</time></trkpt><trkpt lat="45.676075573387884" lon="8.761226501112741"><ele>294.6</ele><time>2026-04-12T06:29:34.996Z</time></trkpt><trkpt lat="45.676151126319" lon="8.761356109545476"><ele>294.4</ele><time>2026-04-12T06:29:36.996Z</time></trkpt><trkpt lat="45.676207563013044" lon="8.761499255189584"><ele>294.2</ele><time>2026-04-12T06:29:38.996Z</time></trkpt><trkpt lat="45.676273711561855" lon="8.761601522060497"><ele>294.0</ele><time>2026-04-12T06:29:40.995Z</time></trkpt><trkpt lat="45.676332463986355" lon="8.761683942745659"><ele>293.8333333333333</ele><time>2026-04-12T06:29:41.995Z</time></trkpt><trkpt lat="45.676378493196225" lon="8.761765272236355"><ele>293.6666666666667</ele><time>2026-04-12T06:29:42.995Z</time></trkpt><trkpt lat="45.676412656690175" lon="8.761858483147947"><ele>293.5</ele><time>2026-04-12T06:29:43.995Z</time></trkpt><trkpt lat="45.67644075326235" lon="8.761951882739737"><ele>293.33333333333337</ele><time>2026-04-12T06:29:44.995Z</time></trkpt><trkpt lat="45.67648235147073" lon="8.76210490633992"><ele>293.1666666666667</ele><time>2026-04-12T06:29:46.995Z</time></trkpt><trkpt lat="45.67655791961567" lon="8.762225766052484"><ele>293.0</ele><time>2026-04-12T06:29:48.995Z</time></trkpt><trkpt lat="45.67661416181001" lon="8.762354546368476"><ele>293.0</ele><time>2026-04-12T06:29:50.995Z</time></trkpt><trkpt lat="45.67667212385822" lon="8.762454751809736"><ele>293.0</ele><time>2026-04-12T06:29:52.995Z</time></trkpt><trkpt lat="45.67671158732009" lon="8.762553177928561"><ele>293.0</ele><time>2026-04-12T06:29:54.995Z</time></trkpt><trkpt lat="45.67678553772085" lon="8.762671606325396"><ele>293.0</ele><time>2026-04-12T06:29:56.995Z</time></trkpt><trkpt lat="45.6768371601343" lon="8.762783053406395"><ele>293.0</ele><time>2026-04-12T06:29:58.995Z</time></trkpt><trkpt lat="45.67683894417076" lon="8.762938072823113"><ele>293.0</ele><time>2026-04-12T06:30:00.995Z</time></trkpt><trkpt lat="45.67683101460821" lon="8.763033098545836"><ele>293.0</ele><time>2026-04-12T06:30:01.995Z</time></trkpt><trkpt lat="45.67683215920024" lon="8.763186447597123"><ele>293.0</ele><time>2026-04-12T06:30:03.995Z</time></trkpt><trkpt lat="45.67680605903464" lon="8.763270821610831"><ele>293.0</ele><time>2026-04-12T06:30:04.995Z</time></trkpt><trkpt lat="45.67679535518175" lon="8.763419265203076"><ele>293.0</ele><time>2026-04-12T06:30:06.995Z</time></trkpt><trkpt lat="45.67677655386253" lon="8.763571516108598"><ele>292.8</ele><time>2026-04-12T06:30:08.995Z</time></trkpt><trkpt lat="45.676737927564375" lon="8.763748203324985"><ele>292.6</ele><time>2026-04-12T06:30:10.995Z</time></trkpt><trkpt lat="45.67670503304157" lon="8.763873947547863"><ele>292.4</ele><time>2026-04-12T06:30:12.995Z</time></trkpt><trkpt lat="45.676679643213866" lon="8.764026997543183"><ele>292.2</ele><time>2026-04-12T06:30:14.995Z</time></trkpt><trkpt lat="45.67666889425885" lon="8.764188539435544"><ele>292.0</ele><time>2026-04-12T06:30:16.995Z</time></trkpt><trkpt lat="45.67663517077959" lon="8.764338588175411"><ele>292.16666666666663</ele><time>2026-04-12T06:30:18.995Z</time></trkpt><trkpt lat="45.67660612470208" lon="8.76443271031724"><ele>292.3333333333333</ele><time>2026-04-12T06:30:19.995Z</time></trkpt><trkpt lat="45.67656681208379" lon="8.764554457486195"><ele>292.5</ele><time>2026-04-12T06:30:21.995Z</time></trkpt><trkpt lat="45.676530817609475" lon="8.76471077649665"><ele>292.6666666666667</ele><time>2026-04-12T06:30:23.995Z</time></trkpt><trkpt lat="45.676494578202636" lon="8.764785681513954"><ele>292.83333333333337</ele><time>2026-04-12T06:30:24.995Z</time></trkpt><trkpt lat="45.676476365296274" lon="8.764880225297958"><ele>293.0</ele><time>2026-04-12T06:30:25.995Z</time></trkpt><trkpt lat="45.67644075737944" lon="8.764981031948764"><ele>293.0</ele><time>2026-04-12T06:30:26.995Z</time></trkpt><trkpt lat="45.676385398643866" lon="8.76511732645441"><ele>293.0</ele><time>2026-04-12T06:30:28.995Z</time></trkpt><trkpt lat="45.67634532263901" lon="8.765199075755223"><ele>293.0</ele><time>2026-04-12T06:30:29.995Z</time></trkpt><trkpt lat="45.67632590931636" lon="8.76529871685274"><ele>293.0</ele><time>2026-04-12T06:30:30.995Z</time></trkpt><trkpt lat="45.676291660144784" lon="8.765468896172168"><ele>293.0</ele><time>2026-04-12T06:30:32.995Z</time></trkpt><trkpt lat="45.67624614397917" lon="8.765605741126363"><ele>293.0</ele><time>2026-04-12T06:30:34.995Z</time></trkpt><trkpt lat="45.676206627209915" lon="8.765693901047396"><ele>293.0</ele><time>2026-04-12T06:30:35.995Z</time></trkpt><trkpt lat="45.676165384399425" lon="8.765797063633288"><ele>293.0</ele><time>2026-04-12T06:30:36.995Z</time></trkpt><trkpt lat="45.67613061716688" lon="8.765895961002599"><ele>293.0</ele><time>2026-04-12T06:30:37.995Z</time></trkpt><trkpt lat="45.67608105730639" lon="8.766056200094058"><ele>293.0</ele><time>2026-04-12T06:30:39.995Z</time></trkpt><trkpt lat="45.67606705710951" lon="8.766152524770941"><ele>293.0</ele><time>2026-04-12T06:30:40.994Z</time></trkpt><trkpt lat="45.67605006072426" lon="8.766251501622833"><ele>292.8</ele><time>2026-04-12T06:30:41.994Z</time></trkpt><trkpt lat="45.67600605412771" lon="8.766391492536119"><ele>292.6</ele><time>2026-04-12T06:30:43.994Z</time></trkpt><trkpt lat="45.675954828876286" lon="8.766574867160502"><ele>292.4</ele><time>2026-04-12T06:30:45.994Z</time></trkpt><trkpt lat="45.6759147554993" lon="8.76666289483013"><ele>292.2</ele><time>2026-04-12T06:30:46.994Z</time></trkpt><trkpt lat="45.675874532912076" lon="8.76681958703932"><ele>292.0</ele><time>2026-04-12T06:30:48.994Z</time></trkpt><trkpt lat="45.67585174568342" lon="8.766960439108589"><ele>292.4</ele><time>2026-04-12T06:30:50.994Z</time></trkpt><trkpt lat="45.67584836589775" lon="8.767075437260827"><ele>292.79999999999995</ele><time>2026-04-12T06:30:52.997Z</time></trkpt><trkpt lat="45.67586766191366" lon="8.767182443865675"><ele>293.2</ele><time>2026-04-12T06:30:54.996Z</time></trkpt><trkpt lat="45.67581390885974" lon="8.767315477772032"><ele>293.59999999999997</ele><time>2026-04-12T06:30:56.996Z</time></trkpt><trkpt lat="45.675755850353575" lon="8.767444167501647"><ele>294.0</ele><time>2026-04-12T06:30:58.996Z</time></trkpt><trkpt lat="45.67573331781804" lon="8.767573848176925"><ele>294.8</ele><time>2026-04-12T06:31:00.997Z</time></trkpt><trkpt lat="45.6756734107475" lon="8.767722229245605"><ele>295.59999999999997</ele><time>2026-04-12T06:31:02.996Z</time></trkpt><trkpt lat="45.67563342702026" lon="8.767795226430257"><ele>296.4</ele><time>2026-04-12T06:31:03.996Z</time></trkpt><trkpt lat="45.67560444820964" lon="8.767923250598376"><ele>297.2</ele><time>2026-04-12T06:31:06.996Z</time></trkpt><trkpt lat="45.675552484996416" lon="8.76805992851826"><ele>298.0</ele><time>2026-04-12T06:31:08.996Z</time></trkpt><trkpt lat="45.67548972330632" lon="8.76817463825213"><ele>298.0</ele><time>2026-04-12T06:31:10.996Z</time></trkpt><trkpt lat="45.67542498898239" lon="8.768247870413926"><ele>298.0</ele><time>2026-04-12T06:31:11.996Z</time></trkpt><trkpt lat="45.6753555955524" lon="8.768313264111255"><ele>298.0</ele><time>2026-04-12T06:31:12.996Z</time></trkpt><trkpt lat="45.67530739694011" lon="8.768401586810553"><ele>298.0</ele><time>2026-04-12T06:31:13.996Z</time></trkpt><trkpt lat="45.67525729359784" lon="8.768536246567217"><ele>298.0</ele><time>2026-04-12T06:31:15.996Z</time></trkpt><trkpt lat="45.67520131217535" lon="8.768681459625872"><ele>296.16666666666663</ele><time>2026-04-12T06:31:17.996Z</time></trkpt><trkpt lat="45.67516069096314" lon="8.768763836851415"><ele>294.3333333333333</ele><time>2026-04-12T06:31:18.996Z</time></trkpt><trkpt lat="45.67509880700112" lon="8.768842157493363"><ele>292.5</ele><time>2026-04-12T06:31:19.996Z</time></trkpt><trkpt lat="45.67504898303741" lon="8.768901845789063"><ele>290.6666666666667</ele><time>2026-04-12T06:31:20.996Z</time></trkpt><trkpt lat="45.674983436299186" lon="8.769018339541649"><ele>288.83333333333337</ele><time>2026-04-12T06:31:22.996Z</time></trkpt><trkpt lat="45.674945832058334" lon="8.769092124026628"><ele>287.0</ele><time>2026-04-12T06:31:23.996Z</time></trkpt><trkpt lat="45.674892514206924" lon="8.769170089984476"><ele>287.0</ele><time>2026-04-12T06:31:24.996Z</time></trkpt><trkpt lat="45.674816352791936" lon="8.769319612649221"><ele>287.0</ele><time>2026-04-12T06:31:26.996Z</time></trkpt><trkpt lat="45.674777184350575" lon="8.769417694520877"><ele>287.0</ele><time>2026-04-12T06:31:27.996Z</time></trkpt><trkpt lat="45.67474152445939" lon="8.76952141252658"><ele>287.0</ele><time>2026-04-12T06:31:28.996Z</time></trkpt><trkpt lat="45.6747141885201" lon="8.769621613258387"><ele>287.0</ele><time>2026-04-12T06:31:29.996Z</time></trkpt><trkpt lat="45.674648543174705" lon="8.769798592592132"><ele>286.57142857142856</ele><time>2026-04-12T06:31:31.996Z</time></trkpt><trkpt lat="45.67461048268725" lon="8.769884531238075"><ele>286.1428571428571</ele><time>2026-04-12T06:31:32.996Z</time></trkpt><trkpt lat="45.67457287224624" lon="8.769970141830303"><ele>285.7142857142857</ele><time>2026-04-12T06:31:33.996Z</time></trkpt><trkpt lat="45.67454239104141" lon="8.770054514698243"><ele>285.2857142857143</ele><time>2026-04-12T06:31:34.996Z</time></trkpt><trkpt lat="45.67450615987149" lon="8.770141464606944"><ele>284.85714285714283</ele><time>2026-04-12T06:31:35.996Z</time></trkpt><trkpt lat="45.67446823377651" lon="8.770235465110197"><ele>284.42857142857144</ele><time>2026-04-12T06:31:36.996Z</time></trkpt><trkpt lat="45.67441062650365" lon="8.770325998632917"><ele>284.0</ele><time>2026-04-12T06:31:37.996Z</time></trkpt><trkpt lat="45.67436075151736" lon="8.77042497552599"><ele>281.83333333333337</ele><time>2026-04-12T06:31:38.996Z</time></trkpt><trkpt lat="45.674312761687695" lon="8.770521060015051"><ele>279.6666666666667</ele><time>2026-04-12T06:31:39.996Z</time></trkpt><trkpt lat="45.67425388376012" lon="8.770606099550465"><ele>277.5</ele><time>2026-04-12T06:31:40.996Z</time></trkpt><trkpt lat="45.67419082856547" lon="8.770686470794047"><ele>275.3333333333333</ele><time>2026-04-12T06:31:41.996Z</time></trkpt><trkpt lat="45.67412599500242" lon="8.770768439992137"><ele>273.16666666666663</ele><time>2026-04-12T06:31:42.996Z</time></trkpt><trkpt lat="45.67406351896044" lon="8.77084701781882"><ele>271.0</ele><time>2026-04-12T06:31:43.996Z</time></trkpt><trkpt lat="45.673995291196725" lon="8.7709275813791"><ele>271.0</ele><time>2026-04-12T06:31:44.996Z</time></trkpt><trkpt lat="45.67394852753922" lon="8.771008430604223"><ele>271.0</ele><time>2026-04-12T06:31:45.996Z</time></trkpt><trkpt lat="45.67389595327612" lon="8.771086823756884"><ele>271.0</ele><time>2026-04-12T06:31:46.996Z</time></trkpt><trkpt lat="45.6737942234445" lon="8.771263048073754"><ele>271.0</ele><time>2026-04-12T06:31:48.996Z</time></trkpt><trkpt lat="45.67376285010257" lon="8.771355078002822"><ele>271.0</ele><time>2026-04-12T06:31:49.996Z</time></trkpt><trkpt lat="45.67374149988465" lon="8.77145009364742"><ele>270.8</ele><time>2026-04-12T06:31:50.996Z</time></trkpt><trkpt lat="45.67372443514302" lon="8.771549050778455"><ele>270.6</ele><time>2026-04-12T06:31:51.996Z</time></trkpt><trkpt lat="45.67371418561396" lon="8.77170664568611"><ele>270.4</ele><time>2026-04-12T06:31:53.996Z</time></trkpt><trkpt lat="45.67371048318396" lon="8.77185339655256"><ele>270.2</ele><time>2026-04-12T06:31:55.996Z</time></trkpt><trkpt lat="45.673708479177726" lon="8.772020590677457"><ele>270.0</ele><time>2026-04-12T06:31:57.996Z</time></trkpt><trkpt lat="45.67370017775154" lon="8.772110068464206"><ele>270.0</ele><time>2026-04-12T06:31:58.996Z</time></trkpt><trkpt lat="45.67368420300661" lon="8.772242451305182"><ele>270.0</ele><time>2026-04-12T06:32:00.996Z</time></trkpt><trkpt lat="45.67367206906825" lon="8.77233489338361"><ele>270.0</ele><time>2026-04-12T06:32:02.996Z</time></trkpt><trkpt lat="45.67364755329997" lon="8.772432798281685"><ele>270.0</ele><time>2026-04-12T06:32:04.996Z</time></trkpt><trkpt lat="45.673618267669426" lon="8.772561270351659"><ele>270.0</ele><time>2026-04-12T06:32:06.995Z</time></trkpt><trkpt lat="45.67356002304857" lon="8.77266786695997"><ele>270.0</ele><time>2026-04-12T06:32:08.995Z</time></trkpt><trkpt lat="45.673546804857594" lon="8.772783501185058"><ele>269.8</ele><time>2026-04-12T06:32:10.995Z</time></trkpt><trkpt lat="45.673550400389914" lon="8.772906791316395"><ele>269.6</ele><time>2026-04-12T06:32:12.995Z</time></trkpt><trkpt lat="45.67356392695662" lon="8.773034731348998"><ele>269.4</ele><time>2026-04-12T06:32:14.995Z</time></trkpt><trkpt lat="45.67356619207229" lon="8.773182093396775"><ele>269.2</ele><time>2026-04-12T06:32:16.995Z</time></trkpt><trkpt lat="45.673556424601195" lon="8.77333355937292"><ele>269.0</ele><time>2026-04-12T06:32:18.995Z</time></trkpt><trkpt lat="45.673552316806656" lon="8.77347802191713"><ele>269.0</ele><time>2026-04-12T06:32:20.995Z</time></trkpt><trkpt lat="45.673520974427156" lon="8.773608416375547"><ele>269.0</ele><time>2026-04-12T06:32:22.995Z</time></trkpt><trkpt lat="45.673518573445094" lon="8.773770986630653"><ele>269.0</ele><time>2026-04-12T06:32:24.995Z</time></trkpt><trkpt lat="45.673478270246235" lon="8.773948278854794"><ele>269.0</ele><time>2026-04-12T06:32:26.995Z</time></trkpt><trkpt lat="45.67344507139078" lon="8.77411463148993"><ele>269.0</ele><time>2026-04-12T06:32:28.995Z</time></trkpt><trkpt lat="45.67342341798347" lon="8.774294252270451"><ele>269.0</ele><time>2026-04-12T06:32:30.995Z</time></trkpt><trkpt lat="45.67341034353964" lon="8.774384604947446"><ele>269.0</ele><time>2026-04-12T06:32:31.995Z</time></trkpt><trkpt lat="45.673373318657944" lon="8.774546467877324"><ele>269.0</ele><time>2026-04-12T06:32:33.995Z</time></trkpt><trkpt lat="45.67332311703271" lon="8.774713994997544"><ele>269.0</ele><time>2026-04-12T06:32:35.995Z</time></trkpt><trkpt lat="45.673283201239926" lon="8.774861109566361"><ele>269.1666666666667</ele><time>2026-04-12T06:32:37.995Z</time></trkpt><trkpt lat="45.673242694669604" lon="8.774993884242324"><ele>269.33333333333337</ele><time>2026-04-12T06:32:39.995Z</time></trkpt><trkpt lat="45.673204055037765" lon="8.775102782217413"><ele>269.5</ele><time>2026-04-12T06:32:41.995Z</time></trkpt><trkpt lat="45.673146450606644" lon="8.775260157658266"><ele>269.6666666666667</ele><time>2026-04-12T06:32:43.995Z</time></trkpt><trkpt lat="45.6731214489031" lon="8.77534488725482"><ele>269.8333333333333</ele><time>2026-04-12T06:32:44.995Z</time></trkpt><trkpt lat="45.67308601627302" lon="8.77543493588221"><ele>270.0</ele><time>2026-04-12T06:32:45.995Z</time></trkpt><trkpt lat="45.67303875072054" lon="8.775572959865801"><ele>270.0</ele><time>2026-04-12T06:32:47.995Z</time></trkpt><trkpt lat="45.67297349006724" lon="8.775722113026744"><ele>270.0</ele><time>2026-04-12T06:32:49.995Z</time></trkpt><trkpt lat="45.672922415187195" lon="8.775858891337013"><ele>270.0</ele><time>2026-04-12T06:32:51.995Z</time></trkpt><trkpt lat="45.67288420610104" lon="8.77600375367535"><ele>270.0</ele><time>2026-04-12T06:32:53.995Z</time></trkpt><trkpt lat="45.67288763333011" lon="8.776133848363092"><ele>270.0</ele><time>2026-04-12T06:32:55.995Z</time></trkpt><trkpt lat="45.67294862006509" lon="8.776265530233555"><ele>270.0</ele><time>2026-04-12T06:32:57.996Z</time></trkpt><trkpt lat="45.67302250087685" lon="8.77639075671968"><ele>270.0</ele><time>2026-04-12T06:32:59.995Z</time></trkpt><trkpt lat="45.673045886453764" lon="8.776562269536093"><ele>270.0</ele><time>2026-04-12T06:33:01.996Z</time></trkpt><trkpt lat="45.67299153403307" lon="8.776704311452395"><ele>270.0</ele><time>2026-04-12T06:33:03.996Z</time></trkpt><trkpt lat="45.67290075224431" lon="8.77682648195808"><ele>269.8</ele><time>2026-04-12T06:33:05.996Z</time></trkpt><trkpt lat="45.672837148221284" lon="8.77697248187883"><ele>269.6</ele><time>2026-04-12T06:33:07.995Z</time></trkpt><trkpt lat="45.6728052572626" lon="8.777132764979381"><ele>269.4</ele><time>2026-04-12T06:33:09.996Z</time></trkpt><trkpt lat="45.672754171944675" lon="8.777292510336197"><ele>269.2</ele><time>2026-04-12T06:33:11.995Z</time></trkpt><trkpt lat="45.67271875789964" lon="8.777368888116987"><ele>269.0</ele><time>2026-04-12T06:33:12.995Z</time></trkpt><trkpt lat="45.67268267561396" lon="8.777444631916143"><ele>269.0</ele><time>2026-04-12T06:33:13.995Z</time></trkpt><trkpt lat="45.672613336052244" lon="8.777585692119366"><ele>269.0</ele><time>2026-04-12T06:33:15.995Z</time></trkpt><trkpt lat="45.67255014782234" lon="8.77771411827261"><ele>269.0</ele><time>2026-04-12T06:33:17.995Z</time></trkpt><trkpt lat="45.67251068629998" lon="8.777789306061328"><ele>269.0</ele><time>2026-04-12T06:33:18.995Z</time></trkpt><trkpt lat="45.672472792244214" lon="8.77786182560974"><ele>269.0</ele><time>2026-04-12T06:33:19.995Z</time></trkpt><trkpt lat="45.67243449905075" lon="8.777935520166924"><ele>269.0</ele><time>2026-04-12T06:33:20.995Z</time></trkpt><trkpt lat="45.6723972119092" lon="8.77801456689011"><ele>269.4</ele><time>2026-04-12T06:33:21.995Z</time></trkpt><trkpt lat="45.67232432041313" lon="8.77815901195201"><ele>269.79999999999995</ele><time>2026-04-12T06:33:23.995Z</time></trkpt><trkpt lat="45.67226038841771" lon="8.778291823993937"><ele>270.20000000000005</ele><time>2026-04-12T06:33:25.995Z</time></trkpt><trkpt lat="45.67221984155277" lon="8.778365422093895"><ele>270.6</ele><time>2026-04-12T06:33:26.995Z</time></trkpt><trkpt lat="45.672143199468096" lon="8.77851438462143"><ele>271.0</ele><time>2026-04-12T06:33:28.995Z</time></trkpt><trkpt lat="45.67207797753832" lon="8.778638286644492"><ele>271.0</ele><time>2026-04-12T06:33:30.995Z</time></trkpt><trkpt lat="45.67200939011525" lon="8.77874015957484"><ele>271.0</ele><time>2026-04-12T06:33:32.995Z</time></trkpt><trkpt lat="45.67193846761337" lon="8.778882897380905"><ele>271.0</ele><time>2026-04-12T06:33:34.995Z</time></trkpt><trkpt lat="45.671863741931375" lon="8.779021976262198"><ele>271.0</ele><time>2026-04-12T06:33:36.995Z</time></trkpt><trkpt lat="45.67179365837118" lon="8.77913034493793"><ele>271.0</ele><time>2026-04-12T06:33:38.995Z</time></trkpt><trkpt lat="45.671726805310435" lon="8.779176545070833"><ele>271.2</ele><time>2026-04-12T06:33:41.995Z</time></trkpt><trkpt lat="45.67164993772206" lon="8.77915987570197"><ele>271.40000000000003</ele><time>2026-04-12T06:33:43.995Z</time></trkpt><trkpt lat="45.67154478131986" lon="8.77915118243576"><ele>271.6</ele><time>2026-04-12T06:33:45.995Z</time></trkpt><trkpt lat="45.671451570176295" lon="8.779106886348949"><ele>271.8</ele><time>2026-04-12T06:33:47.995Z</time></trkpt><trkpt lat="45.67134529373346" lon="8.77900429933859"><ele>272.0</ele><time>2026-04-12T06:33:49.995Z</time></trkpt><trkpt lat="45.67128889342752" lon="8.778959087010003"><ele>272.0</ele><time>2026-04-12T06:33:50.995Z</time></trkpt><trkpt lat="45.67118479160142" lon="8.778890291477499"><ele>272.0</ele><time>2026-04-12T06:33:52.995Z</time></trkpt><trkpt lat="45.671091812072575" lon="8.778904878557702"><ele>272.0</ele><time>2026-04-12T06:33:54.995Z</time></trkpt><trkpt lat="45.67104452977289" lon="8.77904451332396"><ele>272.0</ele><time>2026-04-12T06:33:56.995Z</time></trkpt><trkpt lat="45.671070051653615" lon="8.77919139256177"><ele>272.0</ele><time>2026-04-12T06:33:58.995Z</time></trkpt><trkpt lat="45.6710940047808" lon="8.779316802567074"><ele>273.6</ele><time>2026-04-12T06:34:00.995Z</time></trkpt><trkpt lat="45.67110269605768" lon="8.779473681544808"><ele>275.2</ele><time>2026-04-12T06:34:02.995Z</time></trkpt><trkpt lat="45.67110327044393" lon="8.779611889153374"><ele>276.8</ele><time>2026-04-12T06:34:04.995Z</time></trkpt><trkpt lat="45.671084825531665" lon="8.779764397305938"><ele>278.4</ele><time>2026-04-12T06:34:06.995Z</time></trkpt><trkpt lat="45.67104813054556" lon="8.77992018167422"><ele>280.0</ele><time>2026-04-12T06:34:08.994Z</time></trkpt><trkpt lat="45.671018919151265" lon="8.780037537171923"><ele>280.0</ele><time>2026-04-12T06:34:10.994Z</time></trkpt><trkpt lat="45.67098197230902" lon="8.780160941194245"><ele>280.0</ele><time>2026-04-12T06:34:12.994Z</time></trkpt><trkpt lat="45.67092708932923" lon="8.780277276656905"><ele>280.0</ele><time>2026-04-12T06:34:14.994Z</time></trkpt><trkpt lat="45.67087051722909" lon="8.780388491396998"><ele>280.0</ele><time>2026-04-12T06:34:16.994Z</time></trkpt><trkpt lat="45.67082356320422" lon="8.78049494780289"><ele>280.0</ele><time>2026-04-12T06:34:18.994Z</time></trkpt><trkpt lat="45.670775714390615" lon="8.780619162477565"><ele>280.3333333333333</ele><time>2026-04-12T06:34:20.994Z</time></trkpt><trkpt lat="45.670709802474335" lon="8.78073804321378"><ele>280.66666666666663</ele><time>2026-04-12T06:34:22.994Z</time></trkpt><trkpt lat="45.67066113535913" lon="8.780847043167679"><ele>281.0</ele><time>2026-04-12T06:34:24.994Z</time></trkpt><trkpt lat="45.67061196031103" lon="8.780925970229594"><ele>281.3333333333333</ele><time>2026-04-12T06:34:26.994Z</time></trkpt><trkpt lat="45.67055342631475" lon="8.781004939943246"><ele>281.6666666666667</ele><time>2026-04-12T06:34:28.994Z</time></trkpt><trkpt lat="45.670506572291444" lon="8.78108703600161"><ele>282.0</ele><time>2026-04-12T06:34:30.994Z</time></trkpt><trkpt lat="45.67047248006274" lon="8.781164684330017"><ele>282.0</ele><time>2026-04-12T06:34:32.994Z</time></trkpt><trkpt lat="45.670428171879166" lon="8.781263768765172"><ele>282.0</ele><time>2026-04-12T06:34:34.994Z</time></trkpt><trkpt lat="45.67034710647872" lon="8.781298520121206"><ele>282.0</ele><time>2026-04-12T06:34:38.994Z</time></trkpt><trkpt lat="45.67028079030237" lon="8.781177241947727"><ele>282.0</ele><time>2026-04-12T06:34:40.994Z</time></trkpt><trkpt lat="45.670221753526924" lon="8.781103913759834"><ele>282.0</ele><time>2026-04-12T06:34:42.994Z</time></trkpt><trkpt lat="45.670146702272035" lon="8.780986620777588"><ele>282.0</ele><time>2026-04-12T06:34:44.994Z</time></trkpt><trkpt lat="45.67006071524153" lon="8.780891046234728"><ele>282.0</ele><time>2026-04-12T06:34:46.994Z</time></trkpt><trkpt lat="45.6699839595315" lon="8.780778010753757"><ele>282.0</ele><time>2026-04-12T06:34:48.994Z</time></trkpt><trkpt lat="45.66989689224533" lon="8.780684223576488"><ele>282.0</ele><time>2026-04-12T06:34:50.994Z</time></trkpt><trkpt lat="45.669817500408904" lon="8.780576277974498"><ele>282.0</ele><time>2026-04-12T06:34:52.994Z</time></trkpt><trkpt lat="45.66976202806397" lon="8.780511976239806"><ele>282.0</ele><time>2026-04-12T06:34:54.994Z</time></trkpt><trkpt lat="45.6698272759042" lon="8.780508153527547"><ele>282.0</ele><time>2026-04-12T06:35:00.994Z</time></trkpt><trkpt lat="45.66985955994952" lon="8.780415954738887"><ele>282.0</ele><time>2026-04-12T06:35:03.995Z</time></trkpt><trkpt lat="45.669899274765164" lon="8.780298590814"><ele>282.0</ele><time>2026-04-12T06:35:07.995Z</time></trkpt><trkpt lat="45.66987988381555" lon="8.780206839957886"><ele>282.0</ele><time>2026-04-12T06:35:12.995Z</time></trkpt><trkpt lat="45.66990414973677" lon="8.780068079204398"><ele>282.0</ele><time>2026-04-12T06:35:15.995Z</time></trkpt><trkpt lat="45.669952979067496" lon="8.779979764823988"><ele>282.0</ele><time>2026-04-12T06:35:17.995Z</time></trkpt><trkpt lat="45.66999916754781" lon="8.779858755879747"><ele>282.0</ele><time>2026-04-12T06:35:19.995Z</time></trkpt><trkpt lat="45.6700378052597" lon="8.779711009178195"><ele>282.0</ele><time>2026-04-12T06:35:21.995Z</time></trkpt><trkpt lat="45.67006429948532" lon="8.779580544322176"><ele>282.0</ele><time>2026-04-12T06:35:23.995Z</time></trkpt><trkpt lat="45.670077645266396" lon="8.779484931162918"><ele>282.0</ele><time>2026-04-12T06:35:25.995Z</time></trkpt><trkpt lat="45.67011797291475" lon="8.779383440923203"><ele>281.4</ele><time>2026-04-12T06:35:28.995Z</time></trkpt><trkpt lat="45.670132784249795" lon="8.77927054070056"><ele>280.79999999999995</ele><time>2026-04-12T06:35:31.995Z</time></trkpt><trkpt lat="45.67015622597085" lon="8.779107933887694"><ele>280.2</ele><time>2026-04-12T06:35:33.995Z</time></trkpt><trkpt lat="45.67018826030805" lon="8.778973945469128"><ele>279.59999999999997</ele><time>2026-04-12T06:35:35.995Z</time></trkpt><trkpt lat="45.67021376768965" lon="8.778836063978085"><ele>279.0</ele><time>2026-04-12T06:35:37.995Z</time></trkpt><trkpt lat="45.67025443577372" lon="8.778728099628575"><ele>279.0</ele><time>2026-04-12T06:35:40.995Z</time></trkpt><trkpt lat="45.67022138298098" lon="8.77885820036474"><ele>279.0</ele><time>2026-04-12T06:35:47.995Z</time></trkpt><trkpt lat="45.67019752587459" lon="8.778991324895548"><ele>279.0</ele><time>2026-04-12T06:35:49.995Z</time></trkpt><trkpt lat="45.670185329974096" lon="8.779098468627241"><ele>279.0</ele><time>2026-04-12T06:35:51.995Z</time></trkpt><trkpt lat="45.67017335598705" lon="8.779202643925846"><ele>279.0</ele><time>2026-04-12T06:35:53.995Z</time></trkpt><trkpt lat="45.67012853802823" lon="8.779305310877172"><ele>279.0</ele><time>2026-04-12T06:35:55.995Z</time></trkpt><trkpt lat="45.67010486408664" lon="8.779422798139764"><ele>279.59999999999997</ele><time>2026-04-12T06:35:57.995Z</time></trkpt><trkpt lat="45.67006021603139" lon="8.779556547025981"><ele>280.2</ele><time>2026-04-12T06:35:59.995Z</time></trkpt><trkpt lat="45.67002458333669" lon="8.779683772052046"><ele>280.79999999999995</ele><time>2026-04-12T06:36:01.995Z</time></trkpt><trkpt lat="45.66998429716346" lon="8.779806157162069"><ele>281.4</ele><time>2026-04-12T06:36:03.995Z</time></trkpt><trkpt lat="45.66995418740226" lon="8.779910530397208"><ele>282.0</ele><time>2026-04-12T06:36:05.995Z</time></trkpt><trkpt lat="45.669915063648034" lon="8.78003003716367"><ele>282.0</ele><time>2026-04-12T06:36:07.995Z</time></trkpt><trkpt lat="45.66989931773924" lon="8.780142641567629"><ele>282.0</ele><time>2026-04-12T06:36:09.995Z</time></trkpt><trkpt lat="45.66989062216017" lon="8.780233517145644"><ele>282.0</ele><time>2026-04-12T06:36:11.995Z</time></trkpt><trkpt lat="45.66985216165177" lon="8.78033073782606"><ele>282.0</ele><time>2026-04-12T06:36:13.995Z</time></trkpt><trkpt lat="45.66982761783578" lon="8.780424644265677"><ele>282.0</ele><time>2026-04-12T06:36:16.994Z</time></trkpt><trkpt lat="45.6697993122969" lon="8.780525734307643"><ele>282.0</ele><time>2026-04-12T06:36:19.994Z</time></trkpt><trkpt lat="45.66974321502631" lon="8.780603581621397"><ele>282.0</ele><time>2026-04-12T06:36:21.994Z</time></trkpt><trkpt lat="45.66969422397833" lon="8.780673884093941"><ele>282.0</ele><time>2026-04-12T06:36:24.994Z</time></trkpt><trkpt lat="45.66966333671877" lon="8.780770020954256"><ele>282.0</ele><time>2026-04-12T06:36:30.994Z</time></trkpt><trkpt lat="45.66973074065376" lon="8.780685430266434"><ele>282.0</ele><time>2026-04-12T06:36:38.994Z</time></trkpt><trkpt lat="45.66973433880827" lon="8.78059286744516"><ele>282.0</ele><time>2026-04-12T06:36:47.994Z</time></trkpt><trkpt lat="45.6697784918683" lon="8.780527260107707"><ele>282.0</ele><time>2026-04-12T06:36:51.994Z</time></trkpt><trkpt lat="45.66984335939562" lon="8.780451201394685"><ele>282.0</ele><time>2026-04-12T06:36:55.994Z</time></trkpt><trkpt lat="45.66987560692036" lon="8.78036414114289"><ele>282.0</ele><time>2026-04-12T06:36:57.994Z</time></trkpt><trkpt lat="45.66989527410133" lon="8.78022629324112"><ele>282.0</ele><time>2026-04-12T06:36:59.994Z</time></trkpt><trkpt lat="45.66994454327496" lon="8.7800940769926"><ele>282.0</ele><time>2026-04-12T06:37:01.994Z</time></trkpt><trkpt lat="45.66998935614693" lon="8.779962889715465"><ele>282.0</ele><time>2026-04-12T06:37:03.994Z</time></trkpt><trkpt lat="45.67002585125761" lon="8.77979675190282"><ele>282.0</ele><time>2026-04-12T06:37:05.994Z</time></trkpt><trkpt lat="45.67003784728936" lon="8.779702289137251"><ele>282.0</ele><time>2026-04-12T06:37:06.994Z</time></trkpt><trkpt lat="45.67006952380173" lon="8.779564250093696"><ele>282.0</ele><time>2026-04-12T06:37:08.994Z</time></trkpt><trkpt lat="45.670093271057226" lon="8.779404773933866"><ele>282.0</ele><time>2026-04-12T06:37:10.995Z</time></trkpt><trkpt lat="45.67011181066351" lon="8.779316271741827"><ele>282.0</ele><time>2026-04-12T06:37:11.995Z</time></trkpt><trkpt lat="45.67014623951885" lon="8.779166729589994"><ele>282.0</ele><time>2026-04-12T06:37:13.994Z</time></trkpt><trkpt lat="45.67017837111704" lon="8.77900529126152"><ele>282.0</ele><time>2026-04-12T06:37:15.995Z</time></trkpt><trkpt lat="45.670237915243156" lon="8.77894826276289"><ele>281.25</ele><time>2026-04-12T06:37:16.995Z</time></trkpt><trkpt lat="45.670261461959974" lon="8.778778221360605"><ele>280.5</ele><time>2026-04-12T06:37:18.995Z</time></trkpt><trkpt lat="45.67030216948009" lon="8.778655690006213"><ele>279.75</ele><time>2026-04-12T06:37:20.995Z</time></trkpt><trkpt lat="45.670406610847515" lon="8.778606513145675"><ele>279.0</ele><time>2026-04-12T06:37:22.994Z</time></trkpt><trkpt lat="45.67057293013608" lon="8.778713075832068"><ele>278.59999999999997</ele><time>2026-04-12T06:37:25.994Z</time></trkpt><trkpt lat="45.670679884169694" lon="8.778790532714131"><ele>278.2</ele><time>2026-04-12T06:37:27.994Z</time></trkpt><trkpt lat="45.6707823982623" lon="8.77886143671188"><ele>277.79999999999995</ele><time>2026-04-12T06:37:29.994Z</time></trkpt><trkpt lat="45.67088366169343" lon="8.778914947658548"><ele>277.4</ele><time>2026-04-12T06:37:31.994Z</time></trkpt><trkpt lat="45.670951207214486" lon="8.778899402916583"><ele>277.0</ele><time>2026-04-12T06:37:33.994Z</time></trkpt><trkpt lat="45.67098023443178" lon="8.77879893267205"><ele>277.0</ele><time>2026-04-12T06:37:36.994Z</time></trkpt><trkpt lat="45.67093011530354" lon="8.77867980351904"><ele>277.0</ele><time>2026-04-12T06:37:38.994Z</time></trkpt><trkpt lat="45.67084943646833" lon="8.778548972656392"><ele>277.0</ele><time>2026-04-12T06:37:40.994Z</time></trkpt><trkpt lat="45.670803947600234" lon="8.778484885114652"><ele>277.0</ele><time>2026-04-12T06:37:41.994Z</time></trkpt><trkpt lat="45.67075988801841" lon="8.77841797321098"><ele>277.0</ele><time>2026-04-12T06:37:42.994Z</time></trkpt><trkpt lat="45.670684685012525" lon="8.778307019934882"><ele>275.8333333333333</ele><time>2026-04-12T06:37:44.994Z</time></trkpt><trkpt lat="45.67062186951144" lon="8.77818415429882"><ele>274.66666666666663</ele><time>2026-04-12T06:37:46.994Z</time></trkpt><trkpt lat="45.670539519423365" lon="8.77806246185406"><ele>273.5</ele><time>2026-04-12T06:37:48.994Z</time></trkpt><trkpt lat="45.67049125182611" lon="8.777994193890976"><ele>272.3333333333333</ele><time>2026-04-12T06:37:49.994Z</time></trkpt><trkpt lat="45.670439244029865" lon="8.777934944215685"><ele>271.1666666666667</ele><time>2026-04-12T06:37:50.994Z</time></trkpt><trkpt lat="45.67038913565204" lon="8.777872895225887"><ele>270.0</ele><time>2026-04-12T06:37:51.994Z</time></trkpt><trkpt lat="45.6702944439272" lon="8.777751433348092"><ele>269.8333333333333</ele><time>2026-04-12T06:37:53.994Z</time></trkpt><trkpt lat="45.670241596485546" lon="8.777689855024057"><ele>269.6666666666667</ele><time>2026-04-12T06:37:54.994Z</time></trkpt><trkpt lat="45.670188253654366" lon="8.777627237157219"><ele>269.5</ele><time>2026-04-12T06:37:55.994Z</time></trkpt><trkpt lat="45.67012956082282" lon="8.777557918010567"><ele>269.33333333333337</ele><time>2026-04-12T06:37:56.994Z</time></trkpt><trkpt lat="45.67007718806741" lon="8.77749159881312"><ele>269.1666666666667</ele><time>2026-04-12T06:37:57.994Z</time></trkpt><trkpt lat="45.67002673381435" lon="8.777434466518226"><ele>269.0</ele><time>2026-04-12T06:37:58.994Z</time></trkpt><trkpt lat="45.669926261729316" lon="8.77732593437147"><ele>269.0</ele><time>2026-04-12T06:38:00.994Z</time></trkpt><trkpt lat="45.66987460567247" lon="8.77726875364325"><ele>269.0</ele><time>2026-04-12T06:38:01.994Z</time></trkpt><trkpt lat="45.669823506147345" lon="8.777213768612775"><ele>269.0</ele><time>2026-04-12T06:38:02.994Z</time></trkpt><trkpt lat="45.66976696077769" lon="8.77715628021857"><ele>269.0</ele><time>2026-04-12T06:38:03.994Z</time></trkpt><trkpt lat="45.669711045457866" lon="8.777094151755739"><ele>269.0</ele><time>2026-04-12T06:38:04.994Z</time></trkpt><trkpt lat="45.66965782827712" lon="8.777033446203488"><ele>269.0</ele><time>2026-04-12T06:38:05.994Z</time></trkpt><trkpt lat="45.669601821602214" lon="8.77697181491232"><ele>269.0</ele><time>2026-04-12T06:38:06.994Z</time></trkpt><trkpt lat="45.669548894219396" lon="8.77690884292181"><ele>268.8571428571429</ele><time>2026-04-12T06:38:07.994Z</time></trkpt><trkpt lat="45.66949413656532" lon="8.776845198629243"><ele>268.7142857142857</ele><time>2026-04-12T06:38:08.994Z</time></trkpt><trkpt lat="45.66944051845338" lon="8.77678783471778"><ele>268.57142857142856</ele><time>2026-04-12T06:38:09.994Z</time></trkpt><trkpt lat="45.669378971328825" lon="8.77672001791833"><ele>268.42857142857144</ele><time>2026-04-12T06:38:10.994Z</time></trkpt><trkpt lat="45.66932179376197" lon="8.776655485349544"><ele>268.2857142857143</ele><time>2026-04-12T06:38:11.994Z</time></trkpt><trkpt lat="45.66926350287618" lon="8.776591065606736"><ele>268.14285714285717</ele><time>2026-04-12T06:38:12.994Z</time></trkpt><trkpt lat="45.669206756481614" lon="8.776530679139448"><ele>268.0</ele><time>2026-04-12T06:38:13.994Z</time></trkpt><trkpt lat="45.66915307016336" lon="8.776469208887983"><ele>268.0</ele><time>2026-04-12T06:38:14.994Z</time></trkpt><trkpt lat="45.66909823855397" lon="8.776400059523612"><ele>268.0</ele><time>2026-04-12T06:38:15.994Z</time></trkpt><trkpt lat="45.669040251417975" lon="8.77634534622244"><ele>268.0</ele><time>2026-04-12T06:38:16.994Z</time></trkpt><trkpt lat="45.668981993181724" lon="8.776306118414292"><ele>268.0</ele><time>2026-04-12T06:38:17.994Z</time></trkpt><trkpt lat="45.66892051871769" lon="8.77627273079113"><ele>268.0</ele><time>2026-04-12T06:38:18.994Z</time></trkpt><trkpt lat="45.6687965984888" lon="8.776300456267524"><ele>268.0</ele><time>2026-04-12T06:38:20.993Z</time></trkpt><trkpt lat="45.66870802411941" lon="8.77641142421644"><ele>268.0</ele><time>2026-04-12T06:38:22.993Z</time></trkpt><trkpt lat="45.668630149420245" lon="8.776513431255006"><ele>268.0</ele><time>2026-04-12T06:38:24.993Z</time></trkpt><trkpt lat="45.668573959327496" lon="8.776586493772841"><ele>268.0</ele><time>2026-04-12T06:38:26.993Z</time></trkpt><trkpt lat="45.668537782769654" lon="8.776686561740124"><ele>268.0</ele><time>2026-04-12T06:38:28.993Z</time></trkpt><trkpt lat="45.668529702839606" lon="8.776825372613589"><ele>268.0</ele><time>2026-04-12T06:38:30.993Z</time></trkpt><trkpt lat="45.66853878856235" lon="8.776976864926992"><ele>268.0</ele><time>2026-04-12T06:38:32.993Z</time></trkpt><trkpt lat="45.66853642349481" lon="8.777113648805221"><ele>268.0</ele><time>2026-04-12T06:38:34.993Z</time></trkpt><trkpt lat="45.668533958033414" lon="8.77726610755576"><ele>268.0</ele><time>2026-04-12T06:38:36.993Z</time></trkpt><trkpt lat="45.668537004979996" lon="8.777420135283828"><ele>268.0</ele><time>2026-04-12T06:38:38.993Z</time></trkpt><trkpt lat="45.66853105538809" lon="8.777568930213762"><ele>268.0</ele><time>2026-04-12T06:38:40.993Z</time></trkpt><trkpt lat="45.66853380642481" lon="8.77769618650117"><ele>268.0</ele><time>2026-04-12T06:38:42.993Z</time></trkpt><trkpt lat="45.66853063943021" lon="8.77783609185214"><ele>268.0</ele><time>2026-04-12T06:38:44.993Z</time></trkpt><trkpt lat="45.66852835770579" lon="8.777974525936312"><ele>268.0</ele><time>2026-04-12T06:38:46.993Z</time></trkpt><trkpt lat="45.66852684621057" lon="8.778088882981248"><ele>268.0</ele><time>2026-04-12T06:38:48.993Z</time></trkpt><trkpt lat="45.66852980797914" lon="8.778244307477426"><ele>268.0</ele><time>2026-04-12T06:38:50.993Z</time></trkpt><trkpt lat="45.668527016551124" lon="8.778334648191066"><ele>268.0</ele><time>2026-04-12T06:38:51.993Z</time></trkpt><trkpt lat="45.66852768082971" lon="8.778496009103947"><ele>268.6</ele><time>2026-04-12T06:38:53.993Z</time></trkpt><trkpt lat="45.66851591605115" lon="8.778631920885996"><ele>269.20000000000005</ele><time>2026-04-12T06:38:55.993Z</time></trkpt><trkpt lat="45.66852327265902" lon="8.778771640453295"><ele>269.8</ele><time>2026-04-12T06:38:57.993Z</time></trkpt><trkpt lat="45.668505388201666" lon="8.778935650733027"><ele>270.40000000000003</ele><time>2026-04-12T06:38:59.993Z</time></trkpt><trkpt lat="45.66848930345827" lon="8.779075106830298"><ele>271.0</ele><time>2026-04-12T06:39:01.993Z</time></trkpt><trkpt lat="45.6684653343069" lon="8.779217109545128"><ele>271.0</ele><time>2026-04-12T06:39:03.993Z</time></trkpt><trkpt lat="45.6684538461298" lon="8.779334965709968"><ele>271.0</ele><time>2026-04-12T06:39:05.993Z</time></trkpt><trkpt lat="45.668541044507194" lon="8.779453952318683"><ele>271.0</ele><time>2026-04-12T06:39:09.993Z</time></trkpt><trkpt lat="45.668622246362894" lon="8.779475752561833"><ele>271.0</ele><time>2026-04-12T06:39:11.993Z</time></trkpt><trkpt lat="45.6687006475748" lon="8.779511750467556"><ele>271.0</ele><time>2026-04-12T06:39:13.993Z</time></trkpt><trkpt lat="45.66876275642249" lon="8.77954198047565"><ele>271.0</ele><time>2026-04-12T06:39:15.995Z</time></trkpt><trkpt lat="45.668850735860225" lon="8.779584290981395"><ele>272.3333333333333</ele><time>2026-04-12T06:39:18.994Z</time></trkpt><trkpt lat="45.66892162103065" lon="8.779647440766237"><ele>273.66666666666663</ele><time>2026-04-12T06:39:20.994Z</time></trkpt><trkpt lat="45.66897593270419" lon="8.779721123275129"><ele>275.0</ele><time>2026-04-12T06:39:22.995Z</time></trkpt><trkpt lat="45.66899636812864" lon="8.779829802513756"><ele>276.3333333333333</ele><time>2026-04-12T06:39:24.994Z</time></trkpt><trkpt lat="45.66895115168673" lon="8.779748988743485"><ele>277.6666666666667</ele><time>2026-04-12T06:39:32.994Z</time></trkpt><trkpt lat="45.66889789121595" lon="8.779656475838284"><ele>279.0</ele><time>2026-04-12T06:39:34.994Z</time></trkpt><trkpt lat="45.66882434599304" lon="8.77959596769199"><ele>279.0</ele><time>2026-04-12T06:39:36.994Z</time></trkpt><trkpt lat="45.668729043639715" lon="8.779564637650141"><ele>279.0</ele><time>2026-04-12T06:39:38.994Z</time></trkpt><trkpt lat="45.668663520177745" lon="8.77953522396378"><ele>279.0</ele><time>2026-04-12T06:39:39.994Z</time></trkpt><trkpt lat="45.66860159608887" lon="8.779508539657023"><ele>279.0</ele><time>2026-04-12T06:39:40.994Z</time></trkpt><trkpt lat="45.668517338705065" lon="8.779475109702338"><ele>279.0</ele><time>2026-04-12T06:39:42.994Z</time></trkpt><trkpt lat="45.66845920949819" lon="8.779513036908481"><ele>279.0</ele><time>2026-04-12T06:39:46.994Z</time></trkpt><trkpt lat="45.66844476174563" lon="8.779635126982368"><ele>278.0</ele><time>2026-04-12T06:39:48.994Z</time></trkpt><trkpt lat="45.668428587444346" lon="8.779780505353482"><ele>277.0</ele><time>2026-04-12T06:39:50.994Z</time></trkpt><trkpt lat="45.66840558843874" lon="8.779873042427116"><ele>276.0</ele><time>2026-04-12T06:39:51.994Z</time></trkpt><trkpt lat="45.66834692787154" lon="8.779929983894009"><ele>275.0</ele><time>2026-04-12T06:39:52.994Z</time></trkpt><trkpt lat="45.66832152717297" lon="8.780068585674234"><ele>274.0</ele><time>2026-04-12T06:39:54.994Z</time></trkpt><trkpt lat="45.668308793311354" lon="8.780251450887764"><ele>274.0</ele><time>2026-04-12T06:39:56.994Z</time></trkpt><trkpt lat="45.66828589691786" lon="8.78033898458195"><ele>274.0</ele><time>2026-04-12T06:39:57.994Z</time></trkpt><trkpt lat="45.668247650241895" lon="8.780494034867825"><ele>274.0</ele><time>2026-04-12T06:39:59.994Z</time></trkpt><trkpt lat="45.66821844394612" lon="8.780629297884703"><ele>274.0</ele><time>2026-04-12T06:40:01.994Z</time></trkpt><trkpt lat="45.6681407037259" lon="8.780686757689297"><ele>274.0</ele><time>2026-04-12T06:40:03.994Z</time></trkpt><trkpt lat="45.66805624142302" lon="8.780692438496473"><ele>274.0</ele><time>2026-04-12T06:40:05.994Z</time></trkpt><trkpt lat="45.66796953568262" lon="8.780730660097511"><ele>274.0</ele><time>2026-04-12T06:40:07.994Z</time></trkpt><trkpt lat="45.66786683214052" lon="8.780776913142912"><ele>274.0</ele><time>2026-04-12T06:40:09.994Z</time></trkpt><trkpt lat="45.66779346532102" lon="8.78080194763691"><ele>274.0</ele><time>2026-04-12T06:40:10.994Z</time></trkpt><trkpt lat="45.66772081613672" lon="8.780810461769569"><ele>274.0</ele><time>2026-04-12T06:40:11.994Z</time></trkpt><trkpt lat="45.66763715122788" lon="8.780818122740172"><ele>274.0</ele><time>2026-04-12T06:40:12.994Z</time></trkpt><trkpt lat="45.667514291850736" lon="8.780968294846742"><ele>273.0</ele><time>2026-04-12T06:40:14.994Z</time></trkpt><trkpt lat="45.66743585098062" lon="8.78111836846702"><ele>272.0</ele><time>2026-04-12T06:40:16.994Z</time></trkpt><trkpt lat="45.66735668248081" lon="8.781183700518307"><ele>271.0</ele><time>2026-04-12T06:40:17.994Z</time></trkpt><trkpt lat="45.667273036215335" lon="8.781209015113893"><ele>270.0</ele><time>2026-04-12T06:40:18.994Z</time></trkpt><trkpt lat="45.66718905368627" lon="8.781224299228462"><ele>269.0</ele><time>2026-04-12T06:40:19.994Z</time></trkpt><trkpt lat="45.667099458585035" lon="8.781201425225627"><ele>269.0</ele><time>2026-04-12T06:40:20.994Z</time></trkpt><trkpt lat="45.66702504364658" lon="8.78114951916673"><ele>269.0</ele><time>2026-04-12T06:40:21.994Z</time></trkpt><trkpt lat="45.66694687315233" lon="8.781199648598026"><ele>269.0</ele><time>2026-04-12T06:40:22.994Z</time></trkpt><trkpt lat="45.6668552411401" lon="8.781228669968568"><ele>269.0</ele><time>2026-04-12T06:40:23.994Z</time></trkpt><trkpt lat="45.666775725755045" lon="8.781299446898375"><ele>269.0</ele><time>2026-04-12T06:40:24.994Z</time></trkpt><trkpt lat="45.66671500567707" lon="8.781359573315473"><ele>269.0</ele><time>2026-04-12T06:40:25.994Z</time></trkpt><trkpt lat="45.666648356880295" lon="8.781423867814999"><ele>267.33333333333337</ele><time>2026-04-12T06:40:26.994Z</time></trkpt><trkpt lat="45.66654644897466" lon="8.781525669834041"><ele>265.6666666666667</ele><time>2026-04-12T06:40:28.993Z</time></trkpt><trkpt lat="45.666490856566405" lon="8.78158839476189"><ele>264.0</ele><time>2026-04-12T06:40:29.993Z</time></trkpt><trkpt lat="45.66644146053408" lon="8.781647144025408"><ele>262.3333333333333</ele><time>2026-04-12T06:40:30.993Z</time></trkpt><trkpt lat="45.66641535714694" lon="8.781795074541382"><ele>260.66666666666663</ele><time>2026-04-12T06:40:31.993Z</time></trkpt><trkpt lat="45.66640168641827" lon="8.781894339972764"><ele>259.0</ele><time>2026-04-12T06:40:32.993Z</time></trkpt><trkpt lat="45.66639087350666" lon="8.781999455026954"><ele>257.66666666666663</ele><time>2026-04-12T06:40:33.993Z</time></trkpt><trkpt lat="45.666375682402034" lon="8.782192358682831"><ele>256.3333333333333</ele><time>2026-04-12T06:40:35.993Z</time></trkpt><trkpt lat="45.666368201364364" lon="8.782297964430933"><ele>255.0</ele><time>2026-04-12T06:40:36.993Z</time></trkpt><trkpt lat="45.66636176932517" lon="8.782398897980968"><ele>253.66666666666669</ele><time>2026-04-12T06:40:37.993Z</time></trkpt><trkpt lat="45.666366487361316" lon="8.782524936423528"><ele>252.33333333333334</ele><time>2026-04-12T06:40:38.993Z</time></trkpt><trkpt lat="45.66636118038813" lon="8.78263372088066"><ele>251.0</ele><time>2026-04-12T06:40:39.993Z</time></trkpt><trkpt lat="45.66635311363419" lon="8.782755304483267"><ele>250.33333333333334</ele><time>2026-04-12T06:40:40.993Z</time></trkpt><trkpt lat="45.666342621737" lon="8.782875078737785"><ele>249.66666666666669</ele><time>2026-04-12T06:40:41.993Z</time></trkpt><trkpt lat="45.66633396804358" lon="8.782996681887498"><ele>249.0</ele><time>2026-04-12T06:40:42.993Z</time></trkpt><trkpt lat="45.66632975984295" lon="8.783124394395992"><ele>248.33333333333331</ele><time>2026-04-12T06:40:43.993Z</time></trkpt><trkpt lat="45.666323200211735" lon="8.783245311702906"><ele>247.66666666666666</ele><time>2026-04-12T06:40:44.993Z</time></trkpt><trkpt lat="45.66630990798077" lon="8.783364576466065"><ele>247.0</ele><time>2026-04-12T06:40:45.993Z</time></trkpt><trkpt lat="45.66629304975931" lon="8.783472682725987"><ele>247.33333333333331</ele><time>2026-04-12T06:40:46.993Z</time></trkpt><trkpt lat="45.666277710175386" lon="8.783580209036085"><ele>247.66666666666666</ele><time>2026-04-12T06:40:47.993Z</time></trkpt><trkpt lat="45.6662592129921" lon="8.783690748402195"><ele>248.0</ele><time>2026-04-12T06:40:48.993Z</time></trkpt><trkpt lat="45.66624879842487" lon="8.783786518983565"><ele>248.33333333333331</ele><time>2026-04-12T06:40:49.993Z</time></trkpt><trkpt lat="45.666240257179126" lon="8.783886694858246"><ele>248.66666666666666</ele><time>2026-04-12T06:40:50.993Z</time></trkpt><trkpt lat="45.66622614094828" lon="8.783997691267613"><ele>249.0</ele><time>2026-04-12T06:40:51.993Z</time></trkpt><trkpt lat="45.66621525746734" lon="8.784108629726196"><ele>249.0</ele><time>2026-04-12T06:40:52.993Z</time></trkpt><trkpt lat="45.666200344233076" lon="8.784218659612193"><ele>249.0</ele><time>2026-04-12T06:40:53.993Z</time></trkpt><trkpt lat="45.666184881499355" lon="8.784330650789578"><ele>249.0</ele><time>2026-04-12T06:40:54.993Z</time></trkpt><trkpt lat="45.66617249732621" lon="8.78443871188436"><ele>249.0</ele><time>2026-04-12T06:40:55.993Z</time></trkpt><trkpt lat="45.66616247054623" lon="8.784546505054955"><ele>249.0</ele><time>2026-04-12T06:40:56.993Z</time></trkpt><trkpt lat="45.66615413378796" lon="8.784647417201894"><ele>249.0</ele><time>2026-04-12T06:40:57.993Z</time></trkpt><trkpt lat="45.66614403309725" lon="8.78474818422436"><ele>248.85714285714283</ele><time>2026-04-12T06:40:58.993Z</time></trkpt><trkpt lat="45.666130249063485" lon="8.784857093654384"><ele>248.7142857142857</ele><time>2026-04-12T06:40:59.993Z</time></trkpt><trkpt lat="45.66611809922282" lon="8.78495601421762"><ele>248.57142857142856</ele><time>2026-04-12T06:41:00.993Z</time></trkpt><trkpt lat="45.66610161034155" lon="8.785055792400534"><ele>248.42857142857144</ele><time>2026-04-12T06:41:01.993Z</time></trkpt><trkpt lat="45.666078962673865" lon="8.785155922388741"><ele>248.2857142857143</ele><time>2026-04-12T06:41:02.993Z</time></trkpt><trkpt lat="45.666068285595756" lon="8.785254232602647"><ele>248.14285714285717</ele><time>2026-04-12T06:41:03.993Z</time></trkpt><trkpt lat="45.66606130631519" lon="8.785355913980029"><ele>248.0</ele><time>2026-04-12T06:41:04.993Z</time></trkpt><trkpt lat="45.66604943644253" lon="8.785462514084243"><ele>248.0</ele><time>2026-04-12T06:41:05.993Z</time></trkpt><trkpt lat="45.66603740546269" lon="8.78556003451789"><ele>248.00000000000003</ele><time>2026-04-12T06:41:06.993Z</time></trkpt><trkpt lat="45.66602401077416" lon="8.785659928319129"><ele>248.0</ele><time>2026-04-12T06:41:07.993Z</time></trkpt><trkpt lat="45.666016662921564" lon="8.785754416757776"><ele>248.0</ele><time>2026-04-12T06:41:08.993Z</time></trkpt><trkpt lat="45.66600019306398" lon="8.785853493543632"><ele>248.00000000000003</ele><time>2026-04-12T06:41:09.993Z</time></trkpt><trkpt lat="45.665986265783154" lon="8.785953974832218"><ele>248.0</ele><time>2026-04-12T06:41:10.993Z</time></trkpt><trkpt lat="45.66597101109321" lon="8.786053935518733"><ele>248.0</ele><time>2026-04-12T06:41:11.993Z</time></trkpt><trkpt lat="45.66595778470954" lon="8.786155298172996"><ele>248.00000000000003</ele><time>2026-04-12T06:41:12.993Z</time></trkpt><trkpt lat="45.665945575967456" lon="8.78625323433945"><ele>248.0</ele><time>2026-04-12T06:41:13.993Z</time></trkpt><trkpt lat="45.66593915863494" lon="8.78635010283534"><ele>248.0</ele><time>2026-04-12T06:41:14.993Z</time></trkpt><trkpt lat="45.66593588390629" lon="8.78644590451489"><ele>248.0</ele><time>2026-04-12T06:41:15.993Z</time></trkpt><trkpt lat="45.66592984727979" lon="8.786543125235244"><ele>248.00000000000003</ele><time>2026-04-12T06:41:16.993Z</time></trkpt><trkpt lat="45.66591728525279" lon="8.78664135602689"><ele>248.0</ele><time>2026-04-12T06:41:17.993Z</time></trkpt><trkpt lat="45.66590216062744" lon="8.786813784195127"><ele>247.5</ele><time>2026-04-12T06:41:19.993Z</time></trkpt><trkpt lat="45.66586899246768" lon="8.786941948950123"><ele>247.0</ele><time>2026-04-12T06:41:21.994Z</time></trkpt><trkpt lat="45.6659926032999" lon="8.787019882611306"><ele>246.5</ele><time>2026-04-12T06:41:24.994Z</time></trkpt><trkpt lat="45.66609569557465" lon="8.787046363748987"><ele>246.0</ele><time>2026-04-12T06:41:26.995Z</time></trkpt><trkpt lat="45.6662164586777" lon="8.787111986122522"><ele>246.0</ele><time>2026-04-12T06:41:28.996Z</time></trkpt><trkpt lat="45.66628597727039" lon="8.787147117702556"><ele>246.0</ele><time>2026-04-12T06:41:29.996Z</time></trkpt><trkpt lat="45.66635492520166" lon="8.787175216293681"><ele>246.0</ele><time>2026-04-12T06:41:30.996Z</time></trkpt><trkpt lat="45.666416566718794" lon="8.787195265430144"><ele>246.0</ele><time>2026-04-12T06:41:31.996Z</time></trkpt><trkpt lat="45.66647892586788" lon="8.787226389508808"><ele>246.0</ele><time>2026-04-12T06:41:32.997Z</time></trkpt><trkpt lat="45.66654263646636" lon="8.787252482046046"><ele>246.0</ele><time>2026-04-12T06:41:33.997Z</time></trkpt><trkpt lat="45.666662451916906" lon="8.787291977557889"><ele>246.00000000000003</ele><time>2026-04-12T06:41:35.997Z</time></trkpt><trkpt lat="45.66672035746222" lon="8.787328045426053"><ele>246.0</ele><time>2026-04-12T06:41:36.998Z</time></trkpt><trkpt lat="45.66678797288156" lon="8.787360652776652"><ele>246.00000000000003</ele><time>2026-04-12T06:41:37.998Z</time></trkpt><trkpt lat="45.66685608031516" lon="8.7873882275239"><ele>246.00000000000003</ele><time>2026-04-12T06:41:38.998Z</time></trkpt><trkpt lat="45.66691895804386" lon="8.787412328601981"><ele>246.0</ele><time>2026-04-12T06:41:39.998Z</time></trkpt><trkpt lat="45.66698629920248" lon="8.787441082803118"><ele>246.00000000000003</ele><time>2026-04-12T06:41:40.998Z</time></trkpt><trkpt lat="45.66705006940194" lon="8.787474104767414"><ele>246.00000000000003</ele><time>2026-04-12T06:41:41.998Z</time></trkpt><trkpt lat="45.66716015302559" lon="8.787506187782126"><ele>246.33333333333334</ele><time>2026-04-12T06:41:43.999Z</time></trkpt><trkpt lat="45.6672856907622" lon="8.787541874241098"><ele>246.66666666666669</ele><time>2026-04-12T06:41:45.999Z</time></trkpt><trkpt lat="45.667349169359795" lon="8.787567461375366"><ele>247.0</ele><time>2026-04-12T06:41:46.999Z</time></trkpt><trkpt lat="45.66741389554345" lon="8.787589068528195"><ele>247.33333333333334</ele><time>2026-04-12T06:41:47.999Z</time></trkpt><trkpt lat="45.66747709654397" lon="8.78760679966944"><ele>247.66666666666669</ele><time>2026-04-12T06:41:48.999Z</time></trkpt><trkpt lat="45.667596697194284" lon="8.787634892803027"><ele>248.0</ele><time>2026-04-12T06:41:50.999Z</time></trkpt><trkpt lat="45.6676595763146" lon="8.78766553324042"><ele>247.8</ele><time>2026-04-12T06:41:51.999Z</time></trkpt><trkpt lat="45.667765425305205" lon="8.787700716165666"><ele>247.60000000000002</ele><time>2026-04-12T06:41:53.999Z</time></trkpt><trkpt lat="45.667861147746756" lon="8.787737686558362"><ele>247.39999999999998</ele><time>2026-04-12T06:41:55.999Z</time></trkpt><trkpt lat="45.66795391671981" lon="8.787741976990977"><ele>247.2</ele><time>2026-04-12T06:41:57.999Z</time></trkpt><trkpt lat="45.668037343084556" lon="8.787714050158305"><ele>247.0</ele><time>2026-04-12T06:41:59.999Z</time></trkpt><trkpt lat="45.66812141719459" lon="8.78763800442621"><ele>247.8</ele><time>2026-04-12T06:42:02Z</time></trkpt><trkpt lat="45.668173589370525" lon="8.787582065412405"><ele>248.6</ele><time>2026-04-12T06:42:03Z</time></trkpt><trkpt lat="45.668256429717694" lon="8.78749562207565"><ele>249.40000000000003</ele><time>2026-04-12T06:42:05Z</time></trkpt><trkpt lat="45.66831525248278" lon="8.787426033702838"><ele>250.20000000000002</ele><time>2026-04-12T06:42:06Z</time></trkpt><trkpt lat="45.668407484019966" lon="8.787332840577365"><ele>251.0</ele><time>2026-04-12T06:42:08Z</time></trkpt><trkpt lat="45.668513752771446" lon="8.787253961307615"><ele>251.0</ele><time>2026-04-12T06:42:10Z</time></trkpt><trkpt lat="45.668603860100504" lon="8.78716969620141"><ele>251.0</ele><time>2026-04-12T06:42:12Z</time></trkpt><trkpt lat="45.66869576263926" lon="8.787066508281054"><ele>251.0</ele><time>2026-04-12T06:42:14Z</time></trkpt><trkpt lat="45.668804485524404" lon="8.786972595947217"><ele>251.0</ele><time>2026-04-12T06:42:16Z</time></trkpt><trkpt lat="45.6688853190637" lon="8.786864647438994"><ele>250.66666666666669</ele><time>2026-04-12T06:42:18Z</time></trkpt><trkpt lat="45.66898256277808" lon="8.786786408629496"><ele>250.33333333333334</ele><time>2026-04-12T06:42:20Z</time></trkpt><trkpt lat="45.669044423670435" lon="8.786725340843764"><ele>250.0</ele><time>2026-04-12T06:42:21Z</time></trkpt><trkpt lat="45.66910427611887" lon="8.786672869483018"><ele>249.66666666666669</ele><time>2026-04-12T06:42:22Z</time></trkpt><trkpt lat="45.669167831304485" lon="8.786623691922426"><ele>249.33333333333334</ele><time>2026-04-12T06:42:23Z</time></trkpt><trkpt lat="45.669261450833545" lon="8.786524406063712"><ele>249.0</ele><time>2026-04-12T06:42:25Z</time></trkpt><trkpt lat="45.6693445117027" lon="8.786465456371529"><ele>249.2</ele><time>2026-04-12T06:42:27Z</time></trkpt><trkpt lat="45.66945299564018" lon="8.78640882592676"><ele>249.39999999999998</ele><time>2026-04-12T06:42:29Z</time></trkpt><trkpt lat="45.6695400139175" lon="8.786309931389928"><ele>249.6</ele><time>2026-04-12T06:42:31Z</time></trkpt><trkpt lat="45.66960557912392" lon="8.786253525480818"><ele>249.8</ele><time>2026-04-12T06:42:32Z</time></trkpt><trkpt lat="45.669653439179186" lon="8.786191482184199"><ele>250.0</ele><time>2026-04-12T06:42:33Z</time></trkpt><trkpt lat="45.66976134041443" lon="8.786095779800169"><ele>250.0</ele><time>2026-04-12T06:42:35Z</time></trkpt><trkpt lat="45.66981710584005" lon="8.786033123822762"><ele>250.0</ele><time>2026-04-12T06:42:36Z</time></trkpt><trkpt lat="45.66989312129607" lon="8.785924127989539"><ele>250.0</ele><time>2026-04-12T06:42:38Z</time></trkpt><trkpt lat="45.67000789514137" lon="8.785833009213453"><ele>250.0</ele><time>2026-04-12T06:42:40Z</time></trkpt><trkpt lat="45.670094579006815" lon="8.785718198965471"><ele>250.0</ele><time>2026-04-12T06:42:41.999Z</time></trkpt><trkpt lat="45.6701842191858" lon="8.78563852057323"><ele>250.16666666666666</ele><time>2026-04-12T06:42:43.999Z</time></trkpt><trkpt lat="45.6702327488053" lon="8.785572950150042"><ele>250.33333333333331</ele><time>2026-04-12T06:42:44.999Z</time></trkpt><trkpt lat="45.67028950317387" lon="8.785511166268247"><ele>250.5</ele><time>2026-04-12T06:42:45.999Z</time></trkpt><trkpt lat="45.67034050479632" lon="8.785449371995613"><ele>250.66666666666669</ele><time>2026-04-12T06:42:46.999Z</time></trkpt><trkpt lat="45.67043408503352" lon="8.78536304742436"><ele>250.83333333333334</ele><time>2026-04-12T06:42:48.999Z</time></trkpt><trkpt lat="45.670521739790644" lon="8.785291148851963"><ele>251.0</ele><time>2026-04-12T06:42:50.999Z</time></trkpt><trkpt lat="45.670598969565496" lon="8.785219921596237"><ele>251.99999999999997</ele><time>2026-04-12T06:42:52.999Z</time></trkpt><trkpt lat="45.67064830873882" lon="8.785158447601951"><ele>253.0</ele><time>2026-04-12T06:42:54.999Z</time></trkpt><trkpt lat="45.67070938628043" lon="8.785118183249088"><ele>253.99999999999997</ele><time>2026-04-12T06:42:56.999Z</time></trkpt><trkpt lat="45.670772589195614" lon="8.785040865637017"><ele>254.99999999999997</ele><time>2026-04-12T06:42:58.999Z</time></trkpt><trkpt lat="45.67080245685844" lon="8.7849308066832"><ele>256.0</ele><time>2026-04-12T06:43:00.999Z</time></trkpt><trkpt lat="45.67082238971039" lon="8.784834669525893"><ele>256.99999999999994</ele><time>2026-04-12T06:43:02.999Z</time></trkpt><trkpt lat="45.670783281557945" lon="8.784743700868402"><ele>258.0</ele><time>2026-04-12T06:43:04.999Z</time></trkpt><trkpt lat="45.670730150005426" lon="8.784651648705184"><ele>258.0</ele><time>2026-04-12T06:43:07.999Z</time></trkpt><trkpt lat="45.67070439365356" lon="8.784556539603958"><ele>258.0</ele><time>2026-04-12T06:43:09.999Z</time></trkpt><trkpt lat="45.670674602353" lon="8.784453500717067"><ele>258.0</ele><time>2026-04-12T06:43:11.999Z</time></trkpt><trkpt lat="45.67062317949132" lon="8.784328859927442"><ele>258.0</ele><time>2026-04-12T06:43:14.999Z</time></trkpt><trkpt lat="45.67057916724372" lon="8.78423603280037"><ele>258.0</ele><time>2026-04-12T06:43:16.999Z</time></trkpt><trkpt lat="45.67054066518485" lon="8.78415865056276"><ele>258.0</ele><time>2026-04-12T06:43:18.999Z</time></trkpt><trkpt lat="45.6704953834437" lon="8.78405707782734"><ele>257.0</ele><time>2026-04-12T06:43:20.999Z</time></trkpt><trkpt lat="45.67045815252765" lon="8.783956501393043"><ele>256.0</ele><time>2026-04-12T06:43:22.999Z</time></trkpt><trkpt lat="45.67041118842124" lon="8.78386494812526"><ele>255.0</ele><time>2026-04-12T06:43:24.999Z</time></trkpt><trkpt lat="45.67031434160772" lon="8.783788774960914"><ele>254.0</ele><time>2026-04-12T06:43:28Z</time></trkpt><trkpt lat="45.670264985631185" lon="8.783693636045253"><ele>253.0</ele><time>2026-04-12T06:43:30Z</time></trkpt><trkpt lat="45.6703028508907" lon="8.783616118863375"><ele>252.0</ele><time>2026-04-12T06:43:33Z</time></trkpt><trkpt lat="45.67034574912627" lon="8.78369205442387"><ele>254.66666666666666</ele><time>2026-04-12T06:43:37Z</time></trkpt><trkpt lat="45.67042300253838" lon="8.783716243595292"><ele>257.3333333333333</ele><time>2026-04-12T06:43:40Z</time></trkpt><trkpt lat="45.67051291294318" lon="8.783772548539336"><ele>260.0</ele><time>2026-04-12T06:43:43Z</time></trkpt><trkpt lat="45.67059028711629" lon="8.783813985732095"><ele>262.66666666666663</ele><time>2026-04-12T06:43:46Z</time></trkpt><trkpt lat="45.670663121151904" lon="8.783885140949602"><ele>265.3333333333333</ele><time>2026-04-12T06:43:48Z</time></trkpt><trkpt lat="45.670721808798504" lon="8.783923913482559"><ele>268.0</ele><time>2026-04-12T06:43:50Z</time></trkpt><trkpt lat="45.67077670193647" lon="8.783973683298308"><ele>268.0</ele><time>2026-04-12T06:43:52Z</time></trkpt><trkpt lat="45.67083416452853" lon="8.78403102526044"><ele>268.0</ele><time>2026-04-12T06:43:54Z</time></trkpt><trkpt lat="45.670900883049846" lon="8.784088852894879"><ele>268.0</ele><time>2026-04-12T06:43:57Z</time></trkpt><trkpt lat="45.67095929220199" lon="8.784151939678644"><ele>268.0</ele><time>2026-04-12T06:43:59Z</time></trkpt><trkpt lat="45.67101655729758" lon="8.784196964431688"><ele>268.0</ele><time>2026-04-12T06:44:01Z</time></trkpt><trkpt lat="45.67107025999246" lon="8.784249559786097"><ele>268.0</ele><time>2026-04-12T06:44:04Z</time></trkpt><trkpt lat="45.671121437019224" lon="8.784306844406744"><ele>268.0</ele><time>2026-04-12T06:44:06Z</time></trkpt><trkpt lat="45.67117689187552" lon="8.78436358896325"><ele>270.0</ele><time>2026-04-12T06:44:08Z</time></trkpt><trkpt lat="45.67124276194113" lon="8.784392860830645"><ele>272.0</ele><time>2026-04-12T06:44:10Z</time></trkpt><trkpt lat="45.67130420101021" lon="8.784461510058646"><ele>274.0</ele><time>2026-04-12T06:44:13Z</time></trkpt><trkpt lat="45.67137485642583" lon="8.784556710393897"><ele>276.0</ele><time>2026-04-12T06:44:16Z</time></trkpt><trkpt lat="45.671443045904105" lon="8.784620120678872"><ele>278.0</ele><time>2026-04-12T06:44:19Z</time></trkpt><trkpt lat="45.67152338417016" lon="8.784700328272024"><ele>280.0</ele><time>2026-04-12T06:44:22Z</time></trkpt><trkpt lat="45.67158227560013" lon="8.784823517386183"><ele>280.0</ele><time>2026-04-12T06:44:25Z</time></trkpt><trkpt lat="45.671651790410046" lon="8.784875072419537"><ele>280.0</ele><time>2026-04-12T06:44:28Z</time></trkpt><trkpt lat="45.6717234131549" lon="8.784820007579903"><ele>280.0</ele><time>2026-04-12T06:44:30.999Z</time></trkpt><trkpt lat="45.671677096606864" lon="8.784741501586858"><ele>280.0</ele><time>2026-04-12T06:44:33.999Z</time></trkpt><trkpt lat="45.671624786553195" lon="8.78468666066369"><ele>280.0</ele><time>2026-04-12T06:44:37.999Z</time></trkpt><trkpt lat="45.671570065152316" lon="8.784588758688864"><ele>280.0</ele><time>2026-04-12T06:44:41.999Z</time></trkpt><trkpt lat="45.67152932492822" lon="8.784500000278632"><ele>280.0</ele><time>2026-04-12T06:44:44.999Z</time></trkpt><trkpt lat="45.67147235069741" lon="8.784431035869211"><ele>280.0</ele><time>2026-04-12T06:44:47.999Z</time></trkpt><trkpt lat="45.671457720212004" lon="8.784336114594689"><ele>280.0</ele><time>2026-04-12T06:44:49.999Z</time></trkpt><trkpt lat="45.671474625708896" lon="8.784243004224352"><ele>280.0</ele><time>2026-04-12T06:44:51.999Z</time></trkpt><trkpt lat="45.6715048728139" lon="8.784142944132315"><ele>280.0</ele><time>2026-04-12T06:44:53.999Z</time></trkpt><trkpt lat="45.67154341007439" lon="8.784065624732714"><ele>280.0</ele><time>2026-04-12T06:44:55.999Z</time></trkpt><trkpt lat="45.67159316025849" lon="8.783961793889755"><ele>280.0</ele><time>2026-04-12T06:44:58.999Z</time></trkpt><trkpt lat="45.67165753737074" lon="8.783951105858822"><ele>280.8333333333333</ele><time>2026-04-12T06:45:01.999Z</time></trkpt><trkpt lat="45.671726444095" lon="8.784047064681513"><ele>281.66666666666663</ele><time>2026-04-12T06:45:04.999Z</time></trkpt><trkpt lat="45.67181332624549" lon="8.784059721457485"><ele>282.5</ele><time>2026-04-12T06:45:07.999Z</time></trkpt><trkpt lat="45.67186606347184" lon="8.783998399235397"><ele>283.3333333333333</ele><time>2026-04-12T06:45:09.999Z</time></trkpt><trkpt lat="45.6719124607936" lon="8.78392914021585"><ele>284.1666666666667</ele><time>2026-04-12T06:45:11.999Z</time></trkpt><trkpt lat="45.67198237249716" lon="8.783895620038631"><ele>285.0</ele><time>2026-04-12T06:45:13.999Z</time></trkpt><trkpt lat="45.672055375032045" lon="8.783974367824102"><ele>285.1428571428571</ele><time>2026-04-12T06:45:16.999Z</time></trkpt><trkpt lat="45.67211928239487" lon="8.784014629707013"><ele>285.2857142857143</ele><time>2026-04-12T06:45:18.999Z</time></trkpt><trkpt lat="45.67218083244327" lon="8.784068169542211"><ele>285.42857142857144</ele><time>2026-04-12T06:45:20.999Z</time></trkpt><trkpt lat="45.672236735977584" lon="8.784133542953866"><ele>285.57142857142856</ele><time>2026-04-12T06:45:23.999Z</time></trkpt><trkpt lat="45.67228808011983" lon="8.784186109978414"><ele>285.7142857142857</ele><time>2026-04-12T06:45:25.999Z</time></trkpt><trkpt lat="45.67233914096864" lon="8.784264524656884"><ele>285.85714285714283</ele><time>2026-04-12T06:45:27.999Z</time></trkpt><trkpt lat="45.67240432822252" lon="8.784320771189426"><ele>286.0</ele><time>2026-04-12T06:45:29.999Z</time></trkpt><trkpt lat="45.67245918128292" lon="8.784387806668034"><ele>286.0</ele><time>2026-04-12T06:45:31.999Z</time></trkpt><trkpt lat="45.67252794292701" lon="8.784462930105853"><ele>286.0</ele><time>2026-04-12T06:45:34Z</time></trkpt><trkpt lat="45.672585647293154" lon="8.784526292807817"><ele>286.0</ele><time>2026-04-12T06:45:36Z</time></trkpt><trkpt lat="45.672655322118366" lon="8.784611281653978"><ele>286.0</ele><time>2026-04-12T06:45:38Z</time></trkpt><trkpt lat="45.67271563464444" lon="8.784698669281255"><ele>286.0</ele><time>2026-04-12T06:45:40Z</time></trkpt><trkpt lat="45.67280254127846" lon="8.784795859520425"><ele>286.0</ele><time>2026-04-12T06:45:43Z</time></trkpt><trkpt lat="45.672879047881985" lon="8.784903234468073"><ele>286.0</ele><time>2026-04-12T06:45:45Z</time></trkpt><trkpt lat="45.67294437972193" lon="8.784993265189575"><ele>286.0</ele><time>2026-04-12T06:45:47Z</time></trkpt><trkpt lat="45.67300684807184" lon="8.785094529895188"><ele>286.0</ele><time>2026-04-12T06:45:49Z</time></trkpt><trkpt lat="45.67309139349399" lon="8.785175396274914"><ele>286.0</ele><time>2026-04-12T06:45:51Z</time></trkpt><trkpt lat="45.67315501188063" lon="8.785212308455028"><ele>286.0</ele><time>2026-04-12T06:45:53Z</time></trkpt><trkpt lat="45.67324945229236" lon="8.785237436202705"><ele>285.8</ele><time>2026-04-12T06:45:55Z</time></trkpt><trkpt lat="45.6733412890585" lon="8.785311550681975"><ele>285.6</ele><time>2026-04-12T06:45:57Z</time></trkpt><trkpt lat="45.673429709998025" lon="8.785348829729323"><ele>285.4</ele><time>2026-04-12T06:45:59Z</time></trkpt><trkpt lat="45.67349186326315" lon="8.78540226713974"><ele>285.2</ele><time>2026-04-12T06:46:00Z</time></trkpt><trkpt lat="45.67354965743033" lon="8.785466531693856"><ele>285.0</ele><time>2026-04-12T06:46:01Z</time></trkpt><trkpt lat="45.67362556433291" lon="8.785620704226778"><ele>285.0</ele><time>2026-04-12T06:46:03Z</time></trkpt><trkpt lat="45.673736403716894" lon="8.785652450192307"><ele>285.0</ele><time>2026-04-12T06:46:05Z</time></trkpt><trkpt lat="45.673890292693514" lon="8.785661625795731"><ele>285.0</ele><time>2026-04-12T06:46:07Z</time></trkpt><trkpt lat="45.673974631293284" lon="8.78566029470121"><ele>285.0</ele><time>2026-04-12T06:46:08Z</time></trkpt><trkpt lat="45.674056563358285" lon="8.785674499795931"><ele>285.0</ele><time>2026-04-12T06:46:09Z</time></trkpt><trkpt lat="45.67414171686739" lon="8.785703986305101"><ele>285.0</ele><time>2026-04-12T06:46:10Z</time></trkpt><trkpt lat="45.67423938868965" lon="8.785766987709572"><ele>285.0</ele><time>2026-04-12T06:46:12Z</time></trkpt><trkpt lat="45.67428790076696" lon="8.785842649279441"><ele>285.0</ele><time>2026-04-12T06:46:14Z</time></trkpt><trkpt lat="45.67447234116882" lon="8.785738600367889"><ele>285.0</ele><time>2026-04-12T06:46:15Z</time></trkpt><trkpt lat="45.67455870092376" lon="8.785655102576264"><ele>284.0</ele><time>2026-04-12T06:46:17Z</time></trkpt><trkpt lat="45.67459547808779" lon="8.785577275796795"><ele>283.0</ele><time>2026-04-12T06:46:18Z</time></trkpt><trkpt lat="45.6746580496692" lon="8.785499839873161"><ele>282.0</ele><time>2026-04-12T06:46:20Z</time></trkpt><trkpt lat="45.67467941395485" lon="8.785396828316202"><ele>281.0</ele><time>2026-04-12T06:46:23Z</time></trkpt><trkpt lat="45.67474661402502" lon="8.785407201504183"><ele>280.0</ele><time>2026-04-12T06:46:34Z</time></trkpt><trkpt lat="45.67470701701534" lon="8.785489332832954"><ele>279.0</ele><time>2026-04-12T06:46:36Z</time></trkpt><trkpt lat="45.67463794377333" lon="8.785546542177851"><ele>278.0</ele><time>2026-04-12T06:46:38Z</time></trkpt><trkpt lat="45.67461094859334" lon="8.785652125927678"><ele>278.0</ele><time>2026-04-12T06:46:41Z</time></trkpt><trkpt lat="45.67466640233584" lon="8.785709466047448"><ele>278.0</ele><time>2026-04-12T06:46:43Z</time></trkpt><trkpt lat="45.674733701062124" lon="8.785727967351303"><ele>278.0</ele><time>2026-04-12T06:46:45Z</time></trkpt><trkpt lat="45.67480171427288" lon="8.785745973630776"><ele>278.0</ele><time>2026-04-12T06:46:46.999Z</time></trkpt><trkpt lat="45.674909147492755" lon="8.785815655189081"><ele>278.0</ele><time>2026-04-12T06:46:48.999Z</time></trkpt><trkpt lat="45.67497249759433" lon="8.785852995353334"><ele>278.0</ele><time>2026-04-12T06:46:49.999Z</time></trkpt><trkpt lat="45.675028399016306" lon="8.785930970369972"><ele>278.0</ele><time>2026-04-12T06:46:50.999Z</time></trkpt><trkpt lat="45.67513998336225" lon="8.785986891230388"><ele>278.0</ele><time>2026-04-12T06:46:52.999Z</time></trkpt><trkpt lat="45.67520792840321" lon="8.786021031740319"><ele>278.0</ele><time>2026-04-12T06:46:53.999Z</time></trkpt><trkpt lat="45.6752848169116" lon="8.786058852229795"><ele>278.0</ele><time>2026-04-12T06:46:54.999Z</time></trkpt><trkpt lat="45.675364964290836" lon="8.786095793206904"><ele>278.0</ele><time>2026-04-12T06:46:55.999Z</time></trkpt><trkpt lat="45.67545426827997" lon="8.786038891276535"><ele>274.4</ele><time>2026-04-12T06:46:56.999Z</time></trkpt><trkpt lat="45.6755215501425" lon="8.786049684889205"><ele>270.8</ele><time>2026-04-12T06:46:57.999Z</time></trkpt><trkpt lat="45.67559186269034" lon="8.786066068530719"><ele>267.2</ele><time>2026-04-12T06:46:58.999Z</time></trkpt><trkpt lat="45.675703645854604" lon="8.786115651238257"><ele>263.6</ele><time>2026-04-12T06:47:00.999Z</time></trkpt><trkpt lat="45.67581386563717" lon="8.786164788263253"><ele>260.0</ele><time>2026-04-12T06:47:02.999Z</time></trkpt><trkpt lat="45.67592219847027" lon="8.78620153174344"><ele>260.0</ele><time>2026-04-12T06:47:04.999Z</time></trkpt><trkpt lat="45.67603456714625" lon="8.786223005839734"><ele>260.0</ele><time>2026-04-12T06:47:06.999Z</time></trkpt><trkpt lat="45.67614156166559" lon="8.786231384665417"><ele>260.0</ele><time>2026-04-12T06:47:08.999Z</time></trkpt><trkpt lat="45.67627073198278" lon="8.786230009246042"><ele>260.0</ele><time>2026-04-12T06:47:11.999Z</time></trkpt><trkpt lat="45.676383189803694" lon="8.78623655293432"><ele>261.2</ele><time>2026-04-12T06:47:14.999Z</time></trkpt><trkpt lat="45.67645629674476" lon="8.786255358395216"><ele>262.4</ele><time>2026-04-12T06:47:16.999Z</time></trkpt><trkpt lat="45.67652554564647" lon="8.78626145862423"><ele>263.6</ele><time>2026-04-12T06:47:18.999Z</time></trkpt><trkpt lat="45.67661130749673" lon="8.786273246098647"><ele>264.8</ele><time>2026-04-12T06:47:20.999Z</time></trkpt><trkpt lat="45.67678059845259" lon="8.786273823066585"><ele>266.0</ele><time>2026-04-12T06:47:24.999Z</time></trkpt><trkpt lat="45.67693290851392" lon="8.786289223294037"><ele>267.25</ele><time>2026-04-12T06:47:27.999Z</time></trkpt><trkpt lat="45.67703763204977" lon="8.78629640593976"><ele>268.5</ele><time>2026-04-12T06:47:29.999Z</time></trkpt><trkpt lat="45.67727283083757" lon="8.786291429740116"><ele>269.75</ele><time>2026-04-12T06:47:34.999Z</time></trkpt><trkpt lat="45.67737674070228" lon="8.786262069855333"><ele>271.0</ele><time>2026-04-12T06:47:36.999Z</time></trkpt><trkpt lat="45.677470667554" lon="8.78624520225079"><ele>271.0</ele><time>2026-04-12T06:47:38.999Z</time></trkpt><trkpt lat="45.677553837006094" lon="8.786228326982698"><ele>271.0</ele><time>2026-04-12T06:47:41Z</time></trkpt><trkpt lat="45.67768393233615" lon="8.786221812832062"><ele>271.0</ele><time>2026-04-12T06:47:44Z</time></trkpt><trkpt lat="45.67777292993085" lon="8.786233757910647"><ele>271.0</ele><time>2026-04-12T06:47:46Z</time></trkpt><trkpt lat="45.67785558823705" lon="8.786260023315506"><ele>271.0</ele><time>2026-04-12T06:47:48Z</time></trkpt><trkpt lat="45.677925773276364" lon="8.78628734873824"><ele>273.2</ele><time>2026-04-12T06:47:50Z</time></trkpt><trkpt lat="45.67800667234425" lon="8.786347000989744"><ele>275.40000000000003</ele><time>2026-04-12T06:47:52Z</time></trkpt><trkpt lat="45.67808163845783" lon="8.78640929513446"><ele>277.6</ele><time>2026-04-12T06:47:54Z</time></trkpt><trkpt lat="45.67816355241687" lon="8.786474908617192"><ele>279.8</ele><time>2026-04-12T06:47:56Z</time></trkpt><trkpt lat="45.67824278295034" lon="8.786535983163413"><ele>282.0</ele><time>2026-04-12T06:47:58Z</time></trkpt><trkpt lat="45.67832814142664" lon="8.786602327894343"><ele>282.0</ele><time>2026-04-12T06:48:01Z</time></trkpt><trkpt lat="45.67839457280755" lon="8.786654430201391"><ele>282.0</ele><time>2026-04-12T06:48:03Z</time></trkpt><trkpt lat="45.678465960525244" lon="8.786713431021166"><ele>282.0</ele><time>2026-04-12T06:48:05Z</time></trkpt><trkpt lat="45.67852980589473" lon="8.786748955168122"><ele>282.0</ele><time>2026-04-12T06:48:07Z</time></trkpt><trkpt lat="45.678598634868685" lon="8.78684214701905"><ele>282.0</ele><time>2026-04-12T06:48:09Z</time></trkpt><trkpt lat="45.67866751328597" lon="8.786916141818999"><ele>282.0</ele><time>2026-04-12T06:48:11Z</time></trkpt><trkpt lat="45.678743240690416" lon="8.786995550205003"><ele>281.8333333333333</ele><time>2026-04-12T06:48:13Z</time></trkpt><trkpt lat="45.67879706671363" lon="8.787066770642879"><ele>281.6666666666667</ele><time>2026-04-12T06:48:15Z</time></trkpt><trkpt lat="45.67889383813166" lon="8.787129704920732"><ele>281.5</ele><time>2026-04-12T06:48:17Z</time></trkpt><trkpt lat="45.67897708812336" lon="8.787190119096003"><ele>281.33333333333337</ele><time>2026-04-12T06:48:19Z</time></trkpt><trkpt lat="45.6790566809017" lon="8.787258798965324"><ele>281.1666666666667</ele><time>2026-04-12T06:48:21Z</time></trkpt><trkpt lat="45.67913309680895" lon="8.78730422290751"><ele>281.0</ele><time>2026-04-12T06:48:23Z</time></trkpt><trkpt lat="45.67928715408347" lon="8.787330909996026"><ele>281.0</ele><time>2026-04-12T06:48:27Z</time></trkpt><trkpt lat="45.679365018849566" lon="8.787348777622421"><ele>281.0</ele><time>2026-04-12T06:48:29Z</time></trkpt><trkpt lat="45.679455622398116" lon="8.787361924293064"><ele>281.0</ele><time>2026-04-12T06:48:31Z</time></trkpt><trkpt lat="45.67957828945379" lon="8.787383656751322"><ele>281.0</ele><time>2026-04-12T06:48:33Z</time></trkpt><trkpt lat="45.679692088414484" lon="8.787418343115188"><ele>281.0</ele><time>2026-04-12T06:48:35Z</time></trkpt><trkpt lat="45.679789716899634" lon="8.787478200037953"><ele>281.33333333333337</ele><time>2026-04-12T06:48:37Z</time></trkpt><trkpt lat="45.679851254495944" lon="8.787508911528361"><ele>281.6666666666667</ele><time>2026-04-12T06:48:38Z</time></trkpt><trkpt lat="45.679960923932065" lon="8.787551254644951"><ele>282.0</ele><time>2026-04-12T06:48:40Z</time></trkpt><trkpt lat="45.680061139401076" lon="8.78759966977964"><ele>282.3333333333333</ele><time>2026-04-12T06:48:42Z</time></trkpt><trkpt lat="45.68013492276728" lon="8.787620095279555"><ele>282.66666666666663</ele><time>2026-04-12T06:48:44Z</time></trkpt><trkpt lat="45.68020144282547" lon="8.787662973483467"><ele>283.0</ele><time>2026-04-12T06:48:46Z</time></trkpt><trkpt lat="45.68028048687991" lon="8.787700061977704"><ele>283.6</ele><time>2026-04-12T06:48:48Z</time></trkpt><trkpt lat="45.68036283206" lon="8.787722447989811"><ele>284.20000000000005</ele><time>2026-04-12T06:48:50Z</time></trkpt><trkpt lat="45.680437347188786" lon="8.787693076603434"><ele>284.8</ele><time>2026-04-12T06:48:52Z</time></trkpt><trkpt lat="45.68052924500683" lon="8.787599852455156"><ele>285.40000000000003</ele><time>2026-04-12T06:48:53.999Z</time></trkpt><trkpt lat="45.68060003369672" lon="8.7874788701351"><ele>286.0</ele><time>2026-04-12T06:48:55.999Z</time></trkpt><trkpt lat="45.680645640885814" lon="8.787409279501288"><ele>286.0</ele><time>2026-04-12T06:48:56.999Z</time></trkpt><trkpt lat="45.680690196500414" lon="8.787331826405268"><ele>286.0</ele><time>2026-04-12T06:48:57.999Z</time></trkpt><trkpt lat="45.68073541845419" lon="8.787257425140687"><ele>286.0</ele><time>2026-04-12T06:48:58.999Z</time></trkpt><trkpt lat="45.680782083324736" lon="8.787182616421942"><ele>286.0</ele><time>2026-04-12T06:48:59.999Z</time></trkpt><trkpt lat="45.68086360873266" lon="8.787046575130294"><ele>286.0</ele><time>2026-04-12T06:49:01.999Z</time></trkpt><trkpt lat="45.68093691181418" lon="8.78690537907299"><ele>286.8</ele><time>2026-04-12T06:49:03.999Z</time></trkpt><trkpt lat="45.68098055499617" lon="8.786826525745218"><ele>287.6</ele><time>2026-04-12T06:49:04.999Z</time></trkpt><trkpt lat="45.681026001513615" lon="8.786747915221751"><ele>288.4</ele><time>2026-04-12T06:49:05.999Z</time></trkpt><trkpt lat="45.68107833327197" lon="8.786667854702104"><ele>289.2</ele><time>2026-04-12T06:49:06.999Z</time></trkpt><trkpt lat="45.68115853368408" lon="8.786526819712211"><ele>290.0</ele><time>2026-04-12T06:49:08.999Z</time></trkpt><trkpt lat="45.681239673635815" lon="8.786370888343724"><ele>290.0</ele><time>2026-04-12T06:49:10.999Z</time></trkpt><trkpt lat="45.68128948227045" lon="8.78628703594591"><ele>290.0</ele><time>2026-04-12T06:49:11.999Z</time></trkpt><trkpt lat="45.68133535034718" lon="8.786208023853963"><ele>290.0</ele><time>2026-04-12T06:49:12.999Z</time></trkpt><trkpt lat="45.68138895140738" lon="8.786127404973211"><ele>290.0</ele><time>2026-04-12T06:49:13.999Z</time></trkpt><trkpt lat="45.681429939439845" lon="8.78605587052035"><ele>290.0</ele><time>2026-04-12T06:49:14.999Z</time></trkpt><trkpt lat="45.681470964787" lon="8.785985858864294"><ele>290.0</ele><time>2026-04-12T06:49:15.999Z</time></trkpt><trkpt lat="45.68151636261379" lon="8.785921685986073"><ele>290.0</ele><time>2026-04-12T06:49:16.999Z</time></trkpt><trkpt lat="45.68155794643486" lon="8.785848222417846"><ele>289.8</ele><time>2026-04-12T06:49:17.999Z</time></trkpt><trkpt lat="45.68160284331368" lon="8.785770155089494"><ele>289.6</ele><time>2026-04-12T06:49:18.999Z</time></trkpt><trkpt lat="45.68165631100341" lon="8.785700884884985"><ele>289.4</ele><time>2026-04-12T06:49:19.999Z</time></trkpt><trkpt lat="45.68174359576114" lon="8.785560425524196"><ele>289.2</ele><time>2026-04-12T06:49:21.999Z</time></trkpt><trkpt lat="45.681825378351085" lon="8.78540747390367"><ele>289.0</ele><time>2026-04-12T06:49:23.999Z</time></trkpt><trkpt lat="45.68186658499142" lon="8.78533307349118"><ele>289.0</ele><time>2026-04-12T06:49:24.999Z</time></trkpt><trkpt lat="45.681905122308976" lon="8.7852608973664"><ele>289.0</ele><time>2026-04-12T06:49:25.999Z</time></trkpt><trkpt lat="45.68194836080669" lon="8.785186271847047"><ele>289.0</ele><time>2026-04-12T06:49:26.999Z</time></trkpt><trkpt lat="45.68199794456812" lon="8.785107278432024"><ele>289.0</ele><time>2026-04-12T06:49:27.999Z</time></trkpt><trkpt lat="45.68203404839555" lon="8.785028269653033"><ele>289.0</ele><time>2026-04-12T06:49:28.999Z</time></trkpt><trkpt lat="45.68207417874498" lon="8.78494969362562"><ele>289.0</ele><time>2026-04-12T06:49:29.999Z</time></trkpt><trkpt lat="45.682154255803106" lon="8.784820769305075"><ele>289.16666666666663</ele><time>2026-04-12T06:49:31.999Z</time></trkpt><trkpt lat="45.68220282794948" lon="8.784751548216693"><ele>289.3333333333333</ele><time>2026-04-12T06:49:32.999Z</time></trkpt><trkpt lat="45.68228425051135" lon="8.784609078458997"><ele>289.5</ele><time>2026-04-12T06:49:34.999Z</time></trkpt><trkpt lat="45.682330331780804" lon="8.784537876667136"><ele>289.6666666666667</ele><time>2026-04-12T06:49:35.999Z</time></trkpt><trkpt lat="45.68237279217439" lon="8.784464411587958"><ele>289.83333333333337</ele><time>2026-04-12T06:49:36.999Z</time></trkpt><trkpt lat="45.68241377419915" lon="8.784392095866627"><ele>290.0</ele><time>2026-04-12T06:49:37.999Z</time></trkpt><trkpt lat="45.682479420737565" lon="8.784230736220794"><ele>290.0</ele><time>2026-04-12T06:49:39.999Z</time></trkpt><trkpt lat="45.682520311722655" lon="8.78414375439534"><ele>290.0</ele><time>2026-04-12T06:49:40.999Z</time></trkpt><trkpt lat="45.68255526709385" lon="8.78405776039583"><ele>290.0</ele><time>2026-04-12T06:49:41.999Z</time></trkpt><trkpt lat="45.68264404072669" lon="8.783946240918306"><ele>290.0</ele><time>2026-04-12T06:49:43.999Z</time></trkpt><trkpt lat="45.68270711175667" lon="8.783925348896577"><ele>290.0</ele><time>2026-04-12T06:49:44.999Z</time></trkpt><trkpt lat="45.68277573197682" lon="8.78393224509828"><ele>290.0</ele><time>2026-04-12T06:49:46Z</time></trkpt><trkpt lat="45.68283433549455" lon="8.783984315026109"><ele>289.57142857142856</ele><time>2026-04-12T06:49:47Z</time></trkpt><trkpt lat="45.682877238642924" lon="8.784065668706377"><ele>289.14285714285717</ele><time>2026-04-12T06:49:48Z</time></trkpt><trkpt lat="45.68292619976908" lon="8.784166441858806"><ele>288.7142857142857</ele><time>2026-04-12T06:49:49Z</time></trkpt><trkpt lat="45.68296214356138" lon="8.784253688134841"><ele>288.2857142857143</ele><time>2026-04-12T06:49:50Z</time></trkpt><trkpt lat="45.6830066848133" lon="8.784343752795527"><ele>287.8571428571429</ele><time>2026-04-12T06:49:51Z</time></trkpt><trkpt lat="45.68305576028019" lon="8.784420445859984"><ele>287.42857142857144</ele><time>2026-04-12T06:49:52Z</time></trkpt><trkpt lat="45.68309829863837" lon="8.784499543887268"><ele>287.0</ele><time>2026-04-12T06:49:53Z</time></trkpt><trkpt lat="45.68315559098172" lon="8.78456901090436"><ele>287.0</ele><time>2026-04-12T06:49:54Z</time></trkpt><trkpt lat="45.6832054946966" lon="8.784642805619225"><ele>287.0</ele><time>2026-04-12T06:49:55Z</time></trkpt><trkpt lat="45.683293175830116" lon="8.784778868197025"><ele>287.0</ele><time>2026-04-12T06:49:57Z</time></trkpt><trkpt lat="45.68336193149487" lon="8.78491986642291"><ele>287.0</ele><time>2026-04-12T06:49:59Z</time></trkpt><trkpt lat="45.68340121871878" lon="8.784991273621282"><ele>287.0</ele><time>2026-04-12T06:50:00Z</time></trkpt><trkpt lat="45.68344776471795" lon="8.785071156815881"><ele>287.0</ele><time>2026-04-12T06:50:01Z</time></trkpt><trkpt lat="45.6834924859904" lon="8.785139426699264"><ele>287.0</ele><time>2026-04-12T06:50:02Z</time></trkpt><trkpt lat="45.683608774753615" lon="8.785193273322276"><ele>287.0</ele><time>2026-04-12T06:50:04Z</time></trkpt><trkpt lat="45.68368034004129" lon="8.785176166740595"><ele>287.0</ele><time>2026-04-12T06:50:05Z</time></trkpt><trkpt lat="45.683743197834744" lon="8.785132125200859"><ele>287.0</ele><time>2026-04-12T06:50:06Z</time></trkpt><trkpt lat="45.68380310386062" lon="8.78507461428202"><ele>287.0</ele><time>2026-04-12T06:50:07Z</time></trkpt><trkpt lat="45.683864805142996" lon="8.785014522869334"><ele>287.33333333333337</ele><time>2026-04-12T06:50:08Z</time></trkpt><trkpt lat="45.68393149776106" lon="8.78496360667598"><ele>287.6666666666667</ele><time>2026-04-12T06:50:09Z</time></trkpt><trkpt lat="45.68399891043691" lon="8.784909975370422"><ele>288.0</ele><time>2026-04-12T06:50:10Z</time></trkpt><trkpt lat="45.684068769991484" lon="8.784853871033793"><ele>288.3333333333333</ele><time>2026-04-12T06:50:11Z</time></trkpt><trkpt lat="45.68413159402259" lon="8.784802602981335"><ele>288.66666666666663</ele><time>2026-04-12T06:50:12Z</time></trkpt><trkpt lat="45.684215524745966" lon="8.784743758514363"><ele>289.0</ele><time>2026-04-12T06:50:14Z</time></trkpt><trkpt lat="45.68423876395688" lon="8.784642335298606"><ele>289.0</ele><time>2026-04-12T06:50:17Z</time></trkpt><trkpt lat="45.684213798444404" lon="8.784486159250067"><ele>289.0</ele><time>2026-04-12T06:50:19Z</time></trkpt><trkpt lat="45.684206207999225" lon="8.784387375979597"><ele>289.0</ele><time>2026-04-12T06:50:20Z</time></trkpt><trkpt lat="45.684188056456506" lon="8.784290932792416"><ele>289.0</ele><time>2026-04-12T06:50:21Z</time></trkpt><trkpt lat="45.68416848824041" lon="8.784192243653202"><ele>289.0</ele><time>2026-04-12T06:50:22Z</time></trkpt><trkpt lat="45.684131268536255" lon="8.784012220042133"><ele>288.8571428571429</ele><time>2026-04-12T06:50:24Z</time></trkpt><trkpt lat="45.684112877240146" lon="8.783913867303612"><ele>288.7142857142857</ele><time>2026-04-12T06:50:25Z</time></trkpt><trkpt lat="45.68409599631577" lon="8.783816517464025"><ele>288.57142857142856</ele><time>2026-04-12T06:50:26Z</time></trkpt><trkpt lat="45.684077173422125" lon="8.783715770737492"><ele>288.42857142857144</ele><time>2026-04-12T06:50:27Z</time></trkpt><trkpt lat="45.684065267835294" lon="8.783602623876256"><ele>288.2857142857143</ele><time>2026-04-12T06:50:28Z</time></trkpt><trkpt lat="45.68404848456055" lon="8.783496309104203"><ele>288.14285714285717</ele><time>2026-04-12T06:50:29Z</time></trkpt><trkpt lat="45.6840242716457" lon="8.783394382286382"><ele>288.0</ele><time>2026-04-12T06:50:30Z</time></trkpt><trkpt lat="45.68400330446602" lon="8.783298819136961"><ele>288.00000000000006</ele><time>2026-04-12T06:50:31Z</time></trkpt><trkpt lat="45.68398840672725" lon="8.78319724970786"><ele>288.0</ele><time>2026-04-12T06:50:32Z</time></trkpt><trkpt lat="45.68397023477591" lon="8.78308766569677"><ele>288.0</ele><time>2026-04-12T06:50:33Z</time></trkpt><trkpt lat="45.683956598589894" lon="8.782989153328463"><ele>288.0</ele><time>2026-04-12T06:50:34Z</time></trkpt><trkpt lat="45.683936947692885" lon="8.78290214671644"><ele>288.0</ele><time>2026-04-12T06:50:35Z</time></trkpt><trkpt lat="45.68391707363157" lon="8.782808591103827"><ele>288.00000000000006</ele><time>2026-04-12T06:50:36Z</time></trkpt><trkpt lat="45.6838945193489" lon="8.782705669082771"><ele>288.0</ele><time>2026-04-12T06:50:37Z</time></trkpt><trkpt lat="45.68385120579655" lon="8.782512967996523"><ele>288.5714285714286</ele><time>2026-04-12T06:50:39Z</time></trkpt><trkpt lat="45.68383077058705" lon="8.78241493815812"><ele>289.14285714285717</ele><time>2026-04-12T06:50:40Z</time></trkpt><trkpt lat="45.68381966791564" lon="8.782307050494564"><ele>289.7142857142857</ele><time>2026-04-12T06:50:41Z</time></trkpt><trkpt lat="45.68379693318807" lon="8.782207771270862"><ele>290.28571428571433</ele><time>2026-04-12T06:50:42Z</time></trkpt><trkpt lat="45.68378070195423" lon="8.782105277535727"><ele>290.8571428571429</ele><time>2026-04-12T06:50:43Z</time></trkpt><trkpt lat="45.683759795467985" lon="8.782011883474286"><ele>291.42857142857144</ele><time>2026-04-12T06:50:44Z</time></trkpt><trkpt lat="45.68374632613261" lon="8.78191378313719"><ele>292.0</ele><time>2026-04-12T06:50:45Z</time></trkpt><trkpt lat="45.68373477826596" lon="8.781808913518194"><ele>292.5</ele><time>2026-04-12T06:50:46Z</time></trkpt><trkpt lat="45.68370669924912" lon="8.781712491776092"><ele>293.0</ele><time>2026-04-12T06:50:47Z</time></trkpt><trkpt lat="45.683686997813744" lon="8.781617067533187"><ele>293.5</ele><time>2026-04-12T06:50:48Z</time></trkpt><trkpt lat="45.68367226065117" lon="8.781518717942141"><ele>294.0</ele><time>2026-04-12T06:50:49Z</time></trkpt><trkpt lat="45.683652464562996" lon="8.781422900888424"><ele>294.5</ele><time>2026-04-12T06:50:50Z</time></trkpt><trkpt lat="45.683627279724334" lon="8.781243259435673"><ele>295.0</ele><time>2026-04-12T06:50:52Z</time></trkpt><trkpt lat="45.683607322299345" lon="8.781048643564434"><ele>294.8333333333333</ele><time>2026-04-12T06:50:53.999Z</time></trkpt><trkpt lat="45.68359983121639" lon="8.780952624387911"><ele>294.66666666666663</ele><time>2026-04-12T06:50:54.999Z</time></trkpt><trkpt lat="45.683608750434566" lon="8.78082700698932"><ele>294.5</ele><time>2026-04-12T06:50:55.999Z</time></trkpt><trkpt lat="45.68361079994746" lon="8.78071064543273"><ele>294.3333333333333</ele><time>2026-04-12T06:50:56.999Z</time></trkpt><trkpt lat="45.68360804262174" lon="8.780607680220177"><ele>294.1666666666667</ele><time>2026-04-12T06:50:57.999Z</time></trkpt><trkpt lat="45.68359557357415" lon="8.780514421140813"><ele>294.0</ele><time>2026-04-12T06:50:58.999Z</time></trkpt><trkpt lat="45.683588543391146" lon="8.780407604643676"><ele>292.8333333333333</ele><time>2026-04-12T06:50:59.999Z</time></trkpt><trkpt lat="45.68357357765469" lon="8.780305428789605"><ele>291.6666666666667</ele><time>2026-04-12T06:51:00.999Z</time></trkpt><trkpt lat="45.68356011996943" lon="8.780194455609086"><ele>290.5</ele><time>2026-04-12T06:51:01.999Z</time></trkpt><trkpt lat="45.68354974551721" lon="8.780085188166897"><ele>289.33333333333337</ele><time>2026-04-12T06:51:02.999Z</time></trkpt><trkpt lat="45.68353911096388" lon="8.779971913901912"><ele>288.1666666666667</ele><time>2026-04-12T06:51:03.999Z</time></trkpt><trkpt lat="45.68351795950968" lon="8.779882970898882"><ele>287.0</ele><time>2026-04-12T06:51:04.999Z</time></trkpt><trkpt lat="45.68350273561877" lon="8.779776167980703"><ele>286.83333333333337</ele><time>2026-04-12T06:51:05.999Z</time></trkpt><trkpt lat="45.68348890237582" lon="8.779663424237604"><ele>286.6666666666667</ele><time>2026-04-12T06:51:06.999Z</time></trkpt><trkpt lat="45.68347333644845" lon="8.779544412724963"><ele>286.5</ele><time>2026-04-12T06:51:07.999Z</time></trkpt><trkpt lat="45.68346643144188" lon="8.779423678048838"><ele>286.3333333333333</ele><time>2026-04-12T06:51:08.999Z</time></trkpt><trkpt lat="45.68346198707327" lon="8.77931355453004"><ele>286.16666666666663</ele><time>2026-04-12T06:51:09.999Z</time></trkpt><trkpt lat="45.683449279580955" lon="8.77922099589696"><ele>286.0</ele><time>2026-04-12T06:51:10.999Z</time></trkpt><trkpt lat="45.683441781132146" lon="8.779107706207416"><ele>286.16666666666663</ele><time>2026-04-12T06:51:11.999Z</time></trkpt><trkpt lat="45.68343407872535" lon="8.778990475309683"><ele>286.3333333333333</ele><time>2026-04-12T06:51:12.999Z</time></trkpt><trkpt lat="45.68341830812016" lon="8.778884732415753"><ele>286.5</ele><time>2026-04-12T06:51:13.999Z</time></trkpt><trkpt lat="45.68340866969123" lon="8.778763255799253"><ele>286.6666666666667</ele><time>2026-04-12T06:51:14.999Z</time></trkpt><trkpt lat="45.683410594948114" lon="8.778639681679305"><ele>286.83333333333337</ele><time>2026-04-12T06:51:15.999Z</time></trkpt><trkpt lat="45.68343718169934" lon="8.778493427223225"><ele>287.0</ele><time>2026-04-12T06:51:16.999Z</time></trkpt><trkpt lat="45.683469910499234" lon="8.778359035960502"><ele>287.0</ele><time>2026-04-12T06:51:17.999Z</time></trkpt><trkpt lat="45.683502497329336" lon="8.77823265435938"><ele>287.0</ele><time>2026-04-12T06:51:18.999Z</time></trkpt><trkpt lat="45.68354267476062" lon="8.778097519563444"><ele>287.0</ele><time>2026-04-12T06:51:19.999Z</time></trkpt><trkpt lat="45.68357650334245" lon="8.77798066495401"><ele>287.0</ele><time>2026-04-12T06:51:20.999Z</time></trkpt><trkpt lat="45.68361324875459" lon="8.777858426256866"><ele>287.0</ele><time>2026-04-12T06:51:21.999Z</time></trkpt><trkpt lat="45.68365727321989" lon="8.777738450292235"><ele>287.2</ele><time>2026-04-12T06:51:22.999Z</time></trkpt><trkpt lat="45.683693878990844" lon="8.777621921090624"><ele>287.4</ele><time>2026-04-12T06:51:23.999Z</time></trkpt><trkpt lat="45.68372437912954" lon="8.777505724927394"><ele>287.6</ele><time>2026-04-12T06:51:24.999Z</time></trkpt><trkpt lat="45.68376364376387" lon="8.777373708376828"><ele>287.8</ele><time>2026-04-12T06:51:25.999Z</time></trkpt><trkpt lat="45.68380661248435" lon="8.777247284288855"><ele>288.0</ele><time>2026-04-12T06:51:26.999Z</time></trkpt><trkpt lat="45.683840512716074" lon="8.777121631182448"><ele>288.0</ele><time>2026-04-12T06:51:27.999Z</time></trkpt><trkpt lat="45.683875148043036" lon="8.776991909738383"><ele>288.0</ele><time>2026-04-12T06:51:28.999Z</time></trkpt><trkpt lat="45.683909510172256" lon="8.776865690716187"><ele>288.0</ele><time>2026-04-12T06:51:29.999Z</time></trkpt><trkpt lat="45.68394797220296" lon="8.776736693085338"><ele>288.0</ele><time>2026-04-12T06:51:30.999Z</time></trkpt><trkpt lat="45.683991883676185" lon="8.77660876756422"><ele>288.0</ele><time>2026-04-12T06:51:31.999Z</time></trkpt><trkpt lat="45.684033102307914" lon="8.77648843440353"><ele>287.6</ele><time>2026-04-12T06:51:32.999Z</time></trkpt><trkpt lat="45.68406115906281" lon="8.776378007272545"><ele>287.20000000000005</ele><time>2026-04-12T06:51:33.999Z</time></trkpt><trkpt lat="45.68408421112857" lon="8.776275803083031"><ele>286.8</ele><time>2026-04-12T06:51:34.999Z</time></trkpt><trkpt lat="45.68413370110439" lon="8.776146971387492"><ele>286.40000000000003</ele><time>2026-04-12T06:51:36.999Z</time></trkpt><trkpt lat="45.684206714903574" lon="8.775994245633607"><ele>286.0</ele><time>2026-04-12T06:51:39.999Z</time></trkpt><trkpt lat="45.68428526275574" lon="8.775941633767722"><ele>286.0</ele><time>2026-04-12T06:51:41.999Z</time></trkpt><trkpt lat="45.68431933606967" lon="8.775796627037487"><ele>286.0</ele><time>2026-04-12T06:51:43.999Z</time></trkpt><trkpt lat="45.68433257432567" lon="8.7756315901635"><ele>286.0</ele><time>2026-04-12T06:51:45.999Z</time></trkpt><trkpt lat="45.6844156252979" lon="8.77554194283398"><ele>286.0</ele><time>2026-04-12T06:51:46.999Z</time></trkpt><trkpt lat="45.684461420499034" lon="8.775473774348407"><ele>286.0</ele><time>2026-04-12T06:51:47.999Z</time></trkpt><trkpt lat="45.68455193347814" lon="8.775342868482657"><ele>285.2857142857143</ele><time>2026-04-12T06:51:49.999Z</time></trkpt><trkpt lat="45.6846080539922" lon="8.775281517298605"><ele>284.57142857142856</ele><time>2026-04-12T06:51:50.999Z</time></trkpt><trkpt lat="45.68466798072133" lon="8.775224243678656"><ele>283.8571428571429</ele><time>2026-04-12T06:51:52Z</time></trkpt><trkpt lat="45.68472856882927" lon="8.77516482011936"><ele>283.1428571428571</ele><time>2026-04-12T06:51:53Z</time></trkpt><trkpt lat="45.68478186471679" lon="8.775108842111132"><ele>282.42857142857144</ele><time>2026-04-12T06:51:54Z</time></trkpt><trkpt lat="45.68484607541587" lon="8.77505090592183"><ele>281.7142857142857</ele><time>2026-04-12T06:51:55Z</time></trkpt><trkpt lat="45.68490695033046" lon="8.774990520961186"><ele>281.0</ele><time>2026-04-12T06:51:56Z</time></trkpt><trkpt lat="45.68497045344265" lon="8.77492739310045"><ele>280.1666666666667</ele><time>2026-04-12T06:51:57Z</time></trkpt><trkpt lat="45.68503311351348" lon="8.774860030056727"><ele>279.33333333333337</ele><time>2026-04-12T06:51:58Z</time></trkpt><trkpt lat="45.68509871468096" lon="8.774796142179534"><ele>278.5</ele><time>2026-04-12T06:51:59Z</time></trkpt><trkpt lat="45.68516740723717" lon="8.774733485824964"><ele>277.6666666666667</ele><time>2026-04-12T06:52:00Z</time></trkpt><trkpt lat="45.68523147568562" lon="8.77467443382528"><ele>276.8333333333333</ele><time>2026-04-12T06:52:01Z</time></trkpt><trkpt lat="45.68529240946062" lon="8.774618514304006"><ele>276.0</ele><time>2026-04-12T06:52:02Z</time></trkpt><trkpt lat="45.68535093513864" lon="8.774565930113823"><ele>275.25</ele><time>2026-04-12T06:52:03Z</time></trkpt><trkpt lat="45.6854422037011" lon="8.774464746179458"><ele>274.5</ele><time>2026-04-12T06:52:05Z</time></trkpt><trkpt lat="45.68552867770778" lon="8.77434703188654"><ele>273.75</ele><time>2026-04-12T06:52:07Z</time></trkpt><trkpt lat="45.68561094114237" lon="8.774226759644362"><ele>273.0</ele><time>2026-04-12T06:52:09Z</time></trkpt><trkpt lat="45.68567440256671" lon="8.774114478219408"><ele>272.0</ele><time>2026-04-12T06:52:11Z</time></trkpt><trkpt lat="45.68571717819993" lon="8.774046537522688"><ele>271.0</ele><time>2026-04-12T06:52:12Z</time></trkpt><trkpt lat="45.68575742962275" lon="8.773973601016387"><ele>270.0</ele><time>2026-04-12T06:52:13Z</time></trkpt><trkpt lat="45.68579845620611" lon="8.773891665371345"><ele>269.0</ele><time>2026-04-12T06:52:14Z</time></trkpt><trkpt lat="45.68584104986864" lon="8.773816402403009"><ele>268.0</ele><time>2026-04-12T06:52:15Z</time></trkpt><trkpt lat="45.685909324815285" lon="8.773688912893345"><ele>267.0</ele><time>2026-04-12T06:52:17Z</time></trkpt><trkpt lat="45.68597689331079" lon="8.773555941917513"><ele>267.5</ele><time>2026-04-12T06:52:19Z</time></trkpt><trkpt lat="45.68605968011897" lon="8.7734238178715"><ele>268.0</ele><time>2026-04-12T06:52:21Z</time></trkpt><trkpt lat="45.686103252276666" lon="8.773351057521564"><ele>268.5</ele><time>2026-04-12T06:52:22Z</time></trkpt><trkpt lat="45.686150886270966" lon="8.773274216167346"><ele>269.0</ele><time>2026-04-12T06:52:23Z</time></trkpt><trkpt lat="45.686197438060375" lon="8.773206915718177"><ele>269.5</ele><time>2026-04-12T06:52:24Z</time></trkpt><trkpt lat="45.68624815935646" lon="8.77313836427162"><ele>270.0</ele><time>2026-04-12T06:52:25Z</time></trkpt><trkpt lat="45.686303933578536" lon="8.773074339785474"><ele>270.0</ele><time>2026-04-12T06:52:26Z</time></trkpt><trkpt lat="45.6863633858884" lon="8.773010030096948"><ele>270.0</ele><time>2026-04-12T06:52:27Z</time></trkpt><trkpt lat="45.68641898873313" lon="8.772945609274304"><ele>270.0</ele><time>2026-04-12T06:52:28Z</time></trkpt><trkpt lat="45.68647823771435" lon="8.772882595741258"><ele>270.0</ele><time>2026-04-12T06:52:29Z</time></trkpt><trkpt lat="45.686539819028454" lon="8.772826490732893"><ele>270.0</ele><time>2026-04-12T06:52:30Z</time></trkpt><trkpt lat="45.68660130276521" lon="8.772768395922691"><ele>270.0</ele><time>2026-04-12T06:52:31Z</time></trkpt><trkpt lat="45.68666384761992" lon="8.772697188097613"><ele>270.0</ele><time>2026-04-12T06:52:32Z</time></trkpt><trkpt lat="45.686728743986265" lon="8.772623210089222"><ele>270.1666666666667</ele><time>2026-04-12T06:52:33Z</time></trkpt><trkpt lat="45.68678548495263" lon="8.772560930269663"><ele>270.3333333333333</ele><time>2026-04-12T06:52:34Z</time></trkpt><trkpt lat="45.6868416013013" lon="8.77250959411401"><ele>270.5</ele><time>2026-04-12T06:52:35Z</time></trkpt><trkpt lat="45.6869527861288" lon="8.772443272568939"><ele>270.66666666666663</ele><time>2026-04-12T06:52:37Z</time></trkpt><trkpt lat="45.68701770430838" lon="8.772415189465486"><ele>270.8333333333333</ele><time>2026-04-12T06:52:38Z</time></trkpt><trkpt lat="45.68708288901436" lon="8.772386863664472"><ele>271.0</ele><time>2026-04-12T06:52:39Z</time></trkpt><trkpt lat="45.68715372724397" lon="8.772368515847655"><ele>272.0</ele><time>2026-04-12T06:52:40Z</time></trkpt><trkpt lat="45.68721469206501" lon="8.772302888834998"><ele>273.0</ele><time>2026-04-12T06:52:41Z</time></trkpt><trkpt lat="45.68724323914516" lon="8.772187574553941"><ele>274.0</ele><time>2026-04-12T06:52:42Z</time></trkpt><trkpt lat="45.68713489705964" lon="8.77202746378933"><ele>275.0</ele><time>2026-04-12T06:52:44Z</time></trkpt><trkpt lat="45.68701404128672" lon="8.77203318504228"><ele>276.0</ele><time>2026-04-12T06:52:46Z</time></trkpt><trkpt lat="45.686967923272" lon="8.772098806326555"><ele>276.0</ele><time>2026-04-12T06:52:47Z</time></trkpt><trkpt lat="45.68694051379067" lon="8.772182857944436"><ele>276.0</ele><time>2026-04-12T06:52:48Z</time></trkpt><trkpt lat="45.686954966923416" lon="8.772274046620183"><ele>276.0</ele><time>2026-04-12T06:52:49Z</time></trkpt><trkpt lat="45.686837490950374" lon="8.772425754217796"><ele>276.0</ele><time>2026-04-12T06:52:51Z</time></trkpt><trkpt lat="45.68678193288361" lon="8.77248113514353"><ele>276.0</ele><time>2026-04-12T06:52:52Z</time></trkpt><trkpt lat="45.686722353552646" lon="8.772528113767908"><ele>276.0</ele><time>2026-04-12T06:52:53Z</time></trkpt><trkpt lat="45.686667400826636" lon="8.772579278089719"><ele>275.1666666666667</ele><time>2026-04-12T06:52:54Z</time></trkpt><trkpt lat="45.68661300294805" lon="8.77263421294315"><ele>274.3333333333333</ele><time>2026-04-12T06:52:55Z</time></trkpt><trkpt lat="45.68650973856332" lon="8.772753156687003"><ele>273.5</ele><time>2026-04-12T06:52:57Z</time></trkpt><trkpt lat="45.68644608049128" lon="8.77281548735496"><ele>272.66666666666663</ele><time>2026-04-12T06:52:58Z</time></trkpt><trkpt lat="45.686382509071905" lon="8.77287361552701"><ele>271.8333333333333</ele><time>2026-04-12T06:52:59Z</time></trkpt><trkpt lat="45.68632179022887" lon="8.772933195042032"><ele>271.0</ele><time>2026-04-12T06:53:00Z</time></trkpt><trkpt lat="45.68626278866335" lon="8.772994299225102"><ele>270.85714285714283</ele><time>2026-04-12T06:53:01Z</time></trkpt><trkpt lat="45.68620778090821" lon="8.773065523167157"><ele>270.7142857142857</ele><time>2026-04-12T06:53:02Z</time></trkpt><trkpt lat="45.68615468856821" lon="8.773138845987846"><ele>270.57142857142856</ele><time>2026-04-12T06:53:03Z</time></trkpt><trkpt lat="45.68610133477833" lon="8.773211996412606"><ele>270.42857142857144</ele><time>2026-04-12T06:53:04Z</time></trkpt><trkpt lat="45.686055148994505" lon="8.773285329618316"><ele>270.2857142857143</ele><time>2026-04-12T06:53:04.999Z</time></trkpt><trkpt lat="45.68600494436642" lon="8.77336268634578"><ele>270.1428571428571</ele><time>2026-04-12T06:53:05.999Z</time></trkpt><trkpt lat="45.68596103684879" lon="8.773442391433282"><ele>270.0</ele><time>2026-04-12T06:53:06.999Z</time></trkpt><trkpt lat="45.685918768635695" lon="8.77352568484591"><ele>269.57142857142856</ele><time>2026-04-12T06:53:07.999Z</time></trkpt><trkpt lat="45.68587501693469" lon="8.773609334091988"><ele>269.1428571428571</ele><time>2026-04-12T06:53:08.999Z</time></trkpt><trkpt lat="45.68582884730314" lon="8.773691395333541"><ele>268.7142857142857</ele><time>2026-04-12T06:53:09.999Z</time></trkpt><trkpt lat="45.68578818953286" lon="8.773773765126954"><ele>268.2857142857143</ele><time>2026-04-12T06:53:10.999Z</time></trkpt><trkpt lat="45.685745949330986" lon="8.773857213067128"><ele>267.8571428571429</ele><time>2026-04-12T06:53:11.999Z</time></trkpt><trkpt lat="45.685707699708864" lon="8.773940211439344"><ele>267.42857142857144</ele><time>2026-04-12T06:53:12.999Z</time></trkpt><trkpt lat="45.68566811136043" lon="8.774018572820511"><ele>267.0</ele><time>2026-04-12T06:53:13.999Z</time></trkpt><trkpt lat="45.685623879198744" lon="8.774093646167263"><ele>267.00000000000006</ele><time>2026-04-12T06:53:14.999Z</time></trkpt><trkpt lat="45.68557132086062" lon="8.77416297930384"><ele>267.0</ele><time>2026-04-12T06:53:15.999Z</time></trkpt><trkpt lat="45.68552222101909" lon="8.774229588811357"><ele>267.0</ele><time>2026-04-12T06:53:16.999Z</time></trkpt><trkpt lat="45.685475732295124" lon="8.774295472158403"><ele>267.0</ele><time>2026-04-12T06:53:17.999Z</time></trkpt><trkpt lat="45.685425996397264" lon="8.77435830592518"><ele>267.0</ele><time>2026-04-12T06:53:18.999Z</time></trkpt><trkpt lat="45.685372218713226" lon="8.774413859560042"><ele>267.00000000000006</ele><time>2026-04-12T06:53:19.999Z</time></trkpt><trkpt lat="45.68531797104511" lon="8.77446659981189"><ele>267.0</ele><time>2026-04-12T06:53:20.999Z</time></trkpt><trkpt lat="45.68526432908269" lon="8.774516777319747"><ele>268.8</ele><time>2026-04-12T06:53:21.999Z</time></trkpt><trkpt lat="45.68516373664122" lon="8.774617603736603"><ele>270.6</ele><time>2026-04-12T06:53:23.999Z</time></trkpt><trkpt lat="45.685065586218165" lon="8.774720896196714"><ele>272.40000000000003</ele><time>2026-04-12T06:53:25.999Z</time></trkpt><trkpt lat="45.68501103995593" lon="8.774771122038139"><ele>274.2</ele><time>2026-04-12T06:53:26.999Z</time></trkpt><trkpt lat="45.684958221786594" lon="8.774820386811829"><ele>276.0</ele><time>2026-04-12T06:53:27.999Z</time></trkpt><trkpt lat="45.684851945068424" lon="8.774914449981374"><ele>276.0</ele><time>2026-04-12T06:53:29.999Z</time></trkpt><trkpt lat="45.684748296809715" lon="8.775006266601551"><ele>276.0</ele><time>2026-04-12T06:53:31.999Z</time></trkpt><trkpt lat="45.684656692751744" lon="8.775099743592234"><ele>276.0</ele><time>2026-04-12T06:53:33.999Z</time></trkpt><trkpt lat="45.68456542189668" lon="8.775184705230332"><ele>276.0</ele><time>2026-04-12T06:53:35.999Z</time></trkpt><trkpt lat="45.68449724661432" lon="8.775264102338237"><ele>276.0</ele><time>2026-04-12T06:53:37.999Z</time></trkpt><trkpt lat="45.684439659195505" lon="8.775301991820212"><ele>276.0</ele><time>2026-04-12T06:53:40.999Z</time></trkpt><trkpt lat="45.68450219998512" lon="8.775238050683635"><ele>276.0</ele><time>2026-04-12T06:53:45.999Z</time></trkpt><trkpt lat="45.68455591154855" lon="8.77518478040218"><ele>276.0</ele><time>2026-04-12T06:53:47.999Z</time></trkpt><trkpt lat="45.68461069455522" lon="8.77513058259236"><ele>276.0</ele><time>2026-04-12T06:53:49.999Z</time></trkpt><trkpt lat="45.68466604960551" lon="8.775075864875172"><ele>276.0</ele><time>2026-04-12T06:53:51.999Z</time></trkpt><trkpt lat="45.684724107564506" lon="8.77501935830988"><ele>276.0</ele><time>2026-04-12T06:53:54.999Z</time></trkpt><trkpt lat="45.68479005491876" lon="8.774956631927333"><ele>276.0</ele><time>2026-04-12T06:53:58Z</time></trkpt><trkpt lat="45.68484718367017" lon="8.7749022935058"><ele>276.0</ele><time>2026-04-12T06:54:00Z</time></trkpt><trkpt lat="45.68492224248244" lon="8.774830900685503"><ele>276.0</ele><time>2026-04-12T06:54:02Z</time></trkpt><trkpt lat="45.684996753689255" lon="8.774760656639915"><ele>276.0</ele><time>2026-04-12T06:54:05Z</time></trkpt><trkpt lat="45.68505210624022" lon="8.77470982955292"><ele>276.0</ele><time>2026-04-12T06:54:07Z</time></trkpt><trkpt lat="45.6850577304065" lon="8.774588564820013"><ele>276.0</ele><time>2026-04-12T06:54:09Z</time></trkpt><trkpt lat="45.685066447914316" lon="8.774442968954839"><ele>276.0</ele><time>2026-04-12T06:54:11Z</time></trkpt><trkpt lat="45.6850531744489" lon="8.774297655367594"><ele>277.0</ele><time>2026-04-12T06:54:13Z</time></trkpt><trkpt lat="45.68505052630553" lon="8.774206552048724"><ele>278.0</ele><time>2026-04-12T06:54:14Z</time></trkpt><trkpt lat="45.68505720807633" lon="8.774106798750791"><ele>279.0</ele><time>2026-04-12T06:54:15Z</time></trkpt><trkpt lat="45.68476464774137" lon="8.773422296768548"><ele>279.6666666666667</ele><time>2026-04-12T06:54:16Z</time></trkpt><trkpt lat="45.684767351118424" lon="8.773320157693213"><ele>280.3333333333333</ele><time>2026-04-12T06:54:18Z</time></trkpt><trkpt lat="45.68478098917332" lon="8.773227663805173"><ele>281.0</ele><time>2026-04-12T06:54:20Z</time></trkpt><trkpt lat="45.68479802361849" lon="8.773127186139662"><ele>281.66666666666663</ele><time>2026-04-12T06:54:22Z</time></trkpt><trkpt lat="45.68478052092091" lon="8.773004125634763"><ele>282.3333333333333</ele><time>2026-04-12T06:54:24Z</time></trkpt><trkpt lat="45.68476369630077" lon="8.772911599429072"><ele>283.0</ele><time>2026-04-12T06:54:25Z</time></trkpt><trkpt lat="45.68474519346759" lon="8.77277744186534"><ele>282.14285714285717</ele><time>2026-04-12T06:54:26Z</time></trkpt><trkpt lat="45.68473495246666" lon="8.772680908363192"><ele>281.28571428571433</ele><time>2026-04-12T06:54:27Z</time></trkpt><trkpt lat="45.68472613036476" lon="8.772575966371427"><ele>280.42857142857144</ele><time>2026-04-12T06:54:28Z</time></trkpt><trkpt lat="45.684719654201785" lon="8.772485247493918"><ele>279.57142857142856</ele><time>2026-04-12T06:54:29Z</time></trkpt><trkpt lat="45.68471661648431" lon="8.772394072920012"><ele>278.71428571428567</ele><time>2026-04-12T06:54:30Z</time></trkpt><trkpt lat="45.68470178518519" lon="8.772250350978263"><ele>277.85714285714283</ele><time>2026-04-12T06:54:32Z</time></trkpt><trkpt lat="45.68466506432189" lon="8.772162465755196"><ele>277.0</ele><time>2026-04-12T06:54:34Z</time></trkpt><trkpt lat="45.684611532531086" lon="8.772098592234597"><ele>277.0</ele><time>2026-04-12T06:54:36Z</time></trkpt><trkpt lat="45.68454296036026" lon="8.772068739924158"><ele>277.0</ele><time>2026-04-12T06:54:38Z</time></trkpt><trkpt lat="45.68446727783181" lon="8.772065048992134"><ele>277.0</ele><time>2026-04-12T06:54:40Z</time></trkpt><trkpt lat="45.68439431634851" lon="8.772025619192547"><ele>277.0</ele><time>2026-04-12T06:54:42Z</time></trkpt><trkpt lat="45.68430607748492" lon="8.771998826165154"><ele>277.0</ele><time>2026-04-12T06:54:45Z</time></trkpt><trkpt lat="45.684243392802024" lon="8.77195162670129"><ele>277.0</ele><time>2026-04-12T06:54:47Z</time></trkpt><trkpt lat="45.684324429699636" lon="8.771946273236829"><ele>277.0</ele><time>2026-04-12T06:54:56Z</time></trkpt><trkpt lat="45.68440378344603" lon="8.771946168305009"><ele>277.0</ele><time>2026-04-12T06:55:01Z</time></trkpt><trkpt lat="45.684470883872464" lon="8.771967062628393"><ele>277.0</ele><time>2026-04-12T06:55:04Z</time></trkpt><trkpt lat="45.68452541389268" lon="8.772028415530075"><ele>277.0</ele><time>2026-04-12T06:55:06.999Z</time></trkpt><trkpt lat="45.684595174768276" lon="8.772085386680732"><ele>277.0</ele><time>2026-04-12T06:55:10.999Z</time></trkpt><trkpt lat="45.68464290691351" lon="8.772026378566778"><ele>277.0</ele><time>2026-04-12T06:55:12.999Z</time></trkpt><trkpt lat="45.684641963577754" lon="8.771914594330378"><ele>277.0</ele><time>2026-04-12T06:55:16.999Z</time></trkpt><trkpt lat="45.68462248941581" lon="8.771812110947756"><ele>276.3333333333333</ele><time>2026-04-12T06:55:18.999Z</time></trkpt><trkpt lat="45.6845836892134" lon="8.771722215644559"><ele>275.66666666666663</ele><time>2026-04-12T06:55:20.999Z</time></trkpt><trkpt lat="45.684547366120945" lon="8.771629119850731"><ele>275.0</ele><time>2026-04-12T06:55:22.999Z</time></trkpt><trkpt lat="45.68449471806994" lon="8.77151421858184"><ele>274.3333333333333</ele><time>2026-04-12T06:55:24.999Z</time></trkpt><trkpt lat="45.68444657273643" lon="8.771407521058553"><ele>273.6666666666667</ele><time>2026-04-12T06:55:26.999Z</time></trkpt><trkpt lat="45.68441540617394" lon="8.77127942219457"><ele>273.0</ele><time>2026-04-12T06:55:28.999Z</time></trkpt><trkpt lat="45.68435479532368" lon="8.771128764159425"><ele>275.1666666666667</ele><time>2026-04-12T06:55:30.999Z</time></trkpt><trkpt lat="45.68431014755196" lon="8.771054083606753"><ele>277.3333333333333</ele><time>2026-04-12T06:55:31.999Z</time></trkpt><trkpt lat="45.684235079812176" lon="8.770911736984306"><ele>279.5</ele><time>2026-04-12T06:55:33.999Z</time></trkpt><trkpt lat="45.684196348071815" lon="8.770775102113909"><ele>281.66666666666663</ele><time>2026-04-12T06:55:37.999Z</time></trkpt><trkpt lat="45.68417899120711" lon="8.770662703408993"><ele>283.8333333333333</ele><time>2026-04-12T06:55:40.999Z</time></trkpt><trkpt lat="45.6841501181754" lon="8.770575792891158"><ele>286.0</ele><time>2026-04-12T06:55:42.999Z</time></trkpt><trkpt lat="45.68410609513543" lon="8.770484268311577"><ele>286.16666666666663</ele><time>2026-04-12T06:55:44.999Z</time></trkpt><trkpt lat="45.684056016595434" lon="8.770354549857533"><ele>286.3333333333333</ele><time>2026-04-12T06:55:47.999Z</time></trkpt><trkpt lat="45.68402372423059" lon="8.770234625639015"><ele>286.5</ele><time>2026-04-12T06:55:50.999Z</time></trkpt><trkpt lat="45.68398722157538" lon="8.770094154749302"><ele>286.6666666666667</ele><time>2026-04-12T06:55:53.999Z</time></trkpt><trkpt lat="45.68394416964292" lon="8.770002876405172"><ele>286.83333333333337</ele><time>2026-04-12T06:55:55.999Z</time></trkpt><trkpt lat="45.683909449953156" lon="8.769917060001196"><ele>287.0</ele><time>2026-04-12T06:55:57.999Z</time></trkpt><trkpt lat="45.68385451030731" lon="8.76981645916535"><ele>286.33333333333337</ele><time>2026-04-12T06:56:00.999Z</time></trkpt><trkpt lat="45.6837989542777" lon="8.769762590041996"><ele>285.6666666666667</ele><time>2026-04-12T06:56:02.999Z</time></trkpt><trkpt lat="45.683713771556874" lon="8.769758815092786"><ele>285.0</ele><time>2026-04-12T06:56:05Z</time></trkpt><trkpt lat="45.68364985935036" lon="8.769774412613808"><ele>284.3333333333333</ele><time>2026-04-12T06:56:06Z</time></trkpt><trkpt lat="45.68357603557559" lon="8.769828016052369"><ele>283.66666666666663</ele><time>2026-04-12T06:56:09Z</time></trkpt><trkpt lat="45.68351530750152" lon="8.769907699346167"><ele>283.0</ele><time>2026-04-12T06:56:11Z</time></trkpt><trkpt lat="45.68343543237262" lon="8.769946464637309"><ele>285.2</ele><time>2026-04-12T06:56:14Z</time></trkpt><trkpt lat="45.68335022668315" lon="8.769961045705111"><ele>287.4</ele><time>2026-04-12T06:56:16Z</time></trkpt><trkpt lat="45.68327305964645" lon="8.769969993181455"><ele>289.59999999999997</ele><time>2026-04-12T06:56:18Z</time></trkpt><trkpt lat="45.68315336582786" lon="8.76997960876982"><ele>291.8</ele><time>2026-04-12T06:56:20Z</time></trkpt><trkpt lat="45.683048032808" lon="8.770007775255188"><ele>294.0</ele><time>2026-04-12T06:56:22Z</time></trkpt><trkpt lat="45.68295829275887" lon="8.77004857508027"><ele>294.0</ele><time>2026-04-12T06:56:24Z</time></trkpt><trkpt lat="45.682880865863574" lon="8.770092392873883"><ele>294.0</ele><time>2026-04-12T06:56:26Z</time></trkpt><trkpt lat="45.68277133405973" lon="8.770146648696631"><ele>294.0</ele><time>2026-04-12T06:56:28Z</time></trkpt><trkpt lat="45.682665590500754" lon="8.770112385739983"><ele>294.0</ele><time>2026-04-12T06:56:30Z</time></trkpt><trkpt lat="45.682596229153404" lon="8.770158220288325"><ele>294.0</ele><time>2026-04-12T06:56:33Z</time></trkpt><trkpt lat="45.68246908910713" lon="8.770244711984834"><ele>293.59999999999997</ele><time>2026-04-12T06:56:35Z</time></trkpt><trkpt lat="45.68240274236024" lon="8.770275522707518"><ele>293.2</ele><time>2026-04-12T06:56:36Z</time></trkpt><trkpt lat="45.68229881989778" lon="8.770359078901679"><ele>292.79999999999995</ele><time>2026-04-12T06:56:38Z</time></trkpt><trkpt lat="45.68218493625251" lon="8.77042690294662"><ele>292.4</ele><time>2026-04-12T06:56:40Z</time></trkpt><trkpt lat="45.68209527309551" lon="8.770518421262498"><ele>292.0</ele><time>2026-04-12T06:56:42Z</time></trkpt><trkpt lat="45.682001666261186" lon="8.770583071099507"><ele>292.6</ele><time>2026-04-12T06:56:44Z</time></trkpt><trkpt lat="45.68189467604971" lon="8.77065618259258"><ele>293.2</ele><time>2026-04-12T06:56:48Z</time></trkpt><trkpt lat="45.68183309504462" lon="8.770693317743874"><ele>293.8</ele><time>2026-04-12T06:56:49Z</time></trkpt><trkpt lat="45.68176045073324" lon="8.77077067488424"><ele>294.4</ele><time>2026-04-12T06:56:51Z</time></trkpt><trkpt lat="45.681675840023296" lon="8.770843509621011"><ele>295.0</ele><time>2026-04-12T06:56:53Z</time></trkpt><trkpt lat="45.68161189208784" lon="8.77093220109883"><ele>295.0</ele><time>2026-04-12T06:56:55Z</time></trkpt><trkpt lat="45.68154697182313" lon="8.771022230362604"><ele>295.0</ele><time>2026-04-12T06:56:57Z</time></trkpt><trkpt lat="45.681457051237" lon="8.77109671600563"><ele>295.0</ele><time>2026-04-12T06:57:00Z</time></trkpt><trkpt lat="45.68138587601945" lon="8.771112481198697"><ele>295.0</ele><time>2026-04-12T06:57:04Z</time></trkpt><trkpt lat="45.6813105675053" lon="8.771028193243243"><ele>295.0</ele><time>2026-04-12T06:57:07Z</time></trkpt><trkpt lat="45.6812442427642" lon="8.770922635343641"><ele>295.0</ele><time>2026-04-12T06:57:08.999Z</time></trkpt><trkpt lat="45.68117389017497" lon="8.77082586632907"><ele>295.0</ele><time>2026-04-12T06:57:10.999Z</time></trkpt><trkpt lat="45.681122126309546" lon="8.770762332959663"><ele>295.0</ele><time>2026-04-12T06:57:11.999Z</time></trkpt><trkpt lat="45.681025077698145" lon="8.77065276972596"><ele>295.0</ele><time>2026-04-12T06:57:13.999Z</time></trkpt><trkpt lat="45.68095083836462" lon="8.770575388771213"><ele>295.0</ele><time>2026-04-12T06:57:16.999Z</time></trkpt><trkpt lat="45.68089314515446" lon="8.770499294550627"><ele>295.3333333333333</ele><time>2026-04-12T06:57:18.999Z</time></trkpt><trkpt lat="45.68080846480603" lon="8.770468090817605"><ele>295.66666666666663</ele><time>2026-04-12T06:57:21.999Z</time></trkpt><trkpt lat="45.680732605379376" lon="8.77049575589886"><ele>296.0</ele><time>2026-04-12T06:57:23.999Z</time></trkpt><trkpt lat="45.68066595923076" lon="8.770495802918026"><ele>296.3333333333333</ele><time>2026-04-12T06:57:25.999Z</time></trkpt><trkpt lat="45.68057297087853" lon="8.77052789487706"><ele>296.6666666666667</ele><time>2026-04-12T06:57:28.999Z</time></trkpt><trkpt lat="45.68047883175178" lon="8.770588752435351"><ele>297.0</ele><time>2026-04-12T06:57:30.999Z</time></trkpt><trkpt lat="45.68042331735676" lon="8.770635204264261"><ele>297.0</ele><time>2026-04-12T06:57:31.999Z</time></trkpt><trkpt lat="45.680347291641716" lon="8.770707979940743"><ele>297.0</ele><time>2026-04-12T06:57:33.999Z</time></trkpt><trkpt lat="45.680262761607594" lon="8.770766074593624"><ele>297.0</ele><time>2026-04-12T06:57:35.999Z</time></trkpt><trkpt lat="45.68020576933779" lon="8.770834136152162"><ele>297.0</ele><time>2026-04-12T06:57:37.999Z</time></trkpt><trkpt lat="45.680139909400246" lon="8.770875120150741"><ele>297.0</ele><time>2026-04-12T06:57:41.999Z</time></trkpt><trkpt lat="45.68013885715445" lon="8.770972374605691"><ele>297.0</ele><time>2026-04-12T06:57:46.999Z</time></trkpt><trkpt lat="45.680097658854336" lon="8.771052889726592"><ele>297.0</ele><time>2026-04-12T06:57:51.999Z</time></trkpt><trkpt lat="45.68004749376539" lon="8.771117903836611"><ele>297.0</ele><time>2026-04-12T06:57:54.999Z</time></trkpt><trkpt lat="45.67996368026355" lon="8.771134639427407"><ele>297.0</ele><time>2026-04-12T06:57:57.999Z</time></trkpt><trkpt lat="45.67990007582002" lon="8.771185328484687"><ele>297.0</ele><time>2026-04-12T06:57:59.999Z</time></trkpt><trkpt lat="45.679837422236226" lon="8.771234403102795"><ele>297.0</ele><time>2026-04-12T06:58:05.999Z</time></trkpt><trkpt lat="45.679766211723525" lon="8.771189919003797"><ele>297.0</ele><time>2026-04-12T06:58:10Z</time></trkpt><trkpt lat="45.67970328809683" lon="8.771159802612035"><ele>297.0</ele><time>2026-04-12T06:58:12Z</time></trkpt><trkpt lat="45.679631858467054" lon="8.77112858059823"><ele>297.0</ele><time>2026-04-12T06:58:14Z</time></trkpt><trkpt lat="45.6795708890912" lon="8.771086937919446"><ele>297.0</ele><time>2026-04-12T06:58:16Z</time></trkpt><trkpt lat="45.67948786139647" lon="8.771063069710973"><ele>297.0</ele><time>2026-04-12T06:58:18Z</time></trkpt><trkpt lat="45.67940152252312" lon="8.77102779163706"><ele>297.0</ele><time>2026-04-12T06:58:20Z</time></trkpt><trkpt lat="45.679355108295695" lon="8.770959310000277"><ele>297.0</ele><time>2026-04-12T06:58:22Z</time></trkpt><trkpt lat="45.67936976525883" lon="8.770871507455343"><ele>297.0</ele><time>2026-04-12T06:58:24Z</time></trkpt><trkpt lat="45.67934276040733" lon="8.77074281169488"><ele>295.0</ele><time>2026-04-12T06:58:26Z</time></trkpt><trkpt lat="45.67932458146578" lon="8.770622962687733"><ele>293.0</ele><time>2026-04-12T06:58:28Z</time></trkpt><trkpt lat="45.67927218021518" lon="8.770499964547941"><ele>291.0</ele><time>2026-04-12T06:58:30Z</time></trkpt><trkpt lat="45.67922510885682" lon="8.770344321024666"><ele>289.0</ele><time>2026-04-12T06:58:32Z</time></trkpt><trkpt lat="45.67920251694166" lon="8.770175882331312"><ele>287.0</ele><time>2026-04-12T06:58:34Z</time></trkpt><trkpt lat="45.679177884728894" lon="8.770072160384656"><ele>286.83333333333337</ele><time>2026-04-12T06:58:36Z</time></trkpt><trkpt lat="45.679258937781626" lon="8.770026010790335"><ele>286.6666666666667</ele><time>2026-04-12T06:58:39Z</time></trkpt><trkpt lat="45.67931886650943" lon="8.769981851522072"><ele>286.5</ele><time>2026-04-12T06:58:41Z</time></trkpt><trkpt lat="45.67940379478951" lon="8.76991581622923"><ele>286.3333333333333</ele><time>2026-04-12T06:58:44Z</time></trkpt><trkpt lat="45.67945291877994" lon="8.769821173110438"><ele>286.16666666666663</ele><time>2026-04-12T06:58:46Z</time></trkpt><trkpt lat="45.67948055985459" lon="8.769712863386305"><ele>286.0</ele><time>2026-04-12T06:58:48Z</time></trkpt><trkpt lat="45.679495443374236" lon="8.769605777463413"><ele>286.0</ele><time>2026-04-12T06:58:50Z</time></trkpt><trkpt lat="45.67954681015076" lon="8.769505125190985"><ele>286.0</ele><time>2026-04-12T06:58:52Z</time></trkpt><trkpt lat="45.67960818246356" lon="8.769412806761613"><ele>286.0</ele><time>2026-04-12T06:58:55Z</time></trkpt><trkpt lat="45.67966566142168" lon="8.76929491273241"><ele>286.0</ele><time>2026-04-12T06:58:57Z</time></trkpt><trkpt lat="45.67969054397033" lon="8.769207561786304"><ele>286.0</ele><time>2026-04-12T06:58:59Z</time></trkpt><trkpt lat="45.67974556645721" lon="8.769119765431624"><ele>286.0</ele><time>2026-04-12T06:59:02Z</time></trkpt><trkpt lat="45.67980134398535" lon="8.769045559022091"><ele>287.0</ele><time>2026-04-12T06:59:05Z</time></trkpt><trkpt lat="45.67983806738473" lon="8.768969508912127"><ele>288.0</ele><time>2026-04-12T06:59:07Z</time></trkpt><trkpt lat="45.679873380656836" lon="8.768880469281529"><ele>289.0</ele><time>2026-04-12T06:59:09Z</time></trkpt><trkpt lat="45.679913613673655" lon="8.768804471750148"><ele>290.0</ele><time>2026-04-12T06:59:11Z</time></trkpt><trkpt lat="45.67996105335251" lon="8.768737535835612"><ele>291.0</ele><time>2026-04-12T06:59:13Z</time></trkpt><trkpt lat="45.680007377217194" lon="8.768658590804273"><ele>292.0</ele><time>2026-04-12T06:59:14.999Z</time></trkpt><trkpt lat="45.68007417680486" lon="8.768531203526477"><ele>293.16666666666663</ele><time>2026-04-12T06:59:16.999Z</time></trkpt><trkpt lat="45.68010931416794" lon="8.768440316975857"><ele>294.3333333333333</ele><time>2026-04-12T06:59:18.999Z</time></trkpt><trkpt lat="45.680162293795306" lon="8.768359191300325"><ele>295.5</ele><time>2026-04-12T06:59:21.999Z</time></trkpt><trkpt lat="45.68021589807819" lon="8.768276550932812"><ele>296.6666666666667</ele><time>2026-04-12T06:59:23.999Z</time></trkpt><trkpt lat="45.68026184344802" lon="8.768192214664307"><ele>297.83333333333337</ele><time>2026-04-12T06:59:25.999Z</time></trkpt><trkpt lat="45.68033516897275" lon="8.768106243246889"><ele>299.0</ele><time>2026-04-12T06:59:27.999Z</time></trkpt><trkpt lat="45.68041066169006" lon="8.768010536922231"><ele>299.2</ele><time>2026-04-12T06:59:29.999Z</time></trkpt><trkpt lat="45.680484097444364" lon="8.767908712716453"><ele>299.4</ele><time>2026-04-12T06:59:31.999Z</time></trkpt><trkpt lat="45.680565611319274" lon="8.767838208311101"><ele>299.6</ele><time>2026-04-12T06:59:33.999Z</time></trkpt><trkpt lat="45.680647239277334" lon="8.76772307506634"><ele>299.8</ele><time>2026-04-12T06:59:35.999Z</time></trkpt><trkpt lat="45.680700805141925" lon="8.767659942955293"><ele>300.0</ele><time>2026-04-12T06:59:36.999Z</time></trkpt><trkpt lat="45.680755809948536" lon="8.7675789823923"><ele>300.3333333333333</ele><time>2026-04-12T06:59:37.999Z</time></trkpt><trkpt lat="45.68080438639777" lon="8.767510489639996"><ele>300.6666666666667</ele><time>2026-04-12T06:59:38.999Z</time></trkpt><trkpt lat="45.68084898751418" lon="8.767410284913458"><ele>301.0</ele><time>2026-04-12T06:59:40.999Z</time></trkpt><trkpt lat="45.68088410932945" lon="8.767316366716692"><ele>301.33333333333337</ele><time>2026-04-12T06:59:42.999Z</time></trkpt><trkpt lat="45.680928492971496" lon="8.767213352755478"><ele>301.6666666666667</ele><time>2026-04-12T06:59:44.999Z</time></trkpt><trkpt lat="45.680964297492196" lon="8.76713596933852"><ele>302.0</ele><time>2026-04-12T06:59:46.999Z</time></trkpt><trkpt lat="45.68101385132072" lon="8.766998353053417"><ele>301.6666666666667</ele><time>2026-04-12T06:59:48.999Z</time></trkpt><trkpt lat="45.6810856559642" lon="8.766857633885962"><ele>301.33333333333337</ele><time>2026-04-12T06:59:50.999Z</time></trkpt><trkpt lat="45.6811402942549" lon="8.76673710386161"><ele>301.0</ele><time>2026-04-12T06:59:52.999Z</time></trkpt><trkpt lat="45.681171712879156" lon="8.766654523304496"><ele>300.6666666666667</ele><time>2026-04-12T06:59:53.999Z</time></trkpt><trkpt lat="45.681199159184956" lon="8.766566033861507"><ele>300.3333333333333</ele><time>2026-04-12T06:59:54.999Z</time></trkpt><trkpt lat="45.68121045979621" lon="8.766473516053354"><ele>300.0</ele><time>2026-04-12T06:59:55.999Z</time></trkpt><trkpt lat="45.68126777523113" lon="8.766300785974678"><ele>299.6666666666667</ele><time>2026-04-12T06:59:57.999Z</time></trkpt><trkpt lat="45.681294707594695" lon="8.766203802007498"><ele>299.3333333333333</ele><time>2026-04-12T06:59:58.999Z</time></trkpt><trkpt lat="45.68132677492908" lon="8.766093781343828"><ele>299.0</ele><time>2026-04-12T06:59:59.999Z</time></trkpt><trkpt lat="45.68137804215238" lon="8.76593616000479"><ele>298.66666666666663</ele><time>2026-04-12T07:00:01.999Z</time></trkpt><trkpt lat="45.68140245235719" lon="8.765851471580197"><ele>298.3333333333333</ele><time>2026-04-12T07:00:02.999Z</time></trkpt><trkpt lat="45.68143111494008" lon="8.765764101885203"><ele>298.0</ele><time>2026-04-12T07:00:03.999Z</time></trkpt><trkpt lat="45.681473311926155" lon="8.765676832693593"><ele>298.0</ele><time>2026-04-12T07:00:04.999Z</time></trkpt><trkpt lat="45.68150421924139" lon="8.76559558412936"><ele>298.0</ele><time>2026-04-12T07:00:05.999Z</time></trkpt><trkpt lat="45.68157386062666" lon="8.765431399380192"><ele>298.0</ele><time>2026-04-12T07:00:07.999Z</time></trkpt><trkpt lat="45.68164990688243" lon="8.765289582640687"><ele>298.0</ele><time>2026-04-12T07:00:09.999Z</time></trkpt><trkpt lat="45.681688896940514" lon="8.765217849135478"><ele>298.0</ele><time>2026-04-12T07:00:10.999Z</time></trkpt><trkpt lat="45.681733534893425" lon="8.765072578472594"><ele>298.25</ele><time>2026-04-12T07:00:12.999Z</time></trkpt><trkpt lat="45.68177315864164" lon="8.764899644520561"><ele>298.5</ele><time>2026-04-12T07:00:14.999Z</time></trkpt><trkpt lat="45.68180169580841" lon="8.76473855325106"><ele>298.75</ele><time>2026-04-12T07:00:17Z</time></trkpt><trkpt lat="45.68183053634012" lon="8.7645618779889"><ele>299.0</ele><time>2026-04-12T07:00:19Z</time></trkpt><trkpt lat="45.68186351632826" lon="8.764403190059772"><ele>299.0</ele><time>2026-04-12T07:00:21Z</time></trkpt><trkpt lat="45.68189395755904" lon="8.764240808314456"><ele>299.0</ele><time>2026-04-12T07:00:23Z</time></trkpt><trkpt lat="45.68191866621764" lon="8.764093206327995"><ele>299.0</ele><time>2026-04-12T07:00:25Z</time></trkpt><trkpt lat="45.68193735819423" lon="8.763967160874282"><ele>299.0</ele><time>2026-04-12T07:00:27Z</time></trkpt><trkpt lat="45.681924597678595" lon="8.76383983495898"><ele>299.0</ele><time>2026-04-12T07:00:29Z</time></trkpt><trkpt lat="45.68193012999348" lon="8.763736032020667"><ele>299.2</ele><time>2026-04-12T07:00:31Z</time></trkpt><trkpt lat="45.68195586831344" lon="8.763571662353602"><ele>299.4</ele><time>2026-04-12T07:00:33Z</time></trkpt><trkpt lat="45.68202635308832" lon="8.763400685500411"><ele>299.6</ele><time>2026-04-12T07:00:35Z</time></trkpt><trkpt lat="45.682051490486266" lon="8.763310620972284"><ele>299.8</ele><time>2026-04-12T07:00:36Z</time></trkpt><trkpt lat="45.682087083383294" lon="8.76320045323813"><ele>300.0</ele><time>2026-04-12T07:00:37Z</time></trkpt><trkpt lat="45.68212587311451" lon="8.763102772837476"><ele>299.6666666666667</ele><time>2026-04-12T07:00:38Z</time></trkpt><trkpt lat="45.68215614297181" lon="8.763022161842729"><ele>299.3333333333333</ele><time>2026-04-12T07:00:39Z</time></trkpt><trkpt lat="45.68223064250879" lon="8.762858466451462"><ele>299.0</ele><time>2026-04-12T07:00:41Z</time></trkpt><trkpt lat="45.68227450637099" lon="8.76277389605387"><ele>298.66666666666663</ele><time>2026-04-12T07:00:42Z</time></trkpt><trkpt lat="45.68231777779918" lon="8.762690939047761"><ele>298.3333333333333</ele><time>2026-04-12T07:00:43Z</time></trkpt><trkpt lat="45.68235816566116" lon="8.762617652865066"><ele>298.0</ele><time>2026-04-12T07:00:44Z</time></trkpt><trkpt lat="45.68240317217693" lon="8.762544459882687"><ele>297.0</ele><time>2026-04-12T07:00:45Z</time></trkpt><trkpt lat="45.68248017563033" lon="8.762418362923466"><ele>296.0</ele><time>2026-04-12T07:00:47Z</time></trkpt><trkpt lat="45.682558405277355" lon="8.762339879597391"><ele>295.0</ele><time>2026-04-12T07:00:49Z</time></trkpt><trkpt lat="45.682616380223045" lon="8.762295975917073"><ele>294.0</ele><time>2026-04-12T07:00:50Z</time></trkpt><trkpt lat="45.68269541991421" lon="8.76220911521342"><ele>293.0</ele><time>2026-04-12T07:00:52Z</time></trkpt><trkpt lat="45.68275467967359" lon="8.762160614773984"><ele>292.0</ele><time>2026-04-12T07:00:53Z</time></trkpt><trkpt lat="45.68285099515158" lon="8.762092668185565"><ele>291.0</ele><time>2026-04-12T07:00:55Z</time></trkpt><trkpt lat="45.68293025440861" lon="8.761981614641073"><ele>290.0</ele><time>2026-04-12T07:00:57Z</time></trkpt><trkpt lat="45.68299743223125" lon="8.76186769456247"><ele>289.0</ele><time>2026-04-12T07:00:59Z</time></trkpt><trkpt lat="45.68304968431979" lon="8.761755385230153"><ele>288.0</ele><time>2026-04-12T07:01:02Z</time></trkpt><trkpt lat="45.68311857605866" lon="8.761627767453271"><ele>287.0</ele><time>2026-04-12T07:01:04Z</time></trkpt><trkpt lat="45.6832062271778" lon="8.761518738857214"><ele>286.5</ele><time>2026-04-12T07:01:06Z</time></trkpt><trkpt lat="45.683281494852366" lon="8.761400523221212"><ele>286.0</ele><time>2026-04-12T07:01:08Z</time></trkpt><trkpt lat="45.68332853223902" lon="8.761294784937833"><ele>285.5</ele><time>2026-04-12T07:01:10Z</time></trkpt><trkpt lat="45.68337292714479" lon="8.761220565583445"><ele>285.0</ele><time>2026-04-12T07:01:12Z</time></trkpt><trkpt lat="45.683414447568666" lon="8.761136122411337"><ele>284.5</ele><time>2026-04-12T07:01:14Z</time></trkpt><trkpt lat="45.68348565210542" lon="8.76106194462012"><ele>284.0</ele><time>2026-04-12T07:01:16Z</time></trkpt><trkpt lat="45.68355483963165" lon="8.760951600379645"><ele>283.1666666666667</ele><time>2026-04-12T07:01:18Z</time></trkpt><trkpt lat="45.683603903700266" lon="8.760871668243496"><ele>282.33333333333337</ele><time>2026-04-12T07:01:19Z</time></trkpt><trkpt lat="45.683647006397265" lon="8.760770364933675"><ele>281.5</ele><time>2026-04-12T07:01:20Z</time></trkpt><trkpt lat="45.68368692072652" lon="8.760677359420168"><ele>280.6666666666667</ele><time>2026-04-12T07:01:20.999Z</time></trkpt><trkpt lat="45.68374138883384" lon="8.760585365684598"><ele>279.8333333333333</ele><time>2026-04-12T07:01:21.999Z</time></trkpt><trkpt lat="45.683786009703425" lon="8.760514601367948"><ele>279.0</ele><time>2026-04-12T07:01:22.999Z</time></trkpt><trkpt lat="45.683864754749294" lon="8.760426177544009"><ele>279.0</ele><time>2026-04-12T07:01:24.999Z</time></trkpt><trkpt lat="45.683918728140036" lon="8.76033350067867"><ele>279.0</ele><time>2026-04-12T07:01:26.999Z</time></trkpt><trkpt lat="45.68396343812953" lon="8.760234685783422"><ele>279.0</ele><time>2026-04-12T07:01:28.999Z</time></trkpt><trkpt lat="45.68402630157352" lon="8.760127310965713"><ele>279.0</ele><time>2026-04-12T07:01:30.999Z</time></trkpt><trkpt lat="45.68407180380397" lon="8.760044549319282"><ele>279.0</ele><time>2026-04-12T07:01:31.999Z</time></trkpt><trkpt lat="45.68411595151902" lon="8.759926780443534"><ele>279.0</ele><time>2026-04-12T07:01:33.999Z</time></trkpt><trkpt lat="45.68414883247161" lon="8.759836735284802"><ele>278.8</ele><time>2026-04-12T07:01:35.999Z</time></trkpt><trkpt lat="45.68420526302368" lon="8.759692148994178"><ele>278.59999999999997</ele><time>2026-04-12T07:01:37.999Z</time></trkpt><trkpt lat="45.68429537834945" lon="8.759572150032966"><ele>278.4</ele><time>2026-04-12T07:01:39.999Z</time></trkpt><trkpt lat="45.68438503901441" lon="8.759459530054887"><ele>278.2</ele><time>2026-04-12T07:01:41.999Z</time></trkpt><trkpt lat="45.68444839843899" lon="8.759424601584676"><ele>278.0</ele><time>2026-04-12T07:01:42.999Z</time></trkpt><trkpt lat="45.684536426468696" lon="8.759329118839508"><ele>277.6</ele><time>2026-04-12T07:01:44.999Z</time></trkpt><trkpt lat="45.68462203079726" lon="8.75922620633735"><ele>277.20000000000005</ele><time>2026-04-12T07:01:46.999Z</time></trkpt><trkpt lat="45.68470104390579" lon="8.759131203646325"><ele>276.8</ele><time>2026-04-12T07:01:48.999Z</time></trkpt><trkpt lat="45.684778467298145" lon="8.759036829801698"><ele>276.40000000000003</ele><time>2026-04-12T07:01:50.999Z</time></trkpt><trkpt lat="45.684883491698194" lon="8.75895830372691"><ele>276.0</ele><time>2026-04-12T07:01:52.999Z</time></trkpt><trkpt lat="45.68498040229844" lon="8.758908993083244"><ele>276.0</ele><time>2026-04-12T07:01:54.999Z</time></trkpt><trkpt lat="45.685065427274814" lon="8.758875959033887"><ele>276.0</ele><time>2026-04-12T07:01:56.999Z</time></trkpt><trkpt lat="45.68513238458776" lon="8.758828272343141"><ele>276.0</ele><time>2026-04-12T07:01:58.999Z</time></trkpt><trkpt lat="45.68519869725929" lon="8.758747139767907"><ele>276.0</ele><time>2026-04-12T07:02:00.999Z</time></trkpt><trkpt lat="45.685248624965084" lon="8.758646245047899"><ele>276.0</ele><time>2026-04-12T07:02:02.999Z</time></trkpt><trkpt lat="45.68529934814654" lon="8.758534016010943"><ele>276.0</ele><time>2026-04-12T07:02:04.999Z</time></trkpt><trkpt lat="45.685344010664" lon="8.758433910633315"><ele>276.6666666666667</ele><time>2026-04-12T07:02:06.999Z</time></trkpt><trkpt lat="45.685384318381274" lon="8.758362711198805"><ele>277.3333333333333</ele><time>2026-04-12T07:02:08.999Z</time></trkpt><trkpt lat="45.68543567308246" lon="8.758267602911607"><ele>278.0</ele><time>2026-04-12T07:02:10.999Z</time></trkpt><trkpt lat="45.6855041770299" lon="8.758201605054964"><ele>278.66666666666663</ele><time>2026-04-12T07:02:12.999Z</time></trkpt><trkpt lat="45.68552948195962" lon="8.75807468193981"><ele>279.3333333333333</ele><time>2026-04-12T07:02:15.999Z</time></trkpt><trkpt lat="45.6855111980237" lon="8.757950928641616"><ele>280.0</ele><time>2026-04-12T07:02:17.999Z</time></trkpt><trkpt lat="45.68546237871408" lon="8.757836382847332"><ele>280.0</ele><time>2026-04-12T07:02:19.999Z</time></trkpt><trkpt lat="45.68543695188543" lon="8.757737741702073"><ele>280.0</ele><time>2026-04-12T07:02:22Z</time></trkpt><trkpt lat="45.68538654998028" lon="8.757620348120826"><ele>280.0</ele><time>2026-04-12T07:02:25Z</time></trkpt><trkpt lat="45.68536010696786" lon="8.757482761861967"><ele>280.0</ele><time>2026-04-12T07:02:27Z</time></trkpt><trkpt lat="45.68533870088338" lon="8.757388591447647"><ele>280.0</ele><time>2026-04-12T07:02:29Z</time></trkpt><trkpt lat="45.68532265348191" lon="8.757285758683144"><ele>280.0</ele><time>2026-04-12T07:02:31Z</time></trkpt><trkpt lat="45.68528329468147" lon="8.757155846530123"><ele>281.0</ele><time>2026-04-12T07:02:33Z</time></trkpt><trkpt lat="45.6852867132322" lon="8.757047062355655"><ele>282.0</ele><time>2026-04-12T07:02:35Z</time></trkpt><trkpt lat="45.685288009077986" lon="8.756952571768888"><ele>283.0</ele><time>2026-04-12T07:02:37Z</time></trkpt><trkpt lat="45.68527385123874" lon="8.756837332334353"><ele>284.0</ele><time>2026-04-12T07:02:39Z</time></trkpt><trkpt lat="45.68525110809229" lon="8.756695990336596"><ele>285.0</ele><time>2026-04-12T07:02:41Z</time></trkpt><trkpt lat="45.68521350423482" lon="8.756602752772022"><ele>286.0</ele><time>2026-04-12T07:02:43Z</time></trkpt><trkpt lat="45.68519044123244" lon="8.756503898426073"><ele>286.5</ele><time>2026-04-12T07:02:45Z</time></trkpt><trkpt lat="45.685163535923564" lon="8.756389747939846"><ele>287.0</ele><time>2026-04-12T07:02:47Z</time></trkpt><trkpt lat="45.68513656178446" lon="8.756295542572545"><ele>287.5</ele><time>2026-04-12T07:02:49Z</time></trkpt><trkpt lat="45.68508740764744" lon="8.75617624262149"><ele>288.0</ele><time>2026-04-12T07:02:51Z</time></trkpt><trkpt lat="45.68503769123665" lon="8.756056714816323"><ele>288.5</ele><time>2026-04-12T07:02:53Z</time></trkpt><trkpt lat="45.68500708818856" lon="8.755956426221502"><ele>289.0</ele><time>2026-04-12T07:02:55Z</time></trkpt><trkpt lat="45.68496358757868" lon="8.755854227165944"><ele>289.3333333333333</ele><time>2026-04-12T07:02:58Z</time></trkpt><trkpt lat="45.6849387818993" lon="8.755739236264573"><ele>289.66666666666663</ele><time>2026-04-12T07:03:00Z</time></trkpt><trkpt lat="45.68491682105923" lon="8.755602703027613"><ele>290.0</ele><time>2026-04-12T07:03:02Z</time></trkpt><trkpt lat="45.68489104800242" lon="8.755499661677204"><ele>290.3333333333333</ele><time>2026-04-12T07:03:04Z</time></trkpt><trkpt lat="45.68485622507322" lon="8.755363374653454"><ele>290.6666666666667</ele><time>2026-04-12T07:03:06Z</time></trkpt><trkpt lat="45.68481085854454" lon="8.755268009173538"><ele>291.0</ele><time>2026-04-12T07:03:08Z</time></trkpt><trkpt lat="45.68475312916114" lon="8.755121746602363"><ele>291.0</ele><time>2026-04-12T07:03:10Z</time></trkpt><trkpt lat="45.68472548697582" lon="8.755029604722036"><ele>291.0</ele><time>2026-04-12T07:03:12Z</time></trkpt><trkpt lat="45.68467478352413" lon="8.75496672040155"><ele>291.0</ele><time>2026-04-12T07:03:14Z</time></trkpt><trkpt lat="45.68463995078409" lon="8.754867147938581"><ele>291.0</ele><time>2026-04-12T07:03:16Z</time></trkpt><trkpt lat="45.684579642429185" lon="8.75477151520507"><ele>291.0</ele><time>2026-04-12T07:03:19Z</time></trkpt><trkpt lat="45.68456961522145" lon="8.754652364922759"><ele>291.0</ele><time>2026-04-12T07:03:22Z</time></trkpt><trkpt lat="45.68460068963442" lon="8.754545844703223"><ele>291.0</ele><time>2026-04-12T07:03:25Z</time></trkpt><trkpt lat="45.68465047444521" lon="8.754453193924546"><ele>291.0</ele><time>2026-04-12T07:03:27Z</time></trkpt><trkpt lat="45.68468231493891" lon="8.754374298686324"><ele>291.0</ele><time>2026-04-12T07:03:29Z</time></trkpt><trkpt lat="45.68475107094954" lon="8.754312980614676"><ele>291.0</ele><time>2026-04-12T07:03:31.999Z</time></trkpt><trkpt lat="45.684837252169466" lon="8.75423643312252"><ele>291.0</ele><time>2026-04-12T07:03:33.999Z</time></trkpt><trkpt lat="45.684919570968205" lon="8.754173744653873"><ele>291.0</ele><time>2026-04-12T07:03:35.999Z</time></trkpt><trkpt lat="45.68498519103429" lon="8.754109078437942"><ele>290.6666666666667</ele><time>2026-04-12T07:03:37.999Z</time></trkpt><trkpt lat="45.68506023930366" lon="8.754035414147912"><ele>290.3333333333333</ele><time>2026-04-12T07:03:39.999Z</time></trkpt><trkpt lat="45.68511275331289" lon="8.75397897651074"><ele>290.0</ele><time>2026-04-12T07:03:41.999Z</time></trkpt><trkpt lat="45.68518031702206" lon="8.753919107515072"><ele>289.66666666666663</ele><time>2026-04-12T07:03:43.999Z</time></trkpt><trkpt lat="45.68526411048512" lon="8.753864733801077"><ele>289.3333333333333</ele><time>2026-04-12T07:03:45.999Z</time></trkpt><trkpt lat="45.68534662481064" lon="8.753813591061343"><ele>289.0</ele><time>2026-04-12T07:03:47.999Z</time></trkpt><trkpt lat="45.68544456614157" lon="8.75377159490564"><ele>288.8333333333333</ele><time>2026-04-12T07:03:49.999Z</time></trkpt><trkpt lat="45.685537181226174" lon="8.753712350404216"><ele>288.66666666666663</ele><time>2026-04-12T07:03:51.999Z</time></trkpt><trkpt lat="45.68560609097651" lon="8.753683735782076"><ele>288.5</ele><time>2026-04-12T07:03:52.999Z</time></trkpt><trkpt lat="45.68566789836866" lon="8.75366063572231"><ele>288.3333333333333</ele><time>2026-04-12T07:03:54.999Z</time></trkpt><trkpt lat="45.68574799416715" lon="8.753596560126006"><ele>288.1666666666667</ele><time>2026-04-12T07:03:56.999Z</time></trkpt><trkpt lat="45.685832402372526" lon="8.75355522402521"><ele>288.0</ele><time>2026-04-12T07:03:58.999Z</time></trkpt><trkpt lat="45.685918130767604" lon="8.753515180428394"><ele>288.0</ele><time>2026-04-12T07:04:00.999Z</time></trkpt><trkpt lat="45.68602755496422" lon="8.75342535848663"><ele>288.0</ele><time>2026-04-12T07:04:03.999Z</time></trkpt><trkpt lat="45.68611629311099" lon="8.75336212370823"><ele>288.0</ele><time>2026-04-12T07:04:05.999Z</time></trkpt><trkpt lat="45.686197227987904" lon="8.753336621345378"><ele>288.0</ele><time>2026-04-12T07:04:07.999Z</time></trkpt><trkpt lat="45.68628624605169" lon="8.753292698852015"><ele>288.0</ele><time>2026-04-12T07:04:09.999Z</time></trkpt><trkpt lat="45.68637537743692" lon="8.75324325587378"><ele>287.8</ele><time>2026-04-12T07:04:11.999Z</time></trkpt><trkpt lat="45.68647746430481" lon="8.753188016010235"><ele>287.6</ele><time>2026-04-12T07:04:13.999Z</time></trkpt><trkpt lat="45.68658617330127" lon="8.753157156355952"><ele>287.4</ele><time>2026-04-12T07:04:15.999Z</time></trkpt><trkpt lat="45.68667539214713" lon="8.753127519363067"><ele>287.2</ele><time>2026-04-12T07:04:17.999Z</time></trkpt><trkpt lat="45.686776935391194" lon="8.753080210745576"><ele>287.0</ele><time>2026-04-12T07:04:19.999Z</time></trkpt><trkpt lat="45.68686132395014" lon="8.753031022604516"><ele>287.6666666666667</ele><time>2026-04-12T07:04:21.999Z</time></trkpt><trkpt lat="45.68695049850456" lon="8.752983897350218"><ele>288.33333333333337</ele><time>2026-04-12T07:04:23.999Z</time></trkpt><trkpt lat="45.68702273491015" lon="8.752960568356686"><ele>289.0</ele><time>2026-04-12T07:04:25.999Z</time></trkpt><trkpt lat="45.68711067256637" lon="8.752936919589475"><ele>289.6666666666667</ele><time>2026-04-12T07:04:28Z</time></trkpt><trkpt lat="45.68719657956735" lon="8.752896646491392"><ele>290.3333333333333</ele><time>2026-04-12T07:04:30Z</time></trkpt><trkpt lat="45.68725605719458" lon="8.752858286166784"><ele>291.0</ele><time>2026-04-12T07:04:32Z</time></trkpt><trkpt lat="45.68733015820563" lon="8.752812904844955"><ele>291.0</ele><time>2026-04-12T07:04:34Z</time></trkpt><trkpt lat="45.687406564216175" lon="8.752750683855949"><ele>291.0</ele><time>2026-04-12T07:04:36Z</time></trkpt><trkpt lat="45.687491944063545" lon="8.752718600234594"><ele>291.0</ele><time>2026-04-12T07:04:38Z</time></trkpt><trkpt lat="45.687567097279945" lon="8.752686393231048"><ele>291.0</ele><time>2026-04-12T07:04:40Z</time></trkpt><trkpt lat="45.687663382514515" lon="8.752652363741166"><ele>291.0</ele><time>2026-04-12T07:04:42Z</time></trkpt><trkpt lat="45.687756408869376" lon="8.75260891697609"><ele>290.6666666666667</ele><time>2026-04-12T07:04:44Z</time></trkpt><trkpt lat="45.68783629543335" lon="8.752579284023739"><ele>290.3333333333333</ele><time>2026-04-12T07:04:46Z</time></trkpt><trkpt lat="45.68790858331136" lon="8.7525607413226"><ele>290.0</ele><time>2026-04-12T07:04:48Z</time></trkpt><trkpt lat="45.68798066480798" lon="8.752528693181493"><ele>289.66666666666663</ele><time>2026-04-12T07:04:50Z</time></trkpt><trkpt lat="45.68808035595455" lon="8.752486529820713"><ele>289.3333333333333</ele><time>2026-04-12T07:04:52Z</time></trkpt><trkpt lat="45.688169286462134" lon="8.752459341243897"><ele>289.0</ele><time>2026-04-12T07:04:54Z</time></trkpt><trkpt lat="45.688233522303584" lon="8.752412287106829"><ele>289.0</ele><time>2026-04-12T07:04:55Z</time></trkpt><trkpt lat="45.688296817751926" lon="8.752377252463278"><ele>289.0</ele><time>2026-04-12T07:04:57Z</time></trkpt><trkpt lat="45.688403920637775" lon="8.75228554139774"><ele>289.0</ele><time>2026-04-12T07:04:59Z</time></trkpt><trkpt lat="45.6884825575852" lon="8.752245704644555"><ele>289.0</ele><time>2026-04-12T07:05:01Z</time></trkpt><trkpt lat="45.688561504024605" lon="8.752199372891093"><ele>289.0</ele><time>2026-04-12T07:05:03Z</time></trkpt><trkpt lat="45.688622206526546" lon="8.752163155689031"><ele>289.0</ele><time>2026-04-12T07:05:05Z</time></trkpt><trkpt lat="45.68870400937581" lon="8.752119369497047"><ele>288.8333333333333</ele><time>2026-04-12T07:05:07Z</time></trkpt><trkpt lat="45.688766984331515" lon="8.752098152048369"><ele>288.66666666666663</ele><time>2026-04-12T07:05:09Z</time></trkpt><trkpt lat="45.68883125384538" lon="8.752074528802899"><ele>288.5</ele><time>2026-04-12T07:05:11Z</time></trkpt><trkpt lat="45.68892951607496" lon="8.752011572059619"><ele>288.3333333333333</ele><time>2026-04-12T07:05:14Z</time></trkpt><trkpt lat="45.68902974750178" lon="8.751968022146364"><ele>288.1666666666667</ele><time>2026-04-12T07:05:16Z</time></trkpt><trkpt lat="45.689102382230516" lon="8.751936392490538"><ele>288.0</ele><time>2026-04-12T07:05:18Z</time></trkpt><trkpt lat="45.689185484889684" lon="8.751912618643598"><ele>288.0</ele><time>2026-04-12T07:05:20Z</time></trkpt><trkpt lat="45.68930422814503" lon="8.75190514720097"><ele>288.0</ele><time>2026-04-12T07:05:23Z</time></trkpt><trkpt lat="45.68937774491135" lon="8.751858009453029"><ele>288.0</ele><time>2026-04-12T07:05:25Z</time></trkpt><trkpt lat="45.689470867051284" lon="8.751792892009824"><ele>288.0</ele><time>2026-04-12T07:05:28Z</time></trkpt><trkpt lat="45.68954416797713" lon="8.751748440136433"><ele>288.0</ele><time>2026-04-12T07:05:30Z</time></trkpt><trkpt lat="45.68960463006925" lon="8.751705523655657"><ele>288.1666666666667</ele><time>2026-04-12T07:05:33Z</time></trkpt><trkpt lat="45.68969245458706" lon="8.751666926973293"><ele>288.3333333333333</ele><time>2026-04-12T07:05:34.999Z</time></trkpt><trkpt lat="45.68977188093617" lon="8.751623357927649"><ele>288.5</ele><time>2026-04-12T07:05:36.999Z</time></trkpt><trkpt lat="45.68985254690235" lon="8.751588497358462"><ele>288.66666666666663</ele><time>2026-04-12T07:05:38.999Z</time></trkpt><trkpt lat="45.68993123525763" lon="8.751562034468026"><ele>288.8333333333333</ele><time>2026-04-12T07:05:40.999Z</time></trkpt><trkpt lat="45.69002962066848" lon="8.751525659266308"><ele>289.0</ele><time>2026-04-12T07:05:42.999Z</time></trkpt><trkpt lat="45.69012513229011" lon="8.751481003187717"><ele>289.0</ele><time>2026-04-12T07:05:44.999Z</time></trkpt><trkpt lat="45.69020858061353" lon="8.751443740593512"><ele>289.0</ele><time>2026-04-12T07:05:46.999Z</time></trkpt><trkpt lat="45.69028154445599" lon="8.751414517511478"><ele>289.0</ele><time>2026-04-12T07:05:48.999Z</time></trkpt><trkpt lat="45.690373691335495" lon="8.751379026338677"><ele>289.0</ele><time>2026-04-12T07:05:50.999Z</time></trkpt><trkpt lat="45.69045485220161" lon="8.751338643254178"><ele>289.0</ele><time>2026-04-12T07:05:52.999Z</time></trkpt><trkpt lat="45.69053048926287" lon="8.751284633480212"><ele>289.0</ele><time>2026-04-12T07:05:54.999Z</time></trkpt><trkpt lat="45.6905906111045" lon="8.751213009225172"><ele>288.8333333333333</ele><time>2026-04-12T07:05:56.999Z</time></trkpt><trkpt lat="45.690641910532364" lon="8.751150046568752"><ele>288.66666666666663</ele><time>2026-04-12T07:05:58.999Z</time></trkpt><trkpt lat="45.69070156886505" lon="8.751088568549095"><ele>288.5</ele><time>2026-04-12T07:06:00.999Z</time></trkpt><trkpt lat="45.690762870829055" lon="8.751047634525019"><ele>288.3333333333333</ele><time>2026-04-12T07:06:02.999Z</time></trkpt><trkpt lat="45.690850138932376" lon="8.750985610636185"><ele>288.1666666666667</ele><time>2026-04-12T07:06:05.999Z</time></trkpt><trkpt lat="45.69091309248673" lon="8.750917072350033"><ele>288.0</ele><time>2026-04-12T07:06:07.999Z</time></trkpt><trkpt lat="45.69096230311519" lon="8.750855263192799"><ele>287.6666666666667</ele><time>2026-04-12T07:06:09.999Z</time></trkpt><trkpt lat="45.691037078623815" lon="8.750807109308953"><ele>287.3333333333333</ele><time>2026-04-12T07:06:11.999Z</time></trkpt><trkpt lat="45.69110316114176" lon="8.750752406449616"><ele>287.0</ele><time>2026-04-12T07:06:13.999Z</time></trkpt><trkpt lat="45.69117813897512" lon="8.750697013699918"><ele>286.66666666666663</ele><time>2026-04-12T07:06:15.999Z</time></trkpt><trkpt lat="45.69124698130357" lon="8.750653445838992"><ele>286.3333333333333</ele><time>2026-04-12T07:06:17.999Z</time></trkpt><trkpt lat="45.691317602950676" lon="8.750594655831218"><ele>286.0</ele><time>2026-04-12T07:06:19.999Z</time></trkpt><trkpt lat="45.6913815524628" lon="8.750548577197629"><ele>285.8333333333333</ele><time>2026-04-12T07:06:21.999Z</time></trkpt><trkpt lat="45.691457635541695" lon="8.750493013188873"><ele>285.66666666666663</ele><time>2026-04-12T07:06:23.999Z</time></trkpt><trkpt lat="45.691523532446304" lon="8.75044893724304"><ele>285.5</ele><time>2026-04-12T07:06:25.999Z</time></trkpt><trkpt lat="45.6915817802128" lon="8.750383849624734"><ele>285.3333333333333</ele><time>2026-04-12T07:06:27.999Z</time></trkpt><trkpt lat="45.69165055484821" lon="8.750292994123479"><ele>285.1666666666667</ele><time>2026-04-12T07:06:30.999Z</time></trkpt><trkpt lat="45.69171831391812" lon="8.750220134243927"><ele>285.0</ele><time>2026-04-12T07:06:32.999Z</time></trkpt><trkpt lat="45.691765767218136" lon="8.750157572078047"><ele>285.0</ele><time>2026-04-12T07:06:35Z</time></trkpt><trkpt lat="45.69180886528677" lon="8.750066360431088"><ele>285.0</ele><time>2026-04-12T07:06:37Z</time></trkpt><trkpt lat="45.691832924260744" lon="8.749938169332319"><ele>285.0</ele><time>2026-04-12T07:06:40Z</time></trkpt><trkpt lat="45.69185783841716" lon="8.749833834740839"><ele>285.0</ele><time>2026-04-12T07:06:42Z</time></trkpt><trkpt lat="45.691891594786135" lon="8.749700404395659"><ele>285.0</ele><time>2026-04-12T07:06:45Z</time></trkpt><trkpt lat="45.69192625161319" lon="8.749616855326396"><ele>285.0</ele><time>2026-04-12T07:06:47Z</time></trkpt><trkpt lat="45.691975558468705" lon="8.749522409777965"><ele>284.6666666666667</ele><time>2026-04-12T07:06:49Z</time></trkpt><trkpt lat="45.692040851725864" lon="8.749443943888458"><ele>284.3333333333333</ele><time>2026-04-12T07:06:51Z</time></trkpt><trkpt lat="45.692112136434" lon="8.749367171115791"><ele>284.0</ele><time>2026-04-12T07:06:53Z</time></trkpt><trkpt lat="45.69219749661514" lon="8.749308534253016"><ele>283.66666666666663</ele><time>2026-04-12T07:06:55Z</time></trkpt><trkpt lat="45.69227207074726" lon="8.749272553162362"><ele>283.3333333333333</ele><time>2026-04-12T07:06:57Z</time></trkpt><trkpt lat="45.692347227774555" lon="8.7492343211467"><ele>283.0</ele><time>2026-04-12T07:06:59Z</time></trkpt><trkpt lat="45.692417494078" lon="8.749172465648769"><ele>283.0</ele><time>2026-04-12T07:07:01Z</time></trkpt><trkpt lat="45.69248929530266" lon="8.749111647970203"><ele>283.0</ele><time>2026-04-12T07:07:03Z</time></trkpt><trkpt lat="45.69255564927126" lon="8.749056794642572"><ele>283.0</ele><time>2026-04-12T07:07:05Z</time></trkpt><trkpt lat="45.69260760106146" lon="8.749005490737984"><ele>283.0</ele><time>2026-04-12T07:07:07Z</time></trkpt><trkpt lat="45.69267100687479" lon="8.748935846232968"><ele>283.0</ele><time>2026-04-12T07:07:10Z</time></trkpt><trkpt lat="45.69273423911331" lon="8.748894781374325"><ele>283.0</ele><time>2026-04-12T07:07:13Z</time></trkpt><trkpt lat="45.69279967257646" lon="8.74883159181735"><ele>283.8333333333333</ele><time>2026-04-12T07:07:24Z</time></trkpt><trkpt lat="45.69283356102257" lon="8.748736338180018"><ele>284.66666666666663</ele><time>2026-04-12T07:07:28Z</time></trkpt><trkpt lat="45.692886239803244" lon="8.748685910874777"><ele>285.5</ele><time>2026-04-12T07:07:30Z</time></trkpt><trkpt lat="45.69294559255717" lon="8.748616046049806"><ele>286.3333333333333</ele><time>2026-04-12T07:07:32Z</time></trkpt><trkpt lat="45.6929966497849" lon="8.74853140681588"><ele>287.1666666666667</ele><time>2026-04-12T07:07:34Z</time></trkpt><trkpt lat="45.6930597369107" lon="8.748445958097932"><ele>288.0</ele><time>2026-04-12T07:07:36Z</time></trkpt><trkpt lat="45.69310794515329" lon="8.748369763082525"><ele>288.6666666666667</ele><time>2026-04-12T07:07:38Z</time></trkpt><trkpt lat="45.69316282319011" lon="8.748294263448717"><ele>289.3333333333333</ele><time>2026-04-12T07:07:40Z</time></trkpt><trkpt lat="45.693225399610974" lon="8.748202387069883"><ele>290.0</ele><time>2026-04-12T07:07:42Z</time></trkpt><trkpt lat="45.69327294657038" lon="8.748118152399835"><ele>290.66666666666663</ele><time>2026-04-12T07:07:45Z</time></trkpt><trkpt lat="45.6933426858919" lon="8.74803404540645"><ele>291.3333333333333</ele><time>2026-04-12T07:07:46.999Z</time></trkpt><trkpt lat="45.69340959011058" lon="8.747968504604218"><ele>292.0</ele><time>2026-04-12T07:07:48.999Z</time></trkpt><trkpt lat="45.69348609773711" lon="8.747909688904222"><ele>293.0</ele><time>2026-04-12T07:07:50.999Z</time></trkpt><trkpt lat="45.693596585152" lon="8.747880653698475"><ele>294.0</ele><time>2026-04-12T07:07:53.999Z</time></trkpt><trkpt lat="45.69373094648274" lon="8.747851945866168"><ele>295.0</ele><time>2026-04-12T07:07:56.999Z</time></trkpt><trkpt lat="45.693828261349715" lon="8.74782580253557"><ele>296.0</ele><time>2026-04-12T07:07:58.999Z</time></trkpt><trkpt lat="45.693895940895125" lon="8.747805070316021"><ele>297.0</ele><time>2026-04-12T07:08:00.999Z</time></trkpt><trkpt lat="45.69398998382821" lon="8.74776219614473"><ele>297.0</ele><time>2026-04-12T07:08:02.999Z</time></trkpt><trkpt lat="45.69405051673443" lon="8.747730472031721"><ele>297.0</ele><time>2026-04-12T07:08:04.999Z</time></trkpt><trkpt lat="45.69412407856205" lon="8.747680016101176"><ele>297.0</ele><time>2026-04-12T07:08:07.999Z</time></trkpt><trkpt lat="45.694126206145775" lon="8.747572775494728"><ele>297.0</ele><time>2026-04-12T07:08:10.999Z</time></trkpt><trkpt lat="45.69416377888446" lon="8.747477684108485"><ele>297.0</ele><time>2026-04-12T07:08:13.999Z</time></trkpt><trkpt lat="45.6942261859515" lon="8.747411413328988"><ele>297.0</ele><time>2026-04-12T07:08:15.999Z</time></trkpt><trkpt lat="45.69428705398088" lon="8.747341054312535"><ele>297.3333333333333</ele><time>2026-04-12T07:08:18.999Z</time></trkpt><trkpt lat="45.69435270712055" lon="8.74731721437619"><ele>297.6666666666667</ele><time>2026-04-12T07:08:20.999Z</time></trkpt><trkpt lat="45.69443324143691" lon="8.747335606552223"><ele>298.0</ele><time>2026-04-12T07:08:24.999Z</time></trkpt><trkpt lat="45.69450665643092" lon="8.747386280718588"><ele>298.33333333333337</ele><time>2026-04-12T07:08:28.999Z</time></trkpt><trkpt lat="45.694579575918226" lon="8.747388318943784"><ele>298.6666666666667</ele><time>2026-04-12T07:08:30.999Z</time></trkpt><trkpt lat="45.69465699763829" lon="8.7473802819742"><ele>299.0</ele><time>2026-04-12T07:08:32.999Z</time></trkpt><trkpt lat="45.69473831978586" lon="8.74737279453278"><ele>299.0</ele><time>2026-04-12T07:08:34.999Z</time></trkpt><trkpt lat="45.69480485174288" lon="8.747386298361224"><ele>299.0</ele><time>2026-04-12T07:08:36.999Z</time></trkpt><trkpt lat="45.6948838516698" lon="8.747400389311931"><ele>299.0</ele><time>2026-04-12T07:08:40Z</time></trkpt><trkpt lat="45.69498153088921" lon="8.747398741437976"><ele>299.0</ele><time>2026-04-12T07:08:43Z</time></trkpt><trkpt lat="45.69506852430692" lon="8.74733421352319"><ele>299.0</ele><time>2026-04-12T07:08:46Z</time></trkpt><trkpt lat="45.69513747708818" lon="8.74728565854227"><ele>299.0</ele><time>2026-04-12T07:08:49Z</time></trkpt><trkpt lat="45.695262621459314" lon="8.747179696671676"><ele>299.0</ele><time>2026-04-12T07:08:53Z</time></trkpt><trkpt lat="45.69533377073756" lon="8.747106521430537"><ele>299.0</ele><time>2026-04-12T07:08:55Z</time></trkpt><trkpt lat="45.695421646263206" lon="8.74705756651382"><ele>299.0</ele><time>2026-04-12T07:08:57Z</time></trkpt><trkpt lat="45.69547879344802" lon="8.747016512268539"><ele>299.0</ele><time>2026-04-12T07:08:59Z</time></trkpt><trkpt lat="45.69553809585554" lon="8.746942979348358"><ele>299.0</ele><time>2026-04-12T07:09:01Z</time></trkpt><trkpt lat="45.69560321483896" lon="8.746868506798004"><ele>299.0</ele><time>2026-04-12T07:09:03Z</time></trkpt><trkpt lat="45.695671409827185" lon="8.74679730244808"><ele>298.83333333333337</ele><time>2026-04-12T07:09:05Z</time></trkpt><trkpt lat="45.69574539083589" lon="8.746711406786945"><ele>298.6666666666667</ele><time>2026-04-12T07:09:08Z</time></trkpt><trkpt lat="45.69581719757501" lon="8.746648436358594"><ele>298.5</ele><time>2026-04-12T07:09:10Z</time></trkpt><trkpt lat="45.69588925397896" lon="8.746583471566053"><ele>298.3333333333333</ele><time>2026-04-12T07:09:12Z</time></trkpt><trkpt lat="45.695939262922494" lon="8.746520396840848"><ele>298.16666666666663</ele><time>2026-04-12T07:09:13Z</time></trkpt><trkpt lat="45.696020105374444" lon="8.746456524758552"><ele>298.0</ele><time>2026-04-12T07:09:16Z</time></trkpt><trkpt lat="45.69607260600579" lon="8.746400937670975"><ele>298.0</ele><time>2026-04-12T07:09:18Z</time></trkpt><trkpt lat="45.696123173424596" lon="8.746326161690325"><ele>298.0</ele><time>2026-04-12T07:09:20Z</time></trkpt><trkpt lat="45.696185704539324" lon="8.746230636321911"><ele>298.0</ele><time>2026-04-12T07:09:22Z</time></trkpt><trkpt lat="45.696230914658734" lon="8.74611437935223"><ele>298.0</ele><time>2026-04-12T07:09:25Z</time></trkpt><trkpt lat="45.696299463577645" lon="8.746025185415862"><ele>298.0</ele><time>2026-04-12T07:09:27Z</time></trkpt><trkpt lat="45.69634335321763" lon="8.745920091021294"><ele>298.0</ele><time>2026-04-12T07:09:30Z</time></trkpt><trkpt lat="45.69638333817083" lon="8.745828015705303"><ele>297.85714285714283</ele><time>2026-04-12T07:09:33Z</time></trkpt><trkpt lat="45.696430864947985" lon="8.745729987113835"><ele>297.71428571428567</ele><time>2026-04-12T07:09:35Z</time></trkpt><trkpt lat="45.696484636552455" lon="8.745669811208943"><ele>297.57142857142856</ele><time>2026-04-12T07:09:37Z</time></trkpt><trkpt lat="45.6965240584919" lon="8.745592528975136"><ele>297.42857142857144</ele><time>2026-04-12T07:09:39Z</time></trkpt><trkpt lat="45.696559775318356" lon="8.745516654031448"><ele>297.28571428571433</ele><time>2026-04-12T07:09:41Z</time></trkpt><trkpt lat="45.696602464845306" lon="8.745411701830369"><ele>297.14285714285717</ele><time>2026-04-12T07:09:44Z</time></trkpt><trkpt lat="45.69664197979898" lon="8.745325116526452"><ele>297.0</ele><time>2026-04-12T07:09:46Z</time></trkpt><trkpt lat="45.69669511706705" lon="8.74524306381047"><ele>297.1666666666667</ele><time>2026-04-12T07:09:48Z</time></trkpt><trkpt lat="45.69676636912588" lon="8.74514945234818"><ele>297.3333333333333</ele><time>2026-04-12T07:09:50Z</time></trkpt><trkpt lat="45.69681732449179" lon="8.745053645839965"><ele>297.5</ele><time>2026-04-12T07:09:51.999Z</time></trkpt><trkpt lat="45.69686217224802" lon="8.744975707579787"><ele>297.66666666666663</ele><time>2026-04-12T07:09:53.999Z</time></trkpt><trkpt lat="45.69691829799702" lon="8.74487823041811"><ele>297.8333333333333</ele><time>2026-04-12T07:09:55.999Z</time></trkpt><trkpt lat="45.69697346373082" lon="8.744790309009522"><ele>298.0</ele><time>2026-04-12T07:09:57.999Z</time></trkpt><trkpt lat="45.697041431434826" lon="8.744713767824486"><ele>298.0</ele><time>2026-04-12T07:09:59.999Z</time></trkpt><trkpt lat="45.697106036047686" lon="8.744596912221478"><ele>298.0</ele><time>2026-04-12T07:10:01.999Z</time></trkpt><trkpt lat="45.697160575267475" lon="8.7444869744219"><ele>298.0</ele><time>2026-04-12T07:10:03.999Z</time></trkpt><trkpt lat="45.69721207713159" lon="8.744370534312491"><ele>298.0</ele><time>2026-04-12T07:10:05.999Z</time></trkpt><trkpt lat="45.69725956943383" lon="8.744258862686168"><ele>298.0</ele><time>2026-04-12T07:10:07.999Z</time></trkpt><trkpt lat="45.697336578601906" lon="8.744161281855098"><ele>298.2</ele><time>2026-04-12T07:10:09.999Z</time></trkpt><trkpt lat="45.697383388308936" lon="8.744097114537714"><ele>298.4</ele><time>2026-04-12T07:10:10.999Z</time></trkpt><trkpt lat="45.69744268506211" lon="8.744030064256608"><ele>298.59999999999997</ele><time>2026-04-12T07:10:11.999Z</time></trkpt><trkpt lat="45.697505573595194" lon="8.743919077172572"><ele>298.8</ele><time>2026-04-12T07:10:13.999Z</time></trkpt><trkpt lat="45.69757234543718" lon="8.743776477997908"><ele>299.0</ele><time>2026-04-12T07:10:15.999Z</time></trkpt><trkpt lat="45.69763900804238" lon="8.743677175672632"><ele>299.0</ele><time>2026-04-12T07:10:17.999Z</time></trkpt><trkpt lat="45.697708907514595" lon="8.74360378184552"><ele>299.0</ele><time>2026-04-12T07:10:19.999Z</time></trkpt><trkpt lat="45.697760384694334" lon="8.743470176519747"><ele>299.0</ele><time>2026-04-12T07:10:21.999Z</time></trkpt><trkpt lat="45.697789865241084" lon="8.743357601725936"><ele>299.0</ele><time>2026-04-12T07:10:24.999Z</time></trkpt><trkpt lat="45.69781142307141" lon="8.743263612743473"><ele>299.0</ele><time>2026-04-12T07:10:26.999Z</time></trkpt><trkpt lat="45.69781541181238" lon="8.743118882963337"><ele>299.0</ele><time>2026-04-12T07:10:30.999Z</time></trkpt><trkpt lat="45.69782063284514" lon="8.742983347139218"><ele>299.2</ele><time>2026-04-12T07:10:34.999Z</time></trkpt><trkpt lat="45.69785021247803" lon="8.7428799481234"><ele>299.4</ele><time>2026-04-12T07:10:37.999Z</time></trkpt><trkpt lat="45.697915893639944" lon="8.742804872809675"><ele>299.6</ele><time>2026-04-12T07:10:40.999Z</time></trkpt><trkpt lat="45.69799469388861" lon="8.742824533169603"><ele>299.8</ele><time>2026-04-12T07:10:43.999Z</time></trkpt><trkpt lat="45.69812055838214" lon="8.742853992540791"><ele>300.0</ele><time>2026-04-12T07:10:48Z</time></trkpt><trkpt lat="45.69817495973921" lon="8.742766767666426"><ele>300.4285714285714</ele><time>2026-04-12T07:10:51Z</time></trkpt><trkpt lat="45.69822635006784" lon="8.742690488867886"><ele>300.85714285714283</ele><time>2026-04-12T07:10:53Z</time></trkpt><trkpt lat="45.69825981408579" lon="8.74260728923991"><ele>301.2857142857143</ele><time>2026-04-12T07:10:56Z</time></trkpt><trkpt lat="45.698296772959296" lon="8.742530191686868"><ele>301.71428571428567</ele><time>2026-04-12T07:10:58Z</time></trkpt><trkpt lat="45.69834217850993" lon="8.742420950702245"><ele>302.1428571428571</ele><time>2026-04-12T07:11:01Z</time></trkpt><trkpt lat="45.698375897596335" lon="8.742335560178146"><ele>302.57142857142856</ele><time>2026-04-12T07:11:03Z</time></trkpt><trkpt lat="45.698402951926724" lon="8.74222251546265"><ele>303.0</ele><time>2026-04-12T07:11:05Z</time></trkpt><trkpt lat="45.698433145842635" lon="8.742124434365639"><ele>303.0</ele><time>2026-04-12T07:11:08Z</time></trkpt><trkpt lat="45.6984462459497" lon="8.7420128506161"><ele>303.0</ele><time>2026-04-12T07:11:10Z</time></trkpt><trkpt lat="45.6984726051343" lon="8.741908276537243"><ele>303.0</ele><time>2026-04-12T07:11:12Z</time></trkpt><trkpt lat="45.69851187550024" lon="8.741769738065967"><ele>303.0</ele><time>2026-04-12T07:11:14Z</time></trkpt><trkpt lat="45.69855226501184" lon="8.74164181669042"><ele>303.0</ele><time>2026-04-12T07:11:16Z</time></trkpt><trkpt lat="45.69861761098486" lon="8.741500300878593"><ele>303.2</ele><time>2026-04-12T07:11:18Z</time></trkpt><trkpt lat="45.698684757149664" lon="8.741355321772218"><ele>303.4</ele><time>2026-04-12T07:11:20Z</time></trkpt><trkpt lat="45.69875653242081" lon="8.741211080973983"><ele>303.59999999999997</ele><time>2026-04-12T07:11:22Z</time></trkpt><trkpt lat="45.69883370949348" lon="8.741120441264977"><ele>303.8</ele><time>2026-04-12T07:11:23Z</time></trkpt><trkpt lat="45.69887664723888" lon="8.741029948747768"><ele>304.0</ele><time>2026-04-12T07:11:24Z</time></trkpt><trkpt lat="45.698926152222754" lon="8.740924656163623"><ele>304.59999999999997</ele><time>2026-04-12T07:11:26Z</time></trkpt><trkpt lat="45.698959642359796" lon="8.740830170167305"><ele>305.2</ele><time>2026-04-12T07:11:27Z</time></trkpt><trkpt lat="45.69903065163415" lon="8.740766983967466"><ele>305.79999999999995</ele><time>2026-04-12T07:11:29Z</time></trkpt><trkpt lat="45.69912569087014" lon="8.740613406060078"><ele>306.4</ele><time>2026-04-12T07:11:31Z</time></trkpt><trkpt lat="45.699198655784556" lon="8.740490423439018"><ele>307.0</ele><time>2026-04-12T07:11:33Z</time></trkpt><trkpt lat="45.699279382545015" lon="8.740387905394291"><ele>307.0</ele><time>2026-04-12T07:11:35Z</time></trkpt><trkpt lat="45.69938730295315" lon="8.740258450282386"><ele>307.0</ele><time>2026-04-12T07:11:37Z</time></trkpt><trkpt lat="45.699489527134446" lon="8.74015640267594"><ele>307.0</ele><time>2026-04-12T07:11:39Z</time></trkpt><trkpt lat="45.69955887053973" lon="8.74008366805542"><ele>307.0</ele><time>2026-04-12T07:11:41Z</time></trkpt><trkpt lat="45.699654615962864" lon="8.73999055999052"><ele>307.6</ele><time>2026-04-12T07:11:43Z</time></trkpt><trkpt lat="45.699731791705474" lon="8.739914241693542"><ele>308.2</ele><time>2026-04-12T07:11:45Z</time></trkpt><trkpt lat="45.69981999016272" lon="8.739831320594753"><ele>308.8</ele><time>2026-04-12T07:11:47Z</time></trkpt><trkpt lat="45.699908584996614" lon="8.739734539165653"><ele>309.4</ele><time>2026-04-12T07:11:49Z</time></trkpt><trkpt lat="45.699969110221716" lon="8.739679154816226"><ele>310.0</ele><time>2026-04-12T07:11:50Z</time></trkpt><trkpt lat="45.70002631249405" lon="8.7396130227069"><ele>310.0</ele><time>2026-04-12T07:11:51Z</time></trkpt><trkpt lat="45.70009324225423" lon="8.739542962541979"><ele>310.0</ele><time>2026-04-12T07:11:52Z</time></trkpt><trkpt lat="45.700169490355634" lon="8.739458794544678"><ele>310.0</ele><time>2026-04-12T07:11:54Z</time></trkpt><trkpt lat="45.700221664123156" lon="8.73940799016584"><ele>310.0</ele><time>2026-04-12T07:11:55Z</time></trkpt><trkpt lat="45.700314473809605" lon="8.739369710742295"><ele>310.0</ele><time>2026-04-12T07:11:57.999Z</time></trkpt><trkpt lat="45.70040509345982" lon="8.739360398227074"><ele>310.0</ele><time>2026-04-12T07:11:58.999Z</time></trkpt><trkpt lat="45.70048731607878" lon="8.739334083885339"><ele>309.6</ele><time>2026-04-12T07:12:00.999Z</time></trkpt><trkpt lat="45.70057531363136" lon="8.739287601630865"><ele>309.2</ele><time>2026-04-12T07:12:02.999Z</time></trkpt><trkpt lat="45.70067841617494" lon="8.739241802594856"><ele>308.8</ele><time>2026-04-12T07:12:04.999Z</time></trkpt><trkpt lat="45.700745185588815" lon="8.739217802905152"><ele>308.4</ele><time>2026-04-12T07:12:05.999Z</time></trkpt><trkpt lat="45.70084719589144" lon="8.739175947886006"><ele>308.0</ele><time>2026-04-12T07:12:07.999Z</time></trkpt><trkpt lat="45.70095378472724" lon="8.739149072662759"><ele>308.0</ele><time>2026-04-12T07:12:09.999Z</time></trkpt><trkpt lat="45.70105164317865" lon="8.739121812929913"><ele>308.0</ele><time>2026-04-12T07:12:11.999Z</time></trkpt><trkpt lat="45.70114553728543" lon="8.739084068252307"><ele>308.0</ele><time>2026-04-12T07:12:13.999Z</time></trkpt><trkpt lat="45.70120881409047" lon="8.739076700366182"><ele>308.0</ele><time>2026-04-12T07:12:14.999Z</time></trkpt><trkpt lat="45.70127937340828" lon="8.739084646810156"><ele>308.0</ele><time>2026-04-12T07:12:16.999Z</time></trkpt><trkpt lat="45.70136845201388" lon="8.739094130082394"><ele>308.0</ele><time>2026-04-12T07:12:19.999Z</time></trkpt><trkpt lat="45.70143532578178" lon="8.73916912514314"><ele>308.2</ele><time>2026-04-12T07:12:21.999Z</time></trkpt><trkpt lat="45.70151095695851" lon="8.739235917169228"><ele>308.4</ele><time>2026-04-12T07:12:22.999Z</time></trkpt><trkpt lat="45.701600228295035" lon="8.739293945312525"><ele>308.59999999999997</ele><time>2026-04-12T07:12:23.999Z</time></trkpt><trkpt lat="45.701686813171875" lon="8.73930065001977"><ele>308.8</ele><time>2026-04-12T07:12:24.999Z</time></trkpt><trkpt lat="45.70176827122937" lon="8.739321984723084"><ele>309.0</ele><time>2026-04-12T07:12:25.999Z</time></trkpt><trkpt lat="45.70186995250655" lon="8.7393142512672"><ele>308.59999999999997</ele><time>2026-04-12T07:12:27.999Z</time></trkpt><trkpt lat="45.701941205848605" lon="8.73931450464104"><ele>308.2</ele><time>2026-04-12T07:12:28.999Z</time></trkpt><trkpt lat="45.7020384809481" lon="8.73932635083936"><ele>307.79999999999995</ele><time>2026-04-12T07:12:30.999Z</time></trkpt><trkpt lat="45.7021596502985" lon="8.73931905712316"><ele>307.4</ele><time>2026-04-12T07:12:32.999Z</time></trkpt><trkpt lat="45.70227139911516" lon="8.73930587789248"><ele>307.0</ele><time>2026-04-12T07:12:34.999Z</time></trkpt><trkpt lat="45.70235969229604" lon="8.739309412977772"><ele>307.0</ele><time>2026-04-12T07:12:36.999Z</time></trkpt><trkpt lat="45.70245893220227" lon="8.739309724733767"><ele>307.0</ele><time>2026-04-12T07:12:38.999Z</time></trkpt><trkpt lat="45.702549733346686" lon="8.739309316328399"><ele>307.0</ele><time>2026-04-12T07:12:40.999Z</time></trkpt><trkpt lat="45.702612929518395" lon="8.73929286587869"><ele>307.0</ele><time>2026-04-12T07:12:41.999Z</time></trkpt><trkpt lat="45.7026754220165" lon="8.73926902953223"><ele>307.0</ele><time>2026-04-12T07:12:42.999Z</time></trkpt><trkpt lat="45.702775790309005" lon="8.739274674264959"><ele>307.0</ele><time>2026-04-12T07:12:44.999Z</time></trkpt><trkpt lat="45.702805769800364" lon="8.739380341570525"><ele>305.6</ele><time>2026-04-12T07:12:48.999Z</time></trkpt><trkpt lat="45.70280409500806" lon="8.739503571999034"><ele>304.2</ele><time>2026-04-12T07:12:52Z</time></trkpt><trkpt lat="45.70281569750379" lon="8.739631360006385"><ele>302.8</ele><time>2026-04-12T07:12:53Z</time></trkpt><trkpt lat="45.70281818431587" lon="8.739729561653434"><ele>301.4</ele><time>2026-04-12T07:12:55Z</time></trkpt><trkpt lat="45.70280644155882" lon="8.73987071028212"><ele>300.0</ele><time>2026-04-12T07:12:58Z</time></trkpt><trkpt lat="45.70280540067554" lon="8.74004752433216"><ele>300.0</ele><time>2026-04-12T07:13:00Z</time></trkpt><trkpt lat="45.702799535250485" lon="8.740170212134636"><ele>300.0</ele><time>2026-04-12T07:13:02Z</time></trkpt><trkpt lat="45.70279477690372" lon="8.740262951135083"><ele>300.0</ele><time>2026-04-12T07:13:04Z</time></trkpt><trkpt lat="45.702816985688514" lon="8.740412701316904"><ele>300.0</ele><time>2026-04-12T07:13:06Z</time></trkpt><trkpt lat="45.70280366472248" lon="8.740506920978715"><ele>300.0</ele><time>2026-04-12T07:13:07Z</time></trkpt><trkpt lat="45.70279544056514" lon="8.74060132081517"><ele>300.0</ele><time>2026-04-12T07:13:08Z</time></trkpt><trkpt lat="45.70276491886208" lon="8.740765753118543"><ele>300.57142857142856</ele><time>2026-04-12T07:13:10Z</time></trkpt><trkpt lat="45.70274859470328" lon="8.740854143841133"><ele>301.1428571428571</ele><time>2026-04-12T07:13:11Z</time></trkpt><trkpt lat="45.70273341290031" lon="8.740957096192682"><ele>301.71428571428567</ele><time>2026-04-12T07:13:12Z</time></trkpt><trkpt lat="45.70272681951884" lon="8.741065764395785"><ele>302.2857142857143</ele><time>2026-04-12T07:13:13Z</time></trkpt><trkpt lat="45.70272440903244" lon="8.74116844647897"><ele>302.8571428571429</ele><time>2026-04-12T07:13:14Z</time></trkpt><trkpt lat="45.70272806409214" lon="8.74127280511298"><ele>303.4285714285714</ele><time>2026-04-12T07:13:15Z</time></trkpt><trkpt lat="45.702721328548044" lon="8.741372165193658"><ele>304.0</ele><time>2026-04-12T07:13:16Z</time></trkpt><trkpt lat="45.702714132418656" lon="8.741467532867041"><ele>304.0</ele><time>2026-04-12T07:13:17Z</time></trkpt><trkpt lat="45.70264831364897" lon="8.741698787241306"><ele>304.0</ele><time>2026-04-12T07:13:19Z</time></trkpt><trkpt lat="45.70265052195713" lon="8.741854035826314"><ele>304.0</ele><time>2026-04-12T07:13:21Z</time></trkpt><trkpt lat="45.70271108198902" lon="8.741960876269129"><ele>304.0</ele><time>2026-04-12T07:13:23Z</time></trkpt><trkpt lat="45.70274941665401" lon="8.74210837276688"><ele>303.4</ele><time>2026-04-12T07:13:25Z</time></trkpt><trkpt lat="45.70277554234824" lon="8.742276839718599"><ele>302.79999999999995</ele><time>2026-04-12T07:13:27Z</time></trkpt><trkpt lat="45.70280414537013" lon="8.742453827974982"><ele>302.20000000000005</ele><time>2026-04-12T07:13:29Z</time></trkpt><trkpt lat="45.702773369044756" lon="8.74254510428566"><ele>301.6</ele><time>2026-04-12T07:13:32Z</time></trkpt><trkpt lat="45.702772816530555" lon="8.742652633347221"><ele>301.0</ele><time>2026-04-12T07:13:38Z</time></trkpt><trkpt lat="45.702745984107814" lon="8.742784918549571"><ele>299.16666666666663</ele><time>2026-04-12T07:13:41Z</time></trkpt><trkpt lat="45.70277174552129" lon="8.742881070036338"><ele>297.3333333333333</ele><time>2026-04-12T07:13:43Z</time></trkpt><trkpt lat="45.702805584406455" lon="8.742995710478034"><ele>295.5</ele><time>2026-04-12T07:13:45Z</time></trkpt><trkpt lat="45.70281159445008" lon="8.743121408039151"><ele>293.6666666666667</ele><time>2026-04-12T07:13:47Z</time></trkpt><trkpt lat="45.70282570241991" lon="8.743231592028794"><ele>291.83333333333337</ele><time>2026-04-12T07:13:49Z</time></trkpt><trkpt lat="45.70282322021588" lon="8.743393562091436"><ele>290.0</ele><time>2026-04-12T07:13:51Z</time></trkpt><trkpt lat="45.70285347066029" lon="8.74347908627182"><ele>290.0</ele><time>2026-04-12T07:13:53Z</time></trkpt><trkpt lat="45.70293967950931" lon="8.743502864265485"><ele>290.0</ele><time>2026-04-12T07:13:55Z</time></trkpt><trkpt lat="45.70300404026984" lon="8.743564242366693"><ele>290.0</ele><time>2026-04-12T07:13:56.999Z</time></trkpt><trkpt lat="45.70307971344669" lon="8.743608571097772"><ele>290.0</ele><time>2026-04-12T07:13:58.999Z</time></trkpt><trkpt lat="45.70313111176017" lon="8.743678691605083"><ele>290.0</ele><time>2026-04-12T07:14:00.999Z</time></trkpt><trkpt lat="45.70316916230154" lon="8.743758627125855"><ele>290.0</ele><time>2026-04-12T07:14:03.999Z</time></trkpt><trkpt lat="45.703205801827636" lon="8.743850628827103"><ele>290.0</ele><time>2026-04-12T07:14:05.999Z</time></trkpt><trkpt lat="45.70324764777725" lon="8.743931952609529"><ele>290.0</ele><time>2026-04-12T07:14:07.999Z</time></trkpt><trkpt lat="45.70330848901627" lon="8.7439958801412"><ele>290.0</ele><time>2026-04-12T07:14:09.999Z</time></trkpt><trkpt lat="45.70336546768149" lon="8.744080090805877"><ele>290.0</ele><time>2026-04-12T07:14:11.999Z</time></trkpt><trkpt lat="45.7034258707528" lon="8.744172493483363"><ele>290.0</ele><time>2026-04-12T07:14:13.999Z</time></trkpt><trkpt lat="45.7034922412277" lon="8.744300045238116"><ele>290.0</ele><time>2026-04-12T07:14:15.999Z</time></trkpt><trkpt lat="45.7035589137904" lon="8.744414224108171"><ele>289.1666666666667</ele><time>2026-04-12T07:14:17.999Z</time></trkpt><trkpt lat="45.70360380206326" lon="8.744488211953358"><ele>288.33333333333337</ele><time>2026-04-12T07:14:19.999Z</time></trkpt><trkpt lat="45.70365956921385" lon="8.744551061263873"><ele>287.5</ele><time>2026-04-12T07:14:20.999Z</time></trkpt><trkpt lat="45.703705137886736" lon="8.744633455470513"><ele>286.6666666666667</ele><time>2026-04-12T07:14:21.999Z</time></trkpt><trkpt lat="45.703753762431255" lon="8.744719518648573"><ele>285.8333333333333</ele><time>2026-04-12T07:14:23.999Z</time></trkpt><trkpt lat="45.70381380585586" lon="8.744818009654516"><ele>285.0</ele><time>2026-04-12T07:14:25.999Z</time></trkpt><trkpt lat="45.70387542959634" lon="8.744917780821245"><ele>285.0</ele><time>2026-04-12T07:14:27.999Z</time></trkpt><trkpt lat="45.70391719256548" lon="8.745061023638174"><ele>285.0</ele><time>2026-04-12T07:14:29.999Z</time></trkpt><trkpt lat="45.703935032876075" lon="8.745159696874941"><ele>285.0</ele><time>2026-04-12T07:14:30.999Z</time></trkpt><trkpt lat="45.70397584365796" lon="8.745274777381319"><ele>285.0</ele><time>2026-04-12T07:14:32.999Z</time></trkpt><trkpt lat="45.70401874672306" lon="8.745417725988487"><ele>285.0</ele><time>2026-04-12T07:14:34.999Z</time></trkpt><trkpt lat="45.70403918295534" lon="8.745546719138005"><ele>285.3333333333333</ele><time>2026-04-12T07:14:36.999Z</time></trkpt><trkpt lat="45.70406013335167" lon="8.745663779520257"><ele>285.6666666666667</ele><time>2026-04-12T07:14:38.999Z</time></trkpt><trkpt lat="45.70406148134347" lon="8.7457569854636"><ele>286.0</ele><time>2026-04-12T07:14:40.999Z</time></trkpt><trkpt lat="45.70407126006847" lon="8.745877943386569"><ele>286.33333333333337</ele><time>2026-04-12T07:14:42.999Z</time></trkpt><trkpt lat="45.70408510683095" lon="8.745965937396429"><ele>286.6666666666667</ele><time>2026-04-12T07:14:43.999Z</time></trkpt><trkpt lat="45.70408441584896" lon="8.74613587463194"><ele>287.0</ele><time>2026-04-12T07:14:46.999Z</time></trkpt><trkpt lat="45.70407816322368" lon="8.746287150854137"><ele>287.1666666666667</ele><time>2026-04-12T07:14:48.999Z</time></trkpt><trkpt lat="45.70408577656129" lon="8.746451682455268"><ele>287.33333333333337</ele><time>2026-04-12T07:14:50.999Z</time></trkpt><trkpt lat="45.70408049903158" lon="8.746551654614551"><ele>287.5</ele><time>2026-04-12T07:14:51.999Z</time></trkpt><trkpt lat="45.70408496658963" lon="8.746659357553064"><ele>287.6666666666667</ele><time>2026-04-12T07:14:52.999Z</time></trkpt><trkpt lat="45.70407399962686" lon="8.746751030420153"><ele>287.8333333333333</ele><time>2026-04-12T07:14:53.999Z</time></trkpt><trkpt lat="45.70408550498543" lon="8.746849694024728"><ele>288.0</ele><time>2026-04-12T07:14:54.999Z</time></trkpt><trkpt lat="45.70408463493031" lon="8.74694107949821"><ele>288.4</ele><time>2026-04-12T07:14:55.999Z</time></trkpt><trkpt lat="45.704125440496156" lon="8.74706848117559"><ele>288.8</ele><time>2026-04-12T07:14:57.999Z</time></trkpt><trkpt lat="45.70416158901916" lon="8.74720443498353"><ele>289.2</ele><time>2026-04-12T07:14:59.999Z</time></trkpt><trkpt lat="45.7042038723174" lon="8.747314840029967"><ele>289.6</ele><time>2026-04-12T07:15:01.999Z</time></trkpt><trkpt lat="45.704231663901076" lon="8.747433390265972"><ele>290.0</ele><time>2026-04-12T07:15:03.999Z</time></trkpt><trkpt lat="45.704260162968204" lon="8.74754087655937"><ele>290.0</ele><time>2026-04-12T07:15:05.999Z</time></trkpt><trkpt lat="45.704275643792684" lon="8.747649851838204"><ele>290.0</ele><time>2026-04-12T07:15:08.999Z</time></trkpt><trkpt lat="45.70432246464786" lon="8.747760791930999"><ele>290.0</ele><time>2026-04-12T07:15:11.998Z</time></trkpt><trkpt lat="45.70431775095846" lon="8.74785996994"><ele>290.0</ele><time>2026-04-12T07:15:14.998Z</time></trkpt><trkpt lat="45.70433315001938" lon="8.747970482636315"><ele>290.0</ele><time>2026-04-12T07:15:17.998Z</time></trkpt><trkpt lat="45.70435332262423" lon="8.74806702665718"><ele>290.0</ele><time>2026-04-12T07:15:23.998Z</time></trkpt><trkpt lat="45.70433500373274" lon="8.748166866198519"><ele>290.0</ele><time>2026-04-12T07:15:26.998Z</time></trkpt><trkpt lat="45.70432011680996" lon="8.74827377437764"><ele>290.0</ele><time>2026-04-12T07:15:28.998Z</time></trkpt><trkpt lat="45.70427913163829" lon="8.748350447525292"><ele>290.0</ele><time>2026-04-12T07:15:30.998Z</time></trkpt><trkpt lat="45.704266946569724" lon="8.748459603958533"><ele>290.0</ele><time>2026-04-12T07:15:33.998Z</time></trkpt><trkpt lat="45.70423385168466" lon="8.748543458091147"><ele>290.0</ele><time>2026-04-12T07:15:36.998Z</time></trkpt><trkpt lat="45.70426184458623" lon="8.748444141505823"><ele>290.0</ele><time>2026-04-12T07:15:52.998Z</time></trkpt><trkpt lat="45.704300970661016" lon="8.748334650256714"><ele>290.0</ele><time>2026-04-12T07:15:56.998Z</time></trkpt><trkpt lat="45.704401434604826" lon="8.74826818995889"><ele>288.33333333333337</ele><time>2026-04-12T07:15:58.998Z</time></trkpt><trkpt lat="45.70448711924996" lon="8.748194399427762"><ele>286.6666666666667</ele><time>2026-04-12T07:16:00.998Z</time></trkpt><trkpt lat="45.70456271402122" lon="8.7481199122063"><ele>285.0</ele><time>2026-04-12T07:16:02.998Z</time></trkpt><trkpt lat="45.70463360821675" lon="8.74806849663337"><ele>283.3333333333333</ele><time>2026-04-12T07:16:04.998Z</time></trkpt><trkpt lat="45.70468125169557" lon="8.74799401943588"><ele>281.66666666666663</ele><time>2026-04-12T07:16:05.998Z</time></trkpt><trkpt lat="45.70474725768363" lon="8.747917191154082"><ele>280.0</ele><time>2026-04-12T07:16:07.998Z</time></trkpt><trkpt lat="45.70480658346942" lon="8.74786798554245"><ele>280.0</ele><time>2026-04-12T07:16:09.998Z</time></trkpt><trkpt lat="45.70487957574856" lon="8.747856818027584"><ele>280.0</ele><time>2026-04-12T07:16:10.998Z</time></trkpt><trkpt lat="45.70497122194194" lon="8.747763643693657"><ele>280.0</ele><time>2026-04-12T07:16:12.998Z</time></trkpt><trkpt lat="45.70506349648284" lon="8.74776753754911"><ele>280.0</ele><time>2026-04-12T07:16:14.998Z</time></trkpt><trkpt lat="45.70516932396828" lon="8.747755969744576"><ele>280.0</ele><time>2026-04-12T07:16:16.998Z</time></trkpt><trkpt lat="45.70523761162312" lon="8.747736288782418"><ele>279.2</ele><time>2026-04-12T07:16:17.998Z</time></trkpt><trkpt lat="45.70533850528526" lon="8.74771471793832"><ele>278.4</ele><time>2026-04-12T07:16:19.998Z</time></trkpt><trkpt lat="45.70546951831933" lon="8.747681053257"><ele>277.6</ele><time>2026-04-12T07:16:21.998Z</time></trkpt><trkpt lat="45.705554063600225" lon="8.747685853036643"><ele>276.8</ele><time>2026-04-12T07:16:22.998Z</time></trkpt><trkpt lat="45.7056269026904" lon="8.747689958884077"><ele>276.0</ele><time>2026-04-12T07:16:23.998Z</time></trkpt><trkpt lat="45.70569375051149" lon="8.747695347809513"><ele>276.0</ele><time>2026-04-12T07:16:24.998Z</time></trkpt><trkpt lat="45.705771160290944" lon="8.747696559415825"><ele>276.0</ele><time>2026-04-12T07:16:25.998Z</time></trkpt><trkpt lat="45.705838485612944" lon="8.747704581164946"><ele>276.0</ele><time>2026-04-12T07:16:26.998Z</time></trkpt><trkpt lat="45.7059017377859" lon="8.747731733348461"><ele>276.0</ele><time>2026-04-12T07:16:27.997Z</time></trkpt><trkpt lat="45.70600450911951" lon="8.747783333938171"><ele>276.0</ele><time>2026-04-12T07:16:29.997Z</time></trkpt><trkpt lat="45.706102705861376" lon="8.747812639871729"><ele>276.0</ele><time>2026-04-12T07:16:31.997Z</time></trkpt><trkpt lat="45.706213094214675" lon="8.747874914123468"><ele>275.8</ele><time>2026-04-12T07:16:33.997Z</time></trkpt><trkpt lat="45.70632526812372" lon="8.747936507216263"><ele>275.6</ele><time>2026-04-12T07:16:35.997Z</time></trkpt><trkpt lat="45.70643916092616" lon="8.74799947153972"><ele>275.4</ele><time>2026-04-12T07:16:37.997Z</time></trkpt><trkpt lat="45.706543938039545" lon="8.748018140598308"><ele>275.2</ele><time>2026-04-12T07:16:39.997Z</time></trkpt><trkpt lat="45.70662745960757" lon="8.747964805160018"><ele>275.0</ele><time>2026-04-12T07:16:41.997Z</time></trkpt><trkpt lat="45.70669372040809" lon="8.747907314913325"><ele>275.0</ele><time>2026-04-12T07:16:43.997Z</time></trkpt><trkpt lat="45.70674655328528" lon="8.747802678006767"><ele>275.0</ele><time>2026-04-12T07:16:46.997Z</time></trkpt><trkpt lat="45.70679611366138" lon="8.747658639423841"><ele>275.0</ele><time>2026-04-12T07:16:49.997Z</time></trkpt><trkpt lat="45.706835148846295" lon="8.747536408955884"><ele>275.0</ele><time>2026-04-12T07:16:52.997Z</time></trkpt><trkpt lat="45.70686782939829" lon="8.747405008560477"><ele>275.0</ele><time>2026-04-12T07:16:55.997Z</time></trkpt><trkpt lat="45.70691872883957" lon="8.747293260155248"><ele>276.0</ele><time>2026-04-12T07:16:58.997Z</time></trkpt><trkpt lat="45.70698552346229" lon="8.747234290806306"><ele>277.0</ele><time>2026-04-12T07:17:01.997Z</time></trkpt><trkpt lat="45.70704821717615" lon="8.747248631712099"><ele>278.0</ele><time>2026-04-12T07:17:04.997Z</time></trkpt><trkpt lat="45.707103410457734" lon="8.74729699589561"><ele>279.0</ele><time>2026-04-12T07:17:06.997Z</time></trkpt><trkpt lat="45.707174683860465" lon="8.747375872536225"><ele>280.0</ele><time>2026-04-12T07:17:08.997Z</time></trkpt><trkpt lat="45.70724647999468" lon="8.747444707171804"><ele>281.0</ele><time>2026-04-12T07:17:10.997Z</time></trkpt><trkpt lat="45.70730814428738" lon="8.74751391265599"><ele>281.0</ele><time>2026-04-12T07:17:12.997Z</time></trkpt><trkpt lat="45.70738879053719" lon="8.747607676750068"><ele>281.0</ele><time>2026-04-12T07:17:14.997Z</time></trkpt><trkpt lat="45.70745489024898" lon="8.747705027727303"><ele>281.0</ele><time>2026-04-12T07:17:16.997Z</time></trkpt><trkpt lat="45.70752843857604" lon="8.747818311139133"><ele>281.0</ele><time>2026-04-12T07:17:18.997Z</time></trkpt><trkpt lat="45.70759428520549" lon="8.747919267436746"><ele>281.0</ele><time>2026-04-12T07:17:20.997Z</time></trkpt><trkpt lat="45.70765500437692" lon="8.748019547023778"><ele>281.0</ele><time>2026-04-12T07:17:22.997Z</time></trkpt><trkpt lat="45.7077115659298" lon="8.748138431095581"><ele>281.0</ele><time>2026-04-12T07:17:24.997Z</time></trkpt><trkpt lat="45.70778015935807" lon="8.748254176416445"><ele>281.0</ele><time>2026-04-12T07:17:26.997Z</time></trkpt><trkpt lat="45.70785669740891" lon="8.748339942188407"><ele>281.0</ele><time>2026-04-12T07:17:28.997Z</time></trkpt><trkpt lat="45.707937549523116" lon="8.748384065420852"><ele>281.0</ele><time>2026-04-12T07:17:30.997Z</time></trkpt><trkpt lat="45.70800335442522" lon="8.748402870104387"><ele>281.5</ele><time>2026-04-12T07:17:32.997Z</time></trkpt><trkpt lat="45.70808621160949" lon="8.748416405331575"><ele>282.0</ele><time>2026-04-12T07:17:34.997Z</time></trkpt><trkpt lat="45.708148005938156" lon="8.748452543446204"><ele>282.5</ele><time>2026-04-12T07:17:36.997Z</time></trkpt><trkpt lat="45.70821600678284" lon="8.748508422394407"><ele>283.0</ele><time>2026-04-12T07:17:38.997Z</time></trkpt><trkpt lat="45.708289944447245" lon="8.748590726569601"><ele>283.5</ele><time>2026-04-12T07:17:41.997Z</time></trkpt><trkpt lat="45.7083243505484" lon="8.748680171817185"><ele>284.0</ele><time>2026-04-12T07:17:44.996Z</time></trkpt><trkpt lat="45.70834060526086" lon="8.748772275231255"><ele>284.0</ele><time>2026-04-12T07:17:46.996Z</time></trkpt><trkpt lat="45.708321230630155" lon="8.748916864501217"><ele>284.0</ele><time>2026-04-12T07:17:48.996Z</time></trkpt><trkpt lat="45.70833006438183" lon="8.749038250047283"><ele>284.0</ele><time>2026-04-12T07:17:50.996Z</time></trkpt><trkpt lat="45.70836529064186" lon="8.749123509946891"><ele>284.0</ele><time>2026-04-12T07:17:52.996Z</time></trkpt><trkpt lat="45.70838141932667" lon="8.74923186393361"><ele>284.0</ele><time>2026-04-12T07:17:54.996Z</time></trkpt><trkpt lat="45.708403064428104" lon="8.749342929999726"><ele>284.0</ele><time>2026-04-12T07:17:56.996Z</time></trkpt><trkpt lat="45.70842230842568" lon="8.74944054751431"><ele>284.5</ele><time>2026-04-12T07:17:58.996Z</time></trkpt><trkpt lat="45.70844657538818" lon="8.749552230524891"><ele>285.0</ele><time>2026-04-12T07:18:00.996Z</time></trkpt><trkpt lat="45.70846430162839" lon="8.749658620615486"><ele>285.5</ele><time>2026-04-12T07:18:02.996Z</time></trkpt><trkpt lat="45.70851363323026" lon="8.749810902706567"><ele>286.0</ele><time>2026-04-12T07:18:04.996Z</time></trkpt><trkpt lat="45.70854200351863" lon="8.749920172930473"><ele>286.5</ele><time>2026-04-12T07:18:06.996Z</time></trkpt><trkpt lat="45.70855915317095" lon="8.75004312943947"><ele>287.0</ele><time>2026-04-12T07:18:08.996Z</time></trkpt><trkpt lat="45.7085798904891" lon="8.75016516701591"><ele>287.33333333333337</ele><time>2026-04-12T07:18:10.996Z</time></trkpt><trkpt lat="45.70859542384882" lon="8.750274250847069"><ele>287.6666666666667</ele><time>2026-04-12T07:18:12.996Z</time></trkpt><trkpt lat="45.70861237407229" lon="8.750369956822887"><ele>288.0</ele><time>2026-04-12T07:18:14.996Z</time></trkpt><trkpt lat="45.708641440651824" lon="8.750491076097216"><ele>288.3333333333333</ele><time>2026-04-12T07:18:16.996Z</time></trkpt><trkpt lat="45.70866578209568" lon="8.75060054732004"><ele>288.66666666666663</ele><time>2026-04-12T07:18:19.996Z</time></trkpt><trkpt lat="45.708690708959885" lon="8.750727542006697"><ele>289.0</ele><time>2026-04-12T07:18:21.996Z</time></trkpt><trkpt lat="45.708715593315425" lon="8.750846452134189"><ele>289.0</ele><time>2026-04-12T07:18:23.996Z</time></trkpt><trkpt lat="45.708720709884105" lon="8.75093683577681"><ele>289.0</ele><time>2026-04-12T07:18:25.996Z</time></trkpt><trkpt lat="45.70873836289215" lon="8.75105161041586"><ele>289.0</ele><time>2026-04-12T07:18:27.996Z</time></trkpt><trkpt lat="45.70875915171891" lon="8.751172532257593"><ele>289.0</ele><time>2026-04-12T07:18:29.996Z</time></trkpt><trkpt lat="45.70878529205371" lon="8.75126313049697"><ele>289.0</ele><time>2026-04-12T07:18:31.996Z</time></trkpt><trkpt lat="45.70882605648901" lon="8.751354941740802"><ele>289.0</ele><time>2026-04-12T07:18:33.996Z</time></trkpt><trkpt lat="45.708854691066" lon="8.751471449041064"><ele>289.3333333333333</ele><time>2026-04-12T07:18:35.996Z</time></trkpt><trkpt lat="45.708839091099634" lon="8.751592395853551"><ele>289.66666666666663</ele><time>2026-04-12T07:18:37.996Z</time></trkpt><trkpt lat="45.708830867996994" lon="8.751722868219742"><ele>290.0</ele><time>2026-04-12T07:18:39.996Z</time></trkpt><trkpt lat="45.70882890528945" lon="8.751836871332692"><ele>290.3333333333333</ele><time>2026-04-12T07:18:41.996Z</time></trkpt><trkpt lat="45.708828708913394" lon="8.75193012938029"><ele>290.6666666666667</ele><time>2026-04-12T07:18:43.996Z</time></trkpt><trkpt lat="45.70886845456689" lon="8.752032622364291"><ele>291.0</ele><time>2026-04-12T07:18:45.996Z</time></trkpt><trkpt lat="45.70893839858668" lon="8.7520942419512"><ele>291.6666666666667</ele><time>2026-04-12T07:18:47.996Z</time></trkpt><trkpt lat="45.70900941131474" lon="8.752155919549661"><ele>292.3333333333333</ele><time>2026-04-12T07:18:51.996Z</time></trkpt><trkpt lat="45.709051863202426" lon="8.752245460343753"><ele>293.0</ele><time>2026-04-12T07:18:53.996Z</time></trkpt><trkpt lat="45.70911233499123" lon="8.752312690759807"><ele>293.66666666666663</ele><time>2026-04-12T07:18:55.996Z</time></trkpt><trkpt lat="45.709191490203516" lon="8.752421684768182"><ele>294.3333333333333</ele><time>2026-04-12T07:18:57.995Z</time></trkpt><trkpt lat="45.709239076046245" lon="8.752485119146028"><ele>295.0</ele><time>2026-04-12T07:18:58.995Z</time></trkpt><trkpt lat="45.70931824767058" lon="8.752568024534533"><ele>295.0</ele><time>2026-04-12T07:19:00.995Z</time></trkpt><trkpt lat="45.7094039074472" lon="8.752589440637825"><ele>295.0</ele><time>2026-04-12T07:19:03.995Z</time></trkpt><trkpt lat="45.70950127988777" lon="8.752582203538035"><ele>295.0</ele><time>2026-04-12T07:19:05.995Z</time></trkpt><trkpt lat="45.70960326347892" lon="8.752557022739564"><ele>295.0</ele><time>2026-04-12T07:19:07.995Z</time></trkpt><trkpt lat="45.70969076974984" lon="8.752609897937385"><ele>295.0</ele><time>2026-04-12T07:19:09.995Z</time></trkpt><trkpt lat="45.70973965193228" lon="8.752670582238297"><ele>295.0</ele><time>2026-04-12T07:19:10.995Z</time></trkpt><trkpt lat="45.70979034053154" lon="8.752790919583003"><ele>295.2</ele><time>2026-04-12T07:19:12.995Z</time></trkpt><trkpt lat="45.70985766127316" lon="8.752887542710784"><ele>295.4</ele><time>2026-04-12T07:19:14.995Z</time></trkpt><trkpt lat="45.70995846361689" lon="8.752969367187887"><ele>295.6</ele><time>2026-04-12T07:19:16.995Z</time></trkpt><trkpt lat="45.710045618468776" lon="8.75303667391708"><ele>295.8</ele><time>2026-04-12T07:19:18.995Z</time></trkpt><trkpt lat="45.71013434208657" lon="8.753030711944199"><ele>296.0</ele><time>2026-04-12T07:19:20.995Z</time></trkpt><trkpt lat="45.710223049553285" lon="8.753010719434803"><ele>296.1666666666667</ele><time>2026-04-12T07:19:22.995Z</time></trkpt><trkpt lat="45.71031476705553" lon="8.75302413856477"><ele>296.33333333333337</ele><time>2026-04-12T07:19:24.995Z</time></trkpt><trkpt lat="45.71039231415844" lon="8.753007929315409"><ele>296.5</ele><time>2026-04-12T07:19:26.995Z</time></trkpt><trkpt lat="45.71049623314701" lon="8.752958496893097"><ele>296.6666666666667</ele><time>2026-04-12T07:19:28.995Z</time></trkpt><trkpt lat="45.71056674342413" lon="8.752949926918706"><ele>296.8333333333333</ele><time>2026-04-12T07:19:30.995Z</time></trkpt><trkpt lat="45.7106628289184" lon="8.752955810661481"><ele>297.0</ele><time>2026-04-12T07:19:32.995Z</time></trkpt><trkpt lat="45.71077567204927" lon="8.752930345747872"><ele>297.0</ele><time>2026-04-12T07:19:34.995Z</time></trkpt><trkpt lat="45.71088052431081" lon="8.752892680178544"><ele>297.0</ele><time>2026-04-12T07:19:36.995Z</time></trkpt><trkpt lat="45.710980027785844" lon="8.752924752793577"><ele>297.0</ele><time>2026-04-12T07:19:38.995Z</time></trkpt><trkpt lat="45.71107341483562" lon="8.752982463545782"><ele>297.0</ele><time>2026-04-12T07:19:40.995Z</time></trkpt><trkpt lat="45.71112929713426" lon="8.753038365870932"><ele>297.0</ele><time>2026-04-12T07:19:42.995Z</time></trkpt><trkpt lat="45.711195697232185" lon="8.753043525273558"><ele>297.0</ele><time>2026-04-12T07:19:56.995Z</time></trkpt><trkpt lat="45.711247678462" lon="8.753103515561897"><ele>296.3333333333333</ele><time>2026-04-12T07:19:58.995Z</time></trkpt><trkpt lat="45.71130462507261" lon="8.75317457007822"><ele>295.6666666666667</ele><time>2026-04-12T07:20:00.995Z</time></trkpt><trkpt lat="45.71139596839411" lon="8.753197331307726"><ele>295.0</ele><time>2026-04-12T07:20:02.995Z</time></trkpt><trkpt lat="45.711477502165444" lon="8.753239115138413"><ele>294.33333333333337</ele><time>2026-04-12T07:20:04.995Z</time></trkpt><trkpt lat="45.711540495827904" lon="8.753214227567076"><ele>293.6666666666667</ele><time>2026-04-12T07:20:07.995Z</time></trkpt><trkpt lat="45.7115998694231" lon="8.753142292323533"><ele>293.0</ele><time>2026-04-12T07:20:11.995Z</time></trkpt><trkpt lat="45.71163682495717" lon="8.753057092782694"><ele>293.0</ele><time>2026-04-12T07:20:13.994Z</time></trkpt><trkpt lat="45.71166133567465" lon="8.752966326079392"><ele>293.0</ele><time>2026-04-12T07:20:15.994Z</time></trkpt><trkpt lat="45.71172126212759" lon="8.7528872906933"><ele>293.0</ele><time>2026-04-12T07:20:17.994Z</time></trkpt><trkpt lat="45.71177683217504" lon="8.752786311388451"><ele>293.0</ele><time>2026-04-12T07:20:19.994Z</time></trkpt><trkpt lat="45.71185741270995" lon="8.75267929676241"><ele>293.0</ele><time>2026-04-12T07:20:21.994Z</time></trkpt><trkpt lat="45.711898097051616" lon="8.752564476857685"><ele>293.0</ele><time>2026-04-12T07:20:23.994Z</time></trkpt><trkpt lat="45.711963451441704" lon="8.752468311198115"><ele>289.6</ele><time>2026-04-12T07:20:25.994Z</time></trkpt><trkpt lat="45.71207393800183" lon="8.752431778131365"><ele>286.20000000000005</ele><time>2026-04-12T07:20:27.994Z</time></trkpt><trkpt lat="45.71217336722833" lon="8.752363397747505"><ele>282.8</ele><time>2026-04-12T07:20:29.994Z</time></trkpt><trkpt lat="45.71224613521008" lon="8.752254215181466"><ele>279.40000000000003</ele><time>2026-04-12T07:20:31.994Z</time></trkpt><trkpt lat="45.71232318881969" lon="8.752187363005362"><ele>276.0</ele><time>2026-04-12T07:20:33.994Z</time></trkpt><trkpt lat="45.712386804090634" lon="8.752126397786151"><ele>276.0</ele><time>2026-04-12T07:20:35.994Z</time></trkpt><trkpt lat="45.71243063427498" lon="8.752059814574995"><ele>276.0</ele><time>2026-04-12T07:20:36.994Z</time></trkpt><trkpt lat="45.712478993145005" lon="8.751932292180332"><ele>276.0</ele><time>2026-04-12T07:20:38.994Z</time></trkpt><trkpt lat="45.712557042960746" lon="8.751879448966376"><ele>276.0</ele><time>2026-04-12T07:20:41.994Z</time></trkpt><trkpt lat="45.71262400964032" lon="8.751844186002927"><ele>276.0</ele><time>2026-04-12T07:20:45.994Z</time></trkpt><trkpt lat="45.71269206434652" lon="8.751792902127326"><ele>276.0</ele><time>2026-04-12T07:20:53.994Z</time></trkpt><trkpt lat="45.71275601915318" lon="8.751723090525177"><ele>277.8333333333333</ele><time>2026-04-12T07:20:59.994Z</time></trkpt><trkpt lat="45.712816283001544" lon="8.751686671753665"><ele>279.6666666666667</ele><time>2026-04-12T07:21:07.994Z</time></trkpt><trkpt lat="45.7128759707562" lon="8.75165342581698"><ele>281.5</ele><time>2026-04-12T07:21:15.994Z</time></trkpt><trkpt lat="45.712945962181934" lon="8.751656634083634"><ele>283.33333333333337</ele><time>2026-04-12T07:21:21.994Z</time></trkpt><trkpt lat="45.71298548576167" lon="8.751747995501896"><ele>285.1666666666667</ele><time>2026-04-12T07:21:25.994Z</time></trkpt><trkpt lat="45.71302241576455" lon="8.751857296651748"><ele>287.0</ele><time>2026-04-12T07:21:28.993Z</time></trkpt><trkpt lat="45.71304630332823" lon="8.75198650680271"><ele>287.0</ele><time>2026-04-12T07:21:32.993Z</time></trkpt><trkpt lat="45.71305573009228" lon="8.752083613341494"><ele>287.0</ele><time>2026-04-12T07:21:35.993Z</time></trkpt><trkpt lat="45.713082450929846" lon="8.75221659128066"><ele>287.0</ele><time>2026-04-12T07:21:37.993Z</time></trkpt><trkpt lat="45.71310598712018" lon="8.75232431787321"><ele>287.0</ele><time>2026-04-12T07:21:38.993Z</time></trkpt><trkpt lat="45.713134427215884" lon="8.752405038688622"><ele>287.0</ele><time>2026-04-12T07:21:40.993Z</time></trkpt><trkpt lat="45.71316206259742" lon="8.752509752987137"><ele>287.0</ele><time>2026-04-12T07:21:42.993Z</time></trkpt><trkpt lat="45.713210087645756" lon="8.752581638939223"><ele>287.0</ele><time>2026-04-12T07:21:44.993Z</time></trkpt><trkpt lat="45.71326288844181" lon="8.75267114225936"><ele>287.0</ele><time>2026-04-12T07:21:47.993Z</time></trkpt><trkpt lat="45.713311887508155" lon="8.752743590307976"><ele>287.0</ele><time>2026-04-12T07:21:49.993Z</time></trkpt><trkpt lat="45.713369959427084" lon="8.752792695840096"><ele>287.0</ele><time>2026-04-12T07:21:51.993Z</time></trkpt><trkpt lat="45.71338981435212" lon="8.75289175495577"><ele>287.0</ele><time>2026-04-12T07:21:53.993Z</time></trkpt><trkpt lat="45.713419888509705" lon="8.753007986705006"><ele>287.0</ele><time>2026-04-12T07:21:55.993Z</time></trkpt><trkpt lat="45.71349386558468" lon="8.753091460710634"><ele>286.6666666666667</ele><time>2026-04-12T07:21:58.993Z</time></trkpt><trkpt lat="45.7135699295726" lon="8.75313376785462"><ele>286.33333333333337</ele><time>2026-04-12T07:22:01.993Z</time></trkpt><trkpt lat="45.7136158473671" lon="8.753199547653129"><ele>286.0</ele><time>2026-04-12T07:22:03.993Z</time></trkpt><trkpt lat="45.71368513213353" lon="8.75325872822243"><ele>285.6666666666667</ele><time>2026-04-12T07:22:05.993Z</time></trkpt><trkpt lat="45.71374307858271" lon="8.753306314211663"><ele>285.3333333333333</ele><time>2026-04-12T07:22:07.993Z</time></trkpt><trkpt lat="45.71380564094583" lon="8.753370845598145"><ele>285.0</ele><time>2026-04-12T07:22:10.993Z</time></trkpt><trkpt lat="45.713895815692595" lon="8.753419085813263"><ele>285.1666666666667</ele><time>2026-04-12T07:22:12.993Z</time></trkpt><trkpt lat="45.713953580505375" lon="8.753476566968576"><ele>285.3333333333333</ele><time>2026-04-12T07:22:15.993Z</time></trkpt><trkpt lat="45.71403597520762" lon="8.753505281936155"><ele>285.5</ele><time>2026-04-12T07:22:18.993Z</time></trkpt><trkpt lat="45.714121247331" lon="8.753555485395667"><ele>285.66666666666663</ele><time>2026-04-12T07:22:21.993Z</time></trkpt><trkpt lat="45.714191531897825" lon="8.753611957039555"><ele>285.8333333333333</ele><time>2026-04-12T07:22:23.993Z</time></trkpt><trkpt lat="45.71427159362903" lon="8.753686984783299"><ele>286.0</ele><time>2026-04-12T07:22:25.993Z</time></trkpt><trkpt lat="45.71432921695021" lon="8.75374132741892"><ele>286.0</ele><time>2026-04-12T07:22:27.993Z</time></trkpt><trkpt lat="45.71439891521956" lon="8.753789179722057"><ele>286.0</ele><time>2026-04-12T07:22:29.993Z</time></trkpt><trkpt lat="45.714507484541656" lon="8.753856172455828"><ele>286.0</ele><time>2026-04-12T07:22:31.993Z</time></trkpt><trkpt lat="45.71460726508103" lon="8.75392300928305"><ele>286.0</ele><time>2026-04-12T07:22:33.993Z</time></trkpt><trkpt lat="45.71471258438351" lon="8.753942019126654"><ele>286.0</ele><time>2026-04-12T07:22:35.993Z</time></trkpt><trkpt lat="45.7147897665388" lon="8.753952309769836"><ele>286.3333333333333</ele><time>2026-04-12T07:22:37.993Z</time></trkpt><trkpt lat="45.714887237135144" lon="8.753978597760003"><ele>286.66666666666663</ele><time>2026-04-12T07:22:39.993Z</time></trkpt><trkpt lat="45.7149507524152" lon="8.753984108823794"><ele>287.0</ele><time>2026-04-12T07:22:41.993Z</time></trkpt><trkpt lat="45.71503517287608" lon="8.753993882593837"><ele>287.3333333333333</ele><time>2026-04-12T07:22:43.992Z</time></trkpt><trkpt lat="45.715126910555774" lon="8.754011201164397"><ele>287.6666666666667</ele><time>2026-04-12T07:22:45.992Z</time></trkpt><trkpt lat="45.715193232943435" lon="8.754029069877795"><ele>288.0</ele><time>2026-04-12T07:22:47.992Z</time></trkpt><trkpt lat="45.71525770058927" lon="8.754049634279871"><ele>288.0</ele><time>2026-04-12T07:22:49.992Z</time></trkpt><trkpt lat="45.715324149600924" lon="8.754072219201097"><ele>288.0</ele><time>2026-04-12T07:22:51.992Z</time></trkpt><trkpt lat="45.7153936785625" lon="8.754099670422583"><ele>288.0</ele><time>2026-04-12T07:22:54.992Z</time></trkpt><trkpt lat="45.71548321668635" lon="8.754139342983045"><ele>288.0</ele><time>2026-04-12T07:22:58.992Z</time></trkpt><trkpt lat="45.71556151388407" lon="8.754175404121817"><ele>288.0</ele><time>2026-04-12T07:23:01.992Z</time></trkpt><trkpt lat="45.71562445000406" lon="8.754207221439303"><ele>288.0</ele><time>2026-04-12T07:23:03.992Z</time></trkpt><trkpt lat="45.71570981061289" lon="8.7542538986566"><ele>288.0</ele><time>2026-04-12T07:23:06.992Z</time></trkpt><trkpt lat="45.715793263263386" lon="8.754304172637097"><ele>288.0</ele><time>2026-04-12T07:23:09.992Z</time></trkpt><trkpt lat="45.71587143894227" lon="8.754358336125183"><ele>288.0</ele><time>2026-04-12T07:23:12.992Z</time></trkpt><trkpt lat="45.71593255768135" lon="8.75440688124002"><ele>288.0</ele><time>2026-04-12T07:23:14.992Z</time></trkpt><trkpt lat="45.71602825264554" lon="8.754508279372802"><ele>288.0</ele><time>2026-04-12T07:23:16.992Z</time></trkpt><trkpt lat="45.71607641900601" lon="8.754567527216812"><ele>288.0</ele><time>2026-04-12T07:23:17.992Z</time></trkpt><trkpt lat="45.7161806378131" lon="8.754636530910167"><ele>287.4</ele><time>2026-04-12T07:23:19.992Z</time></trkpt><trkpt lat="45.71628763916002" lon="8.754667165440784"><ele>286.8</ele><time>2026-04-12T07:23:21.992Z</time></trkpt><trkpt lat="45.71638144712011" lon="8.754683398656365"><ele>286.2</ele><time>2026-04-12T07:23:23.992Z</time></trkpt><trkpt lat="45.716499579479766" lon="8.75471035600539"><ele>285.6</ele><time>2026-04-12T07:23:25.992Z</time></trkpt><trkpt lat="45.716615562014134" lon="8.75473824932794"><ele>285.0</ele><time>2026-04-12T07:23:27.992Z</time></trkpt><trkpt lat="45.716688479981336" lon="8.754780465667046"><ele>285.0</ele><time>2026-04-12T07:23:29.992Z</time></trkpt><trkpt lat="45.716764762520924" lon="8.754822672736628"><ele>285.0</ele><time>2026-04-12T07:23:31.992Z</time></trkpt><trkpt lat="45.71684345748099" lon="8.754899072600143"><ele>285.0</ele><time>2026-04-12T07:23:33.992Z</time></trkpt><trkpt lat="45.71692532247005" lon="8.754951573082904"><ele>285.0</ele><time>2026-04-12T07:23:35.992Z</time></trkpt><trkpt lat="45.717032791357134" lon="8.755007423073026"><ele>285.0</ele><time>2026-04-12T07:23:37.992Z</time></trkpt><trkpt lat="45.71710791914113" lon="8.75502592046371"><ele>286.1666666666667</ele><time>2026-04-12T07:23:39.992Z</time></trkpt><trkpt lat="45.71718580498437" lon="8.7550541811199"><ele>287.3333333333333</ele><time>2026-04-12T07:23:41.992Z</time></trkpt><trkpt lat="45.71726679643967" lon="8.755109108369716"><ele>288.5</ele><time>2026-04-12T07:23:43.992Z</time></trkpt><trkpt lat="45.717334094766905" lon="8.755144025823062"><ele>289.66666666666663</ele><time>2026-04-12T07:23:45.992Z</time></trkpt><trkpt lat="45.717411490825" lon="8.755188288415972"><ele>290.8333333333333</ele><time>2026-04-12T07:23:47.992Z</time></trkpt><trkpt lat="45.71747300489465" lon="8.755211479914522"><ele>292.0</ele><time>2026-04-12T07:23:49.992Z</time></trkpt><trkpt lat="45.717545201841126" lon="8.755242432836882"><ele>292.0</ele><time>2026-04-12T07:23:51.992Z</time></trkpt><trkpt lat="45.71761106232973" lon="8.755266136280138"><ele>292.0</ele><time>2026-04-12T07:23:54.992Z</time></trkpt><trkpt lat="45.7176767157259" lon="8.755300648363107"><ele>292.0</ele><time>2026-04-12T07:23:57.992Z</time></trkpt><trkpt lat="45.71773985614812" lon="8.755306400577307"><ele>292.0</ele><time>2026-04-12T07:23:59.991Z</time></trkpt><trkpt lat="45.71781673836744" lon="8.755343728551596"><ele>292.0</ele><time>2026-04-12T07:24:02.991Z</time></trkpt><trkpt lat="45.71787870198775" lon="8.755327332367516"><ele>292.0</ele><time>2026-04-12T07:24:04.991Z</time></trkpt><trkpt lat="45.71794885542745" lon="8.755320938011312"><ele>292.0</ele><time>2026-04-12T07:24:06.991Z</time></trkpt><trkpt lat="45.718019557690475" lon="8.75532888885914"><ele>293.2</ele><time>2026-04-12T07:24:09.991Z</time></trkpt><trkpt lat="45.71810498365721" lon="8.755325777115761"><ele>294.4</ele><time>2026-04-12T07:24:12.991Z</time></trkpt><trkpt lat="45.718191980962565" lon="8.75534174208584"><ele>295.6</ele><time>2026-04-12T07:24:14.991Z</time></trkpt><trkpt lat="45.718273242030165" lon="8.755338760399049"><ele>296.8</ele><time>2026-04-12T07:24:16.991Z</time></trkpt><trkpt lat="45.71833931516466" lon="8.755349719543196"><ele>298.0</ele><time>2026-04-12T07:24:18.991Z</time></trkpt><trkpt lat="45.71847965299794" lon="8.755335077300948"><ele>298.16666666666663</ele><time>2026-04-12T07:24:21.991Z</time></trkpt><trkpt lat="45.71856913819806" lon="8.755340266700292"><ele>298.3333333333333</ele><time>2026-04-12T07:24:24.991Z</time></trkpt><trkpt lat="45.71864387691322" lon="8.755359709233165"><ele>298.5</ele><time>2026-04-12T07:24:27.991Z</time></trkpt><trkpt lat="45.71871691420123" lon="8.755360448679713"><ele>298.6666666666667</ele><time>2026-04-12T07:24:28.991Z</time></trkpt><trkpt lat="45.71881856447135" lon="8.755358990178978"><ele>298.83333333333337</ele><time>2026-04-12T07:24:30.991Z</time></trkpt><trkpt lat="45.71890006633615" lon="8.755346612185551"><ele>299.0</ele><time>2026-04-12T07:24:32.991Z</time></trkpt><trkpt lat="45.719019737241624" lon="8.75536384057711"><ele>299.0</ele><time>2026-04-12T07:24:34.991Z</time></trkpt><trkpt lat="45.719120859850804" lon="8.755411589686695"><ele>299.0</ele><time>2026-04-12T07:24:36.991Z</time></trkpt><trkpt lat="45.71924642891833" lon="8.755396096772241"><ele>299.0</ele><time>2026-04-12T07:24:38.991Z</time></trkpt><trkpt lat="45.719354445037304" lon="8.755393596404744"><ele>299.0</ele><time>2026-04-12T07:24:40.991Z</time></trkpt><trkpt lat="45.71945690806993" lon="8.75539326195497"><ele>299.0</ele><time>2026-04-12T07:24:42.991Z</time></trkpt><trkpt lat="45.71953898050499" lon="8.755360354445804"><ele>299.0</ele><time>2026-04-12T07:24:44.991Z</time></trkpt><trkpt lat="45.719614226574194" lon="8.755389476889812"><ele>299.0</ele><time>2026-04-12T07:24:45.991Z</time></trkpt><trkpt lat="45.71968902041036" lon="8.755395627212454"><ele>299.0</ele><time>2026-04-12T07:24:46.991Z</time></trkpt><trkpt lat="45.719763467896584" lon="8.755406853963393"><ele>299.0</ele><time>2026-04-12T07:24:47.991Z</time></trkpt><trkpt lat="45.71983259651451" lon="8.755424932159109"><ele>299.0</ele><time>2026-04-12T07:24:48.991Z</time></trkpt><trkpt lat="45.71990731890128" lon="8.75543819695902"><ele>299.0</ele><time>2026-04-12T07:24:49.991Z</time></trkpt><trkpt lat="45.720038191577274" lon="8.75545579836459"><ele>299.0</ele><time>2026-04-12T07:24:51.991Z</time></trkpt><trkpt lat="45.72015963775226" lon="8.755473870740055"><ele>299.0</ele><time>2026-04-12T07:24:53.991Z</time></trkpt><trkpt lat="45.72026420805943" lon="8.755482850189063"><ele>299.0</ele><time>2026-04-12T07:24:55.991Z</time></trkpt><trkpt lat="45.72036359577031" lon="8.755486660044776"><ele>299.0</ele><time>2026-04-12T07:24:57.991Z</time></trkpt><trkpt lat="45.72044146530002" lon="8.755491225281157"><ele>299.0</ele><time>2026-04-12T07:24:58.991Z</time></trkpt><trkpt lat="45.72053371141129" lon="8.755505972857112"><ele>299.0</ele><time>2026-04-12T07:24:59.991Z</time></trkpt><trkpt lat="45.72060275931592" lon="8.755518107536316"><ele>299.0</ele><time>2026-04-12T07:25:00.991Z</time></trkpt><trkpt lat="45.72072772120797" lon="8.755522434567425"><ele>299.0</ele><time>2026-04-12T07:25:02.991Z</time></trkpt><trkpt lat="45.720800930193505" lon="8.755527518806918"><ele>299.0</ele><time>2026-04-12T07:25:03.991Z</time></trkpt><trkpt lat="45.72086756216365" lon="8.7555526035519"><ele>299.0</ele><time>2026-04-12T07:25:04.991Z</time></trkpt><trkpt lat="45.720930170856455" lon="8.755579289774237"><ele>299.0</ele><time>2026-04-12T07:25:05.991Z</time></trkpt><trkpt lat="45.72100112887915" lon="8.755577191984631"><ele>299.33333333333337</ele><time>2026-04-12T07:25:06.991Z</time></trkpt><trkpt lat="45.72106593027635" lon="8.755574339567563"><ele>299.6666666666667</ele><time>2026-04-12T07:25:07.991Z</time></trkpt><trkpt lat="45.7211266392741" lon="8.755603887924948"><ele>300.0</ele><time>2026-04-12T07:25:08.991Z</time></trkpt><trkpt lat="45.72118822099879" lon="8.755624930185402"><ele>300.3333333333333</ele><time>2026-04-12T07:25:09.991Z</time></trkpt><trkpt lat="45.72130761716183" lon="8.755670748244604"><ele>300.66666666666663</ele><time>2026-04-12T07:25:11.991Z</time></trkpt><trkpt lat="45.72137075790288" lon="8.755711667051969"><ele>301.0</ele><time>2026-04-12T07:25:12.991Z</time></trkpt><trkpt lat="45.72150667643141" lon="8.755726071995623"><ele>301.0</ele><time>2026-04-12T07:25:14.99Z</time></trkpt><trkpt lat="45.72157100922301" lon="8.755715989802846"><ele>301.0</ele><time>2026-04-12T07:25:15.99Z</time></trkpt><trkpt lat="45.72168890482257" lon="8.755786302344113"><ele>301.0</ele><time>2026-04-12T07:25:17.99Z</time></trkpt><trkpt lat="45.72178647000885" lon="8.75584280151005"><ele>301.0</ele><time>2026-04-12T07:25:19.99Z</time></trkpt><trkpt lat="45.721883807310356" lon="8.755863548162552"><ele>301.0</ele><time>2026-04-12T07:25:21.99Z</time></trkpt><trkpt lat="45.72197829786779" lon="8.755950660857815"><ele>301.66666666666663</ele><time>2026-04-12T07:25:23.99Z</time></trkpt><trkpt lat="45.7220473436262" lon="8.755997548677374"><ele>302.3333333333333</ele><time>2026-04-12T07:25:24.99Z</time></trkpt><trkpt lat="45.72216673715528" lon="8.756053961971473"><ele>303.0</ele><time>2026-04-12T07:25:26.99Z</time></trkpt><trkpt lat="45.722216426455425" lon="8.75611233468847"><ele>303.6666666666667</ele><time>2026-04-12T07:25:27.99Z</time></trkpt><trkpt lat="45.72229369402073" lon="8.756125631419371"><ele>304.33333333333337</ele><time>2026-04-12T07:25:28.99Z</time></trkpt><trkpt lat="45.72235934248973" lon="8.756134043157152"><ele>305.0</ele><time>2026-04-12T07:25:29.99Z</time></trkpt><trkpt lat="45.722465680531094" lon="8.756136015245161"><ele>303.7142857142857</ele><time>2026-04-12T07:25:31.99Z</time></trkpt><trkpt lat="45.72253645937503" lon="8.75614503472702"><ele>302.4285714285714</ele><time>2026-04-12T07:25:32.99Z</time></trkpt><trkpt lat="45.72260295414745" lon="8.756158101689758"><ele>301.1428571428571</ele><time>2026-04-12T07:25:33.99Z</time></trkpt><trkpt lat="45.72267848030009" lon="8.756176445758598"><ele>299.8571428571429</ele><time>2026-04-12T07:25:34.99Z</time></trkpt><trkpt lat="45.72274644274114" lon="8.756214886476526"><ele>298.57142857142856</ele><time>2026-04-12T07:25:35.99Z</time></trkpt><trkpt lat="45.722815023273995" lon="8.7562250384226"><ele>297.2857142857143</ele><time>2026-04-12T07:25:36.99Z</time></trkpt><trkpt lat="45.722890483582795" lon="8.756243359763753"><ele>296.0</ele><time>2026-04-12T07:25:37.99Z</time></trkpt><trkpt lat="45.72296005993667" lon="8.75624759240162"><ele>296.0</ele><time>2026-04-12T07:25:38.99Z</time></trkpt><trkpt lat="45.723081857642974" lon="8.756239090634292"><ele>296.0</ele><time>2026-04-12T07:25:40.99Z</time></trkpt><trkpt lat="45.723228894413005" lon="8.75625116634183"><ele>296.0</ele><time>2026-04-12T07:25:42.99Z</time></trkpt><trkpt lat="45.72331656902731" lon="8.756274336684776"><ele>296.0</ele><time>2026-04-12T07:25:43.99Z</time></trkpt><trkpt lat="45.72340002613436" lon="8.756299068369112"><ele>296.0</ele><time>2026-04-12T07:25:44.99Z</time></trkpt><trkpt lat="45.7235197948679" lon="8.75631005705728"><ele>296.2</ele><time>2026-04-12T07:25:46.99Z</time></trkpt><trkpt lat="45.72359842860653" lon="8.756283348183182"><ele>296.40000000000003</ele><time>2026-04-12T07:25:48.99Z</time></trkpt><trkpt lat="45.723705630866625" lon="8.75628901487187"><ele>296.6</ele><time>2026-04-12T07:25:50.99Z</time></trkpt><trkpt lat="45.723805923335796" lon="8.75628391932517"><ele>296.8</ele><time>2026-04-12T07:25:52.99Z</time></trkpt><trkpt lat="45.723938619686145" lon="8.75628694459848"><ele>297.0</ele><time>2026-04-12T07:25:54.99Z</time></trkpt><trkpt lat="45.72402975123707" lon="8.756279327796317"><ele>297.0</ele><time>2026-04-12T07:25:56.99Z</time></trkpt><trkpt lat="45.724142125818545" lon="8.756301722199579"><ele>297.0</ele><time>2026-04-12T07:25:58.99Z</time></trkpt><trkpt lat="45.724262832291835" lon="8.756318609174354"><ele>297.0</ele><time>2026-04-12T07:26:00.99Z</time></trkpt><trkpt lat="45.724327994011766" lon="8.756353319061475"><ele>297.0</ele><time>2026-04-12T07:26:01.99Z</time></trkpt><trkpt lat="45.724400767960454" lon="8.756361642654037"><ele>297.0</ele><time>2026-04-12T07:26:02.99Z</time></trkpt><trkpt lat="45.72446993603043" lon="8.756366813860849"><ele>297.0</ele><time>2026-04-12T07:26:03.99Z</time></trkpt><trkpt lat="45.724549234590874" lon="8.756324899219209"><ele>297.0</ele><time>2026-04-12T07:26:04.99Z</time></trkpt><trkpt lat="45.724673109861826" lon="8.756308386595126"><ele>297.0</ele><time>2026-04-12T07:26:06.99Z</time></trkpt><trkpt lat="45.72473792260525" lon="8.756312533199987"><ele>297.0</ele><time>2026-04-12T07:26:07.99Z</time></trkpt><trkpt lat="45.72480557631824" lon="8.756313542037287"><ele>297.0</ele><time>2026-04-12T07:26:08.99Z</time></trkpt><trkpt lat="45.724894751557706" lon="8.756277878486628"><ele>297.0</ele><time>2026-04-12T07:26:10.99Z</time></trkpt><trkpt lat="45.72502331359935" lon="8.756247044604907"><ele>297.0</ele><time>2026-04-12T07:26:12.99Z</time></trkpt><trkpt lat="45.725087511479884" lon="8.756248664322749"><ele>297.0</ele><time>2026-04-12T07:26:13.99Z</time></trkpt><trkpt lat="45.72515040667028" lon="8.756225072190832"><ele>297.0</ele><time>2026-04-12T07:26:14.99Z</time></trkpt><trkpt lat="45.72521722643478" lon="8.756218387262651"><ele>297.0</ele><time>2026-04-12T07:26:15.99Z</time></trkpt><trkpt lat="45.72532281157148" lon="8.756245314297267"><ele>297.0</ele><time>2026-04-12T07:26:17.99Z</time></trkpt><trkpt lat="45.725419728355135" lon="8.756233726939572"><ele>297.0</ele><time>2026-04-12T07:26:19.99Z</time></trkpt><trkpt lat="45.72548900024876" lon="8.756227957539158"><ele>296.4</ele><time>2026-04-12T07:26:20.99Z</time></trkpt><trkpt lat="45.725593680946815" lon="8.75619878647207"><ele>295.79999999999995</ele><time>2026-04-12T07:26:22.99Z</time></trkpt><trkpt lat="45.72569361989437" lon="8.75619762604864"><ele>295.2</ele><time>2026-04-12T07:26:24.99Z</time></trkpt><trkpt lat="45.72576265824728" lon="8.756191998631461"><ele>294.59999999999997</ele><time>2026-04-12T07:26:25.99Z</time></trkpt><trkpt lat="45.72585436927169" lon="8.756161616566171"><ele>294.0</ele><time>2026-04-12T07:26:27.99Z</time></trkpt><trkpt lat="45.72596304829449" lon="8.756155939888801"><ele>294.0</ele><time>2026-04-12T07:26:29.99Z</time></trkpt><trkpt lat="45.72605392096582" lon="8.756146682565022"><ele>294.0</ele><time>2026-04-12T07:26:31.989Z</time></trkpt><trkpt lat="45.726152854805235" lon="8.756121906368005"><ele>294.0</ele><time>2026-04-12T07:26:34.989Z</time></trkpt><trkpt lat="45.726225446729664" lon="8.75608156410288"><ele>294.0</ele><time>2026-04-12T07:26:36.989Z</time></trkpt><trkpt lat="45.726315594191256" lon="8.756055992053232"><ele>294.0</ele><time>2026-04-12T07:26:38.989Z</time></trkpt><trkpt lat="45.72639440185137" lon="8.756056989593516"><ele>294.0</ele><time>2026-04-12T07:26:40.989Z</time></trkpt><trkpt lat="45.72646800572015" lon="8.756038894327581"><ele>294.59999999999997</ele><time>2026-04-12T07:26:42.989Z</time></trkpt><trkpt lat="45.72654524807307" lon="8.756026231439975"><ele>295.2</ele><time>2026-04-12T07:26:44.989Z</time></trkpt><trkpt lat="45.72661161881332" lon="8.756026476743967"><ele>295.79999999999995</ele><time>2026-04-12T07:26:46.989Z</time></trkpt><trkpt lat="45.72671915614488" lon="8.756048413608012"><ele>296.4</ele><time>2026-04-12T07:26:48.989Z</time></trkpt><trkpt lat="45.72680711426779" lon="8.756032862859414"><ele>297.0</ele><time>2026-04-12T07:26:50.989Z</time></trkpt><trkpt lat="45.72691491328944" lon="8.75601632651442"><ele>299.0</ele><time>2026-04-12T07:26:52.989Z</time></trkpt><trkpt lat="45.72701853816413" lon="8.756018258733427"><ele>301.0</ele><time>2026-04-12T07:26:54.989Z</time></trkpt><trkpt lat="45.72710151253651" lon="8.756014199187725"><ele>303.0</ele><time>2026-04-12T07:26:56.989Z</time></trkpt><trkpt lat="45.72718099149867" lon="8.75601169062231"><ele>305.0</ele><time>2026-04-12T07:26:58.989Z</time></trkpt><trkpt lat="45.7272845298836" lon="8.756010351605491"><ele>307.0</ele><time>2026-04-12T07:27:00.989Z</time></trkpt><trkpt lat="45.72737109440353" lon="8.75603315487315"><ele>307.0</ele><time>2026-04-12T07:27:02.989Z</time></trkpt><trkpt lat="45.7274589814142" lon="8.756030784533055"><ele>307.0</ele><time>2026-04-12T07:27:04.989Z</time></trkpt><trkpt lat="45.727550399108765" lon="8.756015601422751"><ele>307.0</ele><time>2026-04-12T07:27:06.989Z</time></trkpt><trkpt lat="45.72762105561648" lon="8.755963444028323"><ele>307.0</ele><time>2026-04-12T07:27:08.989Z</time></trkpt><trkpt lat="45.727697560834294" lon="8.75592356443572"><ele>307.0</ele><time>2026-04-12T07:27:10.989Z</time></trkpt><trkpt lat="45.72776621293868" lon="8.755949774606426"><ele>307.0</ele><time>2026-04-12T07:27:13.989Z</time></trkpt><trkpt lat="45.727828777297105" lon="8.755963959267572"><ele>304.66666666666663</ele><time>2026-04-12T07:27:16.989Z</time></trkpt><trkpt lat="45.72786305274672" lon="8.756078656804304"><ele>302.3333333333333</ele><time>2026-04-12T07:27:19.989Z</time></trkpt><trkpt lat="45.727909825430835" lon="8.756160602961456"><ele>300.0</ele><time>2026-04-12T07:27:22.989Z</time></trkpt><trkpt lat="45.727984238081255" lon="8.756179662134757"><ele>297.6666666666667</ele><time>2026-04-12T07:27:26.989Z</time></trkpt><trkpt lat="45.728056120506885" lon="8.756181380725756"><ele>295.33333333333337</ele><time>2026-04-12T07:27:28.989Z</time></trkpt><trkpt lat="45.72812310535625" lon="8.756193421947511"><ele>293.0</ele><time>2026-04-12T07:27:30.989Z</time></trkpt><trkpt lat="45.72820607483047" lon="8.756206289197035"><ele>293.0</ele><time>2026-04-12T07:27:32.989Z</time></trkpt><trkpt lat="45.72831575863114" lon="8.756211959713397"><ele>293.0</ele><time>2026-04-12T07:27:34.989Z</time></trkpt><trkpt lat="45.728407567561185" lon="8.756224071187626"><ele>293.0</ele><time>2026-04-12T07:27:36.989Z</time></trkpt><trkpt lat="45.72853176415842" lon="8.756255836639278"><ele>293.0</ele><time>2026-04-12T07:27:38.989Z</time></trkpt><trkpt lat="45.72863052436583" lon="8.756266111681219"><ele>293.0</ele><time>2026-04-12T07:27:40.989Z</time></trkpt><trkpt lat="45.72873603722269" lon="8.756303690251842"><ele>292.6</ele><time>2026-04-12T07:27:42.989Z</time></trkpt><trkpt lat="45.7288283637718" lon="8.756327495161104"><ele>292.20000000000005</ele><time>2026-04-12T07:27:44.988Z</time></trkpt><trkpt lat="45.728905842061494" lon="8.756329248145803"><ele>291.8</ele><time>2026-04-12T07:27:46.988Z</time></trkpt><trkpt lat="45.72900561858914" lon="8.756331270429392"><ele>291.40000000000003</ele><time>2026-04-12T07:27:48.988Z</time></trkpt><trkpt lat="45.72910420407706" lon="8.756327833210236"><ele>291.0</ele><time>2026-04-12T07:27:50.988Z</time></trkpt><trkpt lat="45.72918786980701" lon="8.756330152618606"><ele>291.0</ele><time>2026-04-12T07:27:52.988Z</time></trkpt><trkpt lat="45.72929379666039" lon="8.756305863641915"><ele>291.0</ele><time>2026-04-12T07:27:54.988Z</time></trkpt><trkpt lat="45.72940674012082" lon="8.756283719575254"><ele>291.0</ele><time>2026-04-12T07:27:57.988Z</time></trkpt><trkpt lat="45.72947738189149" lon="8.7562834387726"><ele>291.0</ele><time>2026-04-12T07:27:58.988Z</time></trkpt><trkpt lat="45.729582536624946" lon="8.75629399231387"><ele>291.0</ele><time>2026-04-12T07:28:00.988Z</time></trkpt><trkpt lat="45.729688205266825" lon="8.756284080971378"><ele>290.6666666666667</ele><time>2026-04-12T07:28:02.988Z</time></trkpt><trkpt lat="45.72974920911371" lon="8.756251781311828"><ele>290.3333333333333</ele><time>2026-04-12T07:28:03.988Z</time></trkpt><trkpt lat="45.72984363025249" lon="8.756223344335588"><ele>290.0</ele><time>2026-04-12T07:28:05.988Z</time></trkpt><trkpt lat="45.72990646891822" lon="8.756234638606704"><ele>289.66666666666663</ele><time>2026-04-12T07:28:06.988Z</time></trkpt><trkpt lat="45.729998688096224" lon="8.756243585131111"><ele>289.3333333333333</ele><time>2026-04-12T07:28:08.988Z</time></trkpt><trkpt lat="45.730124673654174" lon="8.756209810907166"><ele>289.0</ele><time>2026-04-12T07:28:10.988Z</time></trkpt><trkpt lat="45.730196239439394" lon="8.75621972467205"><ele>289.8</ele><time>2026-04-12T07:28:11.988Z</time></trkpt><trkpt lat="45.73026641833582" lon="8.756217084524565"><ele>290.59999999999997</ele><time>2026-04-12T07:28:12.988Z</time></trkpt><trkpt lat="45.73040177883032" lon="8.756191092224453"><ele>291.4</ele><time>2026-04-12T07:28:14.988Z</time></trkpt><trkpt lat="45.73053058520728" lon="8.75618403846169"><ele>292.2</ele><time>2026-04-12T07:28:16.988Z</time></trkpt><trkpt lat="45.73063522236715" lon="8.756176717299123"><ele>293.0</ele><time>2026-04-12T07:28:18.988Z</time></trkpt><trkpt lat="45.730732605543196" lon="8.756176111739672"><ele>293.0</ele><time>2026-04-12T07:28:20.988Z</time></trkpt><trkpt lat="45.73079455768624" lon="8.756143902816493"><ele>293.0</ele><time>2026-04-12T07:28:22.988Z</time></trkpt><trkpt lat="45.7308618083863" lon="8.756118903512741"><ele>293.0</ele><time>2026-04-12T07:28:24.988Z</time></trkpt><trkpt lat="45.73093795740949" lon="8.756093840514819"><ele>293.0</ele><time>2026-04-12T07:28:26.988Z</time></trkpt><trkpt lat="45.731041738631255" lon="8.756121129543947"><ele>293.0</ele><time>2026-04-12T07:28:28.988Z</time></trkpt><trkpt lat="45.73111461375345" lon="8.756111732915034"><ele>293.0</ele><time>2026-04-12T07:28:29.988Z</time></trkpt><trkpt lat="45.7312281319757" lon="8.756075867044217"><ele>292.2</ele><time>2026-04-12T07:28:31.988Z</time></trkpt><trkpt lat="45.73129757512605" lon="8.756070491814945"><ele>291.4</ele><time>2026-04-12T07:28:32.988Z</time></trkpt><trkpt lat="45.73141808378455" lon="8.75608207814407"><ele>290.59999999999997</ele><time>2026-04-12T07:28:34.988Z</time></trkpt><trkpt lat="45.731518172624455" lon="8.756069923218442"><ele>289.8</ele><time>2026-04-12T07:28:36.988Z</time></trkpt><trkpt lat="45.73161566408451" lon="8.756050577344382"><ele>289.0</ele><time>2026-04-12T07:28:38.988Z</time></trkpt><trkpt lat="45.73169190676597" lon="8.756037824268653"><ele>289.0</ele><time>2026-04-12T07:28:40.988Z</time></trkpt><trkpt lat="45.73180191531558" lon="8.756069998818155"><ele>289.0</ele><time>2026-04-12T07:28:42.988Z</time></trkpt><trkpt lat="45.731909670244576" lon="8.75606495215691"><ele>289.0</ele><time>2026-04-12T07:28:44.988Z</time></trkpt><trkpt lat="45.731979604792755" lon="8.756078286324415"><ele>289.0</ele><time>2026-04-12T07:28:45.988Z</time></trkpt><trkpt lat="45.73211785056828" lon="8.756136215317863"><ele>289.0</ele><time>2026-04-12T07:28:47.988Z</time></trkpt><trkpt lat="45.73217902751032" lon="8.756160475853985"><ele>288.8</ele><time>2026-04-12T07:28:48.988Z</time></trkpt><trkpt lat="45.73227372157911" lon="8.756217948282215"><ele>288.59999999999997</ele><time>2026-04-12T07:28:50.988Z</time></trkpt><trkpt lat="45.732386431976174" lon="8.756261389632277"><ele>288.4</ele><time>2026-04-12T07:28:52.988Z</time></trkpt><trkpt lat="45.732446456336376" lon="8.75629085185094"><ele>288.2</ele><time>2026-04-12T07:28:53.988Z</time></trkpt><trkpt lat="45.73250831911843" lon="8.756313760900904"><ele>288.0</ele><time>2026-04-12T07:28:54.988Z</time></trkpt><trkpt lat="45.732606177206534" lon="8.75636442857301"><ele>288.0</ele><time>2026-04-12T07:28:56.988Z</time></trkpt><trkpt lat="45.73271513279022" lon="8.756412417694127"><ele>288.0</ele><time>2026-04-12T07:28:58.988Z</time></trkpt><trkpt lat="45.7328018113096" lon="8.756440287514764"><ele>288.0</ele><time>2026-04-12T07:29:00.987Z</time></trkpt><trkpt lat="45.732904895416404" lon="8.756454549453078"><ele>288.0</ele><time>2026-04-12T07:29:02.987Z</time></trkpt><trkpt lat="45.73299092447771" lon="8.756453571692857"><ele>288.0</ele><time>2026-04-12T07:29:04.987Z</time></trkpt><trkpt lat="45.733080672500236" lon="8.756438337421214"><ele>288.6666666666667</ele><time>2026-04-12T07:29:06.987Z</time></trkpt><trkpt lat="45.73316059112679" lon="8.756440150767189"><ele>289.3333333333333</ele><time>2026-04-12T07:29:08.987Z</time></trkpt><trkpt lat="45.73324191390434" lon="8.756452555868782"><ele>290.0</ele><time>2026-04-12T07:29:10.987Z</time></trkpt><trkpt lat="45.7333302450935" lon="8.756451775239004"><ele>290.66666666666663</ele><time>2026-04-12T07:29:12.987Z</time></trkpt><trkpt lat="45.73342937339185" lon="8.756450373556149"><ele>291.3333333333333</ele><time>2026-04-12T07:29:15.987Z</time></trkpt><trkpt lat="45.733509018901835" lon="8.7564675454217"><ele>292.0</ele><time>2026-04-12T07:29:17.987Z</time></trkpt><trkpt lat="45.733595112415586" lon="8.756481370579674"><ele>292.3333333333333</ele><time>2026-04-12T07:29:19.987Z</time></trkpt><trkpt lat="45.73366719307975" lon="8.756504220187448"><ele>292.66666666666663</ele><time>2026-04-12T07:29:21.987Z</time></trkpt><trkpt lat="45.73375642104176" lon="8.756506076786449"><ele>293.0</ele><time>2026-04-12T07:29:23.987Z</time></trkpt><trkpt lat="45.73384140505413" lon="8.756536142223364"><ele>293.3333333333333</ele><time>2026-04-12T07:29:25.987Z</time></trkpt><trkpt lat="45.73392883136055" lon="8.756560858538165"><ele>293.6666666666667</ele><time>2026-04-12T07:29:27.987Z</time></trkpt><trkpt lat="45.734007733683725" lon="8.756589606387656"><ele>294.0</ele><time>2026-04-12T07:29:29.987Z</time></trkpt><trkpt lat="45.73408511231112" lon="8.756611329796412"><ele>294.0</ele><time>2026-04-12T07:29:31.987Z</time></trkpt><trkpt lat="45.73415906990959" lon="8.756629644551097"><ele>294.0</ele><time>2026-04-12T07:29:33.987Z</time></trkpt><trkpt lat="45.73423307448168" lon="8.7566479911532"><ele>294.0</ele><time>2026-04-12T07:29:35.987Z</time></trkpt><trkpt lat="45.734308517378906" lon="8.756656847354396"><ele>294.0</ele><time>2026-04-12T07:29:37.987Z</time></trkpt><trkpt lat="45.73438582922274" lon="8.756685477076"><ele>294.0</ele><time>2026-04-12T07:29:39.987Z</time></trkpt><trkpt lat="45.73446487812938" lon="8.756712754979608"><ele>294.0</ele><time>2026-04-12T07:29:41.987Z</time></trkpt><trkpt lat="45.73452754278816" lon="8.75673005876922"><ele>295.0</ele><time>2026-04-12T07:29:43.987Z</time></trkpt><trkpt lat="45.73459495883349" lon="8.756735865647562"><ele>296.0</ele><time>2026-04-12T07:29:45.987Z</time></trkpt><trkpt lat="45.73466914547282" lon="8.756742672880653"><ele>297.0</ele><time>2026-04-12T07:29:48.987Z</time></trkpt><trkpt lat="45.73461506526777" lon="8.756686038698552"><ele>298.0</ele><time>2026-04-12T07:29:52.987Z</time></trkpt><trkpt lat="45.73455307750928" lon="8.75662414625296"><ele>299.0</ele><time>2026-04-12T07:29:56.987Z</time></trkpt><trkpt lat="45.734483717148116" lon="8.756549500658886"><ele>300.0</ele><time>2026-04-12T07:29:59.987Z</time></trkpt><trkpt lat="45.73442162503053" lon="8.756479476465557"><ele>299.0</ele><time>2026-04-12T07:30:02.987Z</time></trkpt><trkpt lat="45.734367212607296" lon="8.756401405564045"><ele>298.0</ele><time>2026-04-12T07:30:05.987Z</time></trkpt><trkpt lat="45.73429825648841" lon="8.756344623403816"><ele>297.0</ele><time>2026-04-12T07:30:08.987Z</time></trkpt><trkpt lat="45.7342606969688" lon="8.756268200021252"><ele>296.0</ele><time>2026-04-12T07:30:10.987Z</time></trkpt><trkpt lat="45.73419575329248" lon="8.756197532131223"><ele>295.0</ele><time>2026-04-12T07:30:13.987Z</time></trkpt><trkpt lat="45.73411590302865" lon="8.756136283843857"><ele>294.0</ele><time>2026-04-12T07:30:16.986Z</time></trkpt><trkpt lat="45.734044297035844" lon="8.756089856802967"><ele>296.2857142857143</ele><time>2026-04-12T07:30:20.986Z</time></trkpt><trkpt lat="45.73397786003447" lon="8.756034415094085"><ele>298.57142857142856</ele><time>2026-04-12T07:30:23.986Z</time></trkpt><trkpt lat="45.73393211884499" lon="8.755953603077845"><ele>300.8571428571429</ele><time>2026-04-12T07:30:25.986Z</time></trkpt><trkpt lat="45.73386292415573" lon="8.755908945802059"><ele>303.1428571428571</ele><time>2026-04-12T07:30:29.986Z</time></trkpt><trkpt lat="45.73379778535819" lon="8.755863418401097"><ele>305.42857142857144</ele><time>2026-04-12T07:30:32.986Z</time></trkpt><trkpt lat="45.73375107185143" lon="8.755801937123808"><ele>307.7142857142857</ele><time>2026-04-12T07:30:34.986Z</time></trkpt><trkpt lat="45.73369277647092" lon="8.75575041229519"><ele>310.0</ele><time>2026-04-12T07:30:37.986Z</time></trkpt><trkpt lat="45.73362319679885" lon="8.75568381117493"><ele>310.0</ele><time>2026-04-12T07:30:41.986Z</time></trkpt><trkpt lat="45.73356388936179" lon="8.755634456509855"><ele>310.0</ele><time>2026-04-12T07:30:44.986Z</time></trkpt><trkpt lat="45.733496131277676" lon="8.755568023618931"><ele>310.0</ele><time>2026-04-12T07:30:47.986Z</time></trkpt><trkpt lat="45.73343224753607" lon="8.755508487135486"><ele>310.0</ele><time>2026-04-12T07:30:50.986Z</time></trkpt><trkpt lat="45.73336349633092" lon="8.755447450307557"><ele>310.0</ele><time>2026-04-12T07:30:53.986Z</time></trkpt><trkpt lat="45.73328868327018" lon="8.755395788852878"><ele>310.0</ele><time>2026-04-12T07:30:57.986Z</time></trkpt><trkpt lat="45.733240329712174" lon="8.755315577664431"><ele>310.2857142857143</ele><time>2026-04-12T07:31:00.986Z</time></trkpt><trkpt lat="45.73318822083753" lon="8.755243003653073"><ele>310.57142857142856</ele><time>2026-04-12T07:31:05.986Z</time></trkpt><trkpt lat="45.73316654706244" lon="8.755148322472145"><ele>310.8571428571429</ele><time>2026-04-12T07:31:08.986Z</time></trkpt><trkpt lat="45.73315121841329" lon="8.755034432253582"><ele>311.1428571428571</ele><time>2026-04-12T07:31:11.986Z</time></trkpt><trkpt lat="45.7331704662018" lon="8.75492459192288"><ele>311.4285714285714</ele><time>2026-04-12T07:31:14.986Z</time></trkpt><trkpt lat="45.733222907287335" lon="8.75486329646797"><ele>311.7142857142857</ele><time>2026-04-12T07:31:17.986Z</time></trkpt><trkpt lat="45.73327980107724" lon="8.754806941792005"><ele>312.0</ele><time>2026-04-12T07:31:20.986Z</time></trkpt><trkpt lat="45.73335190690444" lon="8.754785438837498"><ele>312.0</ele><time>2026-04-12T07:31:21.986Z</time></trkpt><trkpt lat="45.73342224325047" lon="8.754739399816561"><ele>312.0</ele><time>2026-04-12T07:31:24.986Z</time></trkpt><trkpt lat="45.7334906720062" lon="8.754713260193874"><ele>312.0</ele><time>2026-04-12T07:31:26.986Z</time></trkpt><trkpt lat="45.733557092631536" lon="8.754675228124707"><ele>312.0</ele><time>2026-04-12T07:31:29.986Z</time></trkpt><trkpt lat="45.73361796537844" lon="8.754627567864265"><ele>312.0</ele><time>2026-04-12T07:31:32.985Z</time></trkpt><trkpt lat="45.733682268418114" lon="8.754587979539854"><ele>312.0</ele><time>2026-04-12T07:31:35.985Z</time></trkpt><trkpt lat="45.73375339638847" lon="8.754553243229568"><ele>312.0</ele><time>2026-04-12T07:31:38.985Z</time></trkpt><trkpt lat="45.733828224431406" lon="8.754521946936809"><ele>312.8571428571429</ele><time>2026-04-12T07:31:41.985Z</time></trkpt><trkpt lat="45.73391092721789" lon="8.754505055167929"><ele>313.71428571428567</ele><time>2026-04-12T07:31:44.985Z</time></trkpt><trkpt lat="45.733935946535155" lon="8.754421421039574"><ele>314.57142857142856</ele><time>2026-04-12T07:31:47.985Z</time></trkpt><trkpt lat="45.73400054054501" lon="8.754391673305804"><ele>315.42857142857144</ele><time>2026-04-12T07:31:52.985Z</time></trkpt><trkpt lat="45.7340727282437" lon="8.754443515762983"><ele>316.28571428571433</ele><time>2026-04-12T07:32:50.984Z</time></trkpt><trkpt lat="45.733995236445615" lon="8.754457583280967"><ele>317.1428571428571</ele><time>2026-04-12T07:34:44.999Z</time></trkpt><trkpt lat="45.73405817842213" lon="8.75442067536496"><ele>318.0</ele><time>2026-04-12T07:37:24.998Z</time></trkpt><trkpt lat="45.73413441483883" lon="8.754440021291972"><ele>318.0</ele><time>2026-04-12T07:37:27.998Z</time></trkpt><trkpt lat="45.73420277343382" lon="8.754471263497724"><ele>318.0</ele><time>2026-04-12T07:37:29.998Z</time></trkpt><trkpt lat="45.73429426388543" lon="8.754461531912144"><ele>318.0</ele><time>2026-04-12T07:37:32.998Z</time></trkpt><trkpt lat="45.734394294741485" lon="8.754487257009343"><ele>318.0</ele><time>2026-04-12T07:37:34.998Z</time></trkpt><trkpt lat="45.734484914578395" lon="8.754482715202133"><ele>318.0</ele><time>2026-04-12T07:37:36.998Z</time></trkpt><trkpt lat="45.73455811337684" lon="8.754481796810484"><ele>318.0</ele><time>2026-04-12T07:37:38.998Z</time></trkpt><trkpt lat="45.734632597976784" lon="8.754495092154864"><ele>318.5</ele><time>2026-04-12T07:37:40.998Z</time></trkpt><trkpt lat="45.7347196312243" lon="8.754522668370296"><ele>319.0</ele><time>2026-04-12T07:37:43.998Z</time></trkpt><trkpt lat="45.73480932832054" lon="8.754579591699386"><ele>319.5</ele><time>2026-04-12T07:37:45.998Z</time></trkpt><trkpt lat="45.734882610337465" lon="8.75461252345443"><ele>320.0</ele><time>2026-04-12T07:37:47.998Z</time></trkpt><trkpt lat="45.73498600552986" lon="8.754682337037735"><ele>320.5</ele><time>2026-04-12T07:37:49.998Z</time></trkpt><trkpt lat="45.73505015388664" lon="8.754709083357898"><ele>321.0</ele><time>2026-04-12T07:37:51.998Z</time></trkpt><trkpt lat="45.735119981926445" lon="8.754797220061398"><ele>321.0</ele><time>2026-04-12T07:37:54.998Z</time></trkpt><trkpt lat="45.73519869364141" lon="8.754856552533706"><ele>321.0</ele><time>2026-04-12T07:37:56.998Z</time></trkpt><trkpt lat="45.735287337850295" lon="8.754911841944546"><ele>321.0</ele><time>2026-04-12T07:37:58.998Z</time></trkpt><trkpt lat="45.7353662195535" lon="8.754938126719653"><ele>321.0</ele><time>2026-04-12T07:38:00.998Z</time></trkpt><trkpt lat="45.735430087766595" lon="8.75498976009444"><ele>321.0</ele><time>2026-04-12T07:38:01.998Z</time></trkpt><trkpt lat="45.735490374904174" lon="8.755017972316796"><ele>321.0</ele><time>2026-04-12T07:38:02.998Z</time></trkpt><trkpt lat="45.73555409908645" lon="8.755017840450638"><ele>320.6</ele><time>2026-04-12T07:38:04Z</time></trkpt><trkpt lat="45.73564654993476" lon="8.754965713544303"><ele>320.20000000000005</ele><time>2026-04-12T07:38:06Z</time></trkpt><trkpt lat="45.7357190367724" lon="8.754866292610311"><ele>319.79999999999995</ele><time>2026-04-12T07:38:08Z</time></trkpt><trkpt lat="45.73574759661609" lon="8.754776926593854"><ele>319.4</ele><time>2026-04-12T07:38:09Z</time></trkpt><trkpt lat="45.735777657534456" lon="8.754694251385366"><ele>319.0</ele><time>2026-04-12T07:38:10Z</time></trkpt><trkpt lat="45.73584860439727" lon="8.754561382578391"><ele>319.0</ele><time>2026-04-12T07:38:12Z</time></trkpt><trkpt lat="45.73592015481154" lon="8.754462961055232"><ele>319.0</ele><time>2026-04-12T07:38:14Z</time></trkpt><trkpt lat="45.73597891842354" lon="8.754329295870798"><ele>319.0</ele><time>2026-04-12T07:38:15.999Z</time></trkpt><trkpt lat="45.73603029456567" lon="8.754166741550462"><ele>319.0</ele><time>2026-04-12T07:38:17.999Z</time></trkpt><trkpt lat="45.73607959091389" lon="8.754098286358357"><ele>319.0</ele><time>2026-04-12T07:38:18.999Z</time></trkpt><trkpt lat="45.73616733979554" lon="8.753969034180942"><ele>316.4</ele><time>2026-04-12T07:38:20.999Z</time></trkpt><trkpt lat="45.73624422848499" lon="8.753846383642971"><ele>313.79999999999995</ele><time>2026-04-12T07:38:22.999Z</time></trkpt><trkpt lat="45.736316997251826" lon="8.75376476606236"><ele>311.20000000000005</ele><time>2026-04-12T07:38:24.999Z</time></trkpt><trkpt lat="45.73640290050018" lon="8.753718293299643"><ele>308.6</ele><time>2026-04-12T07:38:26.999Z</time></trkpt><trkpt lat="45.73651571935456" lon="8.753752919363722"><ele>306.0</ele><time>2026-04-12T07:38:28.999Z</time></trkpt><trkpt lat="45.73663996669548" lon="8.753776876565267"><ele>306.0</ele><time>2026-04-12T07:38:30.999Z</time></trkpt><trkpt lat="45.73671163081251" lon="8.753757426700613"><ele>306.0</ele><time>2026-04-12T07:38:31.999Z</time></trkpt><trkpt lat="45.73678329991254" lon="8.753725761916607"><ele>306.0</ele><time>2026-04-12T07:38:32.999Z</time></trkpt><trkpt lat="45.736849455390484" lon="8.753690526813863"><ele>306.0</ele><time>2026-04-12T07:38:33.999Z</time></trkpt><trkpt lat="45.73691666147347" lon="8.753663312705921"><ele>306.0</ele><time>2026-04-12T07:38:34.999Z</time></trkpt><trkpt lat="45.73697691924865" lon="8.753633528521691"><ele>306.0</ele><time>2026-04-12T07:38:35.999Z</time></trkpt><trkpt lat="45.73707801351718" lon="8.75363845078266"><ele>303.5</ele><time>2026-04-12T07:38:37.999Z</time></trkpt><trkpt lat="45.73714784841932" lon="8.753609404670488"><ele>301.0</ele><time>2026-04-12T07:38:39.999Z</time></trkpt><trkpt lat="45.73720645235703" lon="8.753778422135174"><ele>298.5</ele><time>2026-04-12T07:38:42.999Z</time></trkpt><trkpt lat="45.737217090330226" lon="8.753902284328442"><ele>296.0</ele><time>2026-04-12T07:38:43.999Z</time></trkpt><trkpt lat="45.73722334893793" lon="8.753995208696747"><ele>293.5</ele><time>2026-04-12T07:38:44.999Z</time></trkpt><trkpt lat="45.737225147703064" lon="8.754106336739651"><ele>291.0</ele><time>2026-04-12T07:38:45.999Z</time></trkpt><trkpt lat="45.73720138023993" lon="8.754307526866484"><ele>290.8</ele><time>2026-04-12T07:38:47.999Z</time></trkpt><trkpt lat="45.7371698417302" lon="8.754494854196377"><ele>290.6</ele><time>2026-04-12T07:38:49.999Z</time></trkpt><trkpt lat="45.737146754335406" lon="8.754588719618239"><ele>290.4</ele><time>2026-04-12T07:38:50.999Z</time></trkpt><trkpt lat="45.73712150454957" lon="8.754675141046075"><ele>290.2</ele><time>2026-04-12T07:38:51.999Z</time></trkpt><trkpt lat="45.73711744419214" lon="8.754844822599395"><ele>290.0</ele><time>2026-04-12T07:38:53.999Z</time></trkpt><trkpt lat="45.73711316682642" lon="8.75500486984517"><ele>290.0</ele><time>2026-04-12T07:38:55.999Z</time></trkpt><trkpt lat="45.73709803663206" lon="8.755099964337669"><ele>290.0</ele><time>2026-04-12T07:38:56.999Z</time></trkpt><trkpt lat="45.737063606280834" lon="8.755284956390318"><ele>290.0</ele><time>2026-04-12T07:38:58.999Z</time></trkpt><trkpt lat="45.73705639763926" lon="8.755459909265667"><ele>290.0</ele><time>2026-04-12T07:39:00.999Z</time></trkpt><trkpt lat="45.73702413685663" lon="8.75556063307212"><ele>290.0</ele><time>2026-04-12T07:39:01.999Z</time></trkpt><trkpt lat="45.73699659727974" lon="8.755730368905708"><ele>289.8</ele><time>2026-04-12T07:39:03.999Z</time></trkpt><trkpt lat="45.736950852076646" lon="8.755820384349821"><ele>289.6</ele><time>2026-04-12T07:39:04.999Z</time></trkpt><trkpt lat="45.73691584294143" lon="8.755898438057237"><ele>289.4</ele><time>2026-04-12T07:39:05.999Z</time></trkpt><trkpt lat="45.7368721229642" lon="8.756058555785625"><ele>289.2</ele><time>2026-04-12T07:39:07.999Z</time></trkpt><trkpt lat="45.736831613071594" lon="8.756137258844511"><ele>289.0</ele><time>2026-04-12T07:39:08.999Z</time></trkpt><trkpt lat="45.73676326316326" lon="8.756288476554518"><ele>289.4</ele><time>2026-04-12T07:39:10.999Z</time></trkpt><trkpt lat="45.736709761377604" lon="8.756433127219283"><ele>289.79999999999995</ele><time>2026-04-12T07:39:12.999Z</time></trkpt><trkpt lat="45.73666837595341" lon="8.75657463709403"><ele>290.20000000000005</ele><time>2026-04-12T07:39:14.999Z</time></trkpt><trkpt lat="45.73669935606796" lon="8.756701248515618"><ele>290.6</ele><time>2026-04-12T07:39:16.998Z</time></trkpt><trkpt lat="45.73675242430199" lon="8.756832806723372"><ele>291.0</ele><time>2026-04-12T07:39:18.998Z</time></trkpt><trkpt lat="45.73684179103325" lon="8.756930530484867"><ele>290.0</ele><time>2026-04-12T07:39:20.998Z</time></trkpt><trkpt lat="45.736942924091636" lon="8.756979503644581"><ele>289.0</ele><time>2026-04-12T07:39:22.998Z</time></trkpt><trkpt lat="45.73703341050868" lon="8.757025310653743"><ele>288.0</ele><time>2026-04-12T07:39:24.998Z</time></trkpt><trkpt lat="45.73713880554146" lon="8.757064988323435"><ele>287.0</ele><time>2026-04-12T07:39:26.998Z</time></trkpt><trkpt lat="45.737256728287804" lon="8.757100716544588"><ele>286.0</ele><time>2026-04-12T07:39:28.998Z</time></trkpt><trkpt lat="45.73737371328657" lon="8.75713750464138"><ele>286.0</ele><time>2026-04-12T07:39:30.998Z</time></trkpt><trkpt lat="45.73748653038026" lon="8.75716632120092"><ele>286.0</ele><time>2026-04-12T07:39:32.998Z</time></trkpt><trkpt lat="45.737598569270816" lon="8.757188645575347"><ele>286.0</ele><time>2026-04-12T07:39:34.998Z</time></trkpt><trkpt lat="45.73772615292697" lon="8.757214035776988"><ele>286.0</ele><time>2026-04-12T07:39:36.998Z</time></trkpt><trkpt lat="45.737841427313725" lon="8.757253693778997"><ele>285.8</ele><time>2026-04-12T07:39:38.998Z</time></trkpt><trkpt lat="45.73794152479063" lon="8.75731349405124"><ele>285.6</ele><time>2026-04-12T07:39:40.998Z</time></trkpt><trkpt lat="45.73803562800448" lon="8.757376969934391"><ele>285.4</ele><time>2026-04-12T07:39:42.998Z</time></trkpt><trkpt lat="45.73813357424762" lon="8.757436036788135"><ele>285.2</ele><time>2026-04-12T07:39:44.998Z</time></trkpt><trkpt lat="45.73818971753394" lon="8.757479217906061"><ele>285.0</ele><time>2026-04-12T07:39:45.998Z</time></trkpt><trkpt lat="45.73829650824644" lon="8.757536995121606"><ele>285.0</ele><time>2026-04-12T07:39:47.998Z</time></trkpt><trkpt lat="45.738400651673466" lon="8.75761045075985"><ele>285.0</ele><time>2026-04-12T07:39:49.998Z</time></trkpt><trkpt lat="45.73850236080908" lon="8.757676367579476"><ele>285.0</ele><time>2026-04-12T07:39:51.998Z</time></trkpt><trkpt lat="45.738611974366265" lon="8.757727381264276"><ele>285.0</ele><time>2026-04-12T07:39:53.998Z</time></trkpt><trkpt lat="45.73871209426828" lon="8.757762995066296"><ele>285.0</ele><time>2026-04-12T07:39:55.998Z</time></trkpt><trkpt lat="45.7388072958044" lon="8.757787937889159"><ele>285.6</ele><time>2026-04-12T07:39:57.998Z</time></trkpt><trkpt lat="45.73886617423525" lon="8.757824166935329"><ele>286.2</ele><time>2026-04-12T07:39:58.998Z</time></trkpt><trkpt lat="45.73897074269759" lon="8.757840814297777"><ele>286.8</ele><time>2026-04-12T07:40:00.998Z</time></trkpt><trkpt lat="45.73908525116084" lon="8.757880591724538"><ele>287.4</ele><time>2026-04-12T07:40:02.998Z</time></trkpt><trkpt lat="45.73919798297425" lon="8.757898668731276"><ele>288.0</ele><time>2026-04-12T07:40:04.998Z</time></trkpt><trkpt lat="45.73928678524782" lon="8.757920115508073"><ele>287.8</ele><time>2026-04-12T07:40:06.998Z</time></trkpt><trkpt lat="45.739392559405744" lon="8.757951871981577"><ele>287.6</ele><time>2026-04-12T07:40:08.998Z</time></trkpt><trkpt lat="45.73951043564461" lon="8.75799028516642"><ele>287.4</ele><time>2026-04-12T07:40:10.999Z</time></trkpt><trkpt lat="45.7396166821779" lon="8.758009319674382"><ele>287.2</ele><time>2026-04-12T07:40:12.999Z</time></trkpt><trkpt lat="45.73968026281019" lon="8.758025206194779"><ele>287.0</ele><time>2026-04-12T07:40:14Z</time></trkpt><trkpt lat="45.73978628994879" lon="8.75804820873061"><ele>287.0</ele><time>2026-04-12T07:40:16Z</time></trkpt><trkpt lat="45.73989027585082" lon="8.758065237495307"><ele>287.0</ele><time>2026-04-12T07:40:17.999Z</time></trkpt><trkpt lat="45.739981133389364" lon="8.758102700700142"><ele>287.0</ele><time>2026-04-12T07:40:20Z</time></trkpt><trkpt lat="45.7400812250633" lon="8.758162120236587"><ele>287.0</ele><time>2026-04-12T07:40:21.999Z</time></trkpt><trkpt lat="45.740185646642175" lon="8.758251824226676"><ele>287.0</ele><time>2026-04-12T07:40:23.999Z</time></trkpt><trkpt lat="45.74027790096823" lon="8.758320295499368"><ele>287.0</ele><time>2026-04-12T07:40:25.999Z</time></trkpt><trkpt lat="45.74037374553807" lon="8.758361800706217"><ele>287.0</ele><time>2026-04-12T07:40:27.999Z</time></trkpt><trkpt lat="45.740477173497524" lon="8.758419291902026"><ele>287.0</ele><time>2026-04-12T07:40:29.999Z</time></trkpt><trkpt lat="45.74057491324264" lon="8.758442269218804"><ele>287.0</ele><time>2026-04-12T07:40:31.999Z</time></trkpt><trkpt lat="45.74067445828543" lon="8.758467073588843"><ele>287.0</ele><time>2026-04-12T07:40:33.999Z</time></trkpt><trkpt lat="45.740763512363316" lon="8.7584875482207"><ele>287.0</ele><time>2026-04-12T07:40:35.999Z</time></trkpt><trkpt lat="45.74086465846865" lon="8.758521845340605"><ele>287.0</ele><time>2026-04-12T07:40:37.999Z</time></trkpt><trkpt lat="45.7409735312805" lon="8.758553331926636"><ele>287.0</ele><time>2026-04-12T07:40:39.999Z</time></trkpt><trkpt lat="45.74106605849263" lon="8.75857477466522"><ele>287.0</ele><time>2026-04-12T07:40:41.999Z</time></trkpt><trkpt lat="45.741162690069324" lon="8.758591376538812"><ele>287.0</ele><time>2026-04-12T07:40:43.999Z</time></trkpt><trkpt lat="45.741267072822204" lon="8.758615893200501"><ele>287.4</ele><time>2026-04-12T07:40:45.999Z</time></trkpt><trkpt lat="45.741361004286304" lon="8.758648926327297"><ele>287.79999999999995</ele><time>2026-04-12T07:40:47.999Z</time></trkpt><trkpt lat="45.74145656484" lon="8.758691812989895"><ele>288.2</ele><time>2026-04-12T07:40:49.999Z</time></trkpt><trkpt lat="45.74156234132035" lon="8.758713421559902"><ele>288.59999999999997</ele><time>2026-04-12T07:40:51.999Z</time></trkpt><trkpt lat="45.741666780165" lon="8.758709456199028"><ele>289.0</ele><time>2026-04-12T07:40:53.999Z</time></trkpt><trkpt lat="45.74175205513155" lon="8.758679930372562"><ele>289.0</ele><time>2026-04-12T07:40:55.999Z</time></trkpt><trkpt lat="45.74184910742635" lon="8.758647923860508"><ele>289.0</ele><time>2026-04-12T07:40:57.999Z</time></trkpt><trkpt lat="45.741940116098554" lon="8.758616547429751"><ele>289.0</ele><time>2026-04-12T07:40:59.999Z</time></trkpt><trkpt lat="45.74202051074667" lon="8.758610216087055"><ele>289.0</ele><time>2026-04-12T07:41:01.999Z</time></trkpt><trkpt lat="45.74208281276632" lon="8.758664531172508"><ele>289.0</ele><time>2026-04-12T07:41:03.999Z</time></trkpt><trkpt lat="45.742137207108364" lon="8.758743608069661"><ele>289.0</ele><time>2026-04-12T07:41:05.999Z</time></trkpt><trkpt lat="45.74218978476459" lon="8.758849262364272"><ele>289.3333333333333</ele><time>2026-04-12T07:41:07.999Z</time></trkpt><trkpt lat="45.742244943054374" lon="8.758918498157735"><ele>289.66666666666663</ele><time>2026-04-12T07:41:09.999Z</time></trkpt><trkpt lat="45.7423087762162" lon="8.758982222198032"><ele>290.0</ele><time>2026-04-12T07:41:11.999Z</time></trkpt><trkpt lat="45.742361634883785" lon="8.759089987681074"><ele>290.3333333333333</ele><time>2026-04-12T07:41:13.999Z</time></trkpt><trkpt lat="45.74241462277169" lon="8.759157514045524"><ele>290.6666666666667</ele><time>2026-04-12T07:41:15.999Z</time></trkpt><trkpt lat="45.74247109863157" lon="8.759246844205963"><ele>291.0</ele><time>2026-04-12T07:41:17.999Z</time></trkpt><trkpt lat="45.742530397217074" lon="8.759348093659703"><ele>291.0</ele><time>2026-04-12T07:41:20.999Z</time></trkpt><trkpt lat="45.742590846975276" lon="8.759450143300873"><ele>291.0</ele><time>2026-04-12T07:41:23.999Z</time></trkpt><trkpt lat="45.74265702275979" lon="8.759538286756628"><ele>291.0</ele><time>2026-04-12T07:41:25.999Z</time></trkpt><trkpt lat="45.742711422258495" lon="8.759606252809965"><ele>291.0</ele><time>2026-04-12T07:41:27.999Z</time></trkpt><trkpt lat="45.74277734196648" lon="8.759728225801682"><ele>291.0</ele><time>2026-04-12T07:41:29.999Z</time></trkpt><trkpt lat="45.7428543996188" lon="8.759815731719591"><ele>291.0</ele><time>2026-04-12T07:41:31.999Z</time></trkpt><trkpt lat="45.74293942765588" lon="8.75987244321151"><ele>291.0</ele><time>2026-04-12T07:41:33.999Z</time></trkpt><trkpt lat="45.74304332421725" lon="8.759958279683453"><ele>291.0</ele><time>2026-04-12T07:41:35.998Z</time></trkpt><trkpt lat="45.743099881703706" lon="8.760000374857926"><ele>291.0</ele><time>2026-04-12T07:41:36.998Z</time></trkpt><trkpt lat="45.74320203107481" lon="8.760081620806258"><ele>291.0</ele><time>2026-04-12T07:41:38.998Z</time></trkpt><trkpt lat="45.74330381666771" lon="8.760160890516968"><ele>291.2</ele><time>2026-04-12T07:41:40.998Z</time></trkpt><trkpt lat="45.74339409994639" lon="8.760247712779655"><ele>291.40000000000003</ele><time>2026-04-12T07:41:42.998Z</time></trkpt><trkpt lat="45.74348187842359" lon="8.760330843579453"><ele>291.6</ele><time>2026-04-12T07:41:44.998Z</time></trkpt><trkpt lat="45.74356570788831" lon="8.760405446766255"><ele>291.8</ele><time>2026-04-12T07:41:46.998Z</time></trkpt><trkpt lat="45.74365751971802" lon="8.76048562306957"><ele>292.0</ele><time>2026-04-12T07:41:48.998Z</time></trkpt><trkpt lat="45.743729991641075" lon="8.760559748027894"><ele>292.4</ele><time>2026-04-12T07:41:50.998Z</time></trkpt><trkpt lat="45.743823956604956" lon="8.760654329952521"><ele>292.79999999999995</ele><time>2026-04-12T07:41:52.998Z</time></trkpt><trkpt lat="45.7439192652483" lon="8.760737673318294"><ele>293.2</ele><time>2026-04-12T07:41:54.998Z</time></trkpt><trkpt lat="45.74399123908656" lon="8.760823678303778"><ele>293.59999999999997</ele><time>2026-04-12T07:41:56.998Z</time></trkpt><trkpt lat="45.74407965754745" lon="8.760928416790273"><ele>294.0</ele><time>2026-04-12T07:41:58.998Z</time></trkpt><trkpt lat="45.744152238204414" lon="8.761006715569005"><ele>294.0</ele><time>2026-04-12T07:42:00.998Z</time></trkpt><trkpt lat="45.74422866027606" lon="8.761096579447726"><ele>294.0</ele><time>2026-04-12T07:42:02.998Z</time></trkpt><trkpt lat="45.7443068090588" lon="8.761191867145754"><ele>294.0</ele><time>2026-04-12T07:42:04.998Z</time></trkpt><trkpt lat="45.74439088801125" lon="8.761273192266458"><ele>294.0</ele><time>2026-04-12T07:42:06.998Z</time></trkpt><trkpt lat="45.744464398865965" lon="8.761358373725392"><ele>294.0</ele><time>2026-04-12T07:42:08.998Z</time></trkpt><trkpt lat="45.74454878665446" lon="8.761456254907923"><ele>293.8</ele><time>2026-04-12T07:42:10.998Z</time></trkpt><trkpt lat="45.74462458154196" lon="8.761544718625085"><ele>293.59999999999997</ele><time>2026-04-12T07:42:12.998Z</time></trkpt><trkpt lat="45.744711196719415" lon="8.761638420169342"><ele>293.4</ele><time>2026-04-12T07:42:14.998Z</time></trkpt><trkpt lat="45.744785061528724" lon="8.761723014832786"><ele>293.2</ele><time>2026-04-12T07:42:16.999Z</time></trkpt><trkpt lat="45.74486401425155" lon="8.761809986035297"><ele>293.0</ele><time>2026-04-12T07:42:18.999Z</time></trkpt><trkpt lat="45.744941153030005" lon="8.761905636265093"><ele>293.0</ele><time>2026-04-12T07:42:20.999Z</time></trkpt><trkpt lat="45.74500320377077" lon="8.762003230378433"><ele>293.0</ele><time>2026-04-12T07:42:22.999Z</time></trkpt><trkpt lat="45.745058328594816" lon="8.762097325637376"><ele>293.0</ele><time>2026-04-12T07:42:25Z</time></trkpt><trkpt lat="45.745115678596356" lon="8.76218496547389"><ele>293.0</ele><time>2026-04-12T07:42:26.999Z</time></trkpt><trkpt lat="45.74516986998506" lon="8.762296612677515"><ele>293.0</ele><time>2026-04-12T07:42:28.999Z</time></trkpt><trkpt lat="45.74517366342661" lon="8.762423889477894"><ele>293.0</ele><time>2026-04-12T07:42:30.999Z</time></trkpt><trkpt lat="45.74513845932212" lon="8.76256582534535"><ele>293.0</ele><time>2026-04-12T07:42:32.999Z</time></trkpt><trkpt lat="45.74509150694392" lon="8.76269897338307"><ele>293.0</ele><time>2026-04-12T07:42:34.999Z</time></trkpt><trkpt lat="45.745031286418865" lon="8.76284537196969"><ele>293.0</ele><time>2026-04-12T07:42:36.999Z</time></trkpt><trkpt lat="45.74498506491038" lon="8.762967986251935"><ele>293.0</ele><time>2026-04-12T07:42:38.999Z</time></trkpt><trkpt lat="45.74492710814464" lon="8.76309322180812"><ele>293.0</ele><time>2026-04-12T07:42:40.999Z</time></trkpt><trkpt lat="45.74486899702765" lon="8.763208392170048"><ele>293.0</ele><time>2026-04-12T07:42:42.999Z</time></trkpt><trkpt lat="45.74482121203396" lon="8.763323306426699"><ele>293.0</ele><time>2026-04-12T07:42:44.999Z</time></trkpt><trkpt lat="45.744769952013904" lon="8.763452206882388"><ele>293.0</ele><time>2026-04-12T07:42:46.999Z</time></trkpt><trkpt lat="45.74473217817701" lon="8.763586436560132"><ele>293.0</ele><time>2026-04-12T07:42:48.999Z</time></trkpt><trkpt lat="45.744702594419984" lon="8.763666339476494"><ele>293.0</ele><time>2026-04-12T07:42:49.999Z</time></trkpt><trkpt lat="45.744664365496476" lon="8.763804351805113"><ele>292.75</ele><time>2026-04-12T07:42:51.999Z</time></trkpt><trkpt lat="45.74460793931994" lon="8.763973251731263"><ele>292.5</ele><time>2026-04-12T07:42:53.999Z</time></trkpt><trkpt lat="45.74457625438614" lon="8.764118410726773"><ele>292.25</ele><time>2026-04-12T07:42:55.999Z</time></trkpt><trkpt lat="45.74452314653564" lon="8.764281294946073"><ele>292.0</ele><time>2026-04-12T07:42:57.999Z</time></trkpt><trkpt lat="45.74448025204787" lon="8.764442011741346"><ele>291.8333333333333</ele><time>2026-04-12T07:42:59.999Z</time></trkpt><trkpt lat="45.744423726556725" lon="8.764602083137248"><ele>291.66666666666663</ele><time>2026-04-12T07:43:01.999Z</time></trkpt><trkpt lat="45.74438804904092" lon="8.764681125723163"><ele>291.5</ele><time>2026-04-12T07:43:02.999Z</time></trkpt><trkpt lat="45.744354038699925" lon="8.764760840499026"><ele>291.3333333333333</ele><time>2026-04-12T07:43:03.999Z</time></trkpt><trkpt lat="45.744318761782424" lon="8.76484114073424"><ele>291.1666666666667</ele><time>2026-04-12T07:43:04.999Z</time></trkpt><trkpt lat="45.74428241808656" lon="8.764922330173308"><ele>291.0</ele><time>2026-04-12T07:43:05.999Z</time></trkpt><trkpt lat="45.74423343875261" lon="8.765082010075938"><ele>291.6</ele><time>2026-04-12T07:43:07.999Z</time></trkpt><trkpt lat="45.74420268855077" lon="8.76523133835413"><ele>292.20000000000005</ele><time>2026-04-12T07:43:09.999Z</time></trkpt><trkpt lat="45.7441452623023" lon="8.765393234203152"><ele>292.79999999999995</ele><time>2026-04-12T07:43:11.999Z</time></trkpt><trkpt lat="45.744116758841606" lon="8.765535805301875"><ele>293.4</ele><time>2026-04-12T07:43:13.999Z</time></trkpt><trkpt lat="45.744086361897864" lon="8.76567422569157"><ele>294.0</ele><time>2026-04-12T07:43:15.999Z</time></trkpt><trkpt lat="45.74404280945753" lon="8.765815739075329"><ele>294.0</ele><time>2026-04-12T07:43:17.999Z</time></trkpt><trkpt lat="45.743994822934546" lon="8.76595618527179"><ele>294.0</ele><time>2026-04-12T07:43:19.999Z</time></trkpt><trkpt lat="45.743966342373064" lon="8.766086171015978"><ele>294.0</ele><time>2026-04-12T07:43:21.999Z</time></trkpt><trkpt lat="45.74393714952927" lon="8.766207944224735"><ele>294.0</ele><time>2026-04-12T07:43:23.999Z</time></trkpt><trkpt lat="45.74390341487718" lon="8.7663423434252"><ele>294.0</ele><time>2026-04-12T07:43:25.999Z</time></trkpt><trkpt lat="45.743870114956415" lon="8.766471526094376"><ele>294.6666666666667</ele><time>2026-04-12T07:43:27.999Z</time></trkpt><trkpt lat="45.74384767866654" lon="8.766574735681568"><ele>295.3333333333333</ele><time>2026-04-12T07:43:29.999Z</time></trkpt><trkpt lat="45.74384824089772" lon="8.766704718966123"><ele>296.0</ele><time>2026-04-12T07:43:31.998Z</time></trkpt><trkpt lat="45.74385752501259" lon="8.76681130603018"><ele>296.66666666666663</ele><time>2026-04-12T07:43:33.998Z</time></trkpt><trkpt lat="45.743873563154175" lon="8.766914702066048"><ele>297.3333333333333</ele><time>2026-04-12T07:43:35.998Z</time></trkpt><trkpt lat="45.74392101417928" lon="8.76698397999902"><ele>298.0</ele><time>2026-04-12T07:43:37.998Z</time></trkpt><trkpt lat="45.74397462486637" lon="8.76705021503232"><ele>298.4</ele><time>2026-04-12T07:43:39.998Z</time></trkpt><trkpt lat="45.74406306281447" lon="8.767134736650153"><ele>298.8</ele><time>2026-04-12T07:43:42.998Z</time></trkpt><trkpt lat="45.74416251636058" lon="8.767195357010042"><ele>299.2</ele><time>2026-04-12T07:43:45.998Z</time></trkpt><trkpt lat="45.74424929361497" lon="8.767284782342072"><ele>299.6</ele><time>2026-04-12T07:43:47.998Z</time></trkpt><trkpt lat="45.74433283677386" lon="8.767374631222097"><ele>300.0</ele><time>2026-04-12T07:43:49.998Z</time></trkpt><trkpt lat="45.74442242613771" lon="8.767467060551025"><ele>300.8333333333333</ele><time>2026-04-12T07:43:51.998Z</time></trkpt><trkpt lat="45.7445050543044" lon="8.76756092202014"><ele>301.6666666666667</ele><time>2026-04-12T07:43:53.998Z</time></trkpt><trkpt lat="45.74458219381637" lon="8.767646615617776"><ele>302.5</ele><time>2026-04-12T07:43:55.998Z</time></trkpt><trkpt lat="45.74464346954995" lon="8.76771885239439"><ele>303.33333333333337</ele><time>2026-04-12T07:43:57.998Z</time></trkpt><trkpt lat="45.74469376839805" lon="8.767804165751292"><ele>304.1666666666667</ele><time>2026-04-12T07:43:59.998Z</time></trkpt><trkpt lat="45.74474897212653" lon="8.767897151291141"><ele>305.0</ele><time>2026-04-12T07:44:01.998Z</time></trkpt><trkpt lat="45.74479585574628" lon="8.767977251773925"><ele>305.83333333333337</ele><time>2026-04-12T07:44:03.998Z</time></trkpt><trkpt lat="45.74484532299491" lon="8.768060766011443"><ele>306.6666666666667</ele><time>2026-04-12T07:44:05.998Z</time></trkpt><trkpt lat="45.74490316603128" lon="8.76814530271072"><ele>307.5</ele><time>2026-04-12T07:44:07.998Z</time></trkpt><trkpt lat="45.74495663831445" lon="8.768197810516085"><ele>308.3333333333333</ele><time>2026-04-12T07:44:09.998Z</time></trkpt><trkpt lat="45.74502553674646" lon="8.76827441349649"><ele>309.16666666666663</ele><time>2026-04-12T07:44:12.998Z</time></trkpt><trkpt lat="45.74506924012881" lon="8.768351509467752"><ele>310.0</ele><time>2026-04-12T07:44:15.998Z</time></trkpt><trkpt lat="45.74506506676882" lon="8.768460908572987"><ele>310.66666666666663</ele><time>2026-04-12T07:44:18.998Z</time></trkpt><trkpt lat="45.74506442827566" lon="8.76855432749109"><ele>311.3333333333333</ele><time>2026-04-12T07:44:22Z</time></trkpt><trkpt lat="45.74503678482375" lon="8.768676900576404"><ele>312.0</ele><time>2026-04-12T07:44:25Z</time></trkpt><trkpt lat="45.74501340200092" lon="8.768777565459132"><ele>312.6666666666667</ele><time>2026-04-12T07:44:28Z</time></trkpt><trkpt lat="45.74495100212507" lon="8.768906113860822"><ele>313.33333333333337</ele><time>2026-04-12T07:44:31Z</time></trkpt><trkpt lat="45.74490105989391" lon="8.768975962341642"><ele>314.0</ele><time>2026-04-12T07:44:32.999Z</time></trkpt><trkpt lat="45.744859264725044" lon="8.769066592334102"><ele>314.0</ele><time>2026-04-12T07:44:35Z</time></trkpt><trkpt lat="45.7448174691839" lon="8.769136397088992"><ele>314.0</ele><time>2026-04-12T07:44:36.999Z</time></trkpt><trkpt lat="45.744806246670066" lon="8.769229983533341"><ele>314.0</ele><time>2026-04-12T07:44:39.999Z</time></trkpt><trkpt lat="45.74483710741416" lon="8.769340616764518"><ele>314.0</ele><time>2026-04-12T07:44:43.999Z</time></trkpt><trkpt lat="45.74479680306945" lon="8.76946956329558"><ele>314.0</ele><time>2026-04-12T07:44:46.999Z</time></trkpt><trkpt lat="45.74479543925676" lon="8.7695976911523"><ele>314.0</ele><time>2026-04-12T07:44:49.999Z</time></trkpt><trkpt lat="45.74481112960847" lon="8.769723151572737"><ele>314.5</ele><time>2026-04-12T07:44:52.999Z</time></trkpt><trkpt lat="45.74486496332212" lon="8.769788841565465"><ele>315.0</ele><time>2026-04-12T07:44:55.999Z</time></trkpt><trkpt lat="45.74492733843769" lon="8.769857887512124"><ele>315.5</ele><time>2026-04-12T07:44:58.999Z</time></trkpt><trkpt lat="45.744983253027556" lon="8.769910449224207"><ele>316.0</ele><time>2026-04-12T07:45:00.999Z</time></trkpt><trkpt lat="45.74505469505943" lon="8.769984851274645"><ele>316.5</ele><time>2026-04-12T07:45:02.999Z</time></trkpt><trkpt lat="45.74511030866325" lon="8.770048454985332"><ele>317.0</ele><time>2026-04-12T07:45:04.999Z</time></trkpt><trkpt lat="45.74518160305722" lon="8.770145252097203"><ele>318.0</ele><time>2026-04-12T07:45:06.999Z</time></trkpt><trkpt lat="45.7452638910667" lon="8.770200384469153"><ele>319.0</ele><time>2026-04-12T07:45:09.999Z</time></trkpt><trkpt lat="45.74536268972664" lon="8.770270855395701"><ele>320.0</ele><time>2026-04-12T07:45:12.999Z</time></trkpt><trkpt lat="45.7454214033568" lon="8.770324550796996"><ele>321.0</ele><time>2026-04-12T07:45:15.999Z</time></trkpt><trkpt lat="45.745461421722354" lon="8.770446062076367"><ele>322.0</ele><time>2026-04-12T07:45:17.999Z</time></trkpt><trkpt lat="45.74544751903291" lon="8.77053799851481"><ele>323.0</ele><time>2026-04-12T07:45:19.999Z</time></trkpt><trkpt lat="45.74539705141992" lon="8.770613792371753"><ele>323.0</ele><time>2026-04-12T07:45:21.999Z</time></trkpt><trkpt lat="45.74534758493692" lon="8.770724235440259"><ele>323.0</ele><time>2026-04-12T07:45:24.999Z</time></trkpt><trkpt lat="45.74531702365785" lon="8.770835345709719"><ele>323.0</ele><time>2026-04-12T07:45:26.999Z</time></trkpt><trkpt lat="45.7453022852258" lon="8.770959558669302"><ele>323.0</ele><time>2026-04-12T07:45:28.999Z</time></trkpt><trkpt lat="45.7452913491461" lon="8.771050735445378"><ele>323.0</ele><time>2026-04-12T07:45:30.999Z</time></trkpt><trkpt lat="45.74527090464086" lon="8.771167292552725"><ele>323.0</ele><time>2026-04-12T07:45:32.999Z</time></trkpt><trkpt lat="45.74525909981923" lon="8.771302473243681"><ele>323.0</ele><time>2026-04-12T07:45:34.999Z</time></trkpt><trkpt lat="45.74526903421349" lon="8.771431913734"><ele>323.0</ele><time>2026-04-12T07:45:36.999Z</time></trkpt><trkpt lat="45.745283010348224" lon="8.771555151020756"><ele>323.0</ele><time>2026-04-12T07:45:38.999Z</time></trkpt><trkpt lat="45.745295992561495" lon="8.771690581881046"><ele>323.0</ele><time>2026-04-12T07:45:40.999Z</time></trkpt><trkpt lat="45.745317076821806" lon="8.771834056586917"><ele>323.0</ele><time>2026-04-12T07:45:42.999Z</time></trkpt><trkpt lat="45.74532314707084" lon="8.771968422891023"><ele>323.0</ele><time>2026-04-12T07:45:44.999Z</time></trkpt><trkpt lat="45.745327092639855" lon="8.772124187133999"><ele>323.0</ele><time>2026-04-12T07:45:46.999Z</time></trkpt><trkpt lat="45.74533322108352" lon="8.772262778093912"><ele>323.0</ele><time>2026-04-12T07:45:48.999Z</time></trkpt><trkpt lat="45.74535055100508" lon="8.772350484534702"><ele>323.0</ele><time>2026-04-12T07:45:49.999Z</time></trkpt><trkpt lat="45.74540654900731" lon="8.772470839363734"><ele>323.0</ele><time>2026-04-12T07:45:51.998Z</time></trkpt><trkpt lat="45.745502998101415" lon="8.772627264270355"><ele>323.1666666666667</ele><time>2026-04-12T07:45:53.998Z</time></trkpt><trkpt lat="45.7455687555906" lon="8.772717814075493"><ele>323.33333333333337</ele><time>2026-04-12T07:45:55.998Z</time></trkpt><trkpt lat="45.74561863867702" lon="8.772782763090008"><ele>323.5</ele><time>2026-04-12T07:45:56.998Z</time></trkpt><trkpt lat="45.74569332513839" lon="8.772866662571538"><ele>323.6666666666667</ele><time>2026-04-12T07:45:58.998Z</time></trkpt><trkpt lat="45.74574880220565" lon="8.772958372565535"><ele>323.8333333333333</ele><time>2026-04-12T07:46:00.998Z</time></trkpt><trkpt lat="45.74578372847538" lon="8.773035824496933"><ele>324.0</ele><time>2026-04-12T07:46:01.998Z</time></trkpt><trkpt lat="45.74581411561358" lon="8.773190018109704"><ele>324.0</ele><time>2026-04-12T07:46:03.998Z</time></trkpt><trkpt lat="45.74582750050442" lon="8.773305612674143"><ele>324.0</ele><time>2026-04-12T07:46:05.998Z</time></trkpt><trkpt lat="45.74584319172247" lon="8.773427255384489"><ele>324.0</ele><time>2026-04-12T07:46:07.998Z</time></trkpt><trkpt lat="45.74583165696412" lon="8.773542593358679"><ele>324.0</ele><time>2026-04-12T07:46:09.998Z</time></trkpt><trkpt lat="45.74587178791868" lon="8.773613309433651"><ele>324.0</ele><time>2026-04-12T07:46:11.998Z</time></trkpt><trkpt lat="45.745899435752236" lon="8.773705450463956"><ele>324.0</ele><time>2026-04-12T07:46:14.998Z</time></trkpt><trkpt lat="45.7458537021587" lon="8.773795769153125"><ele>325.1666666666667</ele><time>2026-04-12T07:46:16.998Z</time></trkpt><trkpt lat="45.74582693573339" lon="8.77388215014746"><ele>326.3333333333333</ele><time>2026-04-12T07:46:19.998Z</time></trkpt><trkpt lat="45.74579438840757" lon="8.773987921442359"><ele>327.5</ele><time>2026-04-12T07:46:26.998Z</time></trkpt><trkpt lat="45.74575575507675" lon="8.774060066122718"><ele>328.66666666666663</ele><time>2026-04-12T07:46:28.999Z</time></trkpt><trkpt lat="45.74568861350154" lon="8.774130316558823"><ele>329.8333333333333</ele><time>2026-04-12T07:46:31.999Z</time></trkpt><trkpt lat="45.74563442109691" lon="8.774223860756923"><ele>331.0</ele><time>2026-04-12T07:46:34.999Z</time></trkpt><trkpt lat="45.74559630295235" lon="8.774330482675222"><ele>333.0</ele><time>2026-04-12T07:46:38.999Z</time></trkpt><trkpt lat="45.745626075471" lon="8.774431264472971"><ele>335.0</ele><time>2026-04-12T07:46:42.999Z</time></trkpt><trkpt lat="45.74565999029921" lon="8.774519562549765"><ele>337.0</ele><time>2026-04-12T07:46:46.999Z</time></trkpt><trkpt lat="45.74570735607594" lon="8.77460331913069"><ele>339.0</ele><time>2026-04-12T07:46:51.999Z</time></trkpt><trkpt lat="45.7457342871932" lon="8.77468499519831"><ele>341.0</ele><time>2026-04-12T07:46:56.999Z</time></trkpt><trkpt lat="45.74571221426163" lon="8.774789131048154"><ele>343.0</ele><time>2026-04-12T07:47:01.999Z</time></trkpt><trkpt lat="45.745710198162215" lon="8.774880006603363"><ele>345.0</ele><time>2026-04-12T07:47:04.999Z</time></trkpt><trkpt lat="45.745750400714" lon="8.774995883548952"><ele>345.0</ele><time>2026-04-12T07:47:08.999Z</time></trkpt><trkpt lat="45.74582119127897" lon="8.775060522306811"><ele>345.0</ele><time>2026-04-12T07:47:12.999Z</time></trkpt><trkpt lat="45.74588413933542" lon="8.775049539768506"><ele>345.0</ele><time>2026-04-12T07:47:20.999Z</time></trkpt><trkpt lat="45.7459122665507" lon="8.775142852585391"><ele>345.0</ele><time>2026-04-12T07:47:23.999Z</time></trkpt><trkpt lat="45.74596801567015" lon="8.775216992307428"><ele>345.0</ele><time>2026-04-12T07:47:28.999Z</time></trkpt><trkpt lat="45.74600074475183" lon="8.77529516527937"><ele>345.0</ele><time>2026-04-12T07:47:30.999Z</time></trkpt><trkpt lat="45.746082352367324" lon="8.775292838455531"><ele>345.0</ele><time>2026-04-12T07:47:35.999Z</time></trkpt><trkpt lat="45.746160667476076" lon="8.7752799393366"><ele>345.2</ele><time>2026-04-12T07:47:37.999Z</time></trkpt><trkpt lat="45.74625212393527" lon="8.775299198759972"><ele>345.4</ele><time>2026-04-12T07:47:39.999Z</time></trkpt><trkpt lat="45.74634877647977" lon="8.775345090201313"><ele>345.6</ele><time>2026-04-12T07:47:42.999Z</time></trkpt><trkpt lat="45.74639701666506" lon="8.775418990974506"><ele>345.8</ele><time>2026-04-12T07:47:46.999Z</time></trkpt><trkpt lat="45.74639202965445" lon="8.775565895259858"><ele>346.0</ele><time>2026-04-12T07:47:51.998Z</time></trkpt><trkpt lat="45.74632267422925" lon="8.775633261553267"><ele>346.0</ele><time>2026-04-12T07:47:53.998Z</time></trkpt><trkpt lat="45.74623792707006" lon="8.77572501486528"><ele>346.0</ele><time>2026-04-12T07:47:56.998Z</time></trkpt><trkpt lat="45.746175137958964" lon="8.775800329110828"><ele>346.0</ele><time>2026-04-12T07:47:58.998Z</time></trkpt><trkpt lat="45.7461456347494" lon="8.775885013110704"><ele>346.0</ele><time>2026-04-12T07:48:00.998Z</time></trkpt><trkpt lat="45.746180934240286" lon="8.775981183594205"><ele>346.0</ele><time>2026-04-12T07:48:02.998Z</time></trkpt><trkpt lat="45.74624949381564" lon="8.776039430868494"><ele>346.0</ele><time>2026-04-12T07:48:04.998Z</time></trkpt><trkpt lat="45.74631241825877" lon="8.776101235937475"><ele>346.5</ele><time>2026-04-12T07:48:06.998Z</time></trkpt><trkpt lat="45.746390397633526" lon="8.77618826368389"><ele>347.0</ele><time>2026-04-12T07:48:08.998Z</time></trkpt><trkpt lat="45.74646897032115" lon="8.776247009384637"><ele>347.5</ele><time>2026-04-12T07:48:10.998Z</time></trkpt><trkpt lat="45.74653253401723" lon="8.776307689458932"><ele>348.0</ele><time>2026-04-12T07:48:12.998Z</time></trkpt><trkpt lat="45.746601527770935" lon="8.77637319400188"><ele>348.5</ele><time>2026-04-12T07:48:14.998Z</time></trkpt><trkpt lat="45.74665739729909" lon="8.776441801904939"><ele>349.0</ele><time>2026-04-12T07:48:16.998Z</time></trkpt><trkpt lat="45.74672513930067" lon="8.776528312636243"><ele>349.0</ele><time>2026-04-12T07:48:19.998Z</time></trkpt><trkpt lat="45.74678546352024" lon="8.776580123514629"><ele>349.0</ele><time>2026-04-12T07:48:21.998Z</time></trkpt><trkpt lat="45.74684627136482" lon="8.77662299663322"><ele>349.0</ele><time>2026-04-12T07:48:24.998Z</time></trkpt><trkpt lat="45.746898513211015" lon="8.776686868751915"><ele>349.0</ele><time>2026-04-12T07:48:27.998Z</time></trkpt><trkpt lat="45.74696512887695" lon="8.776757199623379"><ele>349.0</ele><time>2026-04-12T07:48:30.998Z</time></trkpt><trkpt lat="45.74704890711134" lon="8.776829098508015"><ele>349.0</ele><time>2026-04-12T07:48:33.999Z</time></trkpt><trkpt lat="45.74712169359039" lon="8.77689268267512"><ele>349.0</ele><time>2026-04-12T07:48:35.999Z</time></trkpt><trkpt lat="45.74718203787736" lon="8.776863217735672"><ele>349.0</ele><time>2026-04-12T07:48:38.999Z</time></trkpt><trkpt lat="45.74724010769777" lon="8.776763381719702"><ele>349.0</ele><time>2026-04-12T07:48:41.999Z</time></trkpt><trkpt lat="45.747269075552886" lon="8.776672855292203"><ele>349.0</ele><time>2026-04-12T07:48:43.999Z</time></trkpt><trkpt lat="45.74731111602579" lon="8.776550514858975"><ele>349.0</ele><time>2026-04-12T07:48:47Z</time></trkpt><trkpt lat="45.74734528857986" lon="8.776436942002015"><ele>349.0</ele><time>2026-04-12T07:48:50Z</time></trkpt><trkpt lat="45.74739199924648" lon="8.776307307163897"><ele>349.0</ele><time>2026-04-12T07:48:52.999Z</time></trkpt><trkpt lat="45.74742095823527" lon="8.776209275203486"><ele>349.0</ele><time>2026-04-12T07:48:54.999Z</time></trkpt><trkpt lat="45.74746002070237" lon="8.776074387754901"><ele>349.0</ele><time>2026-04-12T07:48:56.999Z</time></trkpt><trkpt lat="45.74750696369949" lon="8.775912569490677"><ele>349.0</ele><time>2026-04-12T07:48:58.999Z</time></trkpt><trkpt lat="45.74755293637655" lon="8.775734039028105"><ele>349.0</ele><time>2026-04-12T07:49:00.999Z</time></trkpt><trkpt lat="45.74757353937518" lon="8.77563497923903"><ele>348.5</ele><time>2026-04-12T07:49:01.999Z</time></trkpt><trkpt lat="45.747592462068035" lon="8.775541865303238"><ele>348.0</ele><time>2026-04-12T07:49:02.999Z</time></trkpt><trkpt lat="45.74762081321003" lon="8.77542717009087"><ele>347.5</ele><time>2026-04-12T07:49:03.999Z</time></trkpt><trkpt lat="45.747638915494264" lon="8.775332093464442"><ele>347.0</ele><time>2026-04-12T07:49:04.999Z</time></trkpt><trkpt lat="45.74766667456464" lon="8.77521991458472"><ele>346.5</ele><time>2026-04-12T07:49:05.999Z</time></trkpt><trkpt lat="45.74770004714719" lon="8.775095635789457"><ele>346.0</ele><time>2026-04-12T07:49:06.999Z</time></trkpt><trkpt lat="45.74772247250836" lon="8.774979600187406"><ele>345.66666666666663</ele><time>2026-04-12T07:49:07.999Z</time></trkpt><trkpt lat="45.74775299432684" lon="8.77485540192556"><ele>345.3333333333333</ele><time>2026-04-12T07:49:08.999Z</time></trkpt><trkpt lat="45.74776981279676" lon="8.774738700289046"><ele>345.0</ele><time>2026-04-12T07:49:09.999Z</time></trkpt><trkpt lat="45.74779668299303" lon="8.774610322481015"><ele>344.6666666666667</ele><time>2026-04-12T07:49:10.999Z</time></trkpt><trkpt lat="45.74781848543413" lon="8.77448559724969"><ele>344.33333333333337</ele><time>2026-04-12T07:49:11.999Z</time></trkpt><trkpt lat="45.74784755030458" lon="8.774365807551263"><ele>344.0</ele><time>2026-04-12T07:49:12.999Z</time></trkpt><trkpt lat="45.74787666879332" lon="8.77423736885532"><ele>343.1666666666667</ele><time>2026-04-12T07:49:13.999Z</time></trkpt><trkpt lat="45.74789539048696" lon="8.774121664888563"><ele>342.33333333333337</ele><time>2026-04-12T07:49:14.999Z</time></trkpt><trkpt lat="45.74791805972915" lon="8.774007493932983"><ele>341.5</ele><time>2026-04-12T07:49:15.999Z</time></trkpt><trkpt lat="45.74793939700322" lon="8.773906876851942"><ele>340.6666666666667</ele><time>2026-04-12T07:49:16.999Z</time></trkpt><trkpt lat="45.74796332465914" lon="8.773803548012815"><ele>339.8333333333333</ele><time>2026-04-12T07:49:17.999Z</time></trkpt><trkpt lat="45.747984207740224" lon="8.773694375140646"><ele>339.0</ele><time>2026-04-12T07:49:18.999Z</time></trkpt><trkpt lat="45.74801288309137" lon="8.773564120219808"><ele>338.3333333333333</ele><time>2026-04-12T07:49:19.999Z</time></trkpt><trkpt lat="45.74802314670263" lon="8.773471687874185"><ele>337.6666666666667</ele><time>2026-04-12T07:49:20.999Z</time></trkpt><trkpt lat="45.74804494541663" lon="8.773375009345017"><ele>337.0</ele><time>2026-04-12T07:49:21.999Z</time></trkpt><trkpt lat="45.74806894000281" lon="8.773267240387353"><ele>336.33333333333337</ele><time>2026-04-12T07:49:22.999Z</time></trkpt><trkpt lat="45.748087605746086" lon="8.773164940695894"><ele>335.6666666666667</ele><time>2026-04-12T07:49:23.999Z</time></trkpt><trkpt lat="45.74810840317343" lon="8.773050378877"><ele>335.0</ele><time>2026-04-12T07:49:24.999Z</time></trkpt><trkpt lat="45.74812385817428" lon="8.772935039758794"><ele>335.0</ele><time>2026-04-12T07:49:25.999Z</time></trkpt><trkpt lat="45.74815798546597" lon="8.772815768938061"><ele>335.0</ele><time>2026-04-12T07:49:26.999Z</time></trkpt><trkpt lat="45.74817685276535" lon="8.772718481112248"><ele>335.0</ele><time>2026-04-12T07:49:27.999Z</time></trkpt><trkpt lat="45.74820142979671" lon="8.772623516916108"><ele>335.0</ele><time>2026-04-12T07:49:28.999Z</time></trkpt><trkpt lat="45.74828866841789" lon="8.772512825124354"><ele>335.0</ele><time>2026-04-12T07:49:30.999Z</time></trkpt><trkpt lat="45.74841081435279" lon="8.772549757184276"><ele>334.5</ele><time>2026-04-12T07:49:32.999Z</time></trkpt><trkpt lat="45.74846963430162" lon="8.772584755800493"><ele>334.0</ele><time>2026-04-12T07:49:33.999Z</time></trkpt><trkpt lat="45.7485308279144" lon="8.772608317675097"><ele>333.5</ele><time>2026-04-12T07:49:34.999Z</time></trkpt><trkpt lat="45.748596779871995" lon="8.772609453874006"><ele>333.0</ele><time>2026-04-12T07:49:35.999Z</time></trkpt><trkpt lat="45.748723111242484" lon="8.772660596889951"><ele>332.5</ele><time>2026-04-12T07:49:37.999Z</time></trkpt><trkpt lat="45.74879125847009" lon="8.772708593372645"><ele>332.0</ele><time>2026-04-12T07:49:38.999Z</time></trkpt><trkpt lat="45.748863722366316" lon="8.772737322777335"><ele>332.0</ele><time>2026-04-12T07:49:39.999Z</time></trkpt><trkpt lat="45.74894721883111" lon="8.772770525709863"><ele>332.0</ele><time>2026-04-12T07:49:40.999Z</time></trkpt><trkpt lat="45.74902852231415" lon="8.772781485243737"><ele>332.0</ele><time>2026-04-12T07:49:41.999Z</time></trkpt><trkpt lat="45.749112107205406" lon="8.772825199591882"><ele>332.0</ele><time>2026-04-12T07:49:42.999Z</time></trkpt><trkpt lat="45.74919648583648" lon="8.772858562388878"><ele>332.0</ele><time>2026-04-12T07:49:43.999Z</time></trkpt><trkpt lat="45.749284323198914" lon="8.772895513757666"><ele>332.0</ele><time>2026-04-12T07:49:44.999Z</time></trkpt><trkpt lat="45.74936554056808" lon="8.772935746563174"><ele>330.20000000000005</ele><time>2026-04-12T07:49:45.999Z</time></trkpt><trkpt lat="45.74944998141037" lon="8.77297986846712"><ele>328.4</ele><time>2026-04-12T07:49:46.999Z</time></trkpt><trkpt lat="45.749538347594125" lon="8.773027811383976"><ele>326.6</ele><time>2026-04-12T07:49:47.999Z</time></trkpt><trkpt lat="45.74961991876654" lon="8.77305999491905"><ele>324.79999999999995</ele><time>2026-04-12T07:49:48.999Z</time></trkpt><trkpt lat="45.749709777140154" lon="8.773093176088624"><ele>323.0</ele><time>2026-04-12T07:49:49.999Z</time></trkpt><trkpt lat="45.7497987207194" lon="8.773130249047979"><ele>323.0</ele><time>2026-04-12T07:49:50.999Z</time></trkpt><trkpt lat="45.74987926601831" lon="8.773176885483993"><ele>323.0</ele><time>2026-04-12T07:49:51.999Z</time></trkpt><trkpt lat="45.7499636275826" lon="8.773219409347154"><ele>323.0</ele><time>2026-04-12T07:49:52.999Z</time></trkpt><trkpt lat="45.75004405912828" lon="8.77325025951832"><ele>323.0</ele><time>2026-04-12T07:49:53.999Z</time></trkpt><trkpt lat="45.75012843937072" lon="8.773279996219053"><ele>323.0</ele><time>2026-04-12T07:49:54.999Z</time></trkpt><trkpt lat="45.750208667213435" lon="8.773309498916344"><ele>323.0</ele><time>2026-04-12T07:49:55.999Z</time></trkpt><trkpt lat="45.750286536216485" lon="8.773341263373364"><ele>322.33333333333337</ele><time>2026-04-12T07:49:56.999Z</time></trkpt><trkpt lat="45.750367610453694" lon="8.773365550672175"><ele>321.6666666666667</ele><time>2026-04-12T07:49:57.999Z</time></trkpt><trkpt lat="45.750454033909435" lon="8.773401370680112"><ele>321.0</ele><time>2026-04-12T07:49:58.999Z</time></trkpt><trkpt lat="45.750543927675885" lon="8.77344570872864"><ele>320.3333333333333</ele><time>2026-04-12T07:49:59.999Z</time></trkpt><trkpt lat="45.750620556847856" lon="8.773470441688902"><ele>319.66666666666663</ele><time>2026-04-12T07:50:00.999Z</time></trkpt><trkpt lat="45.75069605733274" lon="8.773487440418588"><ele>319.0</ele><time>2026-04-12T07:50:01.999Z</time></trkpt><trkpt lat="45.75077954973684" lon="8.773511457468699"><ele>319.66666666666663</ele><time>2026-04-12T07:50:02.999Z</time></trkpt><trkpt lat="45.75085908201729" lon="8.77352525908189"><ele>320.3333333333333</ele><time>2026-04-12T07:50:03.999Z</time></trkpt><trkpt lat="45.75093239818832" lon="8.773545542233457"><ele>321.0</ele><time>2026-04-12T07:50:04.999Z</time></trkpt><trkpt lat="45.751001370665634" lon="8.773569764190274"><ele>321.6666666666667</ele><time>2026-04-12T07:50:05.999Z</time></trkpt><trkpt lat="45.75106935199076" lon="8.773607837343032"><ele>322.33333333333337</ele><time>2026-04-12T07:50:06.999Z</time></trkpt><trkpt lat="45.7511325386754" lon="8.773656985423004"><ele>323.0</ele><time>2026-04-12T07:50:07.998Z</time></trkpt><trkpt lat="45.751224082606996" lon="8.773757355525678"><ele>323.0</ele><time>2026-04-12T07:50:09.998Z</time></trkpt><trkpt lat="45.75131682423541" lon="8.77382077012741"><ele>323.0</ele><time>2026-04-12T07:50:10.998Z</time></trkpt><trkpt lat="45.75137525067087" lon="8.773873065928983"><ele>323.0</ele><time>2026-04-12T07:50:11.998Z</time></trkpt><trkpt lat="45.75140958709385" lon="8.773952456577373"><ele>323.0</ele><time>2026-04-12T07:50:12.998Z</time></trkpt><trkpt lat="45.75149825931568" lon="8.774041246389329"><ele>323.0</ele><time>2026-04-12T07:50:14.998Z</time></trkpt><trkpt lat="45.75157377519328" lon="8.774119605891016"><ele>323.0</ele><time>2026-04-12T07:50:16.998Z</time></trkpt><trkpt lat="45.75165639792504" lon="8.774222317828455"><ele>323.0</ele><time>2026-04-12T07:50:18.998Z</time></trkpt><trkpt lat="45.751762892520766" lon="8.774323881563243"><ele>323.0</ele><time>2026-04-12T07:50:20.998Z</time></trkpt><trkpt lat="45.751823430619496" lon="8.774389275674405"><ele>323.0</ele><time>2026-04-12T07:50:21.998Z</time></trkpt><trkpt lat="45.751885149532605" lon="8.77445123934427"><ele>323.0</ele><time>2026-04-12T07:50:22.998Z</time></trkpt><trkpt lat="45.75192816837634" lon="8.774544986368694"><ele>323.0</ele><time>2026-04-12T07:50:23.998Z</time></trkpt><trkpt lat="45.7519897421262" lon="8.774609769406155"><ele>323.0</ele><time>2026-04-12T07:50:24.998Z</time></trkpt><trkpt lat="45.752049272101125" lon="8.77466312332485"><ele>323.0</ele><time>2026-04-12T07:50:25.998Z</time></trkpt><trkpt lat="45.75211051103233" lon="8.774714976066841"><ele>323.0</ele><time>2026-04-12T07:50:26.998Z</time></trkpt><trkpt lat="45.75217382512802" lon="8.774761172133498"><ele>323.0</ele><time>2026-04-12T07:50:27.998Z</time></trkpt><trkpt lat="45.75228930987136" lon="8.774838241093661"><ele>323.0</ele><time>2026-04-12T07:50:29.998Z</time></trkpt><trkpt lat="45.75235747987365" lon="8.774873212072848"><ele>323.0</ele><time>2026-04-12T07:50:30.998Z</time></trkpt><trkpt lat="45.75241777302452" lon="8.774929903182917"><ele>323.0</ele><time>2026-04-12T07:50:31.998Z</time></trkpt><trkpt lat="45.752479871688735" lon="8.774963343153999"><ele>323.0</ele><time>2026-04-12T07:50:32.998Z</time></trkpt><trkpt lat="45.75259762571099" lon="8.775026732661257"><ele>323.0</ele><time>2026-04-12T07:50:34.998Z</time></trkpt><trkpt lat="45.75271219500024" lon="8.775088288428037"><ele>323.0</ele><time>2026-04-12T07:50:36.998Z</time></trkpt><trkpt lat="45.75277733779162" lon="8.775123288356827"><ele>323.0</ele><time>2026-04-12T07:50:37.998Z</time></trkpt><trkpt lat="45.752842589010676" lon="8.775158346557786"><ele>323.0</ele><time>2026-04-12T07:50:38.998Z</time></trkpt><trkpt lat="45.752917076388606" lon="8.775198367139474"><ele>324.59999999999997</ele><time>2026-04-12T07:50:39.999Z</time></trkpt><trkpt lat="45.75303393830776" lon="8.775261262745062"><ele>326.2</ele><time>2026-04-12T07:50:41.999Z</time></trkpt><trkpt lat="45.753094810556185" lon="8.775295526427914"><ele>327.8</ele><time>2026-04-12T07:50:42.999Z</time></trkpt><trkpt lat="45.75315723534961" lon="8.775330663991571"><ele>329.4</ele><time>2026-04-12T07:50:43.999Z</time></trkpt><trkpt lat="45.753271767390494" lon="8.775395131640048"><ele>331.0</ele><time>2026-04-12T07:50:45.999Z</time></trkpt><trkpt lat="45.75334661869169" lon="8.775414504887262"><ele>331.0</ele><time>2026-04-12T07:50:46.999Z</time></trkpt><trkpt lat="45.75340400568962" lon="8.775476727380294"><ele>331.0</ele><time>2026-04-12T07:50:47.999Z</time></trkpt><trkpt lat="45.75346334712505" lon="8.775519888523181"><ele>331.0</ele><time>2026-04-12T07:50:48.999Z</time></trkpt><trkpt lat="45.7535214899505" lon="8.775558604263566"><ele>331.0</ele><time>2026-04-12T07:50:49.999Z</time></trkpt><trkpt lat="45.753630873151764" lon="8.775625493300948"><ele>331.0</ele><time>2026-04-12T07:50:51.999Z</time></trkpt><trkpt lat="45.753690683232854" lon="8.775657358416916"><ele>331.0</ele><time>2026-04-12T07:50:52.999Z</time></trkpt><trkpt lat="45.753809995674" lon="8.775710785888515"><ele>330.0</ele><time>2026-04-12T07:50:54.999Z</time></trkpt><trkpt lat="45.7539209632024" lon="8.77575351496681"><ele>329.0</ele><time>2026-04-12T07:50:56.999Z</time></trkpt><trkpt lat="45.75403254787847" lon="8.775813314363472"><ele>328.0</ele><time>2026-04-12T07:50:58.999Z</time></trkpt><trkpt lat="45.754153007528714" lon="8.775893294860282"><ele>327.0</ele><time>2026-04-12T07:51:00.999Z</time></trkpt><trkpt lat="45.75421392171129" lon="8.775933064397769"><ele>326.0</ele><time>2026-04-12T07:51:01.999Z</time></trkpt><trkpt lat="45.7543318124743" lon="8.776014734212513"><ele>327.5714285714286</ele><time>2026-04-12T07:51:03.999Z</time></trkpt><trkpt lat="45.75439474014433" lon="8.776052330945278"><ele>329.1428571428571</ele><time>2026-04-12T07:51:04.998Z</time></trkpt><trkpt lat="45.75446416395669" lon="8.776084754234827"><ele>330.7142857142857</ele><time>2026-04-12T07:51:05.998Z</time></trkpt><trkpt lat="45.75453141404718" lon="8.77613615143747"><ele>332.28571428571433</ele><time>2026-04-12T07:51:06.998Z</time></trkpt><trkpt lat="45.7546073941169" lon="8.776161314808604"><ele>333.8571428571429</ele><time>2026-04-12T07:51:07.998Z</time></trkpt><trkpt lat="45.75467628590825" lon="8.776176002625196"><ele>335.42857142857144</ele><time>2026-04-12T07:51:08.998Z</time></trkpt><trkpt lat="45.75475436060924" lon="8.776182748661737"><ele>337.0</ele><time>2026-04-12T07:51:09.998Z</time></trkpt><trkpt lat="45.75482198891029" lon="8.77617571657"><ele>337.0</ele><time>2026-04-12T07:51:10.998Z</time></trkpt><trkpt lat="45.7549032919127" lon="8.77615638909099"><ele>337.0</ele><time>2026-04-12T07:51:11.998Z</time></trkpt><trkpt lat="45.75497987086166" lon="8.776123169120998"><ele>337.0</ele><time>2026-04-12T07:51:12.998Z</time></trkpt><trkpt lat="45.75505698282067" lon="8.776068528924343"><ele>337.0</ele><time>2026-04-12T07:51:13.998Z</time></trkpt><trkpt lat="45.75512380875044" lon="8.775997718739921"><ele>337.0</ele><time>2026-04-12T07:51:14.998Z</time></trkpt><trkpt lat="45.75517047808754" lon="8.775929909742896"><ele>337.0</ele><time>2026-04-12T07:51:15.998Z</time></trkpt><trkpt lat="45.75525039342692" lon="8.775807159657013"><ele>334.5714285714286</ele><time>2026-04-12T07:51:17.998Z</time></trkpt><trkpt lat="45.75529417022749" lon="8.775740157666007"><ele>332.14285714285717</ele><time>2026-04-12T07:51:18.998Z</time></trkpt><trkpt lat="45.755327366165936" lon="8.775659925563358"><ele>329.7142857142857</ele><time>2026-04-12T07:51:19.998Z</time></trkpt><trkpt lat="45.755382671831185" lon="8.775612928441113"><ele>327.28571428571433</ele><time>2026-04-12T07:51:20.998Z</time></trkpt><trkpt lat="45.75542882996049" lon="8.7755506016254"><ele>324.8571428571429</ele><time>2026-04-12T07:51:21.998Z</time></trkpt><trkpt lat="45.75547569712743" lon="8.775483297245422"><ele>322.42857142857144</ele><time>2026-04-12T07:51:22.998Z</time></trkpt><trkpt lat="45.7555243796904" lon="8.775408839022635"><ele>320.0</ele><time>2026-04-12T07:51:23.998Z</time></trkpt><trkpt lat="45.75557022754178" lon="8.775335134683317"><ele>320.0</ele><time>2026-04-12T07:51:24.998Z</time></trkpt><trkpt lat="45.75561491202575" lon="8.775242421475465"><ele>320.0</ele><time>2026-04-12T07:51:25.998Z</time></trkpt><trkpt lat="45.75564699067209" lon="8.775156661685042"><ele>320.0</ele><time>2026-04-12T07:51:26.998Z</time></trkpt><trkpt lat="45.75567858931286" lon="8.775055679083726"><ele>320.0</ele><time>2026-04-12T07:51:27.998Z</time></trkpt><trkpt lat="45.7557141509492" lon="8.774950004874126"><ele>320.0</ele><time>2026-04-12T07:51:28.998Z</time></trkpt><trkpt lat="45.75575906118082" lon="8.774850588887004"><ele>320.0</ele><time>2026-04-12T07:51:29.998Z</time></trkpt><trkpt lat="45.75580548547796" lon="8.774766277627515"><ele>319.1666666666667</ele><time>2026-04-12T07:51:30.998Z</time></trkpt><trkpt lat="45.755862887879886" lon="8.774675793898632"><ele>318.33333333333337</ele><time>2026-04-12T07:51:31.998Z</time></trkpt><trkpt lat="45.75591382802322" lon="8.774597548942555"><ele>317.5</ele><time>2026-04-12T07:51:32.998Z</time></trkpt><trkpt lat="45.755971301491826" lon="8.77451308574769"><ele>316.6666666666667</ele><time>2026-04-12T07:51:33.998Z</time></trkpt><trkpt lat="45.75603336530659" lon="8.77443236108764"><ele>315.8333333333333</ele><time>2026-04-12T07:51:34.998Z</time></trkpt><trkpt lat="45.75608736259685" lon="8.774350287131789"><ele>315.0</ele><time>2026-04-12T07:51:35.998Z</time></trkpt><trkpt lat="45.756145491658145" lon="8.774263419917988"><ele>314.1666666666667</ele><time>2026-04-12T07:51:36.998Z</time></trkpt><trkpt lat="45.75619868670216" lon="8.774181766527729"><ele>313.3333333333333</ele><time>2026-04-12T07:51:37.998Z</time></trkpt><trkpt lat="45.756255148692325" lon="8.774091578134815"><ele>312.5</ele><time>2026-04-12T07:51:38.998Z</time></trkpt><trkpt lat="45.75630581117534" lon="8.774004038734455"><ele>311.66666666666663</ele><time>2026-04-12T07:51:39.998Z</time></trkpt><trkpt lat="45.75635860993841" lon="8.773916851015137"><ele>310.8333333333333</ele><time>2026-04-12T07:51:40.998Z</time></trkpt><trkpt lat="45.7564127878818" lon="8.773830680431077"><ele>310.0</ele><time>2026-04-12T07:51:41.998Z</time></trkpt><trkpt lat="45.75646122712028" lon="8.773749038036012"><ele>310.0</ele><time>2026-04-12T07:51:42.998Z</time></trkpt><trkpt lat="45.75651137090938" lon="8.773670266370297"><ele>310.0</ele><time>2026-04-12T07:51:43.998Z</time></trkpt><trkpt lat="45.75656059697218" lon="8.77359499446886"><ele>310.0</ele><time>2026-04-12T07:51:44.998Z</time></trkpt><trkpt lat="45.75661031078931" lon="8.773519405779679"><ele>310.0</ele><time>2026-04-12T07:51:45.998Z</time></trkpt><trkpt lat="45.75665387708315" lon="8.773445995980932"><ele>310.0</ele><time>2026-04-12T07:51:46.998Z</time></trkpt><trkpt lat="45.756699348061325" lon="8.77337077761286"><ele>310.0</ele><time>2026-04-12T07:51:47.998Z</time></trkpt><trkpt lat="45.756749273409895" lon="8.773299667003634"><ele>310.0</ele><time>2026-04-12T07:51:48.998Z</time></trkpt><trkpt lat="45.75684102432428" lon="8.773165936857392"><ele>311.5</ele><time>2026-04-12T07:51:50.998Z</time></trkpt><trkpt lat="45.756893517490354" lon="8.773102882072655"><ele>313.0</ele><time>2026-04-12T07:51:51.998Z</time></trkpt><trkpt lat="45.756945908638905" lon="8.77304626876623"><ele>314.5</ele><time>2026-04-12T07:51:52.998Z</time></trkpt><trkpt lat="45.75700210776848" lon="8.772993582952981"><ele>316.0</ele><time>2026-04-12T07:51:53.998Z</time></trkpt><trkpt lat="45.75709246374257" lon="8.772901290461677"><ele>317.5</ele><time>2026-04-12T07:51:55.998Z</time></trkpt><trkpt lat="45.757184044889996" lon="8.772839503408212"><ele>319.0</ele><time>2026-04-12T07:51:57.998Z</time></trkpt><trkpt lat="45.7572773659062" lon="8.77278839678245"><ele>319.0</ele><time>2026-04-12T07:51:59.998Z</time></trkpt><trkpt lat="45.75736353161903" lon="8.772733338562743"><ele>319.0</ele><time>2026-04-12T07:52:01.998Z</time></trkpt><trkpt lat="45.757462409092405" lon="8.772702229457053"><ele>319.0</ele><time>2026-04-12T07:52:03.998Z</time></trkpt><trkpt lat="45.75755722804569" lon="8.772722532562895"><ele>319.0</ele><time>2026-04-12T07:52:05.998Z</time></trkpt><trkpt lat="45.757620438641396" lon="8.77277054076482"><ele>319.0</ele><time>2026-04-12T07:52:07.998Z</time></trkpt><trkpt lat="45.757711785175175" lon="8.772803286813367"><ele>319.6</ele><time>2026-04-12T07:52:09.997Z</time></trkpt><trkpt lat="45.75779842807302" lon="8.772834346448729"><ele>320.2</ele><time>2026-04-12T07:52:11.996Z</time></trkpt><trkpt lat="45.757888860350945" lon="8.772865323099353"><ele>320.8</ele><time>2026-04-12T07:52:13.995Z</time></trkpt><trkpt lat="45.75797943001352" lon="8.772900753528077"><ele>321.40000000000003</ele><time>2026-04-12T07:52:15.993Z</time></trkpt><trkpt lat="45.758068887387005" lon="8.772935773293835"><ele>322.0</ele><time>2026-04-12T07:52:17.992Z</time></trkpt><trkpt lat="45.75815708981016" lon="8.772948704818399"><ele>322.0</ele><time>2026-04-12T07:52:19.992Z</time></trkpt><trkpt lat="45.75824875225671" lon="8.77298448915356"><ele>322.0</ele><time>2026-04-12T07:52:21.991Z</time></trkpt><trkpt lat="45.758339879091764" lon="8.773028405642002"><ele>322.0</ele><time>2026-04-12T07:52:23.99Z</time></trkpt><trkpt lat="45.758430495172576" lon="8.773075602914622"><ele>322.0</ele><time>2026-04-12T07:52:25.989Z</time></trkpt><trkpt lat="45.758518407408275" lon="8.77308806183745"><ele>322.0</ele><time>2026-04-12T07:52:27.989Z</time></trkpt><trkpt lat="45.75860167594764" lon="8.773079655202038"><ele>322.5</ele><time>2026-04-12T07:52:29.988Z</time></trkpt><trkpt lat="45.75868945605938" lon="8.773057254009833"><ele>323.0</ele><time>2026-04-12T07:52:31.988Z</time></trkpt><trkpt lat="45.75876482275765" lon="8.773006069386499"><ele>323.5</ele><time>2026-04-12T07:52:33.988Z</time></trkpt><trkpt lat="45.758825083425755" lon="8.772916458524769"><ele>324.0</ele><time>2026-04-12T07:52:35.987Z</time></trkpt><trkpt lat="45.75888684237739" lon="8.77281418662927"><ele>324.5</ele><time>2026-04-12T07:52:37.987Z</time></trkpt><trkpt lat="45.758945541845975" lon="8.772714212324802"><ele>325.0</ele><time>2026-04-12T07:52:39.987Z</time></trkpt><trkpt lat="45.758992487443635" lon="8.77261657426289"><ele>325.0</ele><time>2026-04-12T07:52:41.986Z</time></trkpt><trkpt lat="45.759042707509266" lon="8.77252720639977"><ele>325.0</ele><time>2026-04-12T07:52:43.986Z</time></trkpt><trkpt lat="45.759087809337665" lon="8.772433652931356"><ele>325.0</ele><time>2026-04-12T07:52:45.988Z</time></trkpt><trkpt lat="45.75914043829972" lon="8.772320429244369"><ele>325.0</ele><time>2026-04-12T07:52:47.988Z</time></trkpt><trkpt lat="45.75919572259528" lon="8.772211892901888"><ele>325.0</ele><time>2026-04-12T07:52:49.987Z</time></trkpt><trkpt lat="45.75925678036498" lon="8.772106312981164"><ele>325.0</ele><time>2026-04-12T07:52:51.988Z</time></trkpt><trkpt lat="45.759320454719564" lon="8.771995282869305"><ele>325.4</ele><time>2026-04-12T07:52:53.987Z</time></trkpt><trkpt lat="45.759374080479844" lon="8.771890899805115"><ele>325.8</ele><time>2026-04-12T07:52:55.987Z</time></trkpt><trkpt lat="45.759431181848846" lon="8.771765035940964"><ele>326.20000000000005</ele><time>2026-04-12T07:52:57.987Z</time></trkpt><trkpt lat="45.75949908249934" lon="8.771633914961667"><ele>326.6</ele><time>2026-04-12T07:52:59.987Z</time></trkpt><trkpt lat="45.75956229226567" lon="8.771524766908254"><ele>327.0</ele><time>2026-04-12T07:53:01.987Z</time></trkpt><trkpt lat="45.7596135989739" lon="8.771421121093578"><ele>327.0</ele><time>2026-04-12T07:53:03.987Z</time></trkpt><trkpt lat="45.759662356238806" lon="8.771331250713393"><ele>327.0</ele><time>2026-04-12T07:53:05.987Z</time></trkpt><trkpt lat="45.759718235644044" lon="8.771214325419653"><ele>327.0</ele><time>2026-04-12T07:53:07.987Z</time></trkpt><trkpt lat="45.75979516459384" lon="8.771124269103138"><ele>327.0</ele><time>2026-04-12T07:53:09.987Z</time></trkpt><trkpt lat="45.759858237363964" lon="8.771020084091687"><ele>327.0</ele><time>2026-04-12T07:53:11.987Z</time></trkpt><trkpt lat="45.75989571739442" lon="8.770888298537118"><ele>326.6</ele><time>2026-04-12T07:53:13.987Z</time></trkpt><trkpt lat="45.759874099393286" lon="8.770748709647172"><ele>326.20000000000005</ele><time>2026-04-12T07:53:15.987Z</time></trkpt><trkpt lat="45.75982628815529" lon="8.770611924869598"><ele>325.8</ele><time>2026-04-12T07:53:17.987Z</time></trkpt><trkpt lat="45.75977820561574" lon="8.770471034353992"><ele>325.4</ele><time>2026-04-12T07:53:19.987Z</time></trkpt><trkpt lat="45.75973344658484" lon="8.770343335874337"><ele>325.0</ele><time>2026-04-12T07:53:21.987Z</time></trkpt><trkpt lat="45.75969055068725" lon="8.770210849649708"><ele>324.66666666666663</ele><time>2026-04-12T07:53:23.987Z</time></trkpt><trkpt lat="45.75965338321539" lon="8.770087161582374"><ele>324.3333333333333</ele><time>2026-04-12T07:53:25.986Z</time></trkpt><trkpt lat="45.75961858334527" lon="8.769989101635495"><ele>324.0</ele><time>2026-04-12T07:53:27.986Z</time></trkpt><trkpt lat="45.759606408196646" lon="8.769886864227002"><ele>323.6666666666667</ele><time>2026-04-12T07:53:29.986Z</time></trkpt><trkpt lat="45.759644274466915" lon="8.76977461145351"><ele>323.33333333333337</ele><time>2026-04-12T07:53:31.986Z</time></trkpt><trkpt lat="45.75968113220188" lon="8.76965249196865"><ele>323.0</ele><time>2026-04-12T07:53:33.986Z</time></trkpt><trkpt lat="45.75972324936517" lon="8.769520359180206"><ele>323.0</ele><time>2026-04-12T07:53:35.986Z</time></trkpt><trkpt lat="45.7597712819653" lon="8.769459472160893"><ele>323.0</ele><time>2026-04-12T07:53:36.986Z</time></trkpt><trkpt lat="45.75982774299035" lon="8.769342431697947"><ele>323.0</ele><time>2026-04-12T07:53:38.986Z</time></trkpt><trkpt lat="45.75989234314134" lon="8.769201976545412"><ele>323.0</ele><time>2026-04-12T07:53:40.986Z</time></trkpt><trkpt lat="45.75994837429653" lon="8.76906285954377"><ele>323.0</ele><time>2026-04-12T07:53:42.986Z</time></trkpt><trkpt lat="45.75998953044708" lon="8.768941820857357"><ele>322.75</ele><time>2026-04-12T07:53:44.986Z</time></trkpt><trkpt lat="45.76003544052001" lon="8.768777303361029"><ele>322.5</ele><time>2026-04-12T07:53:46.986Z</time></trkpt><trkpt lat="45.76006491127933" lon="8.768625085803393"><ele>322.25</ele><time>2026-04-12T07:53:48.986Z</time></trkpt><trkpt lat="45.76009480409899" lon="8.768470142502677"><ele>322.0</ele><time>2026-04-12T07:53:50.986Z</time></trkpt><trkpt lat="45.7601253445911" lon="8.76831171956596"><ele>322.0</ele><time>2026-04-12T07:53:52.986Z</time></trkpt><trkpt lat="45.76015519373862" lon="8.768229820433922"><ele>322.0</ele><time>2026-04-12T07:53:53.986Z</time></trkpt><trkpt lat="45.76018410231889" lon="8.768131248473175"><ele>322.0</ele><time>2026-04-12T07:53:54.986Z</time></trkpt><trkpt lat="45.760205822794084" lon="8.768031362148939"><ele>322.0</ele><time>2026-04-12T07:53:55.986Z</time></trkpt><trkpt lat="45.7602580928835" lon="8.767926892477881"><ele>322.0</ele><time>2026-04-12T07:53:56.986Z</time></trkpt><trkpt lat="45.76030690293637" lon="8.767824756994363"><ele>322.0</ele><time>2026-04-12T07:53:57.986Z</time></trkpt><trkpt lat="45.76034315957162" lon="8.767742770963373"><ele>320.16666666666663</ele><time>2026-04-12T07:53:58.986Z</time></trkpt><trkpt lat="45.76041404369142" lon="8.767690400117267"><ele>318.3333333333333</ele><time>2026-04-12T07:53:59.986Z</time></trkpt><trkpt lat="45.760465132311595" lon="8.767618673295647"><ele>316.5</ele><time>2026-04-12T07:54:00.986Z</time></trkpt><trkpt lat="45.76052810335936" lon="8.767552376416942"><ele>314.6666666666667</ele><time>2026-04-12T07:54:01.986Z</time></trkpt><trkpt lat="45.760596001480536" lon="8.767483611970542"><ele>312.83333333333337</ele><time>2026-04-12T07:54:02.986Z</time></trkpt><trkpt lat="45.760658708910576" lon="8.76742086793657"><ele>311.0</ele><time>2026-04-12T07:54:03.986Z</time></trkpt><trkpt lat="45.76072380041054" lon="8.76734959387721"><ele>311.0</ele><time>2026-04-12T07:54:04.986Z</time></trkpt><trkpt lat="45.760785750922985" lon="8.767258210154841"><ele>311.0</ele><time>2026-04-12T07:54:05.986Z</time></trkpt><trkpt lat="45.76084151820383" lon="8.767148234927335"><ele>311.0</ele><time>2026-04-12T07:54:06.986Z</time></trkpt><trkpt lat="45.76088883985106" lon="8.767033413778606"><ele>311.0</ele><time>2026-04-12T07:54:07.986Z</time></trkpt><trkpt lat="45.76092688529894" lon="8.766913275175337"><ele>311.0</ele><time>2026-04-12T07:54:08.986Z</time></trkpt><trkpt lat="45.76095240874253" lon="8.766786382936353"><ele>310.33333333333337</ele><time>2026-04-12T07:54:09.985Z</time></trkpt><trkpt lat="45.761003831026855" lon="8.76668344026058"><ele>309.6666666666667</ele><time>2026-04-12T07:54:10.985Z</time></trkpt><trkpt lat="45.76104245763256" lon="8.76657028954776"><ele>309.0</ele><time>2026-04-12T07:54:11.985Z</time></trkpt><trkpt lat="45.761076587459954" lon="8.766471833531048"><ele>308.3333333333333</ele><time>2026-04-12T07:54:12.985Z</time></trkpt><trkpt lat="45.761116071455255" lon="8.76636988142262"><ele>307.66666666666663</ele><time>2026-04-12T07:54:13.985Z</time></trkpt><trkpt lat="45.76114924740469" lon="8.766292325508394"><ele>307.0</ele><time>2026-04-12T07:54:14.985Z</time></trkpt><trkpt lat="45.76120909615667" lon="8.766157008520835"><ele>306.4</ele><time>2026-04-12T07:54:16.985Z</time></trkpt><trkpt lat="45.76125837376739" lon="8.766043223499922"><ele>305.79999999999995</ele><time>2026-04-12T07:54:18.985Z</time></trkpt><trkpt lat="45.761346701418844" lon="8.765977473477257"><ele>305.2</ele><time>2026-04-12T07:54:21.985Z</time></trkpt><trkpt lat="45.761429352060574" lon="8.765941482966118"><ele>304.59999999999997</ele><time>2026-04-12T07:54:23.985Z</time></trkpt><trkpt lat="45.7615428873861" lon="8.766060081186515"><ele>304.0</ele><time>2026-04-12T07:54:25.985Z</time></trkpt><trkpt lat="45.761637462592105" lon="8.766146893923574"><ele>304.0</ele><time>2026-04-12T07:54:27.985Z</time></trkpt><trkpt lat="45.76174276470652" lon="8.766238050278126"><ele>304.0</ele><time>2026-04-12T07:54:29.985Z</time></trkpt><trkpt lat="45.76183809057699" lon="8.766319343500168"><ele>304.0</ele><time>2026-04-12T07:54:31.985Z</time></trkpt><trkpt lat="45.76194419119158" lon="8.766408259329305"><ele>304.0</ele><time>2026-04-12T07:54:33.985Z</time></trkpt><trkpt lat="45.76204422780449" lon="8.766500348866058"><ele>303.75</ele><time>2026-04-12T07:54:35.985Z</time></trkpt><trkpt lat="45.76213653651834" lon="8.766576397440295"><ele>303.5</ele><time>2026-04-12T07:54:37.985Z</time></trkpt><trkpt lat="45.76223902192651" lon="8.766673175023012"><ele>303.25</ele><time>2026-04-12T07:54:39.985Z</time></trkpt><trkpt lat="45.762330681454" lon="8.766761018747117"><ele>303.0</ele><time>2026-04-12T07:54:41.985Z</time></trkpt><trkpt lat="45.76243132547498" lon="8.766850257078993"><ele>303.4</ele><time>2026-04-12T07:54:43.985Z</time></trkpt><trkpt lat="45.76248738223904" lon="8.766907643983144"><ele>303.8</ele><time>2026-04-12T07:54:44.985Z</time></trkpt><trkpt lat="45.76257616077542" lon="8.76697019761133"><ele>304.2</ele><time>2026-04-12T07:54:46.985Z</time></trkpt><trkpt lat="45.76267167468377" lon="8.767058075372555"><ele>304.6</ele><time>2026-04-12T07:54:48.985Z</time></trkpt><trkpt lat="45.76276514444975" lon="8.76714769410571"><ele>305.0</ele><time>2026-04-12T07:54:50.985Z</time></trkpt><trkpt lat="45.76281653020164" lon="8.767200720018113"><ele>305.2</ele><time>2026-04-12T07:54:51.985Z</time></trkpt><trkpt lat="45.76291206255954" lon="8.767286915079978"><ele>305.4</ele><time>2026-04-12T07:54:53.985Z</time></trkpt><trkpt lat="45.76300334737766" lon="8.76736715631811"><ele>305.6</ele><time>2026-04-12T07:54:55.985Z</time></trkpt><trkpt lat="45.76309420016009" lon="8.76744492537652"><ele>305.8</ele><time>2026-04-12T07:54:57.986Z</time></trkpt><trkpt lat="45.76319124466167" lon="8.767534042018653"><ele>306.0</ele><time>2026-04-12T07:54:59.986Z</time></trkpt><trkpt lat="45.763244378158994" lon="8.767584597260623"><ele>306.0</ele><time>2026-04-12T07:55:00.985Z</time></trkpt><trkpt lat="45.76335594895284" lon="8.767680958178833"><ele>306.0</ele><time>2026-04-12T07:55:02.985Z</time></trkpt><trkpt lat="45.76345884153235" lon="8.767748847825981"><ele>306.0</ele><time>2026-04-12T07:55:04.986Z</time></trkpt><trkpt lat="45.76357152695893" lon="8.76784496484359"><ele>306.0</ele><time>2026-04-12T07:55:06.986Z</time></trkpt><trkpt lat="45.7636687545512" lon="8.76792107751347"><ele>305.8</ele><time>2026-04-12T07:55:08.986Z</time></trkpt><trkpt lat="45.76376776017585" lon="8.76800033146732"><ele>305.6</ele><time>2026-04-12T07:55:10.985Z</time></trkpt><trkpt lat="45.76386654255018" lon="8.768091797373447"><ele>305.4</ele><time>2026-04-12T07:55:12.985Z</time></trkpt><trkpt lat="45.7639568414901" lon="8.768156299802238"><ele>305.2</ele><time>2026-04-12T07:55:14.985Z</time></trkpt><trkpt lat="45.764012046582074" lon="8.76820471775402"><ele>305.0</ele><time>2026-04-12T07:55:15.985Z</time></trkpt><trkpt lat="45.764114715995625" lon="8.768299850855346"><ele>305.0</ele><time>2026-04-12T07:55:17.985Z</time></trkpt><trkpt lat="45.76421573266569" lon="8.768380616124858"><ele>305.0</ele><time>2026-04-12T07:55:19.985Z</time></trkpt><trkpt lat="45.76431498449671" lon="8.768458252834185"><ele>305.0</ele><time>2026-04-12T07:55:21.985Z</time></trkpt><trkpt lat="45.76440537372618" lon="8.768552502870547"><ele>305.0</ele><time>2026-04-12T07:55:23.985Z</time></trkpt><trkpt lat="45.76450792312076" lon="8.768645056767282"><ele>305.25</ele><time>2026-04-12T07:55:25.985Z</time></trkpt><trkpt lat="45.764614756089045" lon="8.768737067963023"><ele>305.5</ele><time>2026-04-12T07:55:27.985Z</time></trkpt><trkpt lat="45.764717684365294" lon="8.768828654858385"><ele>305.75</ele><time>2026-04-12T07:55:29.985Z</time></trkpt><trkpt lat="45.764824674116014" lon="8.768930094619705"><ele>306.0</ele><time>2026-04-12T07:55:31.985Z</time></trkpt><trkpt lat="45.76493820285013" lon="8.769016213385239"><ele>306.0</ele><time>2026-04-12T07:55:33.985Z</time></trkpt><trkpt lat="45.76504881353575" lon="8.769085637065473"><ele>306.0</ele><time>2026-04-12T07:55:35.985Z</time></trkpt><trkpt lat="45.76516056429023" lon="8.769144905086087"><ele>306.0</ele><time>2026-04-12T07:55:37.985Z</time></trkpt><trkpt lat="45.76523114690644" lon="8.769188370067614"><ele>306.0</ele><time>2026-04-12T07:55:38.985Z</time></trkpt><trkpt lat="45.76534193754981" lon="8.769234337156012"><ele>306.0</ele><time>2026-04-12T07:55:40.985Z</time></trkpt><trkpt lat="45.76544108419244" lon="8.769236220643927"><ele>305.8333333333333</ele><time>2026-04-12T07:55:42.985Z</time></trkpt><trkpt lat="45.76547333527569" lon="8.769108786641324"><ele>305.6666666666667</ele><time>2026-04-12T07:55:43.985Z</time></trkpt><trkpt lat="45.76545694275726" lon="8.768969011602527"><ele>305.5</ele><time>2026-04-12T07:55:45.985Z</time></trkpt><trkpt lat="45.76554759094766" lon="8.768881931748941"><ele>305.33333333333337</ele><time>2026-04-12T07:55:46.985Z</time></trkpt><trkpt lat="45.76557393097537" lon="8.768797942189236"><ele>305.1666666666667</ele><time>2026-04-12T07:55:47.985Z</time></trkpt><trkpt lat="45.76560230437882" lon="8.768712047675077"><ele>305.0</ele><time>2026-04-12T07:55:48.985Z</time></trkpt><trkpt lat="45.765640686301886" lon="8.768553628312342"><ele>305.0</ele><time>2026-04-12T07:55:50.985Z</time></trkpt><trkpt lat="45.7657010760648" lon="8.768410182029575"><ele>305.0</ele><time>2026-04-12T07:55:52.985Z</time></trkpt><trkpt lat="45.76573507466495" lon="8.768328240663982"><ele>305.0</ele><time>2026-04-12T07:55:53.985Z</time></trkpt><trkpt lat="45.76577257078717" lon="8.768249209821272"><ele>305.0</ele><time>2026-04-12T07:55:54.985Z</time></trkpt><trkpt lat="45.76579782816392" lon="8.768145271087498"><ele>305.0</ele><time>2026-04-12T07:55:55.985Z</time></trkpt><trkpt lat="45.76586024958177" lon="8.768017953867066"><ele>305.0</ele><time>2026-04-12T07:55:57.985Z</time></trkpt><trkpt lat="45.765914823718745" lon="8.767856120033436"><ele>305.0</ele><time>2026-04-12T07:55:59.984Z</time></trkpt><trkpt lat="45.765950794636815" lon="8.767766835026597"><ele>305.0</ele><time>2026-04-12T07:56:00.984Z</time></trkpt><trkpt lat="45.765987971538486" lon="8.767669357101337"><ele>305.0</ele><time>2026-04-12T07:56:01.984Z</time></trkpt><trkpt lat="45.766023401783656" lon="8.767571550263394"><ele>305.0</ele><time>2026-04-12T07:56:02.984Z</time></trkpt><trkpt lat="45.76605655034184" lon="8.76748618998355"><ele>305.0</ele><time>2026-04-12T07:56:03.984Z</time></trkpt><trkpt lat="45.76608895699793" lon="8.767406920196116"><ele>305.0</ele><time>2026-04-12T07:56:04.984Z</time></trkpt><trkpt lat="45.76613357047643" lon="8.767335177630569"><ele>305.0</ele><time>2026-04-12T07:56:05.984Z</time></trkpt><trkpt lat="45.76618320997987" lon="8.767272881121272"><ele>304.1666666666667</ele><time>2026-04-12T07:56:06.984Z</time></trkpt><trkpt lat="45.766248609459254" lon="8.767224110788826"><ele>303.33333333333337</ele><time>2026-04-12T07:56:07.984Z</time></trkpt><trkpt lat="45.766314567103784" lon="8.767193982138611"><ele>302.5</ele><time>2026-04-12T07:56:08.984Z</time></trkpt><trkpt lat="45.76637904215256" lon="8.767179209946585"><ele>301.6666666666667</ele><time>2026-04-12T07:56:09.984Z</time></trkpt><trkpt lat="45.766500900069964" lon="8.767137999489107"><ele>300.8333333333333</ele><time>2026-04-12T07:56:11.984Z</time></trkpt><trkpt lat="45.766563732767935" lon="8.767111841356911"><ele>300.0</ele><time>2026-04-12T07:56:12.984Z</time></trkpt><trkpt lat="45.76668754201174" lon="8.767054808798125"><ele>300.0</ele><time>2026-04-12T07:56:14.984Z</time></trkpt><trkpt lat="45.76679542634761" lon="8.76701336323016"><ele>300.0</ele><time>2026-04-12T07:56:16.984Z</time></trkpt><trkpt lat="45.76689339939792" lon="8.766969504626735"><ele>300.0</ele><time>2026-04-12T07:56:18.984Z</time></trkpt><trkpt lat="45.766990394763155" lon="8.766933669590744"><ele>300.0</ele><time>2026-04-12T07:56:20.984Z</time></trkpt><trkpt lat="45.76708108309614" lon="8.766960183762773"><ele>300.0</ele><time>2026-04-12T07:56:22.984Z</time></trkpt><trkpt lat="45.767173704703445" lon="8.767011882654916"><ele>300.2</ele><time>2026-04-12T07:56:24.984Z</time></trkpt><trkpt lat="45.76728271674938" lon="8.766972482361243"><ele>300.4</ele><time>2026-04-12T07:56:26.984Z</time></trkpt><trkpt lat="45.76733370176699" lon="8.766912567766234"><ele>300.6</ele><time>2026-04-12T07:56:27.984Z</time></trkpt><trkpt lat="45.76731873517103" lon="8.766766379223293"><ele>300.8</ele><time>2026-04-12T07:56:29.984Z</time></trkpt><trkpt lat="45.767436240968216" lon="8.766716563932555"><ele>301.0</ele><time>2026-04-12T07:56:30.984Z</time></trkpt><trkpt lat="45.76749098485622" lon="8.766609044201159"><ele>301.0</ele><time>2026-04-12T07:56:32.984Z</time></trkpt><trkpt lat="45.76759449861808" lon="8.766593299044713"><ele>301.0</ele><time>2026-04-12T07:56:34.984Z</time></trkpt><trkpt lat="45.76767408367575" lon="8.766550291396172"><ele>301.0</ele><time>2026-04-12T07:56:36.984Z</time></trkpt><trkpt lat="45.76775939205669" lon="8.766505802258786"><ele>301.0</ele><time>2026-04-12T07:56:38.984Z</time></trkpt><trkpt lat="45.76784440309797" lon="8.76647252688569"><ele>301.0</ele><time>2026-04-12T07:56:40.984Z</time></trkpt><trkpt lat="45.767932378604435" lon="8.766440235031668"><ele>301.0</ele><time>2026-04-12T07:56:42.984Z</time></trkpt><trkpt lat="45.76802562342425" lon="8.76643558077588"><ele>301.0</ele><time>2026-04-12T07:56:44.984Z</time></trkpt><trkpt lat="45.768128979672426" lon="8.7664475493434"><ele>301.0</ele><time>2026-04-12T07:56:46.984Z</time></trkpt><trkpt lat="45.76823454898754" lon="8.766460465254367"><ele>301.0</ele><time>2026-04-12T07:56:48.984Z</time></trkpt><trkpt lat="45.76833289008916" lon="8.766466546781537"><ele>301.0</ele><time>2026-04-12T07:56:50.983Z</time></trkpt><trkpt lat="45.76842614746303" lon="8.766491613142733"><ele>301.0</ele><time>2026-04-12T07:56:52.983Z</time></trkpt><trkpt lat="45.76851641517337" lon="8.766516645594674"><ele>301.0</ele><time>2026-04-12T07:56:54.983Z</time></trkpt><trkpt lat="45.76860275762321" lon="8.766542595270046"><ele>301.0</ele><time>2026-04-12T07:56:56.983Z</time></trkpt><trkpt lat="45.76869697913429" lon="8.766560035271318"><ele>301.0</ele><time>2026-04-12T07:56:58.984Z</time></trkpt><trkpt lat="45.76878701249032" lon="8.766580026173411"><ele>301.0</ele><time>2026-04-12T07:57:00.984Z</time></trkpt><trkpt lat="45.76888455086993" lon="8.766610843978834"><ele>302.2</ele><time>2026-04-12T07:57:02.985Z</time></trkpt><trkpt lat="45.76898187646307" lon="8.76663202873294"><ele>303.40000000000003</ele><time>2026-04-12T07:57:04.985Z</time></trkpt><trkpt lat="45.769091104284385" lon="8.766675210387904"><ele>304.6</ele><time>2026-04-12T07:57:06.984Z</time></trkpt><trkpt lat="45.7691787476165" lon="8.76670362009599"><ele>305.8</ele><time>2026-04-12T07:57:08.985Z</time></trkpt><trkpt lat="45.76927130731442" lon="8.76672690652876"><ele>307.0</ele><time>2026-04-12T07:57:10.985Z</time></trkpt><trkpt lat="45.769358783596246" lon="8.766737665367582"><ele>307.8</ele><time>2026-04-12T07:57:12.985Z</time></trkpt><trkpt lat="45.76944415679374" lon="8.766757120150634"><ele>308.6</ele><time>2026-04-12T07:57:14.985Z</time></trkpt><trkpt lat="45.76953753493057" lon="8.766780080888577"><ele>309.40000000000003</ele><time>2026-04-12T07:57:16.985Z</time></trkpt><trkpt lat="45.76962687283876" lon="8.766804907428245"><ele>310.2</ele><time>2026-04-12T07:57:18.985Z</time></trkpt><trkpt lat="45.76972161734661" lon="8.766836602486569"><ele>311.0</ele><time>2026-04-12T07:57:20.984Z</time></trkpt><trkpt lat="45.76981713791227" lon="8.766857599026052"><ele>311.0</ele><time>2026-04-12T07:57:22.984Z</time></trkpt><trkpt lat="45.76990351915736" lon="8.766897293383497"><ele>311.0</ele><time>2026-04-12T07:57:24.984Z</time></trkpt><trkpt lat="45.76999643875392" lon="8.766916484841493"><ele>311.0</ele><time>2026-04-12T07:57:26.984Z</time></trkpt><trkpt lat="45.770096910986204" lon="8.766915759986809"><ele>311.0</ele><time>2026-04-12T07:57:28.984Z</time></trkpt><trkpt lat="45.770186840031705" lon="8.766912091599258"><ele>311.0</ele><time>2026-04-12T07:57:30.984Z</time></trkpt><trkpt lat="45.77026987053001" lon="8.766916082306778"><ele>311.83333333333337</ele><time>2026-04-12T07:57:32.984Z</time></trkpt><trkpt lat="45.77035769130574" lon="8.766900681287392"><ele>312.6666666666667</ele><time>2026-04-12T07:57:34.984Z</time></trkpt><trkpt lat="45.770446991725294" lon="8.766927260716404"><ele>313.5</ele><time>2026-04-12T07:57:36.984Z</time></trkpt><trkpt lat="45.77052875050068" lon="8.766930676432604"><ele>314.3333333333333</ele><time>2026-04-12T07:57:38.984Z</time></trkpt><trkpt lat="45.77060140792831" lon="8.766946046320573"><ele>315.16666666666663</ele><time>2026-04-12T07:57:40.984Z</time></trkpt><trkpt lat="45.77066879595457" lon="8.766953661850163"><ele>316.0</ele><time>2026-04-12T07:57:42.984Z</time></trkpt><trkpt lat="45.77074842449796" lon="8.766977392796463"><ele>316.0</ele><time>2026-04-12T07:57:44.984Z</time></trkpt><trkpt lat="45.77083819444538" lon="8.766988738020244"><ele>316.0</ele><time>2026-04-12T07:57:46.984Z</time></trkpt><trkpt lat="45.77091491868052" lon="8.766990953601049"><ele>316.0</ele><time>2026-04-12T07:57:48.984Z</time></trkpt><trkpt lat="45.77099259437571" lon="8.767001191321851"><ele>316.0</ele><time>2026-04-12T07:57:50.984Z</time></trkpt><trkpt lat="45.77105306431312" lon="8.767028777381919"><ele>316.0</ele><time>2026-04-12T07:57:52.984Z</time></trkpt><trkpt lat="45.77113769021731" lon="8.767060233388307"><ele>316.0</ele><time>2026-04-12T07:57:55.984Z</time></trkpt><trkpt lat="45.77120472353414" lon="8.7671071476282"><ele>316.7142857142857</ele><time>2026-04-12T07:57:57.984Z</time></trkpt><trkpt lat="45.77127660681727" lon="8.76716255822607"><ele>317.42857142857144</ele><time>2026-04-12T07:57:59.984Z</time></trkpt><trkpt lat="45.77133561600855" lon="8.767196390673105"><ele>318.1428571428571</ele><time>2026-04-12T07:58:01.984Z</time></trkpt><trkpt lat="45.77139376741642" lon="8.767231891847905"><ele>318.8571428571429</ele><time>2026-04-12T07:58:03.984Z</time></trkpt><trkpt lat="45.77146389418599" lon="8.76727694840224"><ele>319.57142857142856</ele><time>2026-04-12T07:58:05.984Z</time></trkpt><trkpt lat="45.77152811621824" lon="8.767308477510689"><ele>320.2857142857143</ele><time>2026-04-12T07:58:07.984Z</time></trkpt><trkpt lat="45.77159587926125" lon="8.767346667410362"><ele>321.0</ele><time>2026-04-12T07:58:09.984Z</time></trkpt><trkpt lat="45.77168100397827" lon="8.767402466096426"><ele>321.0</ele><time>2026-04-12T07:58:11.983Z</time></trkpt><trkpt lat="45.77175609610363" lon="8.767443295931912"><ele>321.0</ele><time>2026-04-12T07:58:13.983Z</time></trkpt><trkpt lat="45.77182267912763" lon="8.767468834807358"><ele>321.0</ele><time>2026-04-12T07:58:15.983Z</time></trkpt><trkpt lat="45.771927405621085" lon="8.767520459995058"><ele>321.0</ele><time>2026-04-12T07:58:17.983Z</time></trkpt><trkpt lat="45.772031462876285" lon="8.76758003924577"><ele>321.0</ele><time>2026-04-12T07:58:19.983Z</time></trkpt><trkpt lat="45.77212458294144" lon="8.767649992153007"><ele>320.40000000000003</ele><time>2026-04-12T07:58:21.983Z</time></trkpt><trkpt lat="45.77222709385477" lon="8.76771703328389"><ele>319.8</ele><time>2026-04-12T07:58:23.983Z</time></trkpt><trkpt lat="45.77231817070057" lon="8.767773046283377"><ele>319.20000000000005</ele><time>2026-04-12T07:58:25.983Z</time></trkpt><trkpt lat="45.77241092026188" lon="8.767838499170047"><ele>318.6</ele><time>2026-04-12T07:58:27.983Z</time></trkpt><trkpt lat="45.77250741478489" lon="8.767895400628198"><ele>318.0</ele><time>2026-04-12T07:58:29.983Z</time></trkpt><trkpt lat="45.77260109213835" lon="8.767945168029879"><ele>318.4</ele><time>2026-04-12T07:58:31.983Z</time></trkpt><trkpt lat="45.77269725002623" lon="8.767978793050219"><ele>318.8</ele><time>2026-04-12T07:58:33.983Z</time></trkpt><trkpt lat="45.772757150864955" lon="8.768019535340317"><ele>319.2</ele><time>2026-04-12T07:58:34.983Z</time></trkpt><trkpt lat="45.77285166263402" lon="8.768091433039679"><ele>319.6</ele><time>2026-04-12T07:58:36.983Z</time></trkpt><trkpt lat="45.77295420012712" lon="8.76815091998696"><ele>320.0</ele><time>2026-04-12T07:58:38.983Z</time></trkpt><trkpt lat="45.77307594248284" lon="8.768229797820748"><ele>320.0</ele><time>2026-04-12T07:58:40.983Z</time></trkpt><trkpt lat="45.77313463997686" lon="8.768264760962719"><ele>320.0</ele><time>2026-04-12T07:58:41.983Z</time></trkpt><trkpt lat="45.773250414066204" lon="8.768344578789106"><ele>320.0</ele><time>2026-04-12T07:58:43.983Z</time></trkpt><trkpt lat="45.77337951483861" lon="8.768425107798645"><ele>320.0</ele><time>2026-04-12T07:58:45.983Z</time></trkpt><trkpt lat="45.773497838690545" lon="8.768489286174761"><ele>318.8</ele><time>2026-04-12T07:58:47.983Z</time></trkpt><trkpt lat="45.77361693771735" lon="8.768556355315715"><ele>317.6</ele><time>2026-04-12T07:58:49.983Z</time></trkpt><trkpt lat="45.77367658787338" lon="8.768591488098146"><ele>316.4</ele><time>2026-04-12T07:58:50.983Z</time></trkpt><trkpt lat="45.77373737589792" lon="8.768618909050076"><ele>315.2</ele><time>2026-04-12T07:58:51.983Z</time></trkpt><trkpt lat="45.7738409159722" lon="8.768667587167768"><ele>314.0</ele><time>2026-04-12T07:58:53.983Z</time></trkpt><trkpt lat="45.773925695701394" lon="8.768686192578642"><ele>314.0</ele><time>2026-04-12T07:58:55.983Z</time></trkpt><trkpt lat="45.774005810075465" lon="8.768615130976695"><ele>314.0</ele><time>2026-04-12T07:58:57.983Z</time></trkpt><trkpt lat="45.77402878962423" lon="8.768474153396726"><ele>314.0</ele><time>2026-04-12T07:58:59.982Z</time></trkpt><trkpt lat="45.77406300877206" lon="8.76835256088538"><ele>314.0</ele><time>2026-04-12T07:59:01.982Z</time></trkpt><trkpt lat="45.77410080672271" lon="8.768259868721787"><ele>314.0</ele><time>2026-04-12T07:59:03.984Z</time></trkpt><trkpt lat="45.7741209311914" lon="8.768156574196237"><ele>314.0</ele><time>2026-04-12T07:59:05.983Z</time></trkpt><trkpt lat="45.774152104791" lon="8.76804327753946"><ele>314.59999999999997</ele><time>2026-04-12T07:59:07.984Z</time></trkpt><trkpt lat="45.77419563877609" lon="8.76791280214218"><ele>315.2</ele><time>2026-04-12T07:59:09.983Z</time></trkpt><trkpt lat="45.77427543268064" lon="8.767842677323772"><ele>315.79999999999995</ele><time>2026-04-12T07:59:11.984Z</time></trkpt><trkpt lat="45.77437779961277" lon="8.767836346855251"><ele>316.4</ele><time>2026-04-12T07:59:13.984Z</time></trkpt><trkpt lat="45.77448035832824" lon="8.76781901313604"><ele>317.0</ele><time>2026-04-12T07:59:15.983Z</time></trkpt><trkpt lat="45.774592194552795" lon="8.76781678028173"><ele>317.8</ele><time>2026-04-12T07:59:17.983Z</time></trkpt><trkpt lat="45.77465641257441" lon="8.767821652444402"><ele>318.6</ele><time>2026-04-12T07:59:18.983Z</time></trkpt><trkpt lat="45.774747620573464" lon="8.767815025619361"><ele>319.40000000000003</ele><time>2026-04-12T07:59:20.983Z</time></trkpt><trkpt lat="45.774838015727354" lon="8.767796332036934"><ele>320.2</ele><time>2026-04-12T07:59:22.983Z</time></trkpt><trkpt lat="45.774951852288744" lon="8.767801163166094"><ele>321.0</ele><time>2026-04-12T07:59:24.983Z</time></trkpt><trkpt lat="45.7750409164162" lon="8.767795768579086"><ele>321.0</ele><time>2026-04-12T07:59:26.983Z</time></trkpt><trkpt lat="45.775145681762346" lon="8.767784311306723"><ele>321.0</ele><time>2026-04-12T07:59:28.983Z</time></trkpt><trkpt lat="45.7752121367366" lon="8.767790298325139"><ele>321.0</ele><time>2026-04-12T07:59:29.983Z</time></trkpt><trkpt lat="45.77532749403237" lon="8.767810040504665"><ele>321.0</ele><time>2026-04-12T07:59:31.983Z</time></trkpt><trkpt lat="45.77543688456967" lon="8.76785258847648"><ele>321.0</ele><time>2026-04-12T07:59:33.983Z</time></trkpt><trkpt lat="45.7755302581233" lon="8.76792198688529"><ele>321.8</ele><time>2026-04-12T07:59:35.983Z</time></trkpt><trkpt lat="45.775621641770734" lon="8.767986605210886"><ele>322.6</ele><time>2026-04-12T07:59:37.983Z</time></trkpt><trkpt lat="45.775713911094215" lon="8.768022234303798"><ele>323.4</ele><time>2026-04-12T07:59:39.983Z</time></trkpt><trkpt lat="45.775819552121085" lon="8.768089929748125"><ele>324.2</ele><time>2026-04-12T07:59:41.983Z</time></trkpt><trkpt lat="45.77591086231906" lon="8.768181956566142"><ele>325.0</ele><time>2026-04-12T07:59:43.983Z</time></trkpt><trkpt lat="45.77594055290965" lon="8.768306600803419"><ele>325.0</ele><time>2026-04-12T07:59:45.982Z</time></trkpt><trkpt lat="45.775955545991806" lon="8.768473036166998"><ele>325.0</ele><time>2026-04-12T07:59:47.982Z</time></trkpt><trkpt lat="45.775967745082525" lon="8.768642845450454"><ele>325.0</ele><time>2026-04-12T07:59:49.982Z</time></trkpt><trkpt lat="45.77603520608187" lon="8.768750603731476"><ele>325.0</ele><time>2026-04-12T07:59:51.982Z</time></trkpt><trkpt lat="45.7761107939576" lon="8.76878922594469"><ele>325.0</ele><time>2026-04-12T07:59:53.982Z</time></trkpt><trkpt lat="45.776191865233784" lon="8.768804720677267"><ele>325.2</ele><time>2026-04-12T07:59:55.982Z</time></trkpt><trkpt lat="45.77629382849563" lon="8.768842217486498"><ele>325.4</ele><time>2026-04-12T07:59:57.982Z</time></trkpt><trkpt lat="45.77641538386641" lon="8.76887502080768"><ele>325.6</ele><time>2026-04-12T07:59:59.982Z</time></trkpt><trkpt lat="45.776517355710055" lon="8.768882639974153"><ele>325.8</ele><time>2026-04-12T08:00:01.982Z</time></trkpt><trkpt lat="45.776612037431555" lon="8.768878459078348"><ele>326.0</ele><time>2026-04-12T08:00:03.982Z</time></trkpt><trkpt lat="45.77671551164575" lon="8.768886939466055"><ele>326.0</ele><time>2026-04-12T08:00:05.982Z</time></trkpt><trkpt lat="45.776800146627735" lon="8.768874729028706"><ele>326.0</ele><time>2026-04-12T08:00:07.982Z</time></trkpt><trkpt lat="45.77687868575527" lon="8.768871533809534"><ele>326.0</ele><time>2026-04-12T08:00:09.982Z</time></trkpt><trkpt lat="45.7769324276119" lon="8.768795178423444"><ele>326.0</ele><time>2026-04-12T08:00:12.982Z</time></trkpt><trkpt lat="45.77688615801039" lon="8.768652754510057"><ele>326.0</ele><time>2026-04-12T08:00:15.982Z</time></trkpt><trkpt lat="45.776871266674" lon="8.76856001551125"><ele>326.0</ele><time>2026-04-12T08:00:17.982Z</time></trkpt><trkpt lat="45.77685775530189" lon="8.768376419508142"><ele>326.4</ele><time>2026-04-12T08:00:19.982Z</time></trkpt><trkpt lat="45.776858745690824" lon="8.76828367440045"><ele>326.8</ele><time>2026-04-12T08:00:20.982Z</time></trkpt><trkpt lat="45.77687788169321" lon="8.76812321559375"><ele>327.2</ele><time>2026-04-12T08:00:22.982Z</time></trkpt><trkpt lat="45.7768833528411" lon="8.767990321786922"><ele>327.59999999999997</ele><time>2026-04-12T08:00:24.982Z</time></trkpt><trkpt lat="45.77689142966013" lon="8.767871045243083"><ele>328.0</ele><time>2026-04-12T08:00:26.982Z</time></trkpt><trkpt lat="45.77690880380135" lon="8.767733123959855"><ele>327.4</ele><time>2026-04-12T08:00:28.982Z</time></trkpt><trkpt lat="45.77692296193188" lon="8.767604107365345"><ele>326.79999999999995</ele><time>2026-04-12T08:00:30.982Z</time></trkpt><trkpt lat="45.77693609647398" lon="8.767496580423368"><ele>326.2</ele><time>2026-04-12T08:00:32.982Z</time></trkpt><trkpt lat="45.776942816075454" lon="8.767400156025527"><ele>325.6</ele><time>2026-04-12T08:00:34.981Z</time></trkpt><trkpt lat="45.77695932549921" lon="8.767235671217996"><ele>325.0</ele><time>2026-04-12T08:00:36.981Z</time></trkpt><trkpt lat="45.77698002764078" lon="8.767078340441184"><ele>325.0</ele><time>2026-04-12T08:00:38.981Z</time></trkpt><trkpt lat="45.77698267702277" lon="8.766978770305775"><ele>325.0</ele><time>2026-04-12T08:00:39.981Z</time></trkpt><trkpt lat="45.77696884595405" lon="8.766874944004803"><ele>325.0</ele><time>2026-04-12T08:00:40.981Z</time></trkpt><trkpt lat="45.776926405272114" lon="8.766770543213832"><ele>325.0</ele><time>2026-04-12T08:00:41.981Z</time></trkpt><trkpt lat="45.77688033680661" lon="8.766645143650516"><ele>325.0</ele><time>2026-04-12T08:00:42.981Z</time></trkpt><trkpt lat="45.7768413178986" lon="8.766521679091298"><ele>325.0</ele><time>2026-04-12T08:00:43.981Z</time></trkpt><trkpt lat="45.7768053828814" lon="8.766394218596782"><ele>324.8333333333333</ele><time>2026-04-12T08:00:44.981Z</time></trkpt><trkpt lat="45.77677162826384" lon="8.766270290457848"><ele>324.66666666666663</ele><time>2026-04-12T08:00:45.981Z</time></trkpt><trkpt lat="45.77673684146667" lon="8.766156707894009"><ele>324.5</ele><time>2026-04-12T08:00:46.981Z</time></trkpt><trkpt lat="45.776703396310914" lon="8.766039140639583"><ele>324.3333333333333</ele><time>2026-04-12T08:00:47.981Z</time></trkpt><trkpt lat="45.77666856083504" lon="8.76593408139005"><ele>324.1666666666667</ele><time>2026-04-12T08:00:48.981Z</time></trkpt><trkpt lat="45.77662420062614" lon="8.765838991165147"><ele>324.0</ele><time>2026-04-12T08:00:49.981Z</time></trkpt><trkpt lat="45.77657424079474" lon="8.765760938180328"><ele>322.6666666666667</ele><time>2026-04-12T08:00:50.981Z</time></trkpt><trkpt lat="45.7765022784794" lon="8.765687178044407"><ele>321.3333333333333</ele><time>2026-04-12T08:00:51.981Z</time></trkpt><trkpt lat="45.776439803537485" lon="8.76559971908311"><ele>320.0</ele><time>2026-04-12T08:00:52.981Z</time></trkpt><trkpt lat="45.77638168775129" lon="8.765505409333228"><ele>318.66666666666663</ele><time>2026-04-12T08:00:53.981Z</time></trkpt><trkpt lat="45.77631862970692" lon="8.765416464031466"><ele>317.3333333333333</ele><time>2026-04-12T08:00:54.981Z</time></trkpt><trkpt lat="45.776255867434045" lon="8.765337141922416"><ele>316.0</ele><time>2026-04-12T08:00:55.981Z</time></trkpt><trkpt lat="45.77620172162669" lon="8.765261681423224"><ele>314.8333333333333</ele><time>2026-04-12T08:00:56.981Z</time></trkpt><trkpt lat="45.77616548894059" lon="8.76517581381448"><ele>313.66666666666663</ele><time>2026-04-12T08:00:57.981Z</time></trkpt><trkpt lat="45.7761420772509" lon="8.765070917907146"><ele>312.5</ele><time>2026-04-12T08:00:58.981Z</time></trkpt><trkpt lat="45.776121123504" lon="8.76496116833808"><ele>311.3333333333333</ele><time>2026-04-12T08:00:59.981Z</time></trkpt><trkpt lat="45.776102955442965" lon="8.764852773279658"><ele>310.1666666666667</ele><time>2026-04-12T08:01:00.981Z</time></trkpt><trkpt lat="45.776080874575015" lon="8.764747152692337"><ele>309.0</ele><time>2026-04-12T08:01:01.981Z</time></trkpt><trkpt lat="45.77604592412485" lon="8.764640291816086"><ele>308.8333333333333</ele><time>2026-04-12T08:01:02.981Z</time></trkpt><trkpt lat="45.77600632735748" lon="8.76453438480915"><ele>308.6666666666667</ele><time>2026-04-12T08:01:03.981Z</time></trkpt><trkpt lat="45.77596619066939" lon="8.76441628737434"><ele>308.5</ele><time>2026-04-12T08:01:04.981Z</time></trkpt><trkpt lat="45.77593083946604" lon="8.76429840762855"><ele>308.33333333333337</ele><time>2026-04-12T08:01:05.981Z</time></trkpt><trkpt lat="45.775893669234115" lon="8.764192114986223"><ele>308.1666666666667</ele><time>2026-04-12T08:01:06.981Z</time></trkpt><trkpt lat="45.77585468310803" lon="8.764090620681497"><ele>308.0</ele><time>2026-04-12T08:01:07.981Z</time></trkpt><trkpt lat="45.77582483817596" lon="8.763988884349235"><ele>308.0</ele><time>2026-04-12T08:01:08.981Z</time></trkpt><trkpt lat="45.775823660689554" lon="8.76382324613997"><ele>308.0</ele><time>2026-04-12T08:01:10.983Z</time></trkpt><trkpt lat="45.77584687674704" lon="8.763727141355306"><ele>308.0</ele><time>2026-04-12T08:01:11.983Z</time></trkpt><trkpt lat="45.7758880425789" lon="8.763632507597642"><ele>308.0</ele><time>2026-04-12T08:01:12.982Z</time></trkpt><trkpt lat="45.775929591855224" lon="8.76354018650252"><ele>308.0</ele><time>2026-04-12T08:01:13.983Z</time></trkpt><trkpt lat="45.775963402825994" lon="8.763451206479354"><ele>308.0</ele><time>2026-04-12T08:01:14.983Z</time></trkpt><trkpt lat="45.77600821867996" lon="8.76334928729774"><ele>307.83333333333337</ele><time>2026-04-12T08:01:15.982Z</time></trkpt><trkpt lat="45.77604317357918" lon="8.763256421578603"><ele>307.6666666666667</ele><time>2026-04-12T08:01:16.982Z</time></trkpt><trkpt lat="45.776072179753946" lon="8.763162472767426"><ele>307.5</ele><time>2026-04-12T08:01:17.982Z</time></trkpt><trkpt lat="45.776086090382755" lon="8.763054580667658"><ele>307.3333333333333</ele><time>2026-04-12T08:01:18.982Z</time></trkpt><trkpt lat="45.776075213242606" lon="8.762953003037289"><ele>307.16666666666663</ele><time>2026-04-12T08:01:19.982Z</time></trkpt><trkpt lat="45.77605709289449" lon="8.762858055470502"><ele>307.0</ele><time>2026-04-12T08:01:20.982Z</time></trkpt><trkpt lat="45.77597073440216" lon="8.762762503064435"><ele>308.6</ele><time>2026-04-12T08:01:22.982Z</time></trkpt><trkpt lat="45.77587688635265" lon="8.76268186951998"><ele>310.2</ele><time>2026-04-12T08:01:24.982Z</time></trkpt><trkpt lat="45.77578440504475" lon="8.76256769108903"><ele>311.8</ele><time>2026-04-12T08:01:26.982Z</time></trkpt><trkpt lat="45.77570128973424" lon="8.762447883232293"><ele>313.4</ele><time>2026-04-12T08:01:28.982Z</time></trkpt><trkpt lat="45.77565709052842" lon="8.762382315379043"><ele>315.0</ele><time>2026-04-12T08:01:29.982Z</time></trkpt><trkpt lat="45.775582814896985" lon="8.762251727817597"><ele>315.0</ele><time>2026-04-12T08:01:31.982Z</time></trkpt><trkpt lat="45.77550331350215" lon="8.762146944615218"><ele>315.0</ele><time>2026-04-12T08:01:33.982Z</time></trkpt><trkpt lat="45.775430753597824" lon="8.762054948454102"><ele>315.0</ele><time>2026-04-12T08:01:35.982Z</time></trkpt><trkpt lat="45.77534308516079" lon="8.761970209019243"><ele>315.0</ele><time>2026-04-12T08:01:37.982Z</time></trkpt><trkpt lat="45.775298015705964" lon="8.761894575571059"><ele>315.0</ele><time>2026-04-12T08:01:38.982Z</time></trkpt><trkpt lat="45.775209733915865" lon="8.76178751848064"><ele>314.0</ele><time>2026-04-12T08:01:40.982Z</time></trkpt><trkpt lat="45.77513051885544" lon="8.761736998287319"><ele>313.0</ele><time>2026-04-12T08:01:42.982Z</time></trkpt><trkpt lat="45.77505457796948" lon="8.761635755475115"><ele>312.0</ele><time>2026-04-12T08:01:44.982Z</time></trkpt><trkpt lat="45.77497017151818" lon="8.761566560035822"><ele>311.0</ele><time>2026-04-12T08:01:46.982Z</time></trkpt><trkpt lat="45.774893802770585" lon="8.76150726896913"><ele>310.0</ele><time>2026-04-12T08:01:48.982Z</time></trkpt><trkpt lat="45.774813417190416" lon="8.761443317962382"><ele>310.0</ele><time>2026-04-12T08:01:50.981Z</time></trkpt><trkpt lat="45.77473176972804" lon="8.761358340056109"><ele>310.0</ele><time>2026-04-12T08:01:52.981Z</time></trkpt><trkpt lat="45.77464093301276" lon="8.761311978747464"><ele>310.0</ele><time>2026-04-12T08:01:54.981Z</time></trkpt><trkpt lat="45.77453892291503" lon="8.761256435956641"><ele>310.0</ele><time>2026-04-12T08:01:56.981Z</time></trkpt><trkpt lat="45.774437216418704" lon="8.761198992043642"><ele>310.0</ele><time>2026-04-12T08:01:58.981Z</time></trkpt><trkpt lat="45.77433262479843" lon="8.761127516713344"><ele>310.0</ele><time>2026-04-12T08:02:00.981Z</time></trkpt><trkpt lat="45.774241992540446" lon="8.761023496006624"><ele>310.0</ele><time>2026-04-12T08:02:02.981Z</time></trkpt><trkpt lat="45.77415130066488" lon="8.76093007342646"><ele>310.0</ele><time>2026-04-12T08:02:04.981Z</time></trkpt><trkpt lat="45.774065567562154" lon="8.760834335682885"><ele>310.0</ele><time>2026-04-12T08:02:06.981Z</time></trkpt><trkpt lat="45.77398209772484" lon="8.760723426303782"><ele>310.0</ele><time>2026-04-12T08:02:08.981Z</time></trkpt><trkpt lat="45.77393893674928" lon="8.760657090585509"><ele>310.0</ele><time>2026-04-12T08:02:09.981Z</time></trkpt><trkpt lat="45.77386667181026" lon="8.76055121796802"><ele>310.0</ele><time>2026-04-12T08:02:11.981Z</time></trkpt><trkpt lat="45.77377403373582" lon="8.760457953125647"><ele>310.0</ele><time>2026-04-12T08:02:13.981Z</time></trkpt><trkpt lat="45.773726830292304" lon="8.76036743739457"><ele>310.0</ele><time>2026-04-12T08:02:14.981Z</time></trkpt><trkpt lat="45.773646829179356" lon="8.760260878047292"><ele>309.8333333333333</ele><time>2026-04-12T08:02:16.981Z</time></trkpt><trkpt lat="45.77354204572053" lon="8.7601619326102"><ele>309.66666666666663</ele><time>2026-04-12T08:02:18.981Z</time></trkpt><trkpt lat="45.773481006101036" lon="8.760112057911266"><ele>309.5</ele><time>2026-04-12T08:02:19.981Z</time></trkpt><trkpt lat="45.77342322155262" lon="8.760067829878796"><ele>309.3333333333333</ele><time>2026-04-12T08:02:20.981Z</time></trkpt><trkpt lat="45.7733629948632" lon="8.760008404289685"><ele>309.1666666666667</ele><time>2026-04-12T08:02:21.981Z</time></trkpt><trkpt lat="45.77329958297418" lon="8.759967011638576"><ele>309.0</ele><time>2026-04-12T08:02:22.981Z</time></trkpt><trkpt lat="45.77318321378751" lon="8.759918472480004"><ele>309.0</ele><time>2026-04-12T08:02:24.981Z</time></trkpt><trkpt lat="45.77308485264979" lon="8.759857353162143"><ele>309.0</ele><time>2026-04-12T08:02:26.981Z</time></trkpt><trkpt lat="45.77298041204826" lon="8.759788396428831"><ele>309.0</ele><time>2026-04-12T08:02:28.981Z</time></trkpt><trkpt lat="45.77286335213499" lon="8.759704481562046"><ele>309.0</ele><time>2026-04-12T08:02:30.981Z</time></trkpt><trkpt lat="45.77275919422646" lon="8.759642293247131"><ele>309.0</ele><time>2026-04-12T08:02:32.981Z</time></trkpt><trkpt lat="45.7726931553342" lon="8.759624048791043"><ele>309.0</ele><time>2026-04-12T08:02:33.981Z</time></trkpt><trkpt lat="45.77258238453172" lon="8.759583270424134"><ele>309.0</ele><time>2026-04-12T08:02:35.981Z</time></trkpt><trkpt lat="45.77245761987861" lon="8.759519298756887"><ele>309.0</ele><time>2026-04-12T08:02:37.981Z</time></trkpt><trkpt lat="45.77236000125098" lon="8.75942498664006"><ele>309.0</ele><time>2026-04-12T08:02:39.981Z</time></trkpt><trkpt lat="45.772255297987655" lon="8.75930919362135"><ele>310.8</ele><time>2026-04-12T08:02:41.98Z</time></trkpt><trkpt lat="45.772179981778834" lon="8.759211670578912"><ele>312.59999999999997</ele><time>2026-04-12T08:02:43.98Z</time></trkpt><trkpt lat="45.772138042018774" lon="8.759133278444947"><ele>314.4</ele><time>2026-04-12T08:02:44.98Z</time></trkpt><trkpt lat="45.77209250405014" lon="8.759068988333103"><ele>316.2</ele><time>2026-04-12T08:02:45.98Z</time></trkpt><trkpt lat="45.7719963719885" lon="8.758974330753652"><ele>318.0</ele><time>2026-04-12T08:02:47.98Z</time></trkpt><trkpt lat="45.77191327396235" lon="8.758875966908969"><ele>318.0</ele><time>2026-04-12T08:02:49.98Z</time></trkpt><trkpt lat="45.77186674055989" lon="8.758801535287452"><ele>318.0</ele><time>2026-04-12T08:02:50.98Z</time></trkpt><trkpt lat="45.77182197963134" lon="8.75872333807787"><ele>318.0</ele><time>2026-04-12T08:02:51.98Z</time></trkpt><trkpt lat="45.77177530318731" lon="8.758651705668306"><ele>318.0</ele><time>2026-04-12T08:02:52.98Z</time></trkpt><trkpt lat="45.77173666877675" lon="8.758551779345753"><ele>318.0</ele><time>2026-04-12T08:02:53.98Z</time></trkpt><trkpt lat="45.77166096487241" lon="8.758412237156286"><ele>318.0</ele><time>2026-04-12T08:02:55.98Z</time></trkpt><trkpt lat="45.77160062337872" lon="8.758287932653053"><ele>315.6</ele><time>2026-04-12T08:02:57.98Z</time></trkpt><trkpt lat="45.77156356975962" lon="8.758127027021164"><ele>313.20000000000005</ele><time>2026-04-12T08:02:59.98Z</time></trkpt><trkpt lat="45.77151635978813" lon="8.758046926617162"><ele>310.8</ele><time>2026-04-12T08:03:01.98Z</time></trkpt><trkpt lat="45.771474244198316" lon="8.75789577491787"><ele>308.40000000000003</ele><time>2026-04-12T08:03:03.98Z</time></trkpt><trkpt lat="45.771438405489796" lon="8.757740618672075"><ele>306.0</ele><time>2026-04-12T08:03:05.98Z</time></trkpt><trkpt lat="45.77141279198929" lon="8.757647840443605"><ele>306.0</ele><time>2026-04-12T08:03:06.98Z</time></trkpt><trkpt lat="45.771365613559844" lon="8.757485009956754"><ele>306.0</ele><time>2026-04-12T08:03:08.98Z</time></trkpt><trkpt lat="45.77131949502934" lon="8.75736305551356"><ele>306.0</ele><time>2026-04-12T08:03:10.98Z</time></trkpt><trkpt lat="45.77128118745981" lon="8.757222233275545"><ele>306.0</ele><time>2026-04-12T08:03:12.98Z</time></trkpt><trkpt lat="45.7712201405758" lon="8.75708119350034"><ele>306.0</ele><time>2026-04-12T08:03:14.98Z</time></trkpt><trkpt lat="45.77117224652996" lon="8.756936800065162"><ele>306.5</ele><time>2026-04-12T08:03:16.981Z</time></trkpt><trkpt lat="45.77113533012308" lon="8.756828982451475"><ele>307.0</ele><time>2026-04-12T08:03:18.981Z</time></trkpt><trkpt lat="45.77110247520111" lon="8.756738415907515"><ele>307.5</ele><time>2026-04-12T08:03:20.982Z</time></trkpt><trkpt lat="45.77105883024016" lon="8.756670597123149"><ele>308.0</ele><time>2026-04-12T08:03:22.981Z</time></trkpt><trkpt lat="45.77099334213069" lon="8.756594014361314"><ele>308.5</ele><time>2026-04-12T08:03:24.981Z</time></trkpt><trkpt lat="45.770928666562746" lon="8.756489969992954"><ele>309.0</ele><time>2026-04-12T08:03:26.981Z</time></trkpt><trkpt lat="45.77084544908308" lon="8.756410304317319"><ele>309.4</ele><time>2026-04-12T08:03:28.981Z</time></trkpt><trkpt lat="45.77076185748086" lon="8.75633967411004"><ele>309.79999999999995</ele><time>2026-04-12T08:03:30.981Z</time></trkpt><trkpt lat="45.77068648840301" lon="8.756292026553128"><ele>310.20000000000005</ele><time>2026-04-12T08:03:32.981Z</time></trkpt><trkpt lat="45.77061462351429" lon="8.756190360056003"><ele>310.6</ele><time>2026-04-12T08:03:34.981Z</time></trkpt><trkpt lat="45.770544422407426" lon="8.756044580739733"><ele>311.0</ele><time>2026-04-12T08:03:36.981Z</time></trkpt><trkpt lat="45.77051796966917" lon="8.755913838241536"><ele>311.0</ele><time>2026-04-12T08:03:38.981Z</time></trkpt><trkpt lat="45.77049431594799" lon="8.755766349075586"><ele>311.0</ele><time>2026-04-12T08:03:40.981Z</time></trkpt><trkpt lat="45.77049360770912" lon="8.75560485037303"><ele>311.0</ele><time>2026-04-12T08:03:42.981Z</time></trkpt><trkpt lat="45.77047191103918" lon="8.755500019422385"><ele>311.0</ele><time>2026-04-12T08:03:44.981Z</time></trkpt><trkpt lat="45.77046048291364" lon="8.755353900587588"><ele>311.0</ele><time>2026-04-12T08:03:46.98Z</time></trkpt><trkpt lat="45.77044596525401" lon="8.755235283190167"><ele>312.0</ele><time>2026-04-12T08:03:48.98Z</time></trkpt><trkpt lat="45.770436785824984" lon="8.755082591817295"><ele>313.0</ele><time>2026-04-12T08:03:50.98Z</time></trkpt><trkpt lat="45.77042169429567" lon="8.754994110051243"><ele>314.0</ele><time>2026-04-12T08:03:51.98Z</time></trkpt><trkpt lat="45.77039356369586" lon="8.754851474593567"><ele>315.0</ele><time>2026-04-12T08:03:53.98Z</time></trkpt><trkpt lat="45.77035149633514" lon="8.754708535449167"><ele>316.0</ele><time>2026-04-12T08:03:55.98Z</time></trkpt><trkpt lat="45.770313381337935" lon="8.754599264904433"><ele>316.0</ele><time>2026-04-12T08:03:57.98Z</time></trkpt><trkpt lat="45.770309414264254" lon="8.754481711365502"><ele>316.0</ele><time>2026-04-12T08:03:59.98Z</time></trkpt><trkpt lat="45.770327940920325" lon="8.754355097217587"><ele>316.0</ele><time>2026-04-12T08:04:01.98Z</time></trkpt><trkpt lat="45.77038287970439" lon="8.754269077674472"><ele>316.0</ele><time>2026-04-12T08:04:03.98Z</time></trkpt><trkpt lat="45.77045620731082" lon="8.754183474051347"><ele>316.0</ele><time>2026-04-12T08:04:05.98Z</time></trkpt><trkpt lat="45.770523174698035" lon="8.754100580262124"><ele>316.0</ele><time>2026-04-12T08:04:07.98Z</time></trkpt><trkpt lat="45.77057735955168" lon="8.754013955889638"><ele>315.16666666666663</ele><time>2026-04-12T08:04:09.98Z</time></trkpt><trkpt lat="45.770632973779364" lon="8.753947732406717"><ele>314.3333333333333</ele><time>2026-04-12T08:04:11.98Z</time></trkpt><trkpt lat="45.770690370631" lon="8.753896339934192"><ele>313.5</ele><time>2026-04-12T08:04:13.98Z</time></trkpt><trkpt lat="45.77075156660533" lon="8.75381633418859"><ele>312.6666666666667</ele><time>2026-04-12T08:04:15.98Z</time></trkpt><trkpt lat="45.770818387688" lon="8.753749261398948"><ele>311.83333333333337</ele><time>2026-04-12T08:04:17.98Z</time></trkpt><trkpt lat="45.77087695391043" lon="8.753669599482532"><ele>311.0</ele><time>2026-04-12T08:04:19.98Z</time></trkpt><trkpt lat="45.77089924364335" lon="8.75357707408576"><ele>308.8</ele><time>2026-04-12T08:04:21.98Z</time></trkpt><trkpt lat="45.770907390735914" lon="8.753453225556633"><ele>306.6</ele><time>2026-04-12T08:04:23.98Z</time></trkpt><trkpt lat="45.77091494873072" lon="8.75330927664761"><ele>304.4</ele><time>2026-04-12T08:04:25.98Z</time></trkpt><trkpt lat="45.77092763474731" lon="8.753184257404682"><ele>302.2</ele><time>2026-04-12T08:04:27.98Z</time></trkpt><trkpt lat="45.77094546624369" lon="8.753044799425432"><ele>300.0</ele><time>2026-04-12T08:04:29.98Z</time></trkpt><trkpt lat="45.770966517717326" lon="8.752902016256842"><ele>300.0</ele><time>2026-04-12T08:04:31.98Z</time></trkpt><trkpt lat="45.7709652902274" lon="8.752758330484818"><ele>300.0</ele><time>2026-04-12T08:04:33.98Z</time></trkpt><trkpt lat="45.77096516760378" lon="8.752632805546819"><ele>300.0</ele><time>2026-04-12T08:04:35.979Z</time></trkpt><trkpt lat="45.770952605825364" lon="8.7525169090569"><ele>300.0</ele><time>2026-04-12T08:04:37.979Z</time></trkpt><trkpt lat="45.77095462650991" lon="8.752387521711574"><ele>300.0</ele><time>2026-04-12T08:04:39.979Z</time></trkpt><trkpt lat="45.77096107493433" lon="8.752246911649317"><ele>300.6666666666667</ele><time>2026-04-12T08:04:41.979Z</time></trkpt><trkpt lat="45.770962284701376" lon="8.752108461014862"><ele>301.3333333333333</ele><time>2026-04-12T08:04:43.979Z</time></trkpt><trkpt lat="45.770964372251605" lon="8.752010988540384"><ele>302.0</ele><time>2026-04-12T08:04:45.979Z</time></trkpt><trkpt lat="45.77095982113237" lon="8.751916121906278"><ele>302.66666666666663</ele><time>2026-04-12T08:04:47.979Z</time></trkpt><trkpt lat="45.7709539388565" lon="8.751805675063943"><ele>303.3333333333333</ele><time>2026-04-12T08:04:49.979Z</time></trkpt><trkpt lat="45.77095032975186" lon="8.751711982718271"><ele>304.0</ele><time>2026-04-12T08:04:51.979Z</time></trkpt><trkpt lat="45.770948425159204" lon="8.751577728123795"><ele>304.0</ele><time>2026-04-12T08:04:55.979Z</time></trkpt><trkpt lat="45.77090475730979" lon="8.751481476362157"><ele>304.0</ele><time>2026-04-12T08:04:58.979Z</time></trkpt><trkpt lat="45.77083625991153" lon="8.751456166510943"><ele>304.0</ele><time>2026-04-12T08:05:01.979Z</time></trkpt><trkpt lat="45.77076860418037" lon="8.75150067315037"><ele>304.0</ele><time>2026-04-12T08:05:06.979Z</time></trkpt><trkpt lat="45.770697891257576" lon="8.751518611229569"><ele>304.0</ele><time>2026-04-12T08:05:10.979Z</time></trkpt><trkpt lat="45.770639710241596" lon="8.751561132087167"><ele>304.0</ele><time>2026-04-12T08:05:13.979Z</time></trkpt><trkpt lat="45.7705704945046" lon="8.75157651391956"><ele>304.0</ele><time>2026-04-12T08:05:16.979Z</time></trkpt><trkpt lat="45.77049964655066" lon="8.751572897443692"><ele>304.0</ele><time>2026-04-12T08:05:19.979Z</time></trkpt><trkpt lat="45.770415572068586" lon="8.751562594332048"><ele>304.0</ele><time>2026-04-12T08:05:22.98Z</time></trkpt><trkpt lat="45.77033665774721" lon="8.751568363576586"><ele>304.0</ele><time>2026-04-12T08:05:25.98Z</time></trkpt><trkpt lat="45.77027040315626" lon="8.751569078782474"><ele>304.0</ele><time>2026-04-12T08:05:27.98Z</time></trkpt><trkpt lat="45.77019169983023" lon="8.751575004168686"><ele>304.0</ele><time>2026-04-12T08:05:30.98Z</time></trkpt><trkpt lat="45.7701258227431" lon="8.751589915385104"><ele>304.0</ele><time>2026-04-12T08:05:32.981Z</time></trkpt><trkpt lat="45.77006286766347" lon="8.751610883087832"><ele>304.0</ele><time>2026-04-12T08:05:34.98Z</time></trkpt><trkpt lat="45.76999045807207" lon="8.7516095018533"><ele>305.3333333333333</ele><time>2026-04-12T08:05:36.98Z</time></trkpt><trkpt lat="45.76992710188282" lon="8.751627790687913"><ele>306.66666666666663</ele><time>2026-04-12T08:05:38.98Z</time></trkpt><trkpt lat="45.76984392431064" lon="8.751598468810625"><ele>308.0</ele><time>2026-04-12T08:05:41.98Z</time></trkpt><trkpt lat="45.76975678688918" lon="8.751566810891244"><ele>309.3333333333333</ele><time>2026-04-12T08:05:44.98Z</time></trkpt><trkpt lat="45.76968906011676" lon="8.75156888461659"><ele>310.6666666666667</ele><time>2026-04-12T08:05:47.98Z</time></trkpt><trkpt lat="45.76961368543335" lon="8.751559080318621"><ele>312.0</ele><time>2026-04-12T08:05:49.98Z</time></trkpt><trkpt lat="45.76954341158215" lon="8.751498971670568"><ele>312.0</ele><time>2026-04-12T08:05:51.98Z</time></trkpt><trkpt lat="45.769474377958915" lon="8.751447692788867"><ele>312.0</ele><time>2026-04-12T08:05:54.979Z</time></trkpt><trkpt lat="45.76941094199115" lon="8.751420428267341"><ele>312.0</ele><time>2026-04-12T08:05:56.979Z</time></trkpt><trkpt lat="45.7693527089621" lon="8.751377177772714"><ele>312.0</ele><time>2026-04-12T08:05:58.979Z</time></trkpt><trkpt lat="45.76930786130892" lon="8.75129734728665"><ele>312.0</ele><time>2026-04-12T08:06:00.979Z</time></trkpt><trkpt lat="45.76923649100582" lon="8.751202242951713"><ele>312.0</ele><time>2026-04-12T08:06:31.979Z</time></trkpt><trkpt lat="45.76916553686405" lon="8.751165388515881"><ele>312.1666666666667</ele><time>2026-04-12T08:06:39.979Z</time></trkpt><trkpt lat="45.76910696222616" lon="8.75107777190296"><ele>312.3333333333333</ele><time>2026-04-12T08:06:48.978Z</time></trkpt><trkpt lat="45.769053055036174" lon="8.750980165376903"><ele>312.5</ele><time>2026-04-12T08:06:50.978Z</time></trkpt><trkpt lat="45.769031153245336" lon="8.750885587466204"><ele>312.66666666666663</ele><time>2026-04-12T08:06:52.978Z</time></trkpt><trkpt lat="45.76900009077727" lon="8.750797824598665"><ele>312.8333333333333</ele><time>2026-04-12T08:06:54.978Z</time></trkpt><trkpt lat="45.7689529010707" lon="8.750696556876834"><ele>313.0</ele><time>2026-04-12T08:06:56.978Z</time></trkpt><trkpt lat="45.76890628934148" lon="8.75058226494044"><ele>313.0</ele><time>2026-04-12T08:06:58.978Z</time></trkpt><trkpt lat="45.76886281117333" lon="8.75049865925943"><ele>313.0</ele><time>2026-04-12T08:07:00.978Z</time></trkpt><trkpt lat="45.76881059328529" lon="8.750421495290514"><ele>313.0</ele><time>2026-04-12T08:07:02.978Z</time></trkpt><trkpt lat="45.76873735918158" lon="8.75033609648521"><ele>313.0</ele><time>2026-04-12T08:07:04.978Z</time></trkpt><trkpt lat="45.76866393650014" lon="8.750274352734188"><ele>313.0</ele><time>2026-04-12T08:07:06.978Z</time></trkpt><trkpt lat="45.768601794172795" lon="8.750216906270648"><ele>313.0</ele><time>2026-04-12T08:07:08.978Z</time></trkpt><trkpt lat="45.76852645704943" lon="8.750153419922691"><ele>312.7142857142857</ele><time>2026-04-12T08:07:12.978Z</time></trkpt><trkpt lat="45.76844923639172" lon="8.750089069418214"><ele>312.42857142857144</ele><time>2026-04-12T08:07:14.978Z</time></trkpt><trkpt lat="45.7683892293166" lon="8.750056142528658"><ele>312.1428571428571</ele><time>2026-04-12T08:07:17.978Z</time></trkpt><trkpt lat="45.768325035265" lon="8.750056600935418"><ele>311.8571428571429</ele><time>2026-04-12T08:07:25.978Z</time></trkpt><trkpt lat="45.76826538627905" lon="8.750018279233396"><ele>311.5714285714286</ele><time>2026-04-12T08:07:47.979Z</time></trkpt><trkpt lat="45.768196332109405" lon="8.750100564306027"><ele>311.2857142857143</ele><time>2026-04-12T08:07:55.978Z</time></trkpt><trkpt lat="45.768121651162204" lon="8.750118884689728"><ele>311.0</ele><time>2026-04-12T08:07:57.978Z</time></trkpt><trkpt lat="45.76805846884241" lon="8.750154373832233"><ele>311.0</ele><time>2026-04-12T08:07:59.978Z</time></trkpt><trkpt lat="45.767996551781884" lon="8.750196598530342"><ele>311.0</ele><time>2026-04-12T08:08:01.978Z</time></trkpt><trkpt lat="45.767925905266814" lon="8.75022135391233"><ele>311.0</ele><time>2026-04-12T08:08:03.978Z</time></trkpt><trkpt lat="45.76783517119505" lon="8.750224171133496"><ele>311.0</ele><time>2026-04-12T08:08:05.978Z</time></trkpt><trkpt lat="45.76776882469995" lon="8.750234258667694"><ele>311.0</ele><time>2026-04-12T08:08:07.978Z</time></trkpt><trkpt lat="45.76769532561172" lon="8.750221085138747"><ele>311.0</ele><time>2026-04-12T08:08:09.978Z</time></trkpt><trkpt lat="45.76761909091492" lon="8.750234255852385"><ele>309.83333333333337</ele><time>2026-04-12T08:08:11.978Z</time></trkpt><trkpt lat="45.76755525980063" lon="8.750259911357283"><ele>308.6666666666667</ele><time>2026-04-12T08:08:13.978Z</time></trkpt><trkpt lat="45.76747721024333" lon="8.750283407885732"><ele>307.5</ele><time>2026-04-12T08:08:16.978Z</time></trkpt><trkpt lat="45.76742472304217" lon="8.750335384156532"><ele>306.3333333333333</ele><time>2026-04-12T08:08:18.978Z</time></trkpt><trkpt lat="45.767333642114394" lon="8.750364424004362"><ele>305.16666666666663</ele><time>2026-04-12T08:08:21.978Z</time></trkpt><trkpt lat="45.767256661338656" lon="8.750413896663844"><ele>304.0</ele><time>2026-04-12T08:08:24.978Z</time></trkpt><trkpt lat="45.767165438739184" lon="8.750430121777013"><ele>304.0</ele><time>2026-04-12T08:08:27.978Z</time></trkpt><trkpt lat="45.76707935750752" lon="8.750483140736227"><ele>304.0</ele><time>2026-04-12T08:08:30.978Z</time></trkpt><trkpt lat="45.76701666783863" lon="8.750549551626609"><ele>304.0</ele><time>2026-04-12T08:08:33.978Z</time></trkpt><trkpt lat="45.766944669601706" lon="8.750557075986181"><ele>304.0</ele><time>2026-04-12T08:08:35.978Z</time></trkpt><trkpt lat="45.76688086433303" lon="8.750565077551785"><ele>304.0</ele><time>2026-04-12T08:08:37.978Z</time></trkpt><trkpt lat="45.766817357628874" lon="8.750624821304157"><ele>304.0</ele><time>2026-04-12T08:08:40.978Z</time></trkpt><trkpt lat="45.76675551267091" lon="8.750602213523544"><ele>304.0</ele><time>2026-04-12T08:08:42.978Z</time></trkpt><trkpt lat="45.76672721523147" lon="8.75050092662371"><ele>305.0</ele><time>2026-04-12T08:08:46.977Z</time></trkpt><trkpt lat="45.76676446140148" lon="8.750403756728408"><ele>306.0</ele><time>2026-04-12T08:08:51.977Z</time></trkpt><trkpt lat="45.76679310946088" lon="8.750290513052086"><ele>307.0</ele><time>2026-04-12T08:08:55.977Z</time></trkpt><trkpt lat="45.76683685662406" lon="8.750177120273698"><ele>308.0</ele><time>2026-04-12T08:08:59.977Z</time></trkpt><trkpt lat="45.766866698828444" lon="8.75007557491844"><ele>309.0</ele><time>2026-04-12T08:09:02.977Z</time></trkpt><trkpt lat="45.76686534646003" lon="8.749983243276539"><ele>310.0</ele><time>2026-04-12T08:09:05.977Z</time></trkpt><trkpt lat="45.76687849511157" lon="8.749848859924331"><ele>311.14285714285717</ele><time>2026-04-12T08:09:09.977Z</time></trkpt><trkpt lat="45.766866906193336" lon="8.749755616122577"><ele>312.2857142857143</ele><time>2026-04-12T08:09:12.977Z</time></trkpt><trkpt lat="45.76685062301559" lon="8.749666361997265"><ele>313.42857142857144</ele><time>2026-04-12T08:09:16.977Z</time></trkpt><trkpt lat="45.76684316764633" lon="8.74954405339648"><ele>314.57142857142856</ele><time>2026-04-12T08:09:19.977Z</time></trkpt><trkpt lat="45.766835099234754" lon="8.749425099922979"><ele>315.7142857142857</ele><time>2026-04-12T08:09:22.977Z</time></trkpt><trkpt lat="45.76682640575365" lon="8.749325060875357"><ele>316.85714285714283</ele><time>2026-04-12T08:09:25.977Z</time></trkpt><trkpt lat="45.76682918972219" lon="8.7492190142219"><ele>318.0</ele><time>2026-04-12T08:09:28.977Z</time></trkpt><trkpt lat="45.76683463023225" lon="8.7491285675171"><ele>320.0</ele><time>2026-04-12T08:09:30.977Z</time></trkpt><trkpt lat="45.76682787611637" lon="8.749029578808578"><ele>322.0</ele><time>2026-04-12T08:09:33.978Z</time></trkpt><trkpt lat="45.766819097926394" lon="8.748920979697859"><ele>324.0</ele><time>2026-04-12T08:09:35.978Z</time></trkpt><trkpt lat="45.766802025648694" lon="8.748823419173695"><ele>326.0</ele><time>2026-04-12T08:09:37.978Z</time></trkpt><trkpt lat="45.76676786469483" lon="8.748694877444443"><ele>328.0</ele><time>2026-04-12T08:09:40.979Z</time></trkpt><trkpt lat="45.766715442238294" lon="8.748616873390823"><ele>330.0</ele><time>2026-04-12T08:09:42.979Z</time></trkpt><trkpt lat="45.766698545974705" lon="8.74849591587242"><ele>330.0</ele><time>2026-04-12T08:09:44.978Z</time></trkpt><trkpt lat="45.76668385892015" lon="8.748385320606449"><ele>330.0</ele><time>2026-04-12T08:09:46.978Z</time></trkpt><trkpt lat="45.76665477236629" lon="8.74828965199565"><ele>330.0</ele><time>2026-04-12T08:09:48.978Z</time></trkpt><trkpt lat="45.766615678816514" lon="8.748166425740385"><ele>330.0</ele><time>2026-04-12T08:09:51.978Z</time></trkpt><trkpt lat="45.766576250783864" lon="8.748059859954747"><ele>330.0</ele><time>2026-04-12T08:09:54.978Z</time></trkpt><trkpt lat="45.76652822336783" lon="8.747959904678002"><ele>330.0</ele><time>2026-04-12T08:09:57.978Z</time></trkpt><trkpt lat="45.76650000004358" lon="8.747854164484655"><ele>330.0</ele><time>2026-04-12T08:10:00.978Z</time></trkpt><trkpt lat="45.766485044648924" lon="8.747727003613225"><ele>330.0</ele><time>2026-04-12T08:10:03.977Z</time></trkpt><trkpt lat="45.766467817363385" lon="8.747637669134038"><ele>330.0</ele><time>2026-04-12T08:10:05.977Z</time></trkpt><trkpt lat="45.766443020469325" lon="8.747537023761533"><ele>330.0</ele><time>2026-04-12T08:10:07.977Z</time></trkpt><trkpt lat="45.76640995646519" lon="8.74743101414435"><ele>330.0</ele><time>2026-04-12T08:10:10.977Z</time></trkpt><trkpt lat="45.76637899965977" lon="8.747304638432752"><ele>330.0</ele><time>2026-04-12T08:10:13.977Z</time></trkpt><trkpt lat="45.76636778132867" lon="8.74719835665684"><ele>330.28571428571433</ele><time>2026-04-12T08:10:15.977Z</time></trkpt><trkpt lat="45.76634303218688" lon="8.747087694494025"><ele>330.57142857142856</ele><time>2026-04-12T08:10:18.977Z</time></trkpt><trkpt lat="45.76634088173395" lon="8.746987613319781"><ele>330.8571428571429</ele><time>2026-04-12T08:10:20.977Z</time></trkpt><trkpt lat="45.76632921239062" lon="8.746873828996723"><ele>331.14285714285717</ele><time>2026-04-12T08:10:23.977Z</time></trkpt><trkpt lat="45.76631134278186" lon="8.746774222757203"><ele>331.42857142857144</ele><time>2026-04-12T08:10:25.977Z</time></trkpt><trkpt lat="45.76629834097935" lon="8.746684106786386"><ele>331.7142857142857</ele><time>2026-04-12T08:10:27.977Z</time></trkpt><trkpt lat="45.766284915444686" lon="8.746575721691032"><ele>332.0</ele><time>2026-04-12T08:10:29.977Z</time></trkpt><trkpt lat="45.766267183294914" lon="8.746457096852513"><ele>332.6</ele><time>2026-04-12T08:10:31.977Z</time></trkpt><trkpt lat="45.76624707447471" lon="8.746353669472436"><ele>333.20000000000005</ele><time>2026-04-12T08:10:33.977Z</time></trkpt><trkpt lat="45.76625276530313" lon="8.746202654744081"><ele>333.8</ele><time>2026-04-12T08:10:35.977Z</time></trkpt><trkpt lat="45.76628611453891" lon="8.746078281601006"><ele>334.4</ele><time>2026-04-12T08:10:37.977Z</time></trkpt><trkpt lat="45.76634235148682" lon="8.745971874715632"><ele>335.0</ele><time>2026-04-12T08:10:39.977Z</time></trkpt><trkpt lat="45.76640610098023" lon="8.745874587098887"><ele>335.1666666666667</ele><time>2026-04-12T08:10:41.977Z</time></trkpt><trkpt lat="45.76647217427464" lon="8.74579898810278"><ele>335.33333333333337</ele><time>2026-04-12T08:10:43.977Z</time></trkpt><trkpt lat="45.76653694304259" lon="8.745736560160603"><ele>335.5</ele><time>2026-04-12T08:10:45.977Z</time></trkpt><trkpt lat="45.76659467598811" lon="8.745669887669951"><ele>335.6666666666667</ele><time>2026-04-12T08:10:47.977Z</time></trkpt><trkpt lat="45.766650055856516" lon="8.74555363379661"><ele>335.8333333333333</ele><time>2026-04-12T08:10:50.977Z</time></trkpt><trkpt lat="45.76670028755627" lon="8.745454793838032"><ele>336.0</ele><time>2026-04-12T08:10:52.977Z</time></trkpt><trkpt lat="45.76674921700727" lon="8.745345664653707"><ele>336.0</ele><time>2026-04-12T08:10:54.976Z</time></trkpt><trkpt lat="45.76678618470642" lon="8.745242028741059"><ele>336.0</ele><time>2026-04-12T08:10:56.976Z</time></trkpt><trkpt lat="45.766827658725006" lon="8.745139008730147"><ele>336.0</ele><time>2026-04-12T08:10:58.976Z</time></trkpt><trkpt lat="45.7668580987112" lon="8.745032772421002"><ele>336.0</ele><time>2026-04-12T08:11:00.976Z</time></trkpt><trkpt lat="45.766884641237304" lon="8.744921969697463"><ele>336.0</ele><time>2026-04-12T08:11:02.976Z</time></trkpt><trkpt lat="45.76691231493007" lon="8.744809265698885"><ele>336.0</ele><time>2026-04-12T08:11:04.976Z</time></trkpt><trkpt lat="45.76692860141109" lon="8.74469301182185"><ele>336.42857142857144</ele><time>2026-04-12T08:11:06.976Z</time></trkpt><trkpt lat="45.766947900839504" lon="8.744570367877218"><ele>336.8571428571429</ele><time>2026-04-12T08:11:08.976Z</time></trkpt><trkpt lat="45.76697877381916" lon="8.74448194888473"><ele>337.2857142857143</ele><time>2026-04-12T08:11:10.976Z</time></trkpt><trkpt lat="45.76700835830991" lon="8.744395879927712"><ele>337.7142857142857</ele><time>2026-04-12T08:11:12.976Z</time></trkpt><trkpt lat="45.76699667043237" lon="8.744274422353564"><ele>338.14285714285717</ele><time>2026-04-12T08:11:15.976Z</time></trkpt><trkpt lat="45.76692969453239" lon="8.744245888795374"><ele>338.57142857142856</ele><time>2026-04-12T08:11:17.976Z</time></trkpt><trkpt lat="45.76686246581607" lon="8.744239867179756"><ele>339.0</ele><time>2026-04-12T08:11:19.976Z</time></trkpt><trkpt lat="45.76678848009586" lon="8.744198807908004"><ele>340.0</ele><time>2026-04-12T08:11:21.976Z</time></trkpt><trkpt lat="45.76670730073331" lon="8.744155270294014"><ele>341.0</ele><time>2026-04-12T08:11:24.976Z</time></trkpt><trkpt lat="45.7666479663805" lon="8.744110697286606"><ele>342.0</ele><time>2026-04-12T08:11:26.976Z</time></trkpt><trkpt lat="45.76657748199932" lon="8.744127983926962"><ele>343.0</ele><time>2026-04-12T08:11:30.976Z</time></trkpt><trkpt lat="45.76651565274982" lon="8.744166074582258"><ele>344.0</ele><time>2026-04-12T08:11:32.976Z</time></trkpt><trkpt lat="45.76644609711896" lon="8.744236933430878"><ele>345.0</ele><time>2026-04-12T08:11:34.976Z</time></trkpt><trkpt lat="45.76637449450459" lon="8.744338100365242"><ele>345.0</ele><time>2026-04-12T08:11:36.976Z</time></trkpt><trkpt lat="45.76627504548681" lon="8.744448821539551"><ele>345.0</ele><time>2026-04-12T08:11:38.976Z</time></trkpt><trkpt lat="45.76621170496428" lon="8.744477029083928"><ele>345.0</ele><time>2026-04-12T08:11:39.977Z</time></trkpt><trkpt lat="45.76613905496583" lon="8.744462614621147"><ele>345.0</ele><time>2026-04-12T08:11:40.977Z</time></trkpt><trkpt lat="45.76608156867187" lon="8.744419205754406"><ele>345.0</ele><time>2026-04-12T08:11:41.977Z</time></trkpt><trkpt lat="45.766043623456376" lon="8.744324771114037"><ele>345.0</ele><time>2026-04-12T08:11:42.977Z</time></trkpt><trkpt lat="45.76598668994232" lon="8.744233112447763"><ele>344.1666666666667</ele><time>2026-04-12T08:11:43.978Z</time></trkpt><trkpt lat="45.765938707295646" lon="8.744152850772412"><ele>343.3333333333333</ele><time>2026-04-12T08:11:44.978Z</time></trkpt><trkpt lat="45.76583592642251" lon="8.74408747803421"><ele>342.5</ele><time>2026-04-12T08:11:46.977Z</time></trkpt><trkpt lat="45.76576661290021" lon="8.744119924907976"><ele>341.66666666666663</ele><time>2026-04-12T08:11:47.977Z</time></trkpt><trkpt lat="45.76570729425474" lon="8.744209277918209"><ele>340.8333333333333</ele><time>2026-04-12T08:11:48.978Z</time></trkpt><trkpt lat="45.76566865835955" lon="8.744317511343741"><ele>340.0</ele><time>2026-04-12T08:11:49.977Z</time></trkpt><trkpt lat="45.765628011938176" lon="8.744430237263254"><ele>339.0</ele><time>2026-04-12T08:11:50.977Z</time></trkpt><trkpt lat="45.765594193386434" lon="8.74453439293365"><ele>338.0</ele><time>2026-04-12T08:11:51.977Z</time></trkpt><trkpt lat="45.765561031457615" lon="8.744632794789647"><ele>337.0</ele><time>2026-04-12T08:11:52.978Z</time></trkpt><trkpt lat="45.765518493724954" lon="8.744734075546937"><ele>336.0</ele><time>2026-04-12T08:11:53.977Z</time></trkpt><trkpt lat="45.76547197569047" lon="8.74483583931535"><ele>335.0</ele><time>2026-04-12T08:11:54.977Z</time></trkpt><trkpt lat="45.7654314805261" lon="8.744936090787395"><ele>334.0</ele><time>2026-04-12T08:11:55.977Z</time></trkpt><trkpt lat="45.765382412834924" lon="8.74504315131886"><ele>334.0</ele><time>2026-04-12T08:11:56.977Z</time></trkpt><trkpt lat="45.76533806249146" lon="8.745152207865546"><ele>334.0</ele><time>2026-04-12T08:11:57.977Z</time></trkpt><trkpt lat="45.76530451701162" lon="8.745260739076459"><ele>334.0</ele><time>2026-04-12T08:11:58.977Z</time></trkpt><trkpt lat="45.76525015087558" lon="8.74538239892975"><ele>334.0</ele><time>2026-04-12T08:11:59.977Z</time></trkpt><trkpt lat="45.76520735767845" lon="8.74549497530369"><ele>334.0</ele><time>2026-04-12T08:12:00.977Z</time></trkpt><trkpt lat="45.76516960947907" lon="8.745605536940056"><ele>334.0</ele><time>2026-04-12T08:12:01.977Z</time></trkpt><trkpt lat="45.7651250001752" lon="8.745718450587141"><ele>332.4</ele><time>2026-04-12T08:12:02.977Z</time></trkpt><trkpt lat="45.765078709305136" lon="8.745827819518972"><ele>330.79999999999995</ele><time>2026-04-12T08:12:03.977Z</time></trkpt><trkpt lat="45.765028181085704" lon="8.745941910865003"><ele>329.20000000000005</ele><time>2026-04-12T08:12:04.977Z</time></trkpt><trkpt lat="45.76497440249682" lon="8.746052234341944"><ele>327.6</ele><time>2026-04-12T08:12:05.977Z</time></trkpt><trkpt lat="45.764923517251376" lon="8.746157966742055"><ele>326.0</ele><time>2026-04-12T08:12:06.977Z</time></trkpt><trkpt lat="45.76486900059912" lon="8.746260843481926"><ele>325.0</ele><time>2026-04-12T08:12:07.977Z</time></trkpt><trkpt lat="45.76481390523629" lon="8.746356118683277"><ele>324.0</ele><time>2026-04-12T08:12:08.977Z</time></trkpt><trkpt lat="45.76475818689306" lon="8.746449693208756"><ele>323.0</ele><time>2026-04-12T08:12:09.977Z</time></trkpt><trkpt lat="45.76470998400055" lon="8.746546442389265"><ele>322.0</ele><time>2026-04-12T08:12:10.977Z</time></trkpt><trkpt lat="45.764664889997896" lon="8.7466367469983"><ele>321.0</ele><time>2026-04-12T08:12:11.977Z</time></trkpt><trkpt lat="45.7646058366167" lon="8.746731268989853"><ele>320.0</ele><time>2026-04-12T08:12:12.977Z</time></trkpt><trkpt lat="45.764558894919354" lon="8.746804979833817"><ele>319.33333333333337</ele><time>2026-04-12T08:12:13.977Z</time></trkpt><trkpt lat="45.76449688123819" lon="8.746895390028204"><ele>318.6666666666667</ele><time>2026-04-12T08:12:14.977Z</time></trkpt><trkpt lat="45.76444958548045" lon="8.746986622499982"><ele>318.0</ele><time>2026-04-12T08:12:15.977Z</time></trkpt><trkpt lat="45.764398276629855" lon="8.74708536617007"><ele>317.3333333333333</ele><time>2026-04-12T08:12:16.977Z</time></trkpt><trkpt lat="45.764334150751466" lon="8.747186120618576"><ele>316.66666666666663</ele><time>2026-04-12T08:12:17.977Z</time></trkpt><trkpt lat="45.76428923519911" lon="8.747274655007567"><ele>316.0</ele><time>2026-04-12T08:12:18.977Z</time></trkpt><trkpt lat="45.764225899278955" lon="8.74734806425245"><ele>315.5</ele><time>2026-04-12T08:12:19.977Z</time></trkpt><trkpt lat="45.76417530221963" lon="8.747436468867742"><ele>315.0</ele><time>2026-04-12T08:12:20.977Z</time></trkpt><trkpt lat="45.76411751467898" lon="8.747537665852573"><ele>314.5</ele><time>2026-04-12T08:12:21.977Z</time></trkpt><trkpt lat="45.76407172729359" lon="8.747620650102013"><ele>314.0</ele><time>2026-04-12T08:12:22.977Z</time></trkpt><trkpt lat="45.76402201996176" lon="8.747694702142462"><ele>313.5</ele><time>2026-04-12T08:12:23.977Z</time></trkpt><trkpt lat="45.763970136934105" lon="8.747776724920186"><ele>313.0</ele><time>2026-04-12T08:12:24.977Z</time></trkpt><trkpt lat="45.763883383739284" lon="8.747833780542582"><ele>313.0</ele><time>2026-04-12T08:12:25.977Z</time></trkpt><trkpt lat="45.763798590251945" lon="8.74789656348604"><ele>313.0</ele><time>2026-04-12T08:12:26.977Z</time></trkpt><trkpt lat="45.76370171564226" lon="8.747922400221393"><ele>313.0</ele><time>2026-04-12T08:12:27.977Z</time></trkpt><trkpt lat="45.763610378037505" lon="8.747961547093658"><ele>313.0</ele><time>2026-04-12T08:12:28.977Z</time></trkpt><trkpt lat="45.76350557628362" lon="8.748004617469618"><ele>313.0</ele><time>2026-04-12T08:12:29.977Z</time></trkpt><trkpt lat="45.763418246200466" lon="8.748041767438629"><ele>313.2</ele><time>2026-04-12T08:12:30.977Z</time></trkpt><trkpt lat="45.76332081583159" lon="8.748104931757364"><ele>313.4</ele><time>2026-04-12T08:12:31.977Z</time></trkpt><trkpt lat="45.76319514722035" lon="8.748109996404459"><ele>313.59999999999997</ele><time>2026-04-12T08:12:32.977Z</time></trkpt><trkpt lat="45.76310304341219" lon="8.748131455028053"><ele>313.8</ele><time>2026-04-12T08:12:33.977Z</time></trkpt><trkpt lat="45.762996157442984" lon="8.748198423716126"><ele>314.0</ele><time>2026-04-12T08:12:34.977Z</time></trkpt><trkpt lat="45.762891092934545" lon="8.748243605406959"><ele>314.0</ele><time>2026-04-12T08:12:35.977Z</time></trkpt><trkpt lat="45.76279853153222" lon="8.748283410238846"><ele>314.0</ele><time>2026-04-12T08:12:36.977Z</time></trkpt><trkpt lat="45.76269737315205" lon="8.748326912315187"><ele>314.0</ele><time>2026-04-12T08:12:37.977Z</time></trkpt><trkpt lat="45.76259628245579" lon="8.748354496258155"><ele>314.0</ele><time>2026-04-12T08:12:38.977Z</time></trkpt><trkpt lat="45.76249209232246" lon="8.748394536620157"><ele>314.0</ele><time>2026-04-12T08:12:39.977Z</time></trkpt><trkpt lat="45.76240090262849" lon="8.748445640600048"><ele>314.2</ele><time>2026-04-12T08:12:40.977Z</time></trkpt><trkpt lat="45.76230352295448" lon="8.748492817677581"><ele>314.4</ele><time>2026-04-12T08:12:41.977Z</time></trkpt><trkpt lat="45.76219902256092" lon="8.748532617708376"><ele>314.6</ele><time>2026-04-12T08:12:42.976Z</time></trkpt><trkpt lat="45.76211813620724" lon="8.748585728965073"><ele>314.8</ele><time>2026-04-12T08:12:43.976Z</time></trkpt><trkpt lat="45.76202198454129" lon="8.74863685487743"><ele>315.0</ele><time>2026-04-12T08:12:44.976Z</time></trkpt><trkpt lat="45.76191486182758" lon="8.748674548199725"><ele>311.4</ele><time>2026-04-12T08:12:45.976Z</time></trkpt><trkpt lat="45.76182188797885" lon="8.748714999363502"><ele>307.8</ele><time>2026-04-12T08:12:46.976Z</time></trkpt><trkpt lat="45.761731228299766" lon="8.748753341260784"><ele>304.2</ele><time>2026-04-12T08:12:47.976Z</time></trkpt><trkpt lat="45.76164933496276" lon="8.748793486133353"><ele>300.6</ele><time>2026-04-12T08:12:48.976Z</time></trkpt><trkpt lat="45.76155408149758" lon="8.74883276382789"><ele>297.0</ele><time>2026-04-12T08:12:49.976Z</time></trkpt><trkpt lat="45.761455573924344" lon="8.748861186905296"><ele>297.0</ele><time>2026-04-12T08:12:50.976Z</time></trkpt><trkpt lat="45.76137977197826" lon="8.748914441967582"><ele>297.0</ele><time>2026-04-12T08:12:51.976Z</time></trkpt><trkpt lat="45.761293750065896" lon="8.748957451390273"><ele>297.0</ele><time>2026-04-12T08:12:52.976Z</time></trkpt><trkpt lat="45.7612072582343" lon="8.749000219767103"><ele>297.0</ele><time>2026-04-12T08:12:53.976Z</time></trkpt><trkpt lat="45.76112465466155" lon="8.74904273164734"><ele>297.0</ele><time>2026-04-12T08:12:54.976Z</time></trkpt><trkpt lat="45.76102795351101" lon="8.74907502027015"><ele>297.0</ele><time>2026-04-12T08:12:55.976Z</time></trkpt><trkpt lat="45.7609447960117" lon="8.749112542399025"><ele>297.0</ele><time>2026-04-12T08:12:56.976Z</time></trkpt><trkpt lat="45.760855268733145" lon="8.749141178551053"><ele>297.0</ele><time>2026-04-12T08:12:57.976Z</time></trkpt><trkpt lat="45.76076945328677" lon="8.749170706746812"><ele>297.0</ele><time>2026-04-12T08:12:58.976Z</time></trkpt><trkpt lat="45.76068884356707" lon="8.749205098156942"><ele>297.0</ele><time>2026-04-12T08:12:59.976Z</time></trkpt><trkpt lat="45.76061035685489" lon="8.749235314840288"><ele>297.0</ele><time>2026-04-12T08:13:00.976Z</time></trkpt><trkpt lat="45.76052849177729" lon="8.74926442007566"><ele>297.0</ele><time>2026-04-12T08:13:01.976Z</time></trkpt><trkpt lat="45.760449578485364" lon="8.749295978893494"><ele>297.0</ele><time>2026-04-12T08:13:02.976Z</time></trkpt><trkpt lat="45.760373586945775" lon="8.749325819413663"><ele>297.0</ele><time>2026-04-12T08:13:03.976Z</time></trkpt><trkpt lat="45.76029998737698" lon="8.749355338366886"><ele>297.0</ele><time>2026-04-12T08:13:04.976Z</time></trkpt><trkpt lat="45.76022935060632" lon="8.749386296418447"><ele>297.0</ele><time>2026-04-12T08:13:05.976Z</time></trkpt><trkpt lat="45.76015127726692" lon="8.74940692974536"><ele>297.0</ele><time>2026-04-12T08:13:06.976Z</time></trkpt><trkpt lat="45.760085753330905" lon="8.74943674152536"><ele>296.0</ele><time>2026-04-12T08:13:07.976Z</time></trkpt><trkpt lat="45.76000732268945" lon="8.749451335753747"><ele>295.0</ele><time>2026-04-12T08:13:08.976Z</time></trkpt><trkpt lat="45.759939047843254" lon="8.749468489292108"><ele>294.0</ele><time>2026-04-12T08:13:09.976Z</time></trkpt><trkpt lat="45.75987124536074" lon="8.749473694523909"><ele>293.0</ele><time>2026-04-12T08:13:10.976Z</time></trkpt><trkpt lat="45.75975435799217" lon="8.749476982747229"><ele>292.0</ele><time>2026-04-12T08:13:12.976Z</time></trkpt><trkpt lat="45.75965666693338" lon="8.749461178709234"><ele>291.0</ele><time>2026-04-12T08:13:14.976Z</time></trkpt><trkpt lat="45.7595872855804" lon="8.749462075625337"><ele>291.0</ele><time>2026-04-12T08:13:16.976Z</time></trkpt><trkpt lat="45.75950044877023" lon="8.749626798005863"><ele>291.0</ele><time>2026-04-12T08:13:20.976Z</time></trkpt><trkpt lat="45.759500540848386" lon="8.74974432559088"><ele>291.0</ele><time>2026-04-12T08:13:22.976Z</time></trkpt><trkpt lat="45.7595020718292" lon="8.74985693119601"><ele>291.0</ele><time>2026-04-12T08:13:24.976Z</time></trkpt><trkpt lat="45.75948883037523" lon="8.7499658368288"><ele>291.0</ele><time>2026-04-12T08:13:26.976Z</time></trkpt><trkpt lat="45.759489304618434" lon="8.750075694198854"><ele>291.0</ele><time>2026-04-12T08:13:28.976Z</time></trkpt><trkpt lat="45.75947192388506" lon="8.750180441697648"><ele>291.0</ele><time>2026-04-12T08:13:30.976Z</time></trkpt><trkpt lat="45.759478793778406" lon="8.750273449025535"><ele>291.0</ele><time>2026-04-12T08:13:32.975Z</time></trkpt><trkpt lat="45.75948890024144" lon="8.75040562216944"><ele>291.0</ele><time>2026-04-12T08:13:35.975Z</time></trkpt><trkpt lat="45.759487703296415" lon="8.75050246710039"><ele>291.0</ele><time>2026-04-12T08:13:37.975Z</time></trkpt><trkpt lat="45.75949138543357" lon="8.750603710056984"><ele>291.0</ele><time>2026-04-12T08:13:39.975Z</time></trkpt><trkpt lat="45.75949001831042" lon="8.750694915268399"><ele>291.0</ele><time>2026-04-12T08:13:41.975Z</time></trkpt><trkpt lat="45.75948373728132" lon="8.750793819556696"><ele>291.3333333333333</ele><time>2026-04-12T08:13:43.975Z</time></trkpt><trkpt lat="45.75950191901777" lon="8.750891876418684"><ele>291.6666666666667</ele><time>2026-04-12T08:13:45.976Z</time></trkpt><trkpt lat="45.75951949949455" lon="8.750986622713777"><ele>292.0</ele><time>2026-04-12T08:13:47.976Z</time></trkpt><trkpt lat="45.759504183112846" lon="8.751091195672029"><ele>292.33333333333337</ele><time>2026-04-12T08:13:49.976Z</time></trkpt><trkpt lat="45.75949478078522" lon="8.75121106209469"><ele>292.6666666666667</ele><time>2026-04-12T08:13:51.976Z</time></trkpt><trkpt lat="45.75950878840821" lon="8.751334689047935"><ele>293.0</ele><time>2026-04-12T08:13:54.976Z</time></trkpt><trkpt lat="45.75950331284622" lon="8.75143470658281"><ele>293.0</ele><time>2026-04-12T08:13:56.976Z</time></trkpt><trkpt lat="45.75951495900788" lon="8.751558932763794"><ele>293.0</ele><time>2026-04-12T08:13:59.976Z</time></trkpt><trkpt lat="45.759542484297526" lon="8.7516786568606"><ele>293.0</ele><time>2026-04-12T08:14:02.976Z</time></trkpt><trkpt lat="45.759543135508544" lon="8.751804221274398"><ele>293.0</ele><time>2026-04-12T08:14:05.975Z</time></trkpt><trkpt lat="45.759541187121584" lon="8.751932622275106"><ele>293.0</ele><time>2026-04-12T08:14:08.975Z</time></trkpt><trkpt lat="45.75955893810215" lon="8.752040336831913"><ele>293.0</ele><time>2026-04-12T08:14:11.975Z</time></trkpt><trkpt lat="45.7595523254964" lon="8.752130475882769"><ele>293.33333333333337</ele><time>2026-04-12T08:14:13.975Z</time></trkpt><trkpt lat="45.759527360957705" lon="8.752246928856934"><ele>293.6666666666667</ele><time>2026-04-12T08:14:15.975Z</time></trkpt><trkpt lat="45.75948609613211" lon="8.752348135738425"><ele>294.0</ele><time>2026-04-12T08:14:18.975Z</time></trkpt><trkpt lat="45.759426454783586" lon="8.752401015838357"><ele>294.3333333333333</ele><time>2026-04-12T08:14:20.975Z</time></trkpt><trkpt lat="45.759352500506054" lon="8.752408042469664"><ele>294.66666666666663</ele><time>2026-04-12T08:14:23.975Z</time></trkpt><trkpt lat="45.75928652119604" lon="8.752399791002725"><ele>295.0</ele><time>2026-04-12T08:14:25.975Z</time></trkpt><trkpt lat="45.75921272976077" lon="8.7523876415288"><ele>296.00000000000006</ele><time>2026-04-12T08:14:28.975Z</time></trkpt><trkpt lat="45.75914837647306" lon="8.752368276876437"><ele>297.0</ele><time>2026-04-12T08:14:31.975Z</time></trkpt><trkpt lat="45.75906205626011" lon="8.752327653681508"><ele>298.0</ele><time>2026-04-12T08:14:35.975Z</time></trkpt><trkpt lat="45.75899926352044" lon="8.752317660882147"><ele>299.0</ele><time>2026-04-12T08:14:38.975Z</time></trkpt><trkpt lat="45.758930115834644" lon="8.752310953516883"><ele>300.0</ele><time>2026-04-12T08:14:41.975Z</time></trkpt><trkpt lat="45.75886709008404" lon="8.752300169828093"><ele>301.00000000000006</ele><time>2026-04-12T08:14:44.975Z</time></trkpt><trkpt lat="45.758797002845974" lon="8.752301987142207"><ele>302.0</ele><time>2026-04-12T08:14:47.975Z</time></trkpt><trkpt lat="45.758707889828635" lon="8.752306442876213"><ele>302.0</ele><time>2026-04-12T08:14:50.975Z</time></trkpt><trkpt lat="45.75863940058137" lon="8.752282842145048"><ele>302.0</ele><time>2026-04-12T08:14:54.974Z</time></trkpt><trkpt lat="45.75857425778946" lon="8.7522734299659"><ele>302.0</ele><time>2026-04-12T08:14:57.974Z</time></trkpt><trkpt lat="45.75848516049876" lon="8.752277260813266"><ele>302.0</ele><time>2026-04-12T08:15:00.974Z</time></trkpt><trkpt lat="45.75840836545279" lon="8.752271089777615"><ele>302.0</ele><time>2026-04-12T08:15:03.974Z</time></trkpt><trkpt lat="45.758330211663235" lon="8.752255149263085"><ele>302.0</ele><time>2026-04-12T08:15:06.974Z</time></trkpt><trkpt lat="45.75825808819033" lon="8.752274580668285"><ele>304.0</ele><time>2026-04-12T08:15:08.974Z</time></trkpt><trkpt lat="45.75819213965055" lon="8.752308521658804"><ele>306.0</ele><time>2026-04-12T08:15:10.974Z</time></trkpt><trkpt lat="45.75811421549023" lon="8.752325392827572"><ele>308.0</ele><time>2026-04-12T08:15:12.974Z</time></trkpt><trkpt lat="45.7580433997026" lon="8.75235480912161"><ele>310.0</ele><time>2026-04-12T08:15:14.974Z</time></trkpt><trkpt lat="45.75793812180778" lon="8.7523986314222"><ele>312.0</ele><time>2026-04-12T08:15:17.974Z</time></trkpt><trkpt lat="45.757859088123396" lon="8.752415352013813"><ele>314.0</ele><time>2026-04-12T08:15:19.974Z</time></trkpt><trkpt lat="45.75779096112012" lon="8.752449848096449"><ele>314.0</ele><time>2026-04-12T08:15:21.974Z</time></trkpt><trkpt lat="45.75770922847417" lon="8.752467984212734"><ele>314.0</ele><time>2026-04-12T08:15:23.974Z</time></trkpt><trkpt lat="45.75763446334365" lon="8.752481211219903"><ele>314.0</ele><time>2026-04-12T08:15:25.974Z</time></trkpt><trkpt lat="45.75754973900369" lon="8.75251220740827"><ele>314.0</ele><time>2026-04-12T08:15:27.974Z</time></trkpt><trkpt lat="45.75746309933443" lon="8.752542120996882"><ele>314.0</ele><time>2026-04-12T08:15:29.974Z</time></trkpt><trkpt lat="45.75737256280823" lon="8.752554536163656"><ele>314.0</ele><time>2026-04-12T08:15:31.974Z</time></trkpt><trkpt lat="45.757288111390714" lon="8.752570671951283"><ele>313.83333333333337</ele><time>2026-04-12T08:15:33.974Z</time></trkpt><trkpt lat="45.75721011089353" lon="8.752583279448546"><ele>313.6666666666667</ele><time>2026-04-12T08:15:35.974Z</time></trkpt><trkpt lat="45.7571226818865" lon="8.752598820996539"><ele>313.5</ele><time>2026-04-12T08:15:37.974Z</time></trkpt><trkpt lat="45.75703307210389" lon="8.752604786477228"><ele>313.3333333333333</ele><time>2026-04-12T08:15:39.974Z</time></trkpt><trkpt lat="45.756959919122856" lon="8.752615096429261"><ele>313.16666666666663</ele><time>2026-04-12T08:15:41.974Z</time></trkpt><trkpt lat="45.75687167595954" lon="8.752644573104499"><ele>313.0</ele><time>2026-04-12T08:15:44.973Z</time></trkpt><trkpt lat="45.7567923804172" lon="8.752639073547323"><ele>312.3333333333333</ele><time>2026-04-12T08:15:47.973Z</time></trkpt><trkpt lat="45.75674258594272" lon="8.752570100582837"><ele>311.66666666666663</ele><time>2026-04-12T08:15:49.973Z</time></trkpt><trkpt lat="45.75666641383625" lon="8.752556761537923"><ele>311.0</ele><time>2026-04-12T08:15:52.975Z</time></trkpt><trkpt lat="45.75659723008708" lon="8.752567221361993"><ele>310.3333333333333</ele><time>2026-04-12T08:15:54.975Z</time></trkpt><trkpt lat="45.75653402901117" lon="8.752591604280143"><ele>309.6666666666667</ele><time>2026-04-12T08:15:56.975Z</time></trkpt><trkpt lat="45.75646111153233" lon="8.752536399101936"><ele>309.0</ele><time>2026-04-12T08:15:58.975Z</time></trkpt><trkpt lat="45.756372385953206" lon="8.752489334546556"><ele>309.0</ele><time>2026-04-12T08:16:00.975Z</time></trkpt><trkpt lat="45.756271837660925" lon="8.752482157090052"><ele>309.0</ele><time>2026-04-12T08:16:02.975Z</time></trkpt><trkpt lat="45.756170630305604" lon="8.752488569159025"><ele>309.0</ele><time>2026-04-12T08:16:04.975Z</time></trkpt><trkpt lat="45.756071487498055" lon="8.75250470505101"><ele>309.0</ele><time>2026-04-12T08:16:06.975Z</time></trkpt><trkpt lat="45.755956231014274" lon="8.752521354325285"><ele>309.0</ele><time>2026-04-12T08:16:08.975Z</time></trkpt><trkpt lat="45.755831707554165" lon="8.752553724393538"><ele>308.0</ele><time>2026-04-12T08:16:10.975Z</time></trkpt><trkpt lat="45.75574413734974" lon="8.752621772777765"><ele>307.0</ele><time>2026-04-12T08:16:12.975Z</time></trkpt><trkpt lat="45.75566871016674" lon="8.752717282182859"><ele>306.0</ele><time>2026-04-12T08:16:14.975Z</time></trkpt><trkpt lat="45.755615129790215" lon="8.752830075792401"><ele>305.0</ele><time>2026-04-12T08:16:16.975Z</time></trkpt><trkpt lat="45.75555467534294" lon="8.752960362995875"><ele>304.0</ele><time>2026-04-12T08:16:18.975Z</time></trkpt><trkpt lat="45.75549801832343" lon="8.75310927590521"><ele>304.0</ele><time>2026-04-12T08:16:20.975Z</time></trkpt><trkpt lat="45.75547426730978" lon="8.753229254914787"><ele>304.0</ele><time>2026-04-12T08:16:22.975Z</time></trkpt><trkpt lat="45.75544487877667" lon="8.75334154744938"><ele>304.0</ele><time>2026-04-12T08:16:24.975Z</time></trkpt><trkpt lat="45.75541196777366" lon="8.75346722840757"><ele>304.0</ele><time>2026-04-12T08:16:26.975Z</time></trkpt><trkpt lat="45.75535393696589" lon="8.753611127176143"><ele>304.0</ele><time>2026-04-12T08:16:28.975Z</time></trkpt><trkpt lat="45.75531107104008" lon="8.753738049579491"><ele>304.0</ele><time>2026-04-12T08:16:30.975Z</time></trkpt><trkpt lat="45.75528834320254" lon="8.753849799879475"><ele>304.0</ele><time>2026-04-12T08:16:32.975Z</time></trkpt><trkpt lat="45.75525625983745" lon="8.753979999993517"><ele>304.0</ele><time>2026-04-12T08:16:34.975Z</time></trkpt><trkpt lat="45.75521271717291" lon="8.754112937671785"><ele>304.0</ele><time>2026-04-12T08:16:36.975Z</time></trkpt><trkpt lat="45.75517918931012" lon="8.754235984433446"><ele>304.0</ele><time>2026-04-12T08:16:38.974Z</time></trkpt><trkpt lat="45.75516036972413" lon="8.75438245278533"><ele>303.4</ele><time>2026-04-12T08:16:41.974Z</time></trkpt><trkpt lat="45.75512633192337" lon="8.754513593694575"><ele>302.79999999999995</ele><time>2026-04-12T08:16:43.974Z</time></trkpt><trkpt lat="45.75510014436745" lon="8.754664252551123"><ele>302.20000000000005</ele><time>2026-04-12T08:16:45.974Z</time></trkpt><trkpt lat="45.755071310556545" lon="8.754797973340501"><ele>301.6</ele><time>2026-04-12T08:16:47.974Z</time></trkpt><trkpt lat="45.75502563670635" lon="8.754943036149008"><ele>301.0</ele><time>2026-04-12T08:16:49.974Z</time></trkpt><trkpt lat="45.755000667188696" lon="8.755048257533224"><ele>301.0</ele><time>2026-04-12T08:16:51.974Z</time></trkpt><trkpt lat="45.75492279246716" lon="8.755111168707092"><ele>301.0</ele><time>2026-04-12T08:16:53.974Z</time></trkpt><trkpt lat="45.75484787104036" lon="8.755068308807408"><ele>301.0</ele><time>2026-04-12T08:16:55.974Z</time></trkpt><trkpt lat="45.75478082449359" lon="8.754975230724593"><ele>301.0</ele><time>2026-04-12T08:16:57.974Z</time></trkpt><trkpt lat="45.75468162293679" lon="8.754886236476462"><ele>301.0</ele><time>2026-04-12T08:16:59.974Z</time></trkpt><trkpt lat="45.75461720444615" lon="8.75484336247027"><ele>301.0</ele><time>2026-04-12T08:17:00.974Z</time></trkpt><trkpt lat="45.75454907646099" lon="8.754798199847091"><ele>301.0</ele><time>2026-04-12T08:17:01.974Z</time></trkpt><trkpt lat="45.75448050294989" lon="8.754753408793732"><ele>301.0</ele><time>2026-04-12T08:17:02.974Z</time></trkpt><trkpt lat="45.754424560300194" lon="8.754704070317198"><ele>301.0</ele><time>2026-04-12T08:17:03.974Z</time></trkpt><trkpt lat="45.75436357502898" lon="8.75465247924123"><ele>301.0</ele><time>2026-04-12T08:17:04.974Z</time></trkpt><trkpt lat="45.754256109739856" lon="8.754561132460777"><ele>301.0</ele><time>2026-04-12T08:17:06.974Z</time></trkpt><trkpt lat="45.7541606010856" lon="8.754499792146927"><ele>300.8</ele><time>2026-04-12T08:17:08.974Z</time></trkpt><trkpt lat="45.754054721869366" lon="8.754426335306835"><ele>300.6</ele><time>2026-04-12T08:17:10.974Z</time></trkpt><trkpt lat="45.75393644369819" lon="8.75436017491941"><ele>300.4</ele><time>2026-04-12T08:17:12.974Z</time></trkpt><trkpt lat="45.753845043366496" lon="8.754304256511963"><ele>300.2</ele><time>2026-04-12T08:17:14.974Z</time></trkpt><trkpt lat="45.75375058679908" lon="8.75425787426955"><ele>300.0</ele><time>2026-04-12T08:17:16.974Z</time></trkpt><trkpt lat="45.753665014352364" lon="8.75422547125108"><ele>299.57142857142856</ele><time>2026-04-12T08:17:18.974Z</time></trkpt><trkpt lat="45.75359677153912" lon="8.754209611844871"><ele>299.1428571428571</ele><time>2026-04-12T08:17:20.974Z</time></trkpt><trkpt lat="45.75353279175994" lon="8.754213766739374"><ele>298.7142857142857</ele><time>2026-04-12T08:17:22.974Z</time></trkpt><trkpt lat="45.7534479387683" lon="8.754200130682005"><ele>298.2857142857143</ele><time>2026-04-12T08:17:24.974Z</time></trkpt><trkpt lat="45.75338317686377" lon="8.754169703660006"><ele>297.8571428571429</ele><time>2026-04-12T08:17:26.974Z</time></trkpt><trkpt lat="45.75329797884983" lon="8.754134752975187"><ele>297.42857142857144</ele><time>2026-04-12T08:17:28.973Z</time></trkpt><trkpt lat="45.7532242679909" lon="8.754131427391286"><ele>297.0</ele><time>2026-04-12T08:17:30.973Z</time></trkpt><trkpt lat="45.75314120047661" lon="8.75411337589045"><ele>297.6666666666667</ele><time>2026-04-12T08:17:32.973Z</time></trkpt><trkpt lat="45.75305765554566" lon="8.754092935374434"><ele>298.3333333333333</ele><time>2026-04-12T08:17:34.973Z</time></trkpt><trkpt lat="45.75297834334891" lon="8.754064662379381"><ele>299.0</ele><time>2026-04-12T08:17:36.973Z</time></trkpt><trkpt lat="45.75289620294285" lon="8.754052272134777"><ele>299.66666666666663</ele><time>2026-04-12T08:17:38.973Z</time></trkpt><trkpt lat="45.752802892235174" lon="8.754023857874103"><ele>300.3333333333333</ele><time>2026-04-12T08:17:40.973Z</time></trkpt><trkpt lat="45.752705316294104" lon="8.753995017140873"><ele>301.0</ele><time>2026-04-12T08:17:42.973Z</time></trkpt><trkpt lat="45.752630207915466" lon="8.753992512389381"><ele>301.0</ele><time>2026-04-12T08:17:44.973Z</time></trkpt><trkpt lat="45.752558903062244" lon="8.753973322841762"><ele>301.0</ele><time>2026-04-12T08:17:46.973Z</time></trkpt><trkpt lat="45.75248858293376" lon="8.753960259931606"><ele>301.0</ele><time>2026-04-12T08:17:48.973Z</time></trkpt><trkpt lat="45.752400871552744" lon="8.753948926569095"><ele>301.0</ele><time>2026-04-12T08:17:50.973Z</time></trkpt><trkpt lat="45.752321707744024" lon="8.753931587058993"><ele>301.0</ele><time>2026-04-12T08:17:52.973Z</time></trkpt><trkpt lat="45.75223558980576" lon="8.753923754045772"><ele>301.0</ele><time>2026-04-12T08:17:54.973Z</time></trkpt><trkpt lat="45.752130688435756" lon="8.75390158556075"><ele>301.0</ele><time>2026-04-12T08:17:56.973Z</time></trkpt><trkpt lat="45.7520273136035" lon="8.753882237036073"><ele>301.0</ele><time>2026-04-12T08:17:58.974Z</time></trkpt><trkpt lat="45.751914375972675" lon="8.753860714659094"><ele>301.0</ele><time>2026-04-12T08:18:00.973Z</time></trkpt><trkpt lat="45.7518091497263" lon="8.753842506367308"><ele>301.0</ele><time>2026-04-12T08:18:02.973Z</time></trkpt><trkpt lat="45.751709993975425" lon="8.753823457463122"><ele>301.0</ele><time>2026-04-12T08:18:04.973Z</time></trkpt><trkpt lat="45.75160984531422" lon="8.753806956556687"><ele>300.8</ele><time>2026-04-12T08:18:06.973Z</time></trkpt><trkpt lat="45.75151161720083" lon="8.753797354533186"><ele>300.6</ele><time>2026-04-12T08:18:08.974Z</time></trkpt><trkpt lat="45.75141613115665" lon="8.753780435886085"><ele>300.4</ele><time>2026-04-12T08:18:10.974Z</time></trkpt><trkpt lat="45.75132257672448" lon="8.753804200662012"><ele>300.2</ele><time>2026-04-12T08:18:12.974Z</time></trkpt><trkpt lat="45.75122988728435" lon="8.753824192244656"><ele>300.0</ele><time>2026-04-12T08:18:14.974Z</time></trkpt><trkpt lat="45.75113003537708" lon="8.75382308534801"><ele>300.0</ele><time>2026-04-12T08:18:16.974Z</time></trkpt><trkpt lat="45.75100932119877" lon="8.753816137783208"><ele>300.0</ele><time>2026-04-12T08:18:18.974Z</time></trkpt><trkpt lat="45.750908087239125" lon="8.753828964544368"><ele>300.0</ele><time>2026-04-12T08:18:20.974Z</time></trkpt><trkpt lat="45.75079523906992" lon="8.753852405163773"><ele>300.0</ele><time>2026-04-12T08:18:22.974Z</time></trkpt><trkpt lat="45.75069162854407" lon="8.753850818605983"><ele>300.0</ele><time>2026-04-12T08:18:24.974Z</time></trkpt><trkpt lat="45.750601979021965" lon="8.753856744619878"><ele>300.0</ele><time>2026-04-12T08:18:26.973Z</time></trkpt><trkpt lat="45.750509131048354" lon="8.753864909724118"><ele>300.0</ele><time>2026-04-12T08:18:28.973Z</time></trkpt><trkpt lat="45.75041688495493" lon="8.753861072331516"><ele>300.0</ele><time>2026-04-12T08:18:30.973Z</time></trkpt><trkpt lat="45.75033957822409" lon="8.753838664147935"><ele>300.0</ele><time>2026-04-12T08:18:32.973Z</time></trkpt><trkpt lat="45.750267643719134" lon="8.753845143427062"><ele>300.0</ele><time>2026-04-12T08:18:34.973Z</time></trkpt><trkpt lat="45.75016694629623" lon="8.753829798290298"><ele>300.0</ele><time>2026-04-12T08:18:36.973Z</time></trkpt><trkpt lat="45.75005769149685" lon="8.753779109373307"><ele>299.5</ele><time>2026-04-12T08:18:38.973Z</time></trkpt><trkpt lat="45.74994733882172" lon="8.75370882926785"><ele>299.0</ele><time>2026-04-12T08:18:40.973Z</time></trkpt><trkpt lat="45.74988804610919" lon="8.753678033545995"><ele>298.5</ele><time>2026-04-12T08:18:41.973Z</time></trkpt><trkpt lat="45.74977772181102" lon="8.753634702097628"><ele>298.0</ele><time>2026-04-12T08:18:43.973Z</time></trkpt><trkpt lat="45.74970903960791" lon="8.753592506091053"><ele>297.5</ele><time>2026-04-12T08:18:44.973Z</time></trkpt><trkpt lat="45.749644395308266" lon="8.753561332192538"><ele>297.0</ele><time>2026-04-12T08:18:45.973Z</time></trkpt><trkpt lat="45.74953231897256" lon="8.753516578281557"><ele>296.8</ele><time>2026-04-12T08:18:47.973Z</time></trkpt><trkpt lat="45.749468918319494" lon="8.753485498740154"><ele>296.6</ele><time>2026-04-12T08:18:48.973Z</time></trkpt><trkpt lat="45.74940817573444" lon="8.753452897731206"><ele>296.40000000000003</ele><time>2026-04-12T08:18:49.973Z</time></trkpt><trkpt lat="45.749294199865396" lon="8.753402209239868"><ele>296.2</ele><time>2026-04-12T08:18:51.973Z</time></trkpt><trkpt lat="45.749185091602" lon="8.753340204911744"><ele>296.0</ele><time>2026-04-12T08:18:53.973Z</time></trkpt><trkpt lat="45.74907317494705" lon="8.753283515420977"><ele>295.25</ele><time>2026-04-12T08:18:55.973Z</time></trkpt><trkpt lat="45.74896571244357" lon="8.753221987866997"><ele>294.5</ele><time>2026-04-12T08:18:57.973Z</time></trkpt><trkpt lat="45.74885281370948" lon="8.753159376103024"><ele>293.75</ele><time>2026-04-12T08:18:59.973Z</time></trkpt><trkpt lat="45.74873490216777" lon="8.753115157112747"><ele>293.0</ele><time>2026-04-12T08:19:01.973Z</time></trkpt><trkpt lat="45.748622901963365" lon="8.753085456881786"><ele>292.4</ele><time>2026-04-12T08:19:03.973Z</time></trkpt><trkpt lat="45.748508594304774" lon="8.75305066681695"><ele>291.8</ele><time>2026-04-12T08:19:05.973Z</time></trkpt><trkpt lat="45.74839423623164" lon="8.753013614849362"><ele>291.2</ele><time>2026-04-12T08:19:07.973Z</time></trkpt><trkpt lat="45.74833207587144" lon="8.752977918247241"><ele>290.6</ele><time>2026-04-12T08:19:08.973Z</time></trkpt><trkpt lat="45.74825257382088" lon="8.752965371159092"><ele>290.0</ele><time>2026-04-12T08:19:10.973Z</time></trkpt><trkpt lat="45.748141872532166" lon="8.752954879336258"><ele>290.0</ele><time>2026-04-12T08:19:12.973Z</time></trkpt><trkpt lat="45.74802490331489" lon="8.752922944314276"><ele>290.0</ele><time>2026-04-12T08:19:14.972Z</time></trkpt><trkpt lat="45.747919844410184" lon="8.752900815164207"><ele>290.0</ele><time>2026-04-12T08:19:16.972Z</time></trkpt><trkpt lat="45.74780272963474" lon="8.752865659523154"><ele>290.0</ele><time>2026-04-12T08:19:18.972Z</time></trkpt><trkpt lat="45.747712571285774" lon="8.752825871415235"><ele>290.0</ele><time>2026-04-12T08:19:20.972Z</time></trkpt><trkpt lat="45.747618475597" lon="8.752808464706785"><ele>290.0</ele><time>2026-04-12T08:19:22.972Z</time></trkpt><trkpt lat="45.747550138785215" lon="8.752786490385748"><ele>290.0</ele><time>2026-04-12T08:19:24.972Z</time></trkpt><trkpt lat="45.74746822221248" lon="8.752786972044094"><ele>290.0</ele><time>2026-04-12T08:19:26.972Z</time></trkpt><trkpt lat="45.74736247285561" lon="8.752792908044508"><ele>290.0</ele><time>2026-04-12T08:19:28.972Z</time></trkpt><trkpt lat="45.747262388389096" lon="8.752774802078651"><ele>290.0</ele><time>2026-04-12T08:19:30.972Z</time></trkpt><trkpt lat="45.747171153895316" lon="8.752761278940772"><ele>290.0</ele><time>2026-04-12T08:19:32.972Z</time></trkpt><trkpt lat="45.74707367339866" lon="8.752732556308917"><ele>290.0</ele><time>2026-04-12T08:19:34.972Z</time></trkpt><trkpt lat="45.74696627042258" lon="8.752624983932613"><ele>290.0</ele><time>2026-04-12T08:19:36.972Z</time></trkpt><trkpt lat="45.74692934393826" lon="8.752533552283298"><ele>290.0</ele><time>2026-04-12T08:19:37.972Z</time></trkpt><trkpt lat="45.74688424636474" lon="8.752438326340599"><ele>290.0</ele><time>2026-04-12T08:19:38.972Z</time></trkpt><trkpt lat="45.74684206709592" lon="8.752365069400852"><ele>289.75</ele><time>2026-04-12T08:19:39.972Z</time></trkpt><trkpt lat="45.74680640402305" lon="8.752195708853518"><ele>289.5</ele><time>2026-04-12T08:19:41.972Z</time></trkpt><trkpt lat="45.74678850723945" lon="8.752017844678987"><ele>289.25</ele><time>2026-04-12T08:19:43.972Z</time></trkpt><trkpt lat="45.74677491038931" lon="8.751842100068906"><ele>289.0</ele><time>2026-04-12T08:19:45.972Z</time></trkpt><trkpt lat="45.74675758249697" lon="8.751677099004292"><ele>289.0</ele><time>2026-04-12T08:19:47.972Z</time></trkpt><trkpt lat="45.74673458732973" lon="8.751541456361513"><ele>289.0</ele><time>2026-04-12T08:19:49.972Z</time></trkpt><trkpt lat="45.74670828680032" lon="8.751412065327143"><ele>289.0</ele><time>2026-04-12T08:19:51.972Z</time></trkpt><trkpt lat="45.74668483151756" lon="8.751287801130207"><ele>289.0</ele><time>2026-04-12T08:19:53.972Z</time></trkpt><trkpt lat="45.74666615440024" lon="8.751165474331291"><ele>289.0</ele><time>2026-04-12T08:19:55.972Z</time></trkpt><trkpt lat="45.74663568113305" lon="8.751016404751725"><ele>289.0</ele><time>2026-04-12T08:19:57.972Z</time></trkpt><trkpt lat="45.74664179613747" lon="8.750877013825527"><ele>289.0</ele><time>2026-04-12T08:19:59.972Z</time></trkpt><trkpt lat="45.74665392864084" lon="8.750776831317452"><ele>289.0</ele><time>2026-04-12T08:20:00.972Z</time></trkpt><trkpt lat="45.746656184445555" lon="8.750679131616211"><ele>289.0</ele><time>2026-04-12T08:20:02.972Z</time></trkpt><trkpt lat="45.74664752437261" lon="8.75055137562755"><ele>289.0</ele><time>2026-04-12T08:20:03.973Z</time></trkpt><trkpt lat="45.746649815880424" lon="8.750424267152532"><ele>289.0</ele><time>2026-04-12T08:20:06.973Z</time></trkpt><trkpt lat="45.746615369091025" lon="8.750284032244446"><ele>288.8333333333333</ele><time>2026-04-12T08:20:08.973Z</time></trkpt><trkpt lat="45.74659094822651" lon="8.750193339858166"><ele>288.66666666666663</ele><time>2026-04-12T08:20:10.973Z</time></trkpt><trkpt lat="45.74654616735343" lon="8.750095210419818"><ele>288.5</ele><time>2026-04-12T08:20:12.973Z</time></trkpt><trkpt lat="45.74651389135703" lon="8.74999822551794"><ele>288.3333333333333</ele><time>2026-04-12T08:20:14.972Z</time></trkpt><trkpt lat="45.74649323229654" lon="8.749911272480722"><ele>288.1666666666667</ele><time>2026-04-12T08:20:16.972Z</time></trkpt><trkpt lat="45.746461969347465" lon="8.749799170691523"><ele>288.0</ele><time>2026-04-12T08:20:18.972Z</time></trkpt><trkpt lat="45.746431907078446" lon="8.749688998551283"><ele>288.0</ele><time>2026-04-12T08:20:20.972Z</time></trkpt><trkpt lat="45.74639206829776" lon="8.74956953762381"><ele>288.0</ele><time>2026-04-12T08:20:22.972Z</time></trkpt><trkpt lat="45.74634539081809" lon="8.7494607437803"><ele>288.0</ele><time>2026-04-12T08:20:24.972Z</time></trkpt><trkpt lat="45.746287959568726" lon="8.749374435402952"><ele>288.0</ele><time>2026-04-12T08:20:26.972Z</time></trkpt><trkpt lat="45.74625893275871" lon="8.749233115326827"><ele>288.0</ele><time>2026-04-12T08:20:28.972Z</time></trkpt><trkpt lat="45.74622023779474" lon="8.749083955684947"><ele>288.4</ele><time>2026-04-12T08:20:30.972Z</time></trkpt><trkpt lat="45.74617935936283" lon="8.748944399104138"><ele>288.8</ele><time>2026-04-12T08:20:32.972Z</time></trkpt><trkpt lat="45.74613587736576" lon="8.748832455953218"><ele>289.2</ele><time>2026-04-12T08:20:34.972Z</time></trkpt><trkpt lat="45.74609283791309" lon="8.74871747434717"><ele>289.6</ele><time>2026-04-12T08:20:36.972Z</time></trkpt><trkpt lat="45.746046425417816" lon="8.748574541264926"><ele>290.0</ele><time>2026-04-12T08:20:38.972Z</time></trkpt><trkpt lat="45.74600230984094" lon="8.748448458072366"><ele>290.0</ele><time>2026-04-12T08:20:40.972Z</time></trkpt><trkpt lat="45.745961624375965" lon="8.748316037875327"><ele>290.0</ele><time>2026-04-12T08:20:42.972Z</time></trkpt><trkpt lat="45.7459275186638" lon="8.748193537799873"><ele>290.0</ele><time>2026-04-12T08:20:44.972Z</time></trkpt><trkpt lat="45.74589944399981" lon="8.748084807827379"><ele>290.0</ele><time>2026-04-12T08:20:46.972Z</time></trkpt><trkpt lat="45.745862296774476" lon="8.747955110354031"><ele>290.0</ele><time>2026-04-12T08:20:48.972Z</time></trkpt><trkpt lat="45.745818014915685" lon="8.747826771600689"><ele>290.2</ele><time>2026-04-12T08:20:50.972Z</time></trkpt><trkpt lat="45.74575738235656" lon="8.74769315131628"><ele>290.4</ele><time>2026-04-12T08:20:52.971Z</time></trkpt><trkpt lat="45.74569711333953" lon="8.74758936765312"><ele>290.6</ele><time>2026-04-12T08:20:54.971Z</time></trkpt><trkpt lat="45.74563295776464" lon="8.747501685731153"><ele>290.8</ele><time>2026-04-12T08:20:56.971Z</time></trkpt><trkpt lat="45.745570162053596" lon="8.747415572645425"><ele>291.0</ele><time>2026-04-12T08:20:58.971Z</time></trkpt><trkpt lat="45.7455094233583" lon="8.74730802498093"><ele>291.0</ele><time>2026-04-12T08:21:00.971Z</time></trkpt><trkpt lat="45.74545002486884" lon="8.747190992744041"><ele>291.0</ele><time>2026-04-12T08:21:02.971Z</time></trkpt><trkpt lat="45.74539406014823" lon="8.74708029837854"><ele>291.0</ele><time>2026-04-12T08:21:04.971Z</time></trkpt><trkpt lat="45.745337582418934" lon="8.746980069603659"><ele>291.0</ele><time>2026-04-12T08:21:06.971Z</time></trkpt><trkpt lat="45.745288514402375" lon="8.74687428101839"><ele>291.0</ele><time>2026-04-12T08:21:08.971Z</time></trkpt><trkpt lat="45.7452282368585" lon="8.746779456547067"><ele>291.2</ele><time>2026-04-12T08:21:11.971Z</time></trkpt><trkpt lat="45.74518413992769" lon="8.746693235255282"><ele>291.40000000000003</ele><time>2026-04-12T08:21:13.971Z</time></trkpt><trkpt lat="45.74512329116428" lon="8.746591133904362"><ele>291.6</ele><time>2026-04-12T08:21:16.971Z</time></trkpt><trkpt lat="45.74506554306649" lon="8.746446963475305"><ele>291.8</ele><time>2026-04-12T08:21:18.971Z</time></trkpt><trkpt lat="45.74500553589883" lon="8.746327790406161"><ele>292.0</ele><time>2026-04-12T08:21:20.971Z</time></trkpt><trkpt lat="45.74494316469337" lon="8.746183094489208"><ele>292.0</ele><time>2026-04-12T08:21:22.971Z</time></trkpt><trkpt lat="45.74486963959125" lon="8.746058743025122"><ele>292.0</ele><time>2026-04-12T08:21:24.971Z</time></trkpt><trkpt lat="45.744830942094524" lon="8.745985542215568"><ele>292.0</ele><time>2026-04-12T08:21:25.971Z</time></trkpt><trkpt lat="45.744793339306696" lon="8.74590457414658"><ele>292.0</ele><time>2026-04-12T08:21:26.971Z</time></trkpt><trkpt lat="45.74471786330445" lon="8.745775676030219"><ele>292.0</ele><time>2026-04-12T08:21:28.971Z</time></trkpt><trkpt lat="45.74463758826674" lon="8.745662350445352"><ele>292.25</ele><time>2026-04-12T08:21:30.971Z</time></trkpt><trkpt lat="45.744560235019286" lon="8.745529478858348"><ele>292.5</ele><time>2026-04-12T08:21:32.971Z</time></trkpt><trkpt lat="45.74448367905784" lon="8.745407584454588"><ele>292.75</ele><time>2026-04-12T08:21:34.971Z</time></trkpt><trkpt lat="45.74441064719746" lon="8.745278295032247"><ele>293.0</ele><time>2026-04-12T08:21:36.971Z</time></trkpt><trkpt lat="45.74434027006541" lon="8.74516002888773"><ele>291.8</ele><time>2026-04-12T08:21:38.971Z</time></trkpt><trkpt lat="45.74426927853407" lon="8.74504399985825"><ele>290.6</ele><time>2026-04-12T08:21:40.97Z</time></trkpt><trkpt lat="45.74423173785776" lon="8.744969007080392"><ele>289.4</ele><time>2026-04-12T08:21:41.97Z</time></trkpt><trkpt lat="45.7441707555585" lon="8.744850735647526"><ele>288.2</ele><time>2026-04-12T08:21:43.97Z</time></trkpt><trkpt lat="45.74410210082767" lon="8.744757648404102"><ele>287.0</ele><time>2026-04-12T08:21:45.97Z</time></trkpt><trkpt lat="45.74400712522649" lon="8.744662105732282"><ele>287.0</ele><time>2026-04-12T08:21:47.97Z</time></trkpt><trkpt lat="45.74390351505575" lon="8.74457381482511"><ele>287.0</ele><time>2026-04-12T08:21:49.97Z</time></trkpt><trkpt lat="45.7438472860484" lon="8.74452488420826"><ele>287.0</ele><time>2026-04-12T08:21:50.97Z</time></trkpt><trkpt lat="45.74379180829867" lon="8.74447223020877"><ele>287.0</ele><time>2026-04-12T08:21:51.97Z</time></trkpt><trkpt lat="45.74369393261799" lon="8.744373646460279"><ele>287.0</ele><time>2026-04-12T08:21:53.97Z</time></trkpt><trkpt lat="45.743611304705716" lon="8.744269299863308"><ele>286.8</ele><time>2026-04-12T08:21:55.97Z</time></trkpt><trkpt lat="45.74353810704474" lon="8.744164308955455"><ele>286.6</ele><time>2026-04-12T08:21:57.97Z</time></trkpt><trkpt lat="45.74346375778734" lon="8.744056707625925"><ele>286.40000000000003</ele><time>2026-04-12T08:21:59.97Z</time></trkpt><trkpt lat="45.74339753617405" lon="8.743940033601387"><ele>286.2</ele><time>2026-04-12T08:22:01.97Z</time></trkpt><trkpt lat="45.743338286497405" lon="8.74383550627483"><ele>286.0</ele><time>2026-04-12T08:22:03.97Z</time></trkpt><trkpt lat="45.7432744622941" lon="8.743735185673335"><ele>286.0</ele><time>2026-04-12T08:22:05.97Z</time></trkpt><trkpt lat="45.74321435633846" lon="8.74364339602549"><ele>286.0</ele><time>2026-04-12T08:22:07.97Z</time></trkpt><trkpt lat="45.74315703929419" lon="8.743551669601993"><ele>286.0</ele><time>2026-04-12T08:22:09.972Z</time></trkpt><trkpt lat="45.74309425267936" lon="8.743462466095385"><ele>286.0</ele><time>2026-04-12T08:22:11.971Z</time></trkpt><trkpt lat="45.74302269057501" lon="8.743384149173679"><ele>286.0</ele><time>2026-04-12T08:22:13.971Z</time></trkpt><trkpt lat="45.742952603938434" lon="8.743323068654032"><ele>286.0</ele><time>2026-04-12T08:22:15.972Z</time></trkpt><trkpt lat="45.742893139385174" lon="8.743236149564327"><ele>287.0</ele><time>2026-04-12T08:22:17.972Z</time></trkpt><trkpt lat="45.742807937276034" lon="8.743148856922646"><ele>288.0</ele><time>2026-04-12T08:22:19.971Z</time></trkpt><trkpt lat="45.7427437838841" lon="8.743066978796687"><ele>289.0</ele><time>2026-04-12T08:22:21.972Z</time></trkpt><trkpt lat="45.74266446057851" lon="8.742983426099656"><ele>290.0</ele><time>2026-04-12T08:22:23.971Z</time></trkpt><trkpt lat="45.742603476921126" lon="8.742912421457046"><ele>291.0</ele><time>2026-04-12T08:22:25.971Z</time></trkpt><trkpt lat="45.74251442411764" lon="8.742808562269225"><ele>291.0</ele><time>2026-04-12T08:22:27.971Z</time></trkpt><trkpt lat="45.74244714116052" lon="8.742772982626127"><ele>291.0</ele><time>2026-04-12T08:22:29.971Z</time></trkpt><trkpt lat="45.7423677746037" lon="8.742714139887509"><ele>291.0</ele><time>2026-04-12T08:22:32.971Z</time></trkpt><trkpt lat="45.74227720550379" lon="8.74268717545118"><ele>291.0</ele><time>2026-04-12T08:22:34.971Z</time></trkpt><trkpt lat="45.74218961635288" lon="8.742668002309212"><ele>291.0</ele><time>2026-04-12T08:22:36.971Z</time></trkpt><trkpt lat="45.742105117988366" lon="8.742623004166246"><ele>291.0</ele><time>2026-04-12T08:22:38.971Z</time></trkpt><trkpt lat="45.74203150745792" lon="8.742572464146143"><ele>290.85714285714283</ele><time>2026-04-12T08:22:40.971Z</time></trkpt><trkpt lat="45.74196819962878" lon="8.742523934488755"><ele>290.71428571428567</ele><time>2026-04-12T08:22:42.971Z</time></trkpt><trkpt lat="45.741910491135705" lon="8.74247783587517"><ele>290.57142857142856</ele><time>2026-04-12T08:22:43.971Z</time></trkpt><trkpt lat="45.74186224126782" lon="8.74241749470978"><ele>290.42857142857144</ele><time>2026-04-12T08:22:45.971Z</time></trkpt><trkpt lat="45.74179463866079" lon="8.742420679815856"><ele>290.28571428571433</ele><time>2026-04-12T08:22:47.971Z</time></trkpt><trkpt lat="45.74172545260938" lon="8.742421153204338"><ele>290.14285714285717</ele><time>2026-04-12T08:22:50.971Z</time></trkpt><trkpt lat="45.74165828326967" lon="8.742422032344138"><ele>290.0</ele><time>2026-04-12T08:22:53.971Z</time></trkpt><trkpt lat="45.74156103079943" lon="8.742397633193706"><ele>290.0</ele><time>2026-04-12T08:22:55.971Z</time></trkpt><trkpt lat="45.741469802775725" lon="8.742348193871981"><ele>290.0</ele><time>2026-04-12T08:22:57.97Z</time></trkpt><trkpt lat="45.74139008041011" lon="8.742302479198417"><ele>290.0</ele><time>2026-04-12T08:22:59.97Z</time></trkpt><trkpt lat="45.74130179790307" lon="8.742253387988407"><ele>290.0</ele><time>2026-04-12T08:23:01.97Z</time></trkpt><trkpt lat="45.741234282762136" lon="8.74221004225365"><ele>290.0</ele><time>2026-04-12T08:23:03.97Z</time></trkpt><trkpt lat="45.741168788978165" lon="8.742161536748467"><ele>290.0</ele><time>2026-04-12T08:23:05.97Z</time></trkpt><trkpt lat="45.741097075141305" lon="8.74210261124694"><ele>290.0</ele><time>2026-04-12T08:23:07.97Z</time></trkpt><trkpt lat="45.74102324512012" lon="8.742043055742162"><ele>290.0</ele><time>2026-04-12T08:23:09.97Z</time></trkpt><trkpt lat="45.740959914958204" lon="8.741988352749987"><ele>290.0</ele><time>2026-04-12T08:23:11.97Z</time></trkpt><trkpt lat="45.74088582711744" lon="8.741936037861157"><ele>290.0</ele><time>2026-04-12T08:23:13.97Z</time></trkpt><trkpt lat="45.740818624107405" lon="8.741891524947272"><ele>290.0</ele><time>2026-04-12T08:23:15.97Z</time></trkpt><trkpt lat="45.7407404599229" lon="8.741839877994188"><ele>290.0</ele><time>2026-04-12T08:23:17.97Z</time></trkpt><trkpt lat="45.7406617944973" lon="8.741793681492311"><ele>290.0</ele><time>2026-04-12T08:23:19.97Z</time></trkpt><trkpt lat="45.74056932060953" lon="8.741701657452452"><ele>290.0</ele><time>2026-04-12T08:23:21.97Z</time></trkpt><trkpt lat="45.740474406732694" lon="8.741585349416612"><ele>290.0</ele><time>2026-04-12T08:23:23.968Z</time></trkpt><trkpt lat="45.74038193740252" lon="8.741492509736016"><ele>290.0</ele><time>2026-04-12T08:23:25.967Z</time></trkpt><trkpt lat="45.740310301162154" lon="8.741409473585973"><ele>290.0</ele><time>2026-04-12T08:23:27.965Z</time></trkpt><trkpt lat="45.74022522177511" lon="8.741343680688978"><ele>290.33333333333337</ele><time>2026-04-12T08:23:29.964Z</time></trkpt><trkpt lat="45.740146253462676" lon="8.741318892125713"><ele>290.6666666666667</ele><time>2026-04-12T08:23:31.963Z</time></trkpt><trkpt lat="45.74008279326033" lon="8.741256098451096"><ele>291.0</ele><time>2026-04-12T08:23:33.962Z</time></trkpt><trkpt lat="45.73999869068718" lon="8.741144192672845"><ele>291.3333333333333</ele><time>2026-04-12T08:23:35.962Z</time></trkpt><trkpt lat="45.73994584809696" lon="8.741089157138019"><ele>291.66666666666663</ele><time>2026-04-12T08:23:36.961Z</time></trkpt><trkpt lat="45.73985986401548" lon="8.741007460803145"><ele>292.0</ele><time>2026-04-12T08:23:38.961Z</time></trkpt><trkpt lat="45.73980570893415" lon="8.740961230929878"><ele>291.3333333333333</ele><time>2026-04-12T08:23:39.96Z</time></trkpt><trkpt lat="45.73975446331994" lon="8.740877266490939"><ele>290.66666666666663</ele><time>2026-04-12T08:23:40.96Z</time></trkpt><trkpt lat="45.739709880427796" lon="8.740803320224307"><ele>290.0</ele><time>2026-04-12T08:23:41.96Z</time></trkpt><trkpt lat="45.739617719742384" lon="8.740733153110785"><ele>289.3333333333333</ele><time>2026-04-12T08:23:43.959Z</time></trkpt><trkpt lat="45.73953836927961" lon="8.740672041869026"><ele>288.6666666666667</ele><time>2026-04-12T08:23:45.959Z</time></trkpt><trkpt lat="45.73945539389568" lon="8.740599788111034"><ele>288.0</ele><time>2026-04-12T08:23:47.959Z</time></trkpt><trkpt lat="45.739384969759456" lon="8.740605192639968"><ele>288.1666666666667</ele><time>2026-04-12T08:23:49.958Z</time></trkpt><trkpt lat="45.739299923047085" lon="8.74058328456989"><ele>288.3333333333333</ele><time>2026-04-12T08:23:51.958Z</time></trkpt><trkpt lat="45.73925271135318" lon="8.740516407879822"><ele>288.5</ele><time>2026-04-12T08:23:52.958Z</time></trkpt><trkpt lat="45.73918639926863" lon="8.740379297827841"><ele>288.66666666666663</ele><time>2026-04-12T08:23:54.958Z</time></trkpt><trkpt lat="45.73912009777165" lon="8.740287384035934"><ele>288.8333333333333</ele><time>2026-04-12T08:23:56.957Z</time></trkpt><trkpt lat="45.73904281873743" lon="8.74024550308254"><ele>289.0</ele><time>2026-04-12T08:23:58.957Z</time></trkpt><trkpt lat="45.73897607118027" lon="8.740300201035971"><ele>289.0</ele><time>2026-04-12T08:24:00.957Z</time></trkpt><trkpt lat="45.73890548580082" lon="8.740356683968326"><ele>289.0</ele><time>2026-04-12T08:24:02.957Z</time></trkpt><trkpt lat="45.73886418165722" lon="8.740431686791167"><ele>289.0</ele><time>2026-04-12T08:24:04.957Z</time></trkpt><trkpt lat="45.73880890743056" lon="8.740559131294212"><ele>289.0</ele><time>2026-04-12T08:24:08.956Z</time></trkpt><trkpt lat="45.73874597122775" lon="8.740688854510418"><ele>289.0</ele><time>2026-04-12T08:24:11.956Z</time></trkpt><trkpt lat="45.73868445575575" lon="8.740788185668185"><ele>289.0</ele><time>2026-04-12T08:24:13.956Z</time></trkpt><trkpt lat="45.73861056199558" lon="8.740909774407564"><ele>289.0</ele><time>2026-04-12T08:24:15.958Z</time></trkpt><trkpt lat="45.73850574358407" lon="8.740990434365612"><ele>289.0</ele><time>2026-04-12T08:24:17.957Z</time></trkpt><trkpt lat="45.73838708752573" lon="8.740987964971483"><ele>289.0</ele><time>2026-04-12T08:24:19.957Z</time></trkpt><trkpt lat="45.738261912328035" lon="8.740935286002117"><ele>287.59999999999997</ele><time>2026-04-12T08:24:21.958Z</time></trkpt><trkpt lat="45.73815386129556" lon="8.740888981907528"><ele>286.2</ele><time>2026-04-12T08:24:23.957Z</time></trkpt><trkpt lat="45.73804212296263" lon="8.740811893905665"><ele>284.79999999999995</ele><time>2026-04-12T08:24:25.957Z</time></trkpt><trkpt lat="45.737965819241836" lon="8.74074349559947"><ele>283.4</ele><time>2026-04-12T08:24:27.958Z</time></trkpt><trkpt lat="45.73791465112516" lon="8.740666779918946"><ele>282.0</ele><time>2026-04-12T08:24:29.957Z</time></trkpt><trkpt lat="45.73785049584304" lon="8.740554817110084"><ele>282.0</ele><time>2026-04-12T08:24:31.957Z</time></trkpt><trkpt lat="45.73781053216836" lon="8.740449406321472"><ele>282.0</ele><time>2026-04-12T08:24:33.957Z</time></trkpt><trkpt lat="45.73778961614491" lon="8.740360016516044"><ele>282.0</ele><time>2026-04-12T08:24:35.957Z</time></trkpt><trkpt lat="45.7377535561532" lon="8.740254581884901"><ele>282.0</ele><time>2026-04-12T08:24:38.957Z</time></trkpt><trkpt lat="45.737709031408734" lon="8.74015926446009"><ele>282.0</ele><time>2026-04-12T08:24:41.957Z</time></trkpt><trkpt lat="45.73768206287489" lon="8.7400246784208"><ele>282.0</ele><time>2026-04-12T08:24:45.956Z</time></trkpt><trkpt lat="45.737721883167644" lon="8.739915134229795"><ele>282.5</ele><time>2026-04-12T08:24:48.956Z</time></trkpt><trkpt lat="45.737747622507705" lon="8.739822127993637"><ele>283.0</ele><time>2026-04-12T08:24:50.956Z</time></trkpt><trkpt lat="45.73779171440839" lon="8.73970960477047"><ele>283.5</ele><time>2026-04-12T08:24:53.956Z</time></trkpt><trkpt lat="45.737844727962106" lon="8.739641301936942"><ele>284.0</ele><time>2026-04-12T08:24:55.956Z</time></trkpt><trkpt lat="45.73789749746619" lon="8.739533005239258"><ele>284.5</ele><time>2026-04-12T08:24:58.956Z</time></trkpt><trkpt lat="45.73793967549769" lon="8.739459506295002"><ele>285.0</ele><time>2026-04-12T08:25:00.956Z</time></trkpt><trkpt lat="45.73799024985981" lon="8.739399089141726"><ele>285.85714285714283</ele><time>2026-04-12T08:25:02.956Z</time></trkpt><trkpt lat="45.73804657799318" lon="8.73931698353822"><ele>286.7142857142857</ele><time>2026-04-12T08:25:05.956Z</time></trkpt><trkpt lat="45.738103984851506" lon="8.739268029306162"><ele>287.57142857142856</ele><time>2026-04-12T08:25:07.956Z</time></trkpt><trkpt lat="45.73818079976647" lon="8.739214876934215"><ele>288.42857142857144</ele><time>2026-04-12T08:25:10.956Z</time></trkpt><trkpt lat="45.7382416043955" lon="8.739182368466022"><ele>289.2857142857143</ele><time>2026-04-12T08:25:12.956Z</time></trkpt><trkpt lat="45.738293822470304" lon="8.739122144217006"><ele>290.1428571428571</ele><time>2026-04-12T08:25:14.956Z</time></trkpt><trkpt lat="45.73833542363715" lon="8.739051666967674"><ele>291.0</ele><time>2026-04-12T08:25:16.956Z</time></trkpt><trkpt lat="45.73840068760734" lon="8.738977941827878"><ele>291.0</ele><time>2026-04-12T08:25:19.956Z</time></trkpt><trkpt lat="45.738455380985584" lon="8.738923599613669"><ele>291.0</ele><time>2026-04-12T08:25:22.955Z</time></trkpt><trkpt lat="45.7384848012035" lon="8.738794387782592"><ele>291.0</ele><time>2026-04-12T08:25:26.955Z</time></trkpt><trkpt lat="45.738529533281344" lon="8.738694895973843"><ele>291.0</ele><time>2026-04-12T08:25:29.955Z</time></trkpt><trkpt lat="45.73859823389122" lon="8.738588709226157"><ele>291.0</ele><time>2026-04-12T08:25:31.955Z</time></trkpt><trkpt lat="45.738640195657005" lon="8.738508360474054"><ele>291.0</ele><time>2026-04-12T08:25:33.955Z</time></trkpt><trkpt lat="45.738640791894426" lon="8.738410410364349"><ele>290.8333333333333</ele><time>2026-04-12T08:25:35.955Z</time></trkpt><trkpt lat="45.73867728522641" lon="8.738314667004525"><ele>290.6666666666667</ele><time>2026-04-12T08:25:37.955Z</time></trkpt><trkpt lat="45.73869928620002" lon="8.738201209929127"><ele>290.5</ele><time>2026-04-12T08:25:39.955Z</time></trkpt><trkpt lat="45.738719027422874" lon="8.738092909450351"><ele>290.33333333333337</ele><time>2026-04-12T08:25:42.955Z</time></trkpt><trkpt lat="45.73874011681464" lon="8.73795875250319"><ele>290.1666666666667</ele><time>2026-04-12T08:25:45.955Z</time></trkpt><trkpt lat="45.738757021783" lon="8.737861846202845"><ele>290.0</ele><time>2026-04-12T08:25:47.955Z</time></trkpt><trkpt lat="45.738759909570035" lon="8.737770094330436"><ele>290.33333333333337</ele><time>2026-04-12T08:25:50.955Z</time></trkpt><trkpt lat="45.738772533819066" lon="8.73766672184998"><ele>290.6666666666667</ele><time>2026-04-12T08:25:52.955Z</time></trkpt><trkpt lat="45.738773065349896" lon="8.737547194535953"><ele>291.0</ele><time>2026-04-12T08:25:55.955Z</time></trkpt><trkpt lat="45.73879752518781" lon="8.737428321360712"><ele>291.3333333333333</ele><time>2026-04-12T08:25:58.955Z</time></trkpt><trkpt lat="45.738839612912415" lon="8.737304963633138"><ele>291.66666666666663</ele><time>2026-04-12T08:26:00.955Z</time></trkpt><trkpt lat="45.738894704987025" lon="8.73722479793865"><ele>292.0</ele><time>2026-04-12T08:26:02.954Z</time></trkpt><trkpt lat="45.738928108870766" lon="8.737127128721314"><ele>292.0</ele><time>2026-04-12T08:26:05.954Z</time></trkpt><trkpt lat="45.739003673461575" lon="8.737032776864487"><ele>292.0</ele><time>2026-04-12T08:26:08.954Z</time></trkpt><trkpt lat="45.73904812986455" lon="8.736962473448143"><ele>292.0</ele><time>2026-04-12T08:26:10.954Z</time></trkpt><trkpt lat="45.739087215114054" lon="8.736847899767318"><ele>292.0</ele><time>2026-04-12T08:26:12.954Z</time></trkpt><trkpt lat="45.73911410396636" lon="8.73672569226988"><ele>292.0</ele><time>2026-04-12T08:26:14.954Z</time></trkpt><trkpt lat="45.73916174117571" lon="8.736563622219123"><ele>291.8</ele><time>2026-04-12T08:26:16.954Z</time></trkpt><trkpt lat="45.739189563687965" lon="8.736426454962329"><ele>291.6</ele><time>2026-04-12T08:26:18.954Z</time></trkpt><trkpt lat="45.73922815319517" lon="8.736319090895451"><ele>291.40000000000003</ele><time>2026-04-12T08:26:20.954Z</time></trkpt><trkpt lat="45.73927682279355" lon="8.736204097218769"><ele>291.2</ele><time>2026-04-12T08:26:22.955Z</time></trkpt><trkpt lat="45.73931002527207" lon="8.736070123887798"><ele>291.0</ele><time>2026-04-12T08:26:24.955Z</time></trkpt><trkpt lat="45.739316162167306" lon="8.73595958764656"><ele>291.0</ele><time>2026-04-12T08:26:26.955Z</time></trkpt><trkpt lat="45.73934466172654" lon="8.735866067380554"><ele>291.0</ele><time>2026-04-12T08:26:28.955Z</time></trkpt><trkpt lat="45.73934141886071" lon="8.735763752726735"><ele>291.0</ele><time>2026-04-12T08:26:31.955Z</time></trkpt><trkpt lat="45.73935615821259" lon="8.735628950600562"><ele>291.0</ele><time>2026-04-12T08:26:34.954Z</time></trkpt><trkpt lat="45.73936335294826" lon="8.73551720609929"><ele>291.0</ele><time>2026-04-12T08:26:36.954Z</time></trkpt><trkpt lat="45.73939221933664" lon="8.73535881043981"><ele>291.0</ele><time>2026-04-12T08:26:38.954Z</time></trkpt><trkpt lat="45.739403570720675" lon="8.735208900564832"><ele>289.6</ele><time>2026-04-12T08:26:40.954Z</time></trkpt><trkpt lat="45.7394116795267" lon="8.73506528823494"><ele>288.20000000000005</ele><time>2026-04-12T08:26:42.954Z</time></trkpt><trkpt lat="45.73941837611074" lon="8.734912241899064"><ele>286.79999999999995</ele><time>2026-04-12T08:26:44.954Z</time></trkpt><trkpt lat="45.73944459866885" lon="8.734778587829574"><ele>285.4</ele><time>2026-04-12T08:26:46.954Z</time></trkpt><trkpt lat="45.73947236446914" lon="8.734624979311233"><ele>284.0</ele><time>2026-04-12T08:26:48.954Z</time></trkpt><trkpt lat="45.739509701170945" lon="8.734505007937603"><ele>284.0</ele><time>2026-04-12T08:26:50.954Z</time></trkpt><trkpt lat="45.73951829769194" lon="8.734412779512187"><ele>284.0</ele><time>2026-04-12T08:26:52.954Z</time></trkpt><trkpt lat="45.73956638177467" lon="8.734309062036235"><ele>284.0</ele><time>2026-04-12T08:26:54.954Z</time></trkpt><trkpt lat="45.73958395485803" lon="8.73420027015448"><ele>284.0</ele><time>2026-04-12T08:26:56.954Z</time></trkpt><trkpt lat="45.73959897830527" lon="8.734091309297018"><ele>284.0</ele><time>2026-04-12T08:26:58.954Z</time></trkpt><trkpt lat="45.73960965715756" lon="8.733943713639656"><ele>284.0</ele><time>2026-04-12T08:27:01.954Z</time></trkpt><trkpt lat="45.739624625565085" lon="8.733825022154495"><ele>284.1666666666667</ele><time>2026-04-12T08:27:03.954Z</time></trkpt><trkpt lat="45.739648775454185" lon="8.733695807328143"><ele>284.33333333333337</ele><time>2026-04-12T08:27:06.954Z</time></trkpt><trkpt lat="45.73966717825712" lon="8.733599734555847"><ele>284.5</ele><time>2026-04-12T08:27:08.954Z</time></trkpt><trkpt lat="45.73966671838575" lon="8.733480190188736"><ele>284.6666666666667</ele><time>2026-04-12T08:27:11.953Z</time></trkpt><trkpt lat="45.73966842308624" lon="8.733351952164837"><ele>284.8333333333333</ele><time>2026-04-12T08:27:14.953Z</time></trkpt><trkpt lat="45.739648209992055" lon="8.733238650296846"><ele>285.0</ele><time>2026-04-12T08:27:17.953Z</time></trkpt><trkpt lat="45.73959350248808" lon="8.733176393139344"><ele>285.0</ele><time>2026-04-12T08:27:21.953Z</time></trkpt><trkpt lat="45.73951025289291" lon="8.733143989123265"><ele>285.0</ele><time>2026-04-12T08:27:24.953Z</time></trkpt><trkpt lat="45.739427173393544" lon="8.733138828850146"><ele>285.0</ele><time>2026-04-12T08:27:27.953Z</time></trkpt><trkpt lat="45.739346365498356" lon="8.733142896000748"><ele>285.0</ele><time>2026-04-12T08:27:29.953Z</time></trkpt><trkpt lat="45.739248986720526" lon="8.733136057649794"><ele>285.0</ele><time>2026-04-12T08:27:31.953Z</time></trkpt><trkpt lat="45.73917443297768" lon="8.733148057146352"><ele>285.0</ele><time>2026-04-12T08:27:33.953Z</time></trkpt><trkpt lat="45.73908111618679" lon="8.733151639169856"><ele>286.0</ele><time>2026-04-12T08:27:35.953Z</time></trkpt><trkpt lat="45.738993850522746" lon="8.733181191039012"><ele>287.0</ele><time>2026-04-12T08:27:37.953Z</time></trkpt><trkpt lat="45.73888044852671" lon="8.733187722059851"><ele>288.0</ele><time>2026-04-12T08:27:39.953Z</time></trkpt><trkpt lat="45.738778227982884" lon="8.733190109391682"><ele>289.0</ele><time>2026-04-12T08:27:41.953Z</time></trkpt><trkpt lat="45.7386951851996" lon="8.733199386638308"><ele>290.0</ele><time>2026-04-12T08:27:43.953Z</time></trkpt><trkpt lat="45.73861232030726" lon="8.733215629458323"><ele>289.2</ele><time>2026-04-12T08:27:45.953Z</time></trkpt><trkpt lat="45.73851681366203" lon="8.733260029455314"><ele>288.4</ele><time>2026-04-12T08:27:47.953Z</time></trkpt><trkpt lat="45.73841834290886" lon="8.733285204938936"><ele>287.6</ele><time>2026-04-12T08:27:49.953Z</time></trkpt><trkpt lat="45.73833786680304" lon="8.733315797979634"><ele>286.8</ele><time>2026-04-12T08:27:51.952Z</time></trkpt><trkpt lat="45.73822653397458" lon="8.733335996097436"><ele>286.0</ele><time>2026-04-12T08:27:53.952Z</time></trkpt><trkpt lat="45.73815571535867" lon="8.733349778513679"><ele>286.0</ele><time>2026-04-12T08:27:54.952Z</time></trkpt><trkpt lat="45.73806972931329" lon="8.733365481115777"><ele>286.0</ele><time>2026-04-12T08:27:55.952Z</time></trkpt><trkpt lat="45.73800091434847" lon="8.733367580401389"><ele>286.0</ele><time>2026-04-12T08:27:56.952Z</time></trkpt><trkpt lat="45.73791526809509" lon="8.733348097755256"><ele>286.0</ele><time>2026-04-12T08:27:57.952Z</time></trkpt><trkpt lat="45.73784034717528" lon="8.733383701189135"><ele>286.0</ele><time>2026-04-12T08:27:58.952Z</time></trkpt><trkpt lat="45.737773986237556" lon="8.73337610556677"><ele>286.0</ele><time>2026-04-12T08:27:59.952Z</time></trkpt><trkpt lat="45.73771083367358" lon="8.733388624960257"><ele>285.1428571428571</ele><time>2026-04-12T08:28:00.952Z</time></trkpt><trkpt lat="45.73763977107156" lon="8.733420787266041"><ele>284.2857142857143</ele><time>2026-04-12T08:28:01.952Z</time></trkpt><trkpt lat="45.73756819119726" lon="8.733417820499128"><ele>283.42857142857144</ele><time>2026-04-12T08:28:02.952Z</time></trkpt><trkpt lat="45.737497872110836" lon="8.733433522431548"><ele>282.57142857142856</ele><time>2026-04-12T08:28:03.952Z</time></trkpt><trkpt lat="45.737424768493376" lon="8.733450024973068"><ele>281.7142857142857</ele><time>2026-04-12T08:28:04.952Z</time></trkpt><trkpt lat="45.7373465716374" lon="8.733465986550698"><ele>280.85714285714283</ele><time>2026-04-12T08:28:05.952Z</time></trkpt><trkpt lat="45.73727874833256" lon="8.733479830668577"><ele>280.0</ele><time>2026-04-12T08:28:06.952Z</time></trkpt><trkpt lat="45.7372098091744" lon="8.733517744451975"><ele>280.0</ele><time>2026-04-12T08:28:07.952Z</time></trkpt><trkpt lat="45.7371303749196" lon="8.733533144249371"><ele>280.0</ele><time>2026-04-12T08:28:08.952Z</time></trkpt><trkpt lat="45.73705131569931" lon="8.733543123404676"><ele>280.0</ele><time>2026-04-12T08:28:09.952Z</time></trkpt><trkpt lat="45.73698789898144" lon="8.733553286776218"><ele>280.0</ele><time>2026-04-12T08:28:10.952Z</time></trkpt><trkpt lat="45.736915079289176" lon="8.73356578720789"><ele>280.0</ele><time>2026-04-12T08:28:11.952Z</time></trkpt><trkpt lat="45.73685000848567" lon="8.733587868409412"><ele>280.0</ele><time>2026-04-12T08:28:12.952Z</time></trkpt><trkpt lat="45.73674237175176" lon="8.733597141958308"><ele>279.7142857142857</ele><time>2026-04-12T08:28:14.952Z</time></trkpt><trkpt lat="45.736661403696374" lon="8.733633331242729"><ele>279.42857142857144</ele><time>2026-04-12T08:28:15.952Z</time></trkpt><trkpt lat="45.736598369963545" lon="8.733626842555367"><ele>279.1428571428571</ele><time>2026-04-12T08:28:16.952Z</time></trkpt><trkpt lat="45.73653144447671" lon="8.733640646035596"><ele>278.8571428571429</ele><time>2026-04-12T08:28:17.952Z</time></trkpt><trkpt lat="45.736468185991924" lon="8.733653693212526"><ele>278.57142857142856</ele><time>2026-04-12T08:28:18.952Z</time></trkpt><trkpt lat="45.736397126898645" lon="8.733668018046263"><ele>278.2857142857143</ele><time>2026-04-12T08:28:19.952Z</time></trkpt><trkpt lat="45.73633073781674" lon="8.7336813955333"><ele>278.0</ele><time>2026-04-12T08:28:20.952Z</time></trkpt><trkpt lat="45.73626072380044" lon="8.733695503429958"><ele>278.0</ele><time>2026-04-12T08:28:21.952Z</time></trkpt><trkpt lat="45.73619719084273" lon="8.73370830540027"><ele>278.0</ele><time>2026-04-12T08:28:22.952Z</time></trkpt><trkpt lat="45.73613533130951" lon="8.733737254039038"><ele>278.0</ele><time>2026-04-12T08:28:23.952Z</time></trkpt><trkpt lat="45.73607145226116" lon="8.733738814594094"><ele>278.0</ele><time>2026-04-12T08:28:24.952Z</time></trkpt><trkpt lat="45.7360084931412" lon="8.733740179832507"><ele>278.0</ele><time>2026-04-12T08:28:25.952Z</time></trkpt><trkpt lat="45.735903821602676" lon="8.7337592785051"><ele>278.0</ele><time>2026-04-12T08:28:27.953Z</time></trkpt><trkpt lat="45.735809795341716" lon="8.733724927358145"><ele>277.0</ele><time>2026-04-12T08:28:29.952Z</time></trkpt><trkpt lat="45.735732700999264" lon="8.733863359621331"><ele>276.0</ele><time>2026-04-12T08:28:30.953Z</time></trkpt><trkpt lat="45.73567172880327" lon="8.73402838711974"><ele>275.0</ele><time>2026-04-12T08:28:32.953Z</time></trkpt><trkpt lat="45.73563728216031" lon="8.73411158373632"><ele>274.0</ele><time>2026-04-12T08:28:33.953Z</time></trkpt><trkpt lat="45.73562077281935" lon="8.734269442358533"><ele>273.0</ele><time>2026-04-12T08:28:35.953Z</time></trkpt><trkpt lat="45.73557213934351" lon="8.734411614377118"><ele>273.0</ele><time>2026-04-12T08:28:37.953Z</time></trkpt><trkpt lat="45.73553252886906" lon="8.734556753752775"><ele>273.0</ele><time>2026-04-12T08:28:39.953Z</time></trkpt><trkpt lat="45.7354986261492" lon="8.734693827664508"><ele>273.0</ele><time>2026-04-12T08:28:41.953Z</time></trkpt><trkpt lat="45.735449830102795" lon="8.7348538567057"><ele>273.0</ele><time>2026-04-12T08:28:43.952Z</time></trkpt><trkpt lat="45.73540618169471" lon="8.735006552363066"><ele>273.0</ele><time>2026-04-12T08:28:45.952Z</time></trkpt><trkpt lat="45.73535499274372" lon="8.735107933225422"><ele>273.0</ele><time>2026-04-12T08:28:47.952Z</time></trkpt><trkpt lat="45.73529070059492" lon="8.735125004877823"><ele>273.0</ele><time>2026-04-12T08:28:49.952Z</time></trkpt><trkpt lat="45.735196632765025" lon="8.735121980969442"><ele>273.0</ele><time>2026-04-12T08:28:51.952Z</time></trkpt><trkpt lat="45.735091394070864" lon="8.735079746196801"><ele>273.0</ele><time>2026-04-12T08:28:53.952Z</time></trkpt><trkpt lat="45.735010993850274" lon="8.73504770853212"><ele>273.0</ele><time>2026-04-12T08:28:55.952Z</time></trkpt><trkpt lat="45.73493925232825" lon="8.735036660601192"><ele>273.0</ele><time>2026-04-12T08:28:58.952Z</time></trkpt><trkpt lat="45.734865891961746" lon="8.735016515099906"><ele>273.8333333333333</ele><time>2026-04-12T08:29:00.952Z</time></trkpt><trkpt lat="45.734789537800616" lon="8.73499581686794"><ele>274.6666666666667</ele><time>2026-04-12T08:29:02.952Z</time></trkpt><trkpt lat="45.73471815391419" lon="8.73497851881828"><ele>275.5</ele><time>2026-04-12T08:29:04.952Z</time></trkpt><trkpt lat="45.73464604259808" lon="8.734933579276463"><ele>276.33333333333337</ele><time>2026-04-12T08:29:06.952Z</time></trkpt><trkpt lat="45.734546185376665" lon="8.734882762279623"><ele>277.1666666666667</ele><time>2026-04-12T08:29:09.952Z</time></trkpt><trkpt lat="45.73445626127573" lon="8.734838510435559"><ele>278.0</ele><time>2026-04-12T08:29:11.952Z</time></trkpt><trkpt lat="45.73437172220396" lon="8.734812782336062"><ele>279.4</ele><time>2026-04-12T08:29:13.952Z</time></trkpt><trkpt lat="45.73429553345553" lon="8.734799634842654"><ele>280.8</ele><time>2026-04-12T08:29:15.952Z</time></trkpt><trkpt lat="45.73419360541019" lon="8.734736158129301"><ele>282.2</ele><time>2026-04-12T08:29:17.952Z</time></trkpt><trkpt lat="45.73408804501655" lon="8.734689073436341"><ele>283.6</ele><time>2026-04-12T08:29:20.952Z</time></trkpt><trkpt lat="45.73400345255039" lon="8.734630345240308"><ele>285.0</ele><time>2026-04-12T08:29:22.951Z</time></trkpt><trkpt lat="45.73392688226714" lon="8.734607283088094"><ele>285.0</ele><time>2026-04-12T08:29:24.951Z</time></trkpt><trkpt lat="45.73386481209312" lon="8.734555380290304"><ele>285.0</ele><time>2026-04-12T08:29:26.951Z</time></trkpt><trkpt lat="45.73376832192569" lon="8.73452071025698"><ele>285.0</ele><time>2026-04-12T08:29:28.951Z</time></trkpt><trkpt lat="45.73367860618025" lon="8.734485877296287"><ele>285.0</ele><time>2026-04-12T08:29:30.951Z</time></trkpt><trkpt lat="45.73360508004494" lon="8.734485136924551"><ele>285.0</ele><time>2026-04-12T08:29:32.951Z</time></trkpt><trkpt lat="45.733527087516904" lon="8.734445386174079"><ele>285.0</ele><time>2026-04-12T08:29:34.951Z</time></trkpt><trkpt lat="45.7334399107426" lon="8.734425514919621"><ele>284.5</ele><time>2026-04-12T08:29:36.951Z</time></trkpt><trkpt lat="45.73334977380902" lon="8.73436990739171"><ele>284.0</ele><time>2026-04-12T08:29:38.951Z</time></trkpt><trkpt lat="45.73326926594556" lon="8.734332842693071"><ele>283.5</ele><time>2026-04-12T08:29:40.951Z</time></trkpt><trkpt lat="45.73321324907346" lon="8.734281930398966"><ele>283.0</ele><time>2026-04-12T08:29:41.951Z</time></trkpt><trkpt lat="45.73312245515928" lon="8.734226554762397"><ele>282.5</ele><time>2026-04-12T08:29:43.951Z</time></trkpt><trkpt lat="45.73304004475286" lon="8.734185355595649"><ele>282.0</ele><time>2026-04-12T08:29:45.951Z</time></trkpt><trkpt lat="45.73297359141937" lon="8.734194097495463"><ele>282.0</ele><time>2026-04-12T08:29:47.951Z</time></trkpt><trkpt lat="45.732888225227605" lon="8.734176189975193"><ele>282.0</ele><time>2026-04-12T08:29:49.951Z</time></trkpt><trkpt lat="45.732801677055484" lon="8.734134045331132"><ele>282.0</ele><time>2026-04-12T08:29:51.951Z</time></trkpt><trkpt lat="45.73271017350184" lon="8.734109857852244"><ele>282.0</ele><time>2026-04-12T08:29:53.951Z</time></trkpt><trkpt lat="45.73264829695051" lon="8.734135147068054"><ele>282.0</ele><time>2026-04-12T08:29:55.951Z</time></trkpt><trkpt lat="45.73258387115229" lon="8.73414283289342"><ele>282.0</ele><time>2026-04-12T08:29:57.951Z</time></trkpt><trkpt lat="45.732510126977175" lon="8.73413805797939"><ele>281.7142857142857</ele><time>2026-04-12T08:29:59.951Z</time></trkpt><trkpt lat="45.73245420306532" lon="8.734191942078068"><ele>281.42857142857144</ele><time>2026-04-12T08:30:01.951Z</time></trkpt><trkpt lat="45.732391769662364" lon="8.73424219711423"><ele>281.1428571428571</ele><time>2026-04-12T08:30:03.95Z</time></trkpt><trkpt lat="45.73231099965436" lon="8.73424888334444"><ele>280.8571428571429</ele><time>2026-04-12T08:30:05.95Z</time></trkpt><trkpt lat="45.73223570359429" lon="8.734240872191045"><ele>280.57142857142856</ele><time>2026-04-12T08:30:07.95Z</time></trkpt><trkpt lat="45.73216132387226" lon="8.734252482341594"><ele>280.2857142857143</ele><time>2026-04-12T08:30:09.95Z</time></trkpt><trkpt lat="45.7320853545457" lon="8.734271676387447"><ele>280.0</ele><time>2026-04-12T08:30:11.95Z</time></trkpt><trkpt lat="45.73203034656467" lon="8.734338984827183"><ele>279.85714285714283</ele><time>2026-04-12T08:30:13.95Z</time></trkpt><trkpt lat="45.73197830455421" lon="8.734409127922948"><ele>279.7142857142857</ele><time>2026-04-12T08:30:15.95Z</time></trkpt><trkpt lat="45.731944035104824" lon="8.734507436374354"><ele>279.57142857142856</ele><time>2026-04-12T08:30:17.95Z</time></trkpt><trkpt lat="45.731941295383834" lon="8.734601269346124"><ele>279.42857142857144</ele><time>2026-04-12T08:30:19.95Z</time></trkpt><trkpt lat="45.731975403536815" lon="8.734724908459528"><ele>279.2857142857143</ele><time>2026-04-12T08:30:22.95Z</time></trkpt><trkpt lat="45.73203027354379" lon="8.734769517852351"><ele>279.1428571428571</ele><time>2026-04-12T08:30:24.95Z</time></trkpt><trkpt lat="45.73209466039349" lon="8.734799494808867"><ele>279.0</ele><time>2026-04-12T08:30:26.95Z</time></trkpt><trkpt lat="45.732170113125896" lon="8.73483980725513"><ele>279.0</ele><time>2026-04-12T08:30:28.95Z</time></trkpt><trkpt lat="45.732231061663185" lon="8.734889379736668"><ele>279.0</ele><time>2026-04-12T08:30:30.95Z</time></trkpt><trkpt lat="45.732249138008996" lon="8.735016472199936"><ele>279.0</ele><time>2026-04-12T08:30:33.951Z</time></trkpt><trkpt lat="45.73224358250438" lon="8.735128897381294"><ele>279.0</ele><time>2026-04-12T08:30:35.951Z</time></trkpt><trkpt lat="45.73219229239517" lon="8.73519383538238"><ele>279.0</ele><time>2026-04-12T08:30:37.951Z</time></trkpt><trkpt lat="45.732120333209785" lon="8.73524157490731"><ele>279.0</ele><time>2026-04-12T08:30:39.951Z</time></trkpt><trkpt lat="45.73203117788104" lon="8.73528001664672"><ele>280.2</ele><time>2026-04-12T08:30:41.951Z</time></trkpt><trkpt lat="45.73194508873115" lon="8.735316177850402"><ele>281.4</ele><time>2026-04-12T08:30:43.951Z</time></trkpt><trkpt lat="45.73189789867669" lon="8.7354478311222"><ele>282.6</ele><time>2026-04-12T08:30:46.951Z</time></trkpt><trkpt lat="45.731890624005075" lon="8.735575651938971"><ele>283.8</ele><time>2026-04-12T08:30:48.951Z</time></trkpt><trkpt lat="45.73189688019032" lon="8.735695075921512"><ele>285.0</ele><time>2026-04-12T08:30:50.951Z</time></trkpt><trkpt lat="45.73187313400765" lon="8.735823534579728"><ele>285.6666666666667</ele><time>2026-04-12T08:30:52.951Z</time></trkpt><trkpt lat="45.731845351349406" lon="8.735939143409096"><ele>286.3333333333333</ele><time>2026-04-12T08:30:54.951Z</time></trkpt><trkpt lat="45.731825056084936" lon="8.736032416925655"><ele>287.0</ele><time>2026-04-12T08:30:56.95Z</time></trkpt><trkpt lat="45.731785288099836" lon="8.736136783754045"><ele>287.66666666666663</ele><time>2026-04-12T08:30:58.95Z</time></trkpt><trkpt lat="45.73177458936063" lon="8.736248213329517"><ele>288.3333333333333</ele><time>2026-04-12T08:31:00.95Z</time></trkpt><trkpt lat="45.73174886165103" lon="8.736348619360587"><ele>289.0</ele><time>2026-04-12T08:31:02.95Z</time></trkpt><trkpt lat="45.73173045566254" lon="8.736447316861941"><ele>289.5</ele><time>2026-04-12T08:31:04.95Z</time></trkpt><trkpt lat="45.73170519918116" lon="8.736575190360186"><ele>290.0</ele><time>2026-04-12T08:31:06.95Z</time></trkpt><trkpt lat="45.73168377818587" lon="8.736668425138765"><ele>290.5</ele><time>2026-04-12T08:31:08.95Z</time></trkpt><trkpt lat="45.731678916759755" lon="8.736762093364092"><ele>291.0</ele><time>2026-04-12T08:31:10.95Z</time></trkpt><trkpt lat="45.731673324204884" lon="8.736889270241775"><ele>291.5</ele><time>2026-04-12T08:31:13.95Z</time></trkpt><trkpt lat="45.7316715109613" lon="8.737003520775666"><ele>292.0</ele><time>2026-04-12T08:31:16.95Z</time></trkpt><trkpt lat="45.731651988513455" lon="8.737152373095503"><ele>292.42857142857144</ele><time>2026-04-12T08:31:19.95Z</time></trkpt><trkpt lat="45.73162941991781" lon="8.737253794799475"><ele>292.8571428571429</ele><time>2026-04-12T08:31:21.95Z</time></trkpt><trkpt lat="45.73161462827002" lon="8.737351065090838"><ele>293.28571428571433</ele><time>2026-04-12T08:31:23.95Z</time></trkpt><trkpt lat="45.73159273917336" lon="8.737443343439589"><ele>293.7142857142857</ele><time>2026-04-12T08:31:25.95Z</time></trkpt><trkpt lat="45.73157359319048" lon="8.73753882950056"><ele>294.14285714285717</ele><time>2026-04-12T08:31:27.95Z</time></trkpt><trkpt lat="45.73155758848866" lon="8.737643644800524"><ele>294.5714285714286</ele><time>2026-04-12T08:31:30.95Z</time></trkpt><trkpt lat="45.73153788984567" lon="8.737740501583392"><ele>295.0</ele><time>2026-04-12T08:31:33.95Z</time></trkpt><trkpt lat="45.73150796170503" lon="8.737844925179914"><ele>295.16666666666663</ele><time>2026-04-12T08:31:35.95Z</time></trkpt><trkpt lat="45.73144919963045" lon="8.73797018386565"><ele>295.3333333333333</ele><time>2026-04-12T08:31:37.949Z</time></trkpt><trkpt lat="45.73141540168766" lon="8.738066133098831"><ele>295.5</ele><time>2026-04-12T08:31:39.949Z</time></trkpt><trkpt lat="45.73138153198475" lon="8.738143798660953"><ele>295.6666666666667</ele><time>2026-04-12T08:31:41.949Z</time></trkpt><trkpt lat="45.73134188273039" lon="8.738249942245716"><ele>295.83333333333337</ele><time>2026-04-12T08:31:43.949Z</time></trkpt><trkpt lat="45.73131239479038" lon="8.738349226913915"><ele>296.0</ele><time>2026-04-12T08:31:45.949Z</time></trkpt><trkpt lat="45.73125464463705" lon="8.738440429642502"><ele>295.6666666666667</ele><time>2026-04-12T08:31:47.949Z</time></trkpt><trkpt lat="45.731200669291184" lon="8.738551886841638"><ele>295.33333333333337</ele><time>2026-04-12T08:31:49.949Z</time></trkpt><trkpt lat="45.73115277218939" lon="8.738616135985016"><ele>295.0</ele><time>2026-04-12T08:31:51.949Z</time></trkpt><trkpt lat="45.731114972168434" lon="8.738699352917427"><ele>294.6666666666667</ele><time>2026-04-12T08:31:53.949Z</time></trkpt><trkpt lat="45.73105028365558" lon="8.738802924575587"><ele>294.3333333333333</ele><time>2026-04-12T08:31:55.949Z</time></trkpt><trkpt lat="45.730999192124735" lon="8.738870857203793"><ele>294.0</ele><time>2026-04-12T08:31:57.949Z</time></trkpt><trkpt lat="45.73095041123068" lon="8.73893698471376"><ele>293.6666666666667</ele><time>2026-04-12T08:31:59.949Z</time></trkpt><trkpt lat="45.73089133820324" lon="8.739018903674948"><ele>293.3333333333333</ele><time>2026-04-12T08:32:01.949Z</time></trkpt><trkpt lat="45.73081850091993" lon="8.73909394568827"><ele>293.0</ele><time>2026-04-12T08:32:03.949Z</time></trkpt><trkpt lat="45.730757289458026" lon="8.739151048307741"><ele>292.66666666666663</ele><time>2026-04-12T08:32:05.949Z</time></trkpt><trkpt lat="45.730688819657466" lon="8.739236686199542"><ele>292.3333333333333</ele><time>2026-04-12T08:32:07.949Z</time></trkpt><trkpt lat="45.73063629272158" lon="8.739313152269922"><ele>292.0</ele><time>2026-04-12T08:32:09.949Z</time></trkpt><trkpt lat="45.7305618740622" lon="8.739386562957774"><ele>291.3333333333333</ele><time>2026-04-12T08:32:11.949Z</time></trkpt><trkpt lat="45.730496840586845" lon="8.739444562085788"><ele>290.66666666666663</ele><time>2026-04-12T08:32:13.949Z</time></trkpt><trkpt lat="45.730441770835974" lon="8.739533783571957"><ele>290.0</ele><time>2026-04-12T08:32:15.949Z</time></trkpt><trkpt lat="45.730364245913506" lon="8.739608613041861"><ele>289.3333333333333</ele><time>2026-04-12T08:32:17.948Z</time></trkpt><trkpt lat="45.73029489216469" lon="8.739676971558287"><ele>288.6666666666667</ele><time>2026-04-12T08:32:19.948Z</time></trkpt><trkpt lat="45.73022800550297" lon="8.739762813565322"><ele>288.0</ele><time>2026-04-12T08:32:21.948Z</time></trkpt><trkpt lat="45.73014946915446" lon="8.739826430045982"><ele>287.5</ele><time>2026-04-12T08:32:23.948Z</time></trkpt><trkpt lat="45.73007396534047" lon="8.739898969427603"><ele>287.0</ele><time>2026-04-12T08:32:25.948Z</time></trkpt><trkpt lat="45.72998941262044" lon="8.739949744225829"><ele>286.5</ele><time>2026-04-12T08:32:26.948Z</time></trkpt><trkpt lat="45.729933527462435" lon="8.740001234749153"><ele>286.0</ele><time>2026-04-12T08:32:27.948Z</time></trkpt><trkpt lat="45.729860392492824" lon="8.740056642582614"><ele>285.5</ele><time>2026-04-12T08:32:29.948Z</time></trkpt><trkpt lat="45.72977845102844" lon="8.740140172186116"><ele>285.0</ele><time>2026-04-12T08:32:31.948Z</time></trkpt><trkpt lat="45.72969930288772" lon="8.740220083935366"><ele>285.0</ele><time>2026-04-12T08:32:33.948Z</time></trkpt><trkpt lat="45.72963002208978" lon="8.740312704874013"><ele>285.0</ele><time>2026-04-12T08:32:36.948Z</time></trkpt><trkpt lat="45.72955187860156" lon="8.7403906717492"><ele>285.0</ele><time>2026-04-12T08:32:38.948Z</time></trkpt><trkpt lat="45.72949684585157" lon="8.74045237652551"><ele>285.0</ele><time>2026-04-12T08:32:40.949Z</time></trkpt><trkpt lat="45.729442054208526" lon="8.740499741399523"><ele>285.0</ele><time>2026-04-12T08:32:41.949Z</time></trkpt><trkpt lat="45.729371555547786" lon="8.740569218627193"><ele>285.0</ele><time>2026-04-12T08:32:43.949Z</time></trkpt><trkpt lat="45.72930791969066" lon="8.740645876460677"><ele>285.0</ele><time>2026-04-12T08:32:45.95Z</time></trkpt><trkpt lat="45.729247350663485" lon="8.740727337541037"><ele>285.0</ele><time>2026-04-12T08:32:47.949Z</time></trkpt><trkpt lat="45.72917005768606" lon="8.740801433103456"><ele>285.0</ele><time>2026-04-12T08:32:49.95Z</time></trkpt><trkpt lat="45.72909824739583" lon="8.740879840884176"><ele>285.0</ele><time>2026-04-12T08:32:51.95Z</time></trkpt><trkpt lat="45.729012322328394" lon="8.740957692103265"><ele>285.0</ele><time>2026-04-12T08:32:53.949Z</time></trkpt><trkpt lat="45.728938928104164" lon="8.741037518757523"><ele>284.8</ele><time>2026-04-12T08:32:55.949Z</time></trkpt><trkpt lat="45.72883893446491" lon="8.741105414751615"><ele>284.6</ele><time>2026-04-12T08:32:57.949Z</time></trkpt><trkpt lat="45.72874831260881" lon="8.741172762949526"><ele>284.4</ele><time>2026-04-12T08:32:59.949Z</time></trkpt><trkpt lat="45.728680535389216" lon="8.741212190320917"><ele>284.2</ele><time>2026-04-12T08:33:01.949Z</time></trkpt><trkpt lat="45.72858997234702" lon="8.741239614776672"><ele>284.0</ele><time>2026-04-12T08:33:03.949Z</time></trkpt><trkpt lat="45.72849517620276" lon="8.741253737161916"><ele>283.8</ele><time>2026-04-12T08:33:05.949Z</time></trkpt><trkpt lat="45.728408871871096" lon="8.74120684082604"><ele>283.59999999999997</ele><time>2026-04-12T08:33:07.948Z</time></trkpt><trkpt lat="45.728336565053596" lon="8.741145467022509"><ele>283.4</ele><time>2026-04-12T08:33:09.948Z</time></trkpt><trkpt lat="45.72825392289227" lon="8.741132021245482"><ele>283.2</ele><time>2026-04-12T08:33:11.948Z</time></trkpt><trkpt lat="45.72814644923184" lon="8.741139151721194"><ele>283.0</ele><time>2026-04-12T08:33:13.948Z</time></trkpt><trkpt lat="45.72807103752425" lon="8.741214799692425"><ele>283.0</ele><time>2026-04-12T08:33:15.948Z</time></trkpt><trkpt lat="45.72798985904926" lon="8.741292447950183"><ele>283.0</ele><time>2026-04-12T08:33:17.948Z</time></trkpt><trkpt lat="45.72793346563128" lon="8.741338240768377"><ele>283.0</ele><time>2026-04-12T08:33:18.948Z</time></trkpt><trkpt lat="45.72786650915947" lon="8.741421777340046"><ele>283.0</ele><time>2026-04-12T08:33:20.948Z</time></trkpt><trkpt lat="45.72778555730475" lon="8.741471094422502"><ele>283.0</ele><time>2026-04-12T08:33:22.948Z</time></trkpt><trkpt lat="45.727717400391946" lon="8.741491386504947"><ele>283.0</ele><time>2026-04-12T08:33:24.948Z</time></trkpt><trkpt lat="45.72764499632145" lon="8.741533624476531"><ele>284.0</ele><time>2026-04-12T08:33:26.948Z</time></trkpt><trkpt lat="45.72757528639865" lon="8.741573857834668"><ele>285.0</ele><time>2026-04-12T08:33:28.948Z</time></trkpt><trkpt lat="45.727518895554574" lon="8.741623449382072"><ele>286.0</ele><time>2026-04-12T08:33:30.948Z</time></trkpt><trkpt lat="45.72743391282899" lon="8.741665573943708"><ele>287.0</ele><time>2026-04-12T08:33:32.948Z</time></trkpt><trkpt lat="45.72736945749674" lon="8.74171117030733"><ele>288.0</ele><time>2026-04-12T08:33:34.948Z</time></trkpt><trkpt lat="45.72730470935923" lon="8.741766313663403"><ele>289.0</ele><time>2026-04-12T08:33:36.948Z</time></trkpt><trkpt lat="45.727218413429924" lon="8.74181104752138"><ele>289.0</ele><time>2026-04-12T08:33:38.948Z</time></trkpt><trkpt lat="45.72715283740328" lon="8.74186600508239"><ele>289.0</ele><time>2026-04-12T08:33:40.948Z</time></trkpt><trkpt lat="45.72710341568793" lon="8.741945886379808"><ele>289.0</ele><time>2026-04-12T08:33:42.948Z</time></trkpt><trkpt lat="45.72704191637145" lon="8.742053768541961"><ele>289.0</ele><time>2026-04-12T08:33:44.948Z</time></trkpt><trkpt lat="45.7269813950522" lon="8.742174451830964"><ele>289.0</ele><time>2026-04-12T08:33:46.948Z</time></trkpt><trkpt lat="45.726931590731304" lon="8.74228934066945"><ele>289.0</ele><time>2026-04-12T08:33:48.947Z</time></trkpt><trkpt lat="45.72691124803549" lon="8.742403681151739"><ele>289.0</ele><time>2026-04-12T08:33:50.947Z</time></trkpt><trkpt lat="45.72689257117286" lon="8.74253293776765"><ele>289.0</ele><time>2026-04-12T08:33:52.947Z</time></trkpt><trkpt lat="45.726901497003816" lon="8.742647899442622"><ele>289.0</ele><time>2026-04-12T08:33:54.947Z</time></trkpt><trkpt lat="45.72691450044341" lon="8.74275377255467"><ele>289.0</ele><time>2026-04-12T08:33:56.947Z</time></trkpt><trkpt lat="45.72694671806352" lon="8.742851159523564"><ele>289.0</ele><time>2026-04-12T08:33:58.947Z</time></trkpt><trkpt lat="45.72697219125921" lon="8.74296492374074"><ele>289.0</ele><time>2026-04-12T08:34:00.947Z</time></trkpt><trkpt lat="45.72700604067133" lon="8.743084594609988"><ele>288.8333333333333</ele><time>2026-04-12T08:34:02.947Z</time></trkpt><trkpt lat="45.72703400732" lon="8.743184122661983"><ele>288.66666666666663</ele><time>2026-04-12T08:34:04.947Z</time></trkpt><trkpt lat="45.72705862575987" lon="8.743276332232453"><ele>288.5</ele><time>2026-04-12T08:34:06.947Z</time></trkpt><trkpt lat="45.727096475388585" lon="8.743399042112433"><ele>288.3333333333333</ele><time>2026-04-12T08:34:08.947Z</time></trkpt><trkpt lat="45.72712583208141" lon="8.743517056219961"><ele>288.1666666666667</ele><time>2026-04-12T08:34:10.947Z</time></trkpt><trkpt lat="45.72716697712004" lon="8.74365668045309"><ele>288.0</ele><time>2026-04-12T08:34:12.947Z</time></trkpt><trkpt lat="45.72718177489936" lon="8.743818821276347"><ele>286.8</ele><time>2026-04-12T08:34:14.947Z</time></trkpt><trkpt lat="45.7271683184209" lon="8.74397820374553"><ele>285.6</ele><time>2026-04-12T08:34:16.947Z</time></trkpt><trkpt lat="45.727147364498464" lon="8.744125521477985"><ele>284.4</ele><time>2026-04-12T08:34:18.947Z</time></trkpt><trkpt lat="45.72711275467376" lon="8.744242068007129"><ele>283.2</ele><time>2026-04-12T08:34:20.947Z</time></trkpt><trkpt lat="45.72705734623544" lon="8.744363555680888"><ele>282.0</ele><time>2026-04-12T08:34:22.947Z</time></trkpt><trkpt lat="45.72698774112452" lon="8.74444700697018"><ele>281.6</ele><time>2026-04-12T08:34:24.947Z</time></trkpt><trkpt lat="45.72692362100238" lon="8.74450973107645"><ele>281.2</ele><time>2026-04-12T08:34:26.947Z</time></trkpt><trkpt lat="45.72681379257333" lon="8.744603855748116"><ele>280.8</ele><time>2026-04-12T08:34:28.946Z</time></trkpt><trkpt lat="45.726728578432436" lon="8.744618737706729"><ele>280.4</ele><time>2026-04-12T08:34:30.946Z</time></trkpt><trkpt lat="45.72660502310661" lon="8.744617005399295"><ele>280.0</ele><time>2026-04-12T08:34:32.946Z</time></trkpt><trkpt lat="45.726483654456274" lon="8.744612869652345"><ele>279.6</ele><time>2026-04-12T08:34:34.946Z</time></trkpt><trkpt lat="45.726372237488725" lon="8.744607455196904"><ele>279.2</ele><time>2026-04-12T08:34:36.946Z</time></trkpt><trkpt lat="45.72626758629286" lon="8.744607097395717"><ele>278.8</ele><time>2026-04-12T08:34:38.946Z</time></trkpt><trkpt lat="45.72616625357827" lon="8.744581811875733"><ele>278.4</ele><time>2026-04-12T08:34:40.946Z</time></trkpt><trkpt lat="45.72606449508003" lon="8.744567297290454"><ele>278.0</ele><time>2026-04-12T08:34:42.946Z</time></trkpt><trkpt lat="45.725959836576884" lon="8.744549043686598"><ele>277.4</ele><time>2026-04-12T08:34:44.946Z</time></trkpt><trkpt lat="45.7258524619261" lon="8.744539531389094"><ele>276.8</ele><time>2026-04-12T08:34:46.947Z</time></trkpt><trkpt lat="45.7257461256622" lon="8.744524989404265"><ele>276.2</ele><time>2026-04-12T08:34:48.948Z</time></trkpt><trkpt lat="45.72563969515539" lon="8.744508593874851"><ele>275.6</ele><time>2026-04-12T08:34:50.947Z</time></trkpt><trkpt lat="45.72553168118513" lon="8.744494553634853"><ele>275.0</ele><time>2026-04-12T08:34:52.948Z</time></trkpt><trkpt lat="45.725428648495104" lon="8.744485972685723"><ele>275.0</ele><time>2026-04-12T08:34:54.948Z</time></trkpt><trkpt lat="45.72532976346957" lon="8.744469722259403"><ele>275.0</ele><time>2026-04-12T08:34:56.948Z</time></trkpt><trkpt lat="45.725244730985594" lon="8.744472192483343"><ele>275.0</ele><time>2026-04-12T08:34:58.947Z</time></trkpt><trkpt lat="45.72514554639093" lon="8.744459292745308"><ele>275.0</ele><time>2026-04-12T08:35:00.947Z</time></trkpt><trkpt lat="45.72505728864469" lon="8.744455854615117"><ele>275.0</ele><time>2026-04-12T08:35:02.947Z</time></trkpt><trkpt lat="45.72498034074674" lon="8.744450626451687"><ele>275.0</ele><time>2026-04-12T08:35:05.947Z</time></trkpt><trkpt lat="45.724899795409755" lon="8.744467539068546"><ele>274.83333333333337</ele><time>2026-04-12T08:37:36.943Z</time></trkpt><trkpt lat="45.724996292145384" lon="8.744535743008436"><ele>274.6666666666667</ele><time>2026-04-12T08:38:12.942Z</time></trkpt><trkpt lat="45.72496204907755" lon="8.744439158430108"><ele>274.5</ele><time>2026-04-12T08:38:34.942Z</time></trkpt><trkpt lat="45.72487244727473" lon="8.744465696947099"><ele>274.3333333333333</ele><time>2026-04-12T08:39:30.94Z</time></trkpt><trkpt lat="45.724782332251074" lon="8.744485258417885"><ele>274.16666666666663</ele><time>2026-04-12T08:39:32.94Z</time></trkpt><trkpt lat="45.72470689352891" lon="8.744490716988226"><ele>274.0</ele><time>2026-04-12T08:39:34.94Z</time></trkpt><trkpt lat="45.72462352994897" lon="8.744501476364979"><ele>274.0</ele><time>2026-04-12T08:39:36.94Z</time></trkpt><trkpt lat="45.72453634727801" lon="8.744519161342481"><ele>274.0</ele><time>2026-04-12T08:39:38.94Z</time></trkpt><trkpt lat="45.724448831197996" lon="8.744538006667264"><ele>274.0</ele><time>2026-04-12T08:39:40.94Z</time></trkpt><trkpt lat="45.724362857943774" lon="8.744562229559579"><ele>274.0</ele><time>2026-04-12T08:39:42.94Z</time></trkpt><trkpt lat="45.724282272620265" lon="8.744598502754824"><ele>274.0</ele><time>2026-04-12T08:39:44.94Z</time></trkpt><trkpt lat="45.724198773532315" lon="8.744623815329305"><ele>274.0</ele><time>2026-04-12T08:39:46.94Z</time></trkpt><trkpt lat="45.724107704761856" lon="8.744647442031052"><ele>274.0</ele><time>2026-04-12T08:39:48.94Z</time></trkpt><trkpt lat="45.72402426001026" lon="8.744682727135695"><ele>274.0</ele><time>2026-04-12T08:39:50.94Z</time></trkpt><trkpt lat="45.72392439980148" lon="8.7447016597458"><ele>274.0</ele><time>2026-04-12T08:39:52.94Z</time></trkpt><trkpt lat="45.72382753581319" lon="8.744731857745101"><ele>274.0</ele><time>2026-04-12T08:39:54.94Z</time></trkpt><trkpt lat="45.723721942216486" lon="8.744778311687442"><ele>274.0</ele><time>2026-04-12T08:39:56.94Z</time></trkpt><trkpt lat="45.72363305660708" lon="8.744835609374052"><ele>273.8</ele><time>2026-04-12T08:39:58.94Z</time></trkpt><trkpt lat="45.72355485903673" lon="8.744914025838618"><ele>273.59999999999997</ele><time>2026-04-12T08:40:00.94Z</time></trkpt><trkpt lat="45.72348769361556" lon="8.74501276287636"><ele>273.4</ele><time>2026-04-12T08:40:02.94Z</time></trkpt><trkpt lat="45.72343519894324" lon="8.745126839910084"><ele>273.2</ele><time>2026-04-12T08:40:04.939Z</time></trkpt><trkpt lat="45.72339768565498" lon="8.745248811630544"><ele>273.0</ele><time>2026-04-12T08:40:06.939Z</time></trkpt><trkpt lat="45.72337927894015" lon="8.745372024018462"><ele>272.6666666666667</ele><time>2026-04-12T08:40:08.939Z</time></trkpt><trkpt lat="45.72337211208563" lon="8.745496177714374"><ele>272.3333333333333</ele><time>2026-04-12T08:40:10.939Z</time></trkpt><trkpt lat="45.72336581986444" lon="8.745618857051747"><ele>272.0</ele><time>2026-04-12T08:40:12.939Z</time></trkpt><trkpt lat="45.723360664911674" lon="8.745743886381575"><ele>271.66666666666663</ele><time>2026-04-12T08:40:14.939Z</time></trkpt><trkpt lat="45.72336861197325" lon="8.745855075219243"><ele>271.3333333333333</ele><time>2026-04-12T08:40:16.939Z</time></trkpt><trkpt lat="45.723370589228395" lon="8.745970053413325"><ele>271.0</ele><time>2026-04-12T08:40:18.939Z</time></trkpt><trkpt lat="45.72334986126916" lon="8.746095776428973"><ele>270.8</ele><time>2026-04-12T08:40:20.939Z</time></trkpt><trkpt lat="45.723293379339076" lon="8.746185717979701"><ele>270.6</ele><time>2026-04-12T08:40:22.939Z</time></trkpt><trkpt lat="45.72321144450832" lon="8.746221964122393"><ele>270.4</ele><time>2026-04-12T08:40:24.939Z</time></trkpt><trkpt lat="45.72312942378014" lon="8.746298257985698"><ele>270.2</ele><time>2026-04-12T08:40:26.939Z</time></trkpt><trkpt lat="45.72305204849832" lon="8.746372426451927"><ele>270.0</ele><time>2026-04-12T08:40:28.939Z</time></trkpt><trkpt lat="45.72295535431042" lon="8.746418226371752"><ele>270.0</ele><time>2026-04-12T08:40:30.939Z</time></trkpt><trkpt lat="45.72285161160829" lon="8.746422477464254"><ele>270.0</ele><time>2026-04-12T08:40:32.939Z</time></trkpt><trkpt lat="45.72275305297478" lon="8.746392442680769"><ele>270.0</ele><time>2026-04-12T08:40:34.939Z</time></trkpt><trkpt lat="45.72265343704599" lon="8.74635729752448"><ele>270.0</ele><time>2026-04-12T08:40:36.939Z</time></trkpt><trkpt lat="45.72255217751107" lon="8.74633418112011"><ele>270.0</ele><time>2026-04-12T08:40:38.939Z</time></trkpt><trkpt lat="45.72243836161098" lon="8.746303534194942"><ele>270.4</ele><time>2026-04-12T08:40:40.939Z</time></trkpt><trkpt lat="45.72236840191636" lon="8.746293650177597"><ele>270.8</ele><time>2026-04-12T08:40:42.939Z</time></trkpt><trkpt lat="45.72227255162487" lon="8.746246867685077"><ele>271.2</ele><time>2026-04-12T08:40:44.938Z</time></trkpt><trkpt lat="45.722167048587536" lon="8.746214926534849"><ele>271.6</ele><time>2026-04-12T08:40:46.938Z</time></trkpt><trkpt lat="45.72206295237829" lon="8.746167596129263"><ele>272.0</ele><time>2026-04-12T08:40:48.938Z</time></trkpt><trkpt lat="45.7219646454738" lon="8.746128998366958"><ele>271.8</ele><time>2026-04-12T08:40:50.938Z</time></trkpt><trkpt lat="45.721865409172295" lon="8.746093043204782"><ele>271.6</ele><time>2026-04-12T08:40:52.938Z</time></trkpt><trkpt lat="45.72177189810184" lon="8.746051336214771"><ele>271.40000000000003</ele><time>2026-04-12T08:40:54.938Z</time></trkpt><trkpt lat="45.72167389394198" lon="8.746004063083564"><ele>271.2</ele><time>2026-04-12T08:40:56.938Z</time></trkpt><trkpt lat="45.72157333022867" lon="8.745954017046893"><ele>271.0</ele><time>2026-04-12T08:40:58.938Z</time></trkpt><trkpt lat="45.721474626788684" lon="8.7459136253855"><ele>271.0</ele><time>2026-04-12T08:41:00.938Z</time></trkpt><trkpt lat="45.721372297013126" lon="8.7458619956123"><ele>271.0</ele><time>2026-04-12T08:41:02.938Z</time></trkpt><trkpt lat="45.721272071452226" lon="8.745838245590264"><ele>271.0</ele><time>2026-04-12T08:41:04.939Z</time></trkpt><trkpt lat="45.721174061966565" lon="8.745802479041462"><ele>271.0</ele><time>2026-04-12T08:41:06.939Z</time></trkpt><trkpt lat="45.721064496886534" lon="8.745758398208233"><ele>271.0</ele><time>2026-04-12T08:41:08.938Z</time></trkpt><trkpt lat="45.7209651055089" lon="8.74570024570331"><ele>270.8</ele><time>2026-04-12T08:41:10.938Z</time></trkpt><trkpt lat="45.72087683489514" lon="8.745638286956035"><ele>270.6</ele><time>2026-04-12T08:41:12.939Z</time></trkpt><trkpt lat="45.720783743150974" lon="8.745573057045982"><ele>270.4</ele><time>2026-04-12T08:41:14.938Z</time></trkpt><trkpt lat="45.720689489936895" lon="8.745509218799617"><ele>270.2</ele><time>2026-04-12T08:41:16.939Z</time></trkpt><trkpt lat="45.72059428362936" lon="8.745433068832671"><ele>270.0</ele><time>2026-04-12T08:41:18.939Z</time></trkpt><trkpt lat="45.720494636051384" lon="8.745373052638326"><ele>270.0</ele><time>2026-04-12T08:41:20.939Z</time></trkpt><trkpt lat="45.720395557974896" lon="8.745295021308308"><ele>270.0</ele><time>2026-04-12T08:41:22.939Z</time></trkpt><trkpt lat="45.72029843969224" lon="8.745216235144076"><ele>270.0</ele><time>2026-04-12T08:41:24.938Z</time></trkpt><trkpt lat="45.72019465476113" lon="8.745160180889005"><ele>270.0</ele><time>2026-04-12T08:41:26.938Z</time></trkpt><trkpt lat="45.7200976333901" lon="8.745087820877007"><ele>270.0</ele><time>2026-04-12T08:41:28.938Z</time></trkpt><trkpt lat="45.71999421591522" lon="8.745014224077272"><ele>270.0</ele><time>2026-04-12T08:41:30.938Z</time></trkpt><trkpt lat="45.719891785373626" lon="8.744958472855924"><ele>270.0</ele><time>2026-04-12T08:41:32.938Z</time></trkpt><trkpt lat="45.719797261542595" lon="8.744911727616875"><ele>270.0</ele><time>2026-04-12T08:41:34.938Z</time></trkpt><trkpt lat="45.71969872823514" lon="8.744863615416698"><ele>270.0</ele><time>2026-04-12T08:41:36.938Z</time></trkpt><trkpt lat="45.71959692696032" lon="8.744818752843686"><ele>270.0</ele><time>2026-04-12T08:41:38.938Z</time></trkpt><trkpt lat="45.71949265577288" lon="8.744754444702641"><ele>269.8</ele><time>2026-04-12T08:41:40.938Z</time></trkpt><trkpt lat="45.71937646444728" lon="8.744684328293532"><ele>269.6</ele><time>2026-04-12T08:41:42.938Z</time></trkpt><trkpt lat="45.719272051028604" lon="8.744597732837942"><ele>269.4</ele><time>2026-04-12T08:41:44.938Z</time></trkpt><trkpt lat="45.71921160357737" lon="8.744567068591255"><ele>269.2</ele><time>2026-04-12T08:41:45.938Z</time></trkpt><trkpt lat="45.719113734412716" lon="8.744491812088766"><ele>269.0</ele><time>2026-04-12T08:41:47.938Z</time></trkpt><trkpt lat="45.71906151234818" lon="8.744440597444013"><ele>269.2</ele><time>2026-04-12T08:41:48.938Z</time></trkpt><trkpt lat="45.718986892248296" lon="8.744316356021603"><ele>269.4</ele><time>2026-04-12T08:41:50.938Z</time></trkpt><trkpt lat="45.71890475483875" lon="8.744213792810305"><ele>269.6</ele><time>2026-04-12T08:41:52.938Z</time></trkpt><trkpt lat="45.718826100113645" lon="8.744155933161538"><ele>269.8</ele><time>2026-04-12T08:41:54.938Z</time></trkpt><trkpt lat="45.71872448007888" lon="8.744107186610126"><ele>270.0</ele><time>2026-04-12T08:41:56.938Z</time></trkpt><trkpt lat="45.71863640509849" lon="8.744064040644083"><ele>270.8333333333333</ele><time>2026-04-12T08:41:58.938Z</time></trkpt><trkpt lat="45.718550331246995" lon="8.744033894470178"><ele>271.6666666666667</ele><time>2026-04-12T08:42:00.938Z</time></trkpt><trkpt lat="45.7184640767258" lon="8.743989134373594"><ele>272.5</ele><time>2026-04-12T08:42:02.938Z</time></trkpt><trkpt lat="45.71839984535104" lon="8.743933901842261"><ele>273.33333333333337</ele><time>2026-04-12T08:42:04.937Z</time></trkpt><trkpt lat="45.71834568530212" lon="8.743850157134467"><ele>274.1666666666667</ele><time>2026-04-12T08:42:06.937Z</time></trkpt><trkpt lat="45.71828145643375" lon="8.743775774887743"><ele>275.0</ele><time>2026-04-12T08:42:08.937Z</time></trkpt><trkpt lat="45.718208514793915" lon="8.743685445499676"><ele>275.0</ele><time>2026-04-12T08:42:10.937Z</time></trkpt><trkpt lat="45.71811970958054" lon="8.743579371436372"><ele>275.0</ele><time>2026-04-12T08:42:12.937Z</time></trkpt><trkpt lat="45.717988013025376" lon="8.743446726010918"><ele>275.0</ele><time>2026-04-12T08:42:14.937Z</time></trkpt><trkpt lat="45.71790169755442" lon="8.743361869750474"><ele>275.0</ele><time>2026-04-12T08:42:16.937Z</time></trkpt><trkpt lat="45.71782759708385" lon="8.743315539965396"><ele>274.6666666666667</ele><time>2026-04-12T08:42:18.937Z</time></trkpt><trkpt lat="45.71775157353817" lon="8.743249280459441"><ele>274.33333333333337</ele><time>2026-04-12T08:42:20.937Z</time></trkpt><trkpt lat="45.71765383100222" lon="8.743221497045486"><ele>274.0</ele><time>2026-04-12T08:42:22.937Z</time></trkpt><trkpt lat="45.71760003741379" lon="8.74317295842997"><ele>273.6666666666667</ele><time>2026-04-12T08:42:24.937Z</time></trkpt><trkpt lat="45.71752371610792" lon="8.743116538304859"><ele>273.3333333333333</ele><time>2026-04-12T08:42:26.937Z</time></trkpt><trkpt lat="45.71744518901046" lon="8.743071734845575"><ele>273.0</ele><time>2026-04-12T08:42:28.937Z</time></trkpt><trkpt lat="45.71735265010583" lon="8.743018606454656"><ele>272.8</ele><time>2026-04-12T08:42:30.937Z</time></trkpt><trkpt lat="45.717249977017964" lon="8.742946663585053"><ele>272.6</ele><time>2026-04-12T08:42:32.937Z</time></trkpt><trkpt lat="45.717185629322145" lon="8.742930287115376"><ele>272.4</ele><time>2026-04-12T08:42:33.937Z</time></trkpt><trkpt lat="45.717105911584916" lon="8.74288315821855"><ele>272.2</ele><time>2026-04-12T08:42:34.937Z</time></trkpt><trkpt lat="45.71698820865364" lon="8.742799958303534"><ele>272.0</ele><time>2026-04-12T08:42:36.937Z</time></trkpt><trkpt lat="45.7168560932784" lon="8.74268802721213"><ele>271.4</ele><time>2026-04-12T08:42:38.937Z</time></trkpt><trkpt lat="45.71676285361901" lon="8.742620986789413"><ele>270.79999999999995</ele><time>2026-04-12T08:42:39.937Z</time></trkpt><trkpt lat="45.716676748692876" lon="8.74257548835874"><ele>270.2</ele><time>2026-04-12T08:42:40.937Z</time></trkpt><trkpt lat="45.71658249666382" lon="8.742535965746717"><ele>269.59999999999997</ele><time>2026-04-12T08:42:41.937Z</time></trkpt><trkpt lat="45.71649219718037" lon="8.742495128221439"><ele>269.0</ele><time>2026-04-12T08:42:42.937Z</time></trkpt><trkpt lat="45.716403345206764" lon="8.74246210264421"><ele>269.0</ele><time>2026-04-12T08:42:43.937Z</time></trkpt><trkpt lat="45.71630974993558" lon="8.742420669818255"><ele>269.0</ele><time>2026-04-12T08:42:44.936Z</time></trkpt><trkpt lat="45.71621000211819" lon="8.742382664047009"><ele>269.0</ele><time>2026-04-12T08:42:45.936Z</time></trkpt><trkpt lat="45.716131639450474" lon="8.74235975681071"><ele>269.0</ele><time>2026-04-12T08:42:46.936Z</time></trkpt><trkpt lat="45.71605571468601" lon="8.742344247999478"><ele>269.0</ele><time>2026-04-12T08:42:47.936Z</time></trkpt><trkpt lat="45.715969024921975" lon="8.742319497304715"><ele>269.0</ele><time>2026-04-12T08:42:48.936Z</time></trkpt><trkpt lat="45.715893532451" lon="8.742299284797904"><ele>268.14285714285717</ele><time>2026-04-12T08:42:49.936Z</time></trkpt><trkpt lat="45.71581905385884" lon="8.742280224527965"><ele>267.28571428571433</ele><time>2026-04-12T08:42:50.936Z</time></trkpt><trkpt lat="45.71574517409038" lon="8.742255170020233"><ele>266.42857142857144</ele><time>2026-04-12T08:42:51.936Z</time></trkpt><trkpt lat="45.715671308587936" lon="8.742231790469614"><ele>265.57142857142856</ele><time>2026-04-12T08:42:52.936Z</time></trkpt><trkpt lat="45.7155949566425" lon="8.742218908656406"><ele>264.71428571428567</ele><time>2026-04-12T08:42:53.936Z</time></trkpt><trkpt lat="45.71553128615322" lon="8.742196763973753"><ele>263.85714285714283</ele><time>2026-04-12T08:42:54.936Z</time></trkpt><trkpt lat="45.71545448764656" lon="8.742180539309512"><ele>263.0</ele><time>2026-04-12T08:42:55.936Z</time></trkpt><trkpt lat="45.7153893631213" lon="8.74216456152246"><ele>263.0</ele><time>2026-04-12T08:42:56.936Z</time></trkpt><trkpt lat="45.71531847754301" lon="8.74214476292059"><ele>263.0</ele><time>2026-04-12T08:42:57.936Z</time></trkpt><trkpt lat="45.715247694058455" lon="8.742125142813164"><ele>263.0</ele><time>2026-04-12T08:42:58.936Z</time></trkpt><trkpt lat="45.71518318131647" lon="8.742109173513262"><ele>263.0</ele><time>2026-04-12T08:42:59.936Z</time></trkpt><trkpt lat="45.71505708742104" lon="8.742080044912639"><ele>263.0</ele><time>2026-04-12T08:43:01.936Z</time></trkpt><trkpt lat="45.714996174642586" lon="8.742056177261258"><ele>263.0</ele><time>2026-04-12T08:43:02.936Z</time></trkpt><trkpt lat="45.71493206086349" lon="8.742038185046937"><ele>263.0</ele><time>2026-04-12T08:43:03.936Z</time></trkpt><trkpt lat="45.714864551701666" lon="8.742024324674489"><ele>263.0</ele><time>2026-04-12T08:43:04.936Z</time></trkpt><trkpt lat="45.71479547154724" lon="8.742006356483278"><ele>263.0</ele><time>2026-04-12T08:43:05.936Z</time></trkpt><trkpt lat="45.71472615903139" lon="8.741990162899524"><ele>263.0</ele><time>2026-04-12T08:43:06.936Z</time></trkpt><trkpt lat="45.71462650164772" lon="8.741963861276968"><ele>263.0</ele><time>2026-04-12T08:43:08.936Z</time></trkpt><trkpt lat="45.71452593681695" lon="8.74193963192631"><ele>263.0</ele><time>2026-04-12T08:43:10.936Z</time></trkpt><trkpt lat="45.71446132168489" lon="8.741923293541735"><ele>262.85714285714283</ele><time>2026-04-12T08:43:11.936Z</time></trkpt><trkpt lat="45.714391044528" lon="8.741907272809293"><ele>262.71428571428567</ele><time>2026-04-12T08:43:12.936Z</time></trkpt><trkpt lat="45.71432181116368" lon="8.741890736229289"><ele>262.57142857142856</ele><time>2026-04-12T08:43:13.936Z</time></trkpt><trkpt lat="45.71425850614149" lon="8.741877157832205"><ele>262.42857142857144</ele><time>2026-04-12T08:43:14.936Z</time></trkpt><trkpt lat="45.7141950380868" lon="8.741864794150848"><ele>262.28571428571433</ele><time>2026-04-12T08:43:15.936Z</time></trkpt><trkpt lat="45.71413047427668" lon="8.741846438722026"><ele>262.14285714285717</ele><time>2026-04-12T08:43:16.936Z</time></trkpt><trkpt lat="45.71406537243954" lon="8.741834925965517"><ele>262.0</ele><time>2026-04-12T08:43:17.936Z</time></trkpt><trkpt lat="45.714000751150294" lon="8.7418192381631"><ele>262.0</ele><time>2026-04-12T08:43:18.936Z</time></trkpt><trkpt lat="45.713866191074956" lon="8.741789854869628"><ele>262.0</ele><time>2026-04-12T08:43:20.935Z</time></trkpt><trkpt lat="45.71380295733574" lon="8.74177379739883"><ele>262.0</ele><time>2026-04-12T08:43:21.934Z</time></trkpt><trkpt lat="45.71374053512355" lon="8.741760777277735"><ele>262.0</ele><time>2026-04-12T08:43:22.934Z</time></trkpt><trkpt lat="45.71367051662764" lon="8.741742403871859"><ele>262.0</ele><time>2026-04-12T08:43:23.934Z</time></trkpt><trkpt lat="45.71360150070433" lon="8.741722936770028"><ele>262.0</ele><time>2026-04-12T08:43:24.934Z</time></trkpt><trkpt lat="45.71350272608005" lon="8.741704027481095"><ele>262.4</ele><time>2026-04-12T08:43:26.933Z</time></trkpt><trkpt lat="45.713433689671376" lon="8.741695743791267"><ele>262.79999999999995</ele><time>2026-04-12T08:43:27.933Z</time></trkpt><trkpt lat="45.713303797722034" lon="8.74166341035213"><ele>263.2</ele><time>2026-04-12T08:43:29.932Z</time></trkpt><trkpt lat="45.713184042230225" lon="8.741638665712282"><ele>263.59999999999997</ele><time>2026-04-12T08:43:31.932Z</time></trkpt><trkpt lat="45.713072406509035" lon="8.74160283674582"><ele>264.0</ele><time>2026-04-12T08:43:33.931Z</time></trkpt><trkpt lat="45.71297157985764" lon="8.741580180324167"><ele>264.0</ele><time>2026-04-12T08:43:35.931Z</time></trkpt><trkpt lat="45.71287854694653" lon="8.741525760455314"><ele>264.0</ele><time>2026-04-12T08:43:37.93Z</time></trkpt><trkpt lat="45.712803290857075" lon="8.74148940996099"><ele>264.0</ele><time>2026-04-12T08:43:39.93Z</time></trkpt><trkpt lat="45.71272051582649" lon="8.74143025156889"><ele>264.0</ele><time>2026-04-12T08:43:41.93Z</time></trkpt><trkpt lat="45.712627919534384" lon="8.741331717595067"><ele>264.0</ele><time>2026-04-12T08:43:43.93Z</time></trkpt><trkpt lat="45.71257766214765" lon="8.74127656306361"><ele>264.0</ele><time>2026-04-12T08:43:44.929Z</time></trkpt><trkpt lat="45.712470370628395" lon="8.741176279769387"><ele>264.0</ele><time>2026-04-12T08:43:46.929Z</time></trkpt><trkpt lat="45.71236356349905" lon="8.741096338790696"><ele>264.0</ele><time>2026-04-12T08:43:48.929Z</time></trkpt><trkpt lat="45.7122620640942" lon="8.741029613502588"><ele>264.0</ele><time>2026-04-12T08:43:50.929Z</time></trkpt><trkpt lat="45.712133295722175" lon="8.74098859584098"><ele>264.0</ele><time>2026-04-12T08:43:52.929Z</time></trkpt><trkpt lat="45.71203455941046" lon="8.740993842800638"><ele>264.0</ele><time>2026-04-12T08:43:54.929Z</time></trkpt><trkpt lat="45.71196552342642" lon="8.740988159861981"><ele>264.0</ele><time>2026-04-12T08:43:55.928Z</time></trkpt><trkpt lat="45.711854362292804" lon="8.740993851519889"><ele>264.0</ele><time>2026-04-12T08:43:57.928Z</time></trkpt><trkpt lat="45.71176074595221" lon="8.741016362770088"><ele>264.0</ele><time>2026-04-12T08:43:59.928Z</time></trkpt><trkpt lat="45.711672944731895" lon="8.7410218098303"><ele>263.8</ele><time>2026-04-12T08:44:01.928Z</time></trkpt><trkpt lat="45.71157007023491" lon="8.741044553981299"><ele>263.59999999999997</ele><time>2026-04-12T08:44:03.928Z</time></trkpt><trkpt lat="45.71147207147239" lon="8.741070872297659"><ele>263.4</ele><time>2026-04-12T08:44:05.928Z</time></trkpt><trkpt lat="45.711406089056545" lon="8.74108480392369"><ele>263.2</ele><time>2026-04-12T08:44:06.928Z</time></trkpt><trkpt lat="45.71131102995504" lon="8.741125851988834"><ele>263.0</ele><time>2026-04-12T08:44:08.928Z</time></trkpt><trkpt lat="45.711252495016645" lon="8.741213965145219"><ele>263.0</ele><time>2026-04-12T08:44:10.928Z</time></trkpt><trkpt lat="45.71119488225236" lon="8.741331471756432"><ele>263.0</ele><time>2026-04-12T08:44:12.928Z</time></trkpt><trkpt lat="45.711195602779554" lon="8.741475870941704"><ele>263.0</ele><time>2026-04-12T08:44:14.928Z</time></trkpt><trkpt lat="45.71120784309697" lon="8.741601647896696"><ele>263.0</ele><time>2026-04-12T08:44:17.927Z</time></trkpt><trkpt lat="45.71122783091571" lon="8.74173115365368"><ele>263.0</ele><time>2026-04-12T08:44:19.927Z</time></trkpt><trkpt lat="45.71123628636983" lon="8.741853374756838"><ele>263.33333333333337</ele><time>2026-04-12T08:44:21.927Z</time></trkpt><trkpt lat="45.711238023924594" lon="8.74198092598249"><ele>263.6666666666667</ele><time>2026-04-12T08:44:23.927Z</time></trkpt><trkpt lat="45.71123633262406" lon="8.742133766719876"><ele>264.0</ele><time>2026-04-12T08:44:26.927Z</time></trkpt><trkpt lat="45.711262071245315" lon="8.742248919983698"><ele>264.3333333333333</ele><time>2026-04-12T08:44:29.927Z</time></trkpt><trkpt lat="45.71124709378022" lon="8.74235774777596"><ele>264.66666666666663</ele><time>2026-04-12T08:44:34.927Z</time></trkpt><trkpt lat="45.71118979676416" lon="8.742406527637346"><ele>265.0</ele><time>2026-04-12T08:44:36.927Z</time></trkpt><trkpt lat="45.71111878594655" lon="8.7424581276116"><ele>265.0</ele><time>2026-04-12T08:44:39.927Z</time></trkpt><trkpt lat="45.71106066758409" lon="8.742543219607631"><ele>265.0</ele><time>2026-04-12T08:44:42.927Z</time></trkpt><trkpt lat="45.710991811778605" lon="8.742575310456157"><ele>265.0</ele><time>2026-04-12T08:44:44.927Z</time></trkpt><trkpt lat="45.71091345165242" lon="8.742629527262299"><ele>265.0</ele><time>2026-04-12T08:44:46.926Z</time></trkpt><trkpt lat="45.710820721335416" lon="8.742649326289497"><ele>265.0</ele><time>2026-04-12T08:44:48.926Z</time></trkpt><trkpt lat="45.71071596217314" lon="8.742665630500667"><ele>265.0</ele><time>2026-04-12T08:44:50.926Z</time></trkpt><trkpt lat="45.71059667633019" lon="8.742681065565735"><ele>265.0</ele><time>2026-04-12T08:44:52.926Z</time></trkpt><trkpt lat="45.71050131865061" lon="8.742732088917665"><ele>265.0</ele><time>2026-04-12T08:44:54.926Z</time></trkpt><trkpt lat="45.71043213050103" lon="8.742764476225645"><ele>265.0</ele><time>2026-04-12T08:44:56.926Z</time></trkpt><trkpt lat="45.710346380947726" lon="8.742764332577945"><ele>265.0</ele><time>2026-04-12T08:44:58.926Z</time></trkpt><trkpt lat="45.710290381493365" lon="8.74271403376867"><ele>265.0</ele><time>2026-04-12T08:45:00.926Z</time></trkpt><trkpt lat="45.71021043846623" lon="8.742618613743355"><ele>265.0</ele><time>2026-04-12T08:45:03.926Z</time></trkpt><trkpt lat="45.71014378855174" lon="8.74252653517033"><ele>265.4</ele><time>2026-04-12T08:45:05.926Z</time></trkpt><trkpt lat="45.71011251429163" lon="8.7424357736515"><ele>265.8</ele><time>2026-04-12T08:45:07.926Z</time></trkpt><trkpt lat="45.71004867046545" lon="8.742342958617872"><ele>266.2</ele><time>2026-04-12T08:45:09.926Z</time></trkpt><trkpt lat="45.71002558700766" lon="8.74220867861657"><ele>266.6</ele><time>2026-04-12T08:45:11.926Z</time></trkpt><trkpt lat="45.709983785862505" lon="8.742059270792332"><ele>267.0</ele><time>2026-04-12T08:45:14.926Z</time></trkpt><trkpt lat="45.7099527723561" lon="8.741920895732294"><ele>266.3333333333333</ele><time>2026-04-12T08:45:16.927Z</time></trkpt><trkpt lat="45.709921989703744" lon="8.741789885659909"><ele>265.6666666666667</ele><time>2026-04-12T08:45:18.927Z</time></trkpt><trkpt lat="45.70991593935274" lon="8.741626146741666"><ele>265.0</ele><time>2026-04-12T08:45:20.926Z</time></trkpt><trkpt lat="45.70992007686189" lon="8.741526785891356"><ele>264.33333333333337</ele><time>2026-04-12T08:45:21.927Z</time></trkpt><trkpt lat="45.709917553673186" lon="8.741422719616615"><ele>263.6666666666667</ele><time>2026-04-12T08:45:22.926Z</time></trkpt><trkpt lat="45.7099011893401" lon="8.741289510372118"><ele>263.0</ele><time>2026-04-12T08:45:24.927Z</time></trkpt><trkpt lat="45.70989468199837" lon="8.741120670672439"><ele>262.5</ele><time>2026-04-12T08:45:26.927Z</time></trkpt><trkpt lat="45.70989359855472" lon="8.740914765897228"><ele>262.0</ele><time>2026-04-12T08:45:28.927Z</time></trkpt><trkpt lat="45.70989965507548" lon="8.740793370535984"><ele>261.5</ele><time>2026-04-12T08:45:29.926Z</time></trkpt><trkpt lat="45.709883158489625" lon="8.740625678050321"><ele>261.0</ele><time>2026-04-12T08:45:31.926Z</time></trkpt><trkpt lat="45.70987210448043" lon="8.740449474993317"><ele>261.0</ele><time>2026-04-12T08:45:33.926Z</time></trkpt><trkpt lat="45.709865022530856" lon="8.740342347959912"><ele>261.0</ele><time>2026-04-12T08:45:34.926Z</time></trkpt><trkpt lat="45.70985821544491" lon="8.7402360223132"><ele>261.0</ele><time>2026-04-12T08:45:35.926Z</time></trkpt><trkpt lat="45.70985854962412" lon="8.740118752083788"><ele>261.0</ele><time>2026-04-12T08:45:36.926Z</time></trkpt><trkpt lat="45.709857153316335" lon="8.740018891394664"><ele>261.0</ele><time>2026-04-12T08:45:37.926Z</time></trkpt><trkpt lat="45.70985187660709" lon="8.739917990661757"><ele>261.0</ele><time>2026-04-12T08:45:38.926Z</time></trkpt><trkpt lat="45.709836768529776" lon="8.739753433196281"><ele>261.2</ele><time>2026-04-12T08:45:40.926Z</time></trkpt><trkpt lat="45.70983547683311" lon="8.739655585587597"><ele>261.40000000000003</ele><time>2026-04-12T08:45:41.926Z</time></trkpt><trkpt lat="45.709830623869614" lon="8.739476918450402"><ele>261.6</ele><time>2026-04-12T08:45:43.926Z</time></trkpt><trkpt lat="45.70981645074293" lon="8.739288776273405"><ele>261.8</ele><time>2026-04-12T08:45:45.926Z</time></trkpt><trkpt lat="45.70981476184472" lon="8.739184095205701"><ele>262.0</ele><time>2026-04-12T08:45:46.926Z</time></trkpt><trkpt lat="45.7098122127941" lon="8.73908419169776"><ele>262.16666666666663</ele><time>2026-04-12T08:45:47.926Z</time></trkpt><trkpt lat="45.70981072200577" lon="8.73896077011157"><ele>262.3333333333333</ele><time>2026-04-12T08:45:48.926Z</time></trkpt><trkpt lat="45.70980030887355" lon="8.738846586086899"><ele>262.5</ele><time>2026-04-12T08:45:49.926Z</time></trkpt><trkpt lat="45.70979133407262" lon="8.738755574783745"><ele>262.6666666666667</ele><time>2026-04-12T08:45:50.926Z</time></trkpt><trkpt lat="45.709765165563205" lon="8.738596726840829"><ele>262.83333333333337</ele><time>2026-04-12T08:45:52.926Z</time></trkpt><trkpt lat="45.709756262001086" lon="8.738488968696164"><ele>263.0</ele><time>2026-04-12T08:45:53.926Z</time></trkpt><trkpt lat="45.70975263737381" lon="8.7383839264219"><ele>263.0</ele><time>2026-04-12T08:45:54.926Z</time></trkpt><trkpt lat="45.709748046948555" lon="8.738271135238827"><ele>263.0</ele><time>2026-04-12T08:45:55.926Z</time></trkpt><trkpt lat="45.70973862101291" lon="8.73817028238954"><ele>263.0</ele><time>2026-04-12T08:45:56.926Z</time></trkpt><trkpt lat="45.70972360110013" lon="8.738070203288718"><ele>263.0</ele><time>2026-04-12T08:45:57.926Z</time></trkpt><trkpt lat="45.70971346879774" lon="8.737972817885382"><ele>263.0</ele><time>2026-04-12T08:45:58.926Z</time></trkpt><trkpt lat="45.70970401456527" lon="8.737880387426504"><ele>263.0</ele><time>2026-04-12T08:45:59.926Z</time></trkpt><trkpt lat="45.70969569655089" lon="8.737781501859756"><ele>263.0</ele><time>2026-04-12T08:46:00.926Z</time></trkpt><trkpt lat="45.70968644791751" lon="8.73767704082425"><ele>262.6666666666667</ele><time>2026-04-12T08:46:01.926Z</time></trkpt><trkpt lat="45.70967966046607" lon="8.737561780635366"><ele>262.33333333333337</ele><time>2026-04-12T08:46:02.926Z</time></trkpt><trkpt lat="45.70967331523939" lon="8.737449639383023"><ele>262.0</ele><time>2026-04-12T08:46:03.926Z</time></trkpt><trkpt lat="45.709669441154816" lon="8.737344260702889"><ele>261.6666666666667</ele><time>2026-04-12T08:46:04.926Z</time></trkpt><trkpt lat="45.709656293519124" lon="8.737239789461738"><ele>261.3333333333333</ele><time>2026-04-12T08:46:05.926Z</time></trkpt><trkpt lat="45.709643150507986" lon="8.737127681612652"><ele>261.0</ele><time>2026-04-12T08:46:06.925Z</time></trkpt><trkpt lat="45.70963158379035" lon="8.737013092168539"><ele>261.0</ele><time>2026-04-12T08:46:07.925Z</time></trkpt><trkpt lat="45.70962724356383" lon="8.736903326518254"><ele>261.0</ele><time>2026-04-12T08:46:08.925Z</time></trkpt><trkpt lat="45.709614085018416" lon="8.736780644120383"><ele>261.0</ele><time>2026-04-12T08:46:09.925Z</time></trkpt><trkpt lat="45.70961549864459" lon="8.736629377914811"><ele>261.0</ele><time>2026-04-12T08:46:10.925Z</time></trkpt><trkpt lat="45.7096140353186" lon="8.736486733381382"><ele>261.0</ele><time>2026-04-12T08:46:11.925Z</time></trkpt><trkpt lat="45.709615026317245" lon="8.736343616997244"><ele>260.8333333333333</ele><time>2026-04-12T08:46:12.925Z</time></trkpt><trkpt lat="45.709622784945104" lon="8.736222402178932"><ele>260.6666666666667</ele><time>2026-04-12T08:46:13.925Z</time></trkpt><trkpt lat="45.70964077943777" lon="8.736101214408288"><ele>260.5</ele><time>2026-04-12T08:46:14.925Z</time></trkpt><trkpt lat="45.70965806155794" lon="8.73599247861982"><ele>260.33333333333337</ele><time>2026-04-12T08:46:15.925Z</time></trkpt><trkpt lat="45.70967731266935" lon="8.735900311663409"><ele>260.1666666666667</ele><time>2026-04-12T08:46:16.925Z</time></trkpt><trkpt lat="45.70969823874874" lon="8.7358123971449"><ele>260.0</ele><time>2026-04-12T08:46:17.925Z</time></trkpt><trkpt lat="45.709716939689" lon="8.73571150671767"><ele>260.0</ele><time>2026-04-12T08:46:18.925Z</time></trkpt><trkpt lat="45.70973799088264" lon="8.735611321137439"><ele>260.0</ele><time>2026-04-12T08:46:19.925Z</time></trkpt><trkpt lat="45.70975689850159" lon="8.73551752932014"><ele>260.0</ele><time>2026-04-12T08:46:20.925Z</time></trkpt><trkpt lat="45.70978516727794" lon="8.735372206331114"><ele>260.0</ele><time>2026-04-12T08:46:22.925Z</time></trkpt><trkpt lat="45.709812682545866" lon="8.735208282368387"><ele>260.0</ele><time>2026-04-12T08:46:24.925Z</time></trkpt><trkpt lat="45.70984946486994" lon="8.735095128617013"><ele>260.5</ele><time>2026-04-12T08:46:26.925Z</time></trkpt><trkpt lat="45.7098737989058" lon="8.734987385342416"><ele>261.0</ele><time>2026-04-12T08:46:28.925Z</time></trkpt><trkpt lat="45.709888732491024" lon="8.734849153537787"><ele>261.5</ele><time>2026-04-12T08:46:31.925Z</time></trkpt><trkpt lat="45.70992004261199" lon="8.734711907256868"><ele>262.0</ele><time>2026-04-12T08:46:33.925Z</time></trkpt><trkpt lat="45.70992405757416" lon="8.734611840684416"><ele>262.5</ele><time>2026-04-12T08:46:35.925Z</time></trkpt><trkpt lat="45.70992921649823" lon="8.73448104832126"><ele>263.0</ele><time>2026-04-12T08:46:38.925Z</time></trkpt><trkpt lat="45.709943147643976" lon="8.734372030093724"><ele>264.0</ele><time>2026-04-12T08:46:40.925Z</time></trkpt><trkpt lat="45.709951384474095" lon="8.734218413768524"><ele>265.0</ele><time>2026-04-12T08:46:42.925Z</time></trkpt><trkpt lat="45.70995614081863" lon="8.734060479176726"><ele>266.0</ele><time>2026-04-12T08:46:44.924Z</time></trkpt><trkpt lat="45.709949192783164" lon="8.733929471178925"><ele>267.0</ele><time>2026-04-12T08:46:46.924Z</time></trkpt><trkpt lat="45.71000425588528" lon="8.733794719775291"><ele>268.0</ele><time>2026-04-12T08:46:49.924Z</time></trkpt><trkpt lat="45.71003721152956" lon="8.73370583356671"><ele>268.0</ele><time>2026-04-12T08:46:51.924Z</time></trkpt><trkpt lat="45.710090896749136" lon="8.733571897123367"><ele>268.0</ele><time>2026-04-12T08:46:53.924Z</time></trkpt><trkpt lat="45.71012603630057" lon="8.73346993652731"><ele>268.0</ele><time>2026-04-12T08:46:55.924Z</time></trkpt><trkpt lat="45.71015609828839" lon="8.733331920575814"><ele>268.0</ele><time>2026-04-12T08:46:57.924Z</time></trkpt><trkpt lat="45.71018626402461" lon="8.733247271862663"><ele>268.0</ele><time>2026-04-12T08:46:58.924Z</time></trkpt><trkpt lat="45.71021241888948" lon="8.73313199576513"><ele>268.0</ele><time>2026-04-12T08:47:00.924Z</time></trkpt><trkpt lat="45.710229879770516" lon="8.73302144310206"><ele>267.66666666666663</ele><time>2026-04-12T08:47:02.924Z</time></trkpt><trkpt lat="45.710260187018974" lon="8.732866932276165"><ele>267.3333333333333</ele><time>2026-04-12T08:47:04.924Z</time></trkpt><trkpt lat="45.710285966554615" lon="8.732777647399814"><ele>267.0</ele><time>2026-04-12T08:47:06.924Z</time></trkpt><trkpt lat="45.71031866347716" lon="8.732696178325066"><ele>266.6666666666667</ele><time>2026-04-12T08:47:09.924Z</time></trkpt><trkpt lat="45.710341376855844" lon="8.732603313754842"><ele>266.33333333333337</ele><time>2026-04-12T08:47:14.924Z</time></trkpt><trkpt lat="45.7103835454195" lon="8.73251943619018"><ele>266.0</ele><time>2026-04-12T08:47:16.924Z</time></trkpt><trkpt lat="45.710404727884125" lon="8.732422843239661"><ele>266.57142857142856</ele><time>2026-04-12T08:47:20.924Z</time></trkpt><trkpt lat="45.7104194184956" lon="8.732322388323349"><ele>267.1428571428571</ele><time>2026-04-12T08:47:26.925Z</time></trkpt><trkpt lat="45.71045388419136" lon="8.732217363435545"><ele>267.7142857142857</ele><time>2026-04-12T08:47:30.925Z</time></trkpt><trkpt lat="45.710419080129284" lon="8.732122294698476"><ele>268.2857142857143</ele><time>2026-04-12T08:47:34.925Z</time></trkpt><trkpt lat="45.710374489184055" lon="8.732035599178268"><ele>268.85714285714283</ele><time>2026-04-12T08:47:38.925Z</time></trkpt><trkpt lat="45.710321123342396" lon="8.731982198314595"><ele>269.42857142857144</ele><time>2026-04-12T08:47:41.925Z</time></trkpt><trkpt lat="45.7102658528561" lon="8.731934948248234"><ele>270.0</ele><time>2026-04-12T08:47:44.925Z</time></trkpt><trkpt lat="45.710191005893556" lon="8.731891440484896"><ele>272.85714285714283</ele><time>2026-04-12T08:47:48.924Z</time></trkpt><trkpt lat="45.71013584513817" lon="8.731838107396696"><ele>275.71428571428567</ele><time>2026-04-12T08:47:51.924Z</time></trkpt><trkpt lat="45.71006631464101" lon="8.731806298833574"><ele>278.57142857142856</ele><time>2026-04-12T08:47:55.924Z</time></trkpt><trkpt lat="45.70999712216177" lon="8.731742939386661"><ele>281.42857142857144</ele><time>2026-04-12T08:47:58.924Z</time></trkpt><trkpt lat="45.709937642010885" lon="8.731685081778604"><ele>284.28571428571433</ele><time>2026-04-12T08:48:01.924Z</time></trkpt><trkpt lat="45.70987014115477" lon="8.731657293141316"><ele>287.14285714285717</ele><time>2026-04-12T08:48:04.924Z</time></trkpt><trkpt lat="45.70980791618512" lon="8.731636739391336"><ele>290.0</ele><time>2026-04-12T08:48:07.924Z</time></trkpt><trkpt lat="45.70973609561782" lon="8.731618623409737"><ele>290.0</ele><time>2026-04-12T08:48:09.924Z</time></trkpt><trkpt lat="45.70966959211212" lon="8.731573531773114"><ele>290.0</ele><time>2026-04-12T08:48:12.924Z</time></trkpt><trkpt lat="45.70959159077523" lon="8.731559274559048"><ele>290.0</ele><time>2026-04-12T08:48:15.924Z</time></trkpt><trkpt lat="45.70952112589324" lon="8.731544718648454"><ele>290.0</ele><time>2026-04-12T08:48:17.924Z</time></trkpt><trkpt lat="45.70944858960526" lon="8.731486072811961"><ele>290.0</ele><time>2026-04-12T08:48:20.924Z</time></trkpt><trkpt lat="45.70935501547371" lon="8.731473543628212"><ele>290.0</ele><time>2026-04-12T08:48:24.924Z</time></trkpt><trkpt lat="45.709288212048705" lon="8.731450205167322"><ele>290.2857142857143</ele><time>2026-04-12T08:48:27.923Z</time></trkpt><trkpt lat="45.70923546115061" lon="8.731387785393256"><ele>290.5714285714286</ele><time>2026-04-12T08:48:32.923Z</time></trkpt><trkpt lat="45.70918355239756" lon="8.73132737027509"><ele>290.8571428571429</ele><time>2026-04-12T08:48:35.923Z</time></trkpt><trkpt lat="45.70912913488637" lon="8.7312600219585"><ele>291.14285714285717</ele><time>2026-04-12T08:48:38.923Z</time></trkpt><trkpt lat="45.709099549744074" lon="8.731174324903765"><ele>291.42857142857144</ele><time>2026-04-12T08:48:40.923Z</time></trkpt><trkpt lat="45.70906219926172" lon="8.73107841282555"><ele>291.7142857142857</ele><time>2026-04-12T08:48:43.923Z</time></trkpt><trkpt lat="45.70902831436334" lon="8.730994211954242"><ele>292.0</ele><time>2026-04-12T08:48:46.923Z</time></trkpt><trkpt lat="45.7089920577464" lon="8.730896438555076"><ele>292.66666666666663</ele><time>2026-04-12T08:48:48.923Z</time></trkpt><trkpt lat="45.7089483334375" lon="8.730756283973868"><ele>293.3333333333333</ele><time>2026-04-12T08:48:50.923Z</time></trkpt><trkpt lat="45.70891136697851" lon="8.730634221740804"><ele>294.0</ele><time>2026-04-12T08:48:52.923Z</time></trkpt><trkpt lat="45.708872237204346" lon="8.730534056895142"><ele>294.6666666666667</ele><time>2026-04-12T08:48:54.923Z</time></trkpt><trkpt lat="45.70884237944923" lon="8.730438577014437"><ele>295.33333333333337</ele><time>2026-04-12T08:48:56.923Z</time></trkpt><trkpt lat="45.70880937211051" lon="8.7303123186579"><ele>296.0</ele><time>2026-04-12T08:48:58.923Z</time></trkpt><trkpt lat="45.7087579837476" lon="8.730217601115719"><ele>296.2</ele><time>2026-04-12T08:49:00.923Z</time></trkpt><trkpt lat="45.70872742691882" lon="8.730084741021324"><ele>296.40000000000003</ele><time>2026-04-12T08:49:02.923Z</time></trkpt><trkpt lat="45.70870282687343" lon="8.729965644624537"><ele>296.6</ele><time>2026-04-12T08:49:04.922Z</time></trkpt><trkpt lat="45.70866663631143" lon="8.729853243852606"><ele>296.8</ele><time>2026-04-12T08:49:06.922Z</time></trkpt><trkpt lat="45.70863833028137" lon="8.729738841773264"><ele>297.0</ele><time>2026-04-12T08:49:08.922Z</time></trkpt><trkpt lat="45.70859972850392" lon="8.72961416262129"><ele>297.0</ele><time>2026-04-12T08:49:10.922Z</time></trkpt><trkpt lat="45.70858066178483" lon="8.72951138565708"><ele>297.0</ele><time>2026-04-12T08:49:13.922Z</time></trkpt><trkpt lat="45.70854896770234" lon="8.729419425000245"><ele>297.0</ele><time>2026-04-12T08:49:16.922Z</time></trkpt><trkpt lat="45.70855398434239" lon="8.729301606575865"><ele>297.0</ele><time>2026-04-12T08:49:21.922Z</time></trkpt><trkpt lat="45.70853652222469" lon="8.729172406958646"><ele>297.0</ele><time>2026-04-12T08:49:24.922Z</time></trkpt><trkpt lat="45.708531165583835" lon="8.729039205214828"><ele>297.0</ele><time>2026-04-12T08:49:26.922Z</time></trkpt><trkpt lat="45.70852088015174" lon="8.728925857216714"><ele>296.8571428571429</ele><time>2026-04-12T08:49:28.923Z</time></trkpt><trkpt lat="45.70853374947789" lon="8.728819122986167"><ele>296.7142857142857</ele><time>2026-04-12T08:49:30.923Z</time></trkpt><trkpt lat="45.708551972998684" lon="8.728719431548896"><ele>296.57142857142856</ele><time>2026-04-12T08:49:32.922Z</time></trkpt><trkpt lat="45.70855267869136" lon="8.728620181599224"><ele>296.42857142857144</ele><time>2026-04-12T08:49:34.923Z</time></trkpt><trkpt lat="45.70857564439043" lon="8.728515010628689"><ele>296.2857142857143</ele><time>2026-04-12T08:49:36.922Z</time></trkpt><trkpt lat="45.708584139451695" lon="8.728389310501575"><ele>296.14285714285717</ele><time>2026-04-12T08:49:38.923Z</time></trkpt><trkpt lat="45.70860521613834" lon="8.728298903105728"><ele>296.0</ele><time>2026-04-12T08:49:40.923Z</time></trkpt><trkpt lat="45.70860901446952" lon="8.728188296975786"><ele>296.0</ele><time>2026-04-12T08:49:42.923Z</time></trkpt><trkpt lat="45.70860604720502" lon="8.728068957334553"><ele>296.0</ele><time>2026-04-12T08:49:44.923Z</time></trkpt><trkpt lat="45.70861761816793" lon="8.727941884987478"><ele>296.0</ele><time>2026-04-12T08:49:46.922Z</time></trkpt><trkpt lat="45.70864301522358" lon="8.727817628681954"><ele>296.0</ele><time>2026-04-12T08:49:48.922Z</time></trkpt><trkpt lat="45.70865888807789" lon="8.727695268674326"><ele>296.0</ele><time>2026-04-12T08:49:50.922Z</time></trkpt><trkpt lat="45.708665165454065" lon="8.727593867096543"><ele>296.0</ele><time>2026-04-12T08:49:52.922Z</time></trkpt><trkpt lat="45.70867530578278" lon="8.72743720386"><ele>295.6666666666667</ele><time>2026-04-12T08:49:54.922Z</time></trkpt><trkpt lat="45.70869371603507" lon="8.727300676192883"><ele>295.33333333333337</ele><time>2026-04-12T08:49:56.922Z</time></trkpt><trkpt lat="45.708710572718516" lon="8.727142860479734"><ele>295.0</ele><time>2026-04-12T08:49:58.922Z</time></trkpt><trkpt lat="45.7087258824345" lon="8.727028615955293"><ele>294.6666666666667</ele><time>2026-04-12T08:50:00.922Z</time></trkpt><trkpt lat="45.70871899745658" lon="8.726935799829421"><ele>294.3333333333333</ele><time>2026-04-12T08:50:02.922Z</time></trkpt><trkpt lat="45.708724734457014" lon="8.726820430468976"><ele>294.0</ele><time>2026-04-12T08:50:04.922Z</time></trkpt><trkpt lat="45.70870195019727" lon="8.72672577415873"><ele>294.0</ele><time>2026-04-12T08:50:07.922Z</time></trkpt><trkpt lat="45.708640523051464" lon="8.726670729782784"><ele>294.0</ele><time>2026-04-12T08:50:10.922Z</time></trkpt><trkpt lat="45.70856641245688" lon="8.726618048636217"><ele>294.0</ele><time>2026-04-12T08:50:12.922Z</time></trkpt><trkpt lat="45.70851497421839" lon="8.726542716623593"><ele>294.0</ele><time>2026-04-12T08:50:15.922Z</time></trkpt><trkpt lat="45.708431970082486" lon="8.726517587432477"><ele>294.0</ele><time>2026-04-12T08:50:18.922Z</time></trkpt><trkpt lat="45.7083697153974" lon="8.726543531014746"><ele>294.0</ele><time>2026-04-12T08:50:20.922Z</time></trkpt><trkpt lat="45.70832049663224" lon="8.726619396849353"><ele>294.0</ele><time>2026-04-12T08:50:23.921Z</time></trkpt><trkpt lat="45.70829332200826" lon="8.726708625648428"><ele>294.0</ele><time>2026-04-12T08:50:25.921Z</time></trkpt><trkpt lat="45.70825851659249" lon="8.72680572354738"><ele>294.0</ele><time>2026-04-12T08:50:28.921Z</time></trkpt><trkpt lat="45.70819282260146" lon="8.726887970929335"><ele>294.0</ele><time>2026-04-12T08:50:31.921Z</time></trkpt><trkpt lat="45.70813062848525" lon="8.726984583227038"><ele>294.0</ele><time>2026-04-12T08:50:33.921Z</time></trkpt><trkpt lat="45.70805604721091" lon="8.727039817650153"><ele>294.0</ele><time>2026-04-12T08:50:35.921Z</time></trkpt><trkpt lat="45.70799023197653" lon="8.727036403988144"><ele>294.0</ele><time>2026-04-12T08:50:37.921Z</time></trkpt><trkpt lat="45.70792962971396" lon="8.727007711421782"><ele>294.0</ele><time>2026-04-12T08:50:39.921Z</time></trkpt><trkpt lat="45.70787298107746" lon="8.726946088336364"><ele>294.0</ele><time>2026-04-12T08:50:41.921Z</time></trkpt><trkpt lat="45.70781551863964" lon="8.726880055306317"><ele>294.0</ele><time>2026-04-12T08:50:43.921Z</time></trkpt><trkpt lat="45.70781704324044" lon="8.72677192855694"><ele>294.0</ele><time>2026-04-12T08:50:46.921Z</time></trkpt><trkpt lat="45.707817124323576" lon="8.72667439438772"><ele>294.0</ele><time>2026-04-12T08:50:49.921Z</time></trkpt><trkpt lat="45.707835613545676" lon="8.726587602145397"><ele>294.0</ele><time>2026-04-12T08:50:51.921Z</time></trkpt><trkpt lat="45.70785972106853" lon="8.726461261170886"><ele>294.0</ele><time>2026-04-12T08:50:54.921Z</time></trkpt><trkpt lat="45.707885386353794" lon="8.726343359947917"><ele>294.0</ele><time>2026-04-12T08:50:57.921Z</time></trkpt><trkpt lat="45.70790878679683" lon="8.726244635510957"><ele>294.0</ele><time>2026-04-12T08:50:59.921Z</time></trkpt><trkpt lat="45.7079045154019" lon="8.726113155455636"><ele>294.0</ele><time>2026-04-12T08:51:02.92Z</time></trkpt><trkpt lat="45.707897538891906" lon="8.726002249931415"><ele>294.0</ele><time>2026-04-12T08:51:04.92Z</time></trkpt><trkpt lat="45.70788678949352" lon="8.725903304654148"><ele>294.0</ele><time>2026-04-12T08:51:07.92Z</time></trkpt><trkpt lat="45.7078495512106" lon="8.72582006227824"><ele>293.85714285714283</ele><time>2026-04-12T08:51:10.92Z</time></trkpt><trkpt lat="45.70781089874039" lon="8.725736946279845"><ele>293.7142857142857</ele><time>2026-04-12T08:51:12.92Z</time></trkpt><trkpt lat="45.70777421011664" lon="8.725661112776232"><ele>293.57142857142856</ele><time>2026-04-12T08:51:14.92Z</time></trkpt><trkpt lat="45.707734988567665" lon="8.725576237818004"><ele>293.42857142857144</ele><time>2026-04-12T08:51:16.92Z</time></trkpt><trkpt lat="45.707684811567006" lon="8.725501902137838"><ele>293.2857142857143</ele><time>2026-04-12T08:51:18.92Z</time></trkpt><trkpt lat="45.70762652652526" lon="8.72542705634119"><ele>293.1428571428571</ele><time>2026-04-12T08:51:20.92Z</time></trkpt><trkpt lat="45.707561036132994" lon="8.725360636355822"><ele>293.0</ele><time>2026-04-12T08:51:22.92Z</time></trkpt><trkpt lat="45.70749427258469" lon="8.72528395220465"><ele>293.6666666666667</ele><time>2026-04-12T08:51:24.92Z</time></trkpt><trkpt lat="45.707415866979524" lon="8.725207997432095"><ele>294.33333333333337</ele><time>2026-04-12T08:51:26.92Z</time></trkpt><trkpt lat="45.70735452653575" lon="8.725153586239973"><ele>295.0</ele><time>2026-04-12T08:51:28.92Z</time></trkpt><trkpt lat="45.7072927103706" lon="8.725101715710668"><ele>295.6666666666667</ele><time>2026-04-12T08:51:30.92Z</time></trkpt><trkpt lat="45.70721648368104" lon="8.725076549727886"><ele>296.3333333333333</ele><time>2026-04-12T08:51:32.92Z</time></trkpt><trkpt lat="45.707137912817885" lon="8.725123947128775"><ele>297.0</ele><time>2026-04-12T08:51:35.92Z</time></trkpt><trkpt lat="45.70708348070878" lon="8.725175080034328"><ele>296.3333333333333</ele><time>2026-04-12T08:51:37.92Z</time></trkpt><trkpt lat="45.707036178011286" lon="8.725265853877415"><ele>295.6666666666667</ele><time>2026-04-12T08:51:39.92Z</time></trkpt><trkpt lat="45.70696765103853" lon="8.725369420948764"><ele>295.0</ele><time>2026-04-12T08:51:42.92Z</time></trkpt><trkpt lat="45.70691733384175" lon="8.725435372405872"><ele>294.33333333333337</ele><time>2026-04-12T08:51:44.92Z</time></trkpt><trkpt lat="45.70687475269262" lon="8.725507309707464"><ele>293.6666666666667</ele><time>2026-04-12T08:51:46.921Z</time></trkpt><trkpt lat="45.70680703564027" lon="8.725566861194645"><ele>293.0</ele><time>2026-04-12T08:51:48.921Z</time></trkpt><trkpt lat="45.70675584233173" lon="8.72567718680378"><ele>294.5</ele><time>2026-04-12T08:51:50.92Z</time></trkpt><trkpt lat="45.706696564057395" lon="8.725751841208595"><ele>296.0</ele><time>2026-04-12T08:51:52.92Z</time></trkpt><trkpt lat="45.706631761540024" lon="8.72581545406386"><ele>297.5</ele><time>2026-04-12T08:51:54.92Z</time></trkpt><trkpt lat="45.70657588619727" lon="8.725895147182868"><ele>299.0</ele><time>2026-04-12T08:51:56.92Z</time></trkpt><trkpt lat="45.70651603128387" lon="8.725975498409701"><ele>300.5</ele><time>2026-04-12T08:51:58.92Z</time></trkpt><trkpt lat="45.7064228394825" lon="8.726101046211873"><ele>302.0</ele><time>2026-04-12T08:52:01.92Z</time></trkpt><trkpt lat="45.706317266823426" lon="8.72622736176703"><ele>302.0</ele><time>2026-04-12T08:52:04.92Z</time></trkpt><trkpt lat="45.706262518548776" lon="8.726321941550644"><ele>302.0</ele><time>2026-04-12T08:52:06.92Z</time></trkpt><trkpt lat="45.70620469859969" lon="8.726392492570119"><ele>302.0</ele><time>2026-04-12T08:52:08.92Z</time></trkpt><trkpt lat="45.706142407088684" lon="8.726491350287942"><ele>302.0</ele><time>2026-04-12T08:52:10.92Z</time></trkpt><trkpt lat="45.706098556771764" lon="8.72656712311405"><ele>302.0</ele><time>2026-04-12T08:52:12.92Z</time></trkpt><trkpt lat="45.70604029797145" lon="8.726662355355948"><ele>302.0</ele><time>2026-04-12T08:52:14.92Z</time></trkpt><trkpt lat="45.70597058009189" lon="8.726770678662783"><ele>302.2</ele><time>2026-04-12T08:52:16.92Z</time></trkpt><trkpt lat="45.705908873037096" lon="8.726844987597655"><ele>302.4</ele><time>2026-04-12T08:52:18.92Z</time></trkpt><trkpt lat="45.70586014941048" lon="8.726913101966828"><ele>302.6</ele><time>2026-04-12T08:52:20.92Z</time></trkpt><trkpt lat="45.70580262641222" lon="8.727028446801816"><ele>302.8</ele><time>2026-04-12T08:52:22.92Z</time></trkpt><trkpt lat="45.70570701468592" lon="8.727136218589353"><ele>303.0</ele><time>2026-04-12T08:52:24.92Z</time></trkpt><trkpt lat="45.705657494611415" lon="8.727252244665866"><ele>303.0</ele><time>2026-04-12T08:52:26.919Z</time></trkpt><trkpt lat="45.70560965070511" lon="8.727388934187701"><ele>303.0</ele><time>2026-04-12T08:52:28.919Z</time></trkpt><trkpt lat="45.70551626191625" lon="8.727486241671196"><ele>303.0</ele><time>2026-04-12T08:52:30.919Z</time></trkpt><trkpt lat="45.70542933519305" lon="8.727548651946435"><ele>303.0</ele><time>2026-04-12T08:52:32.919Z</time></trkpt><trkpt lat="45.7053429906835" lon="8.727585553708462"><ele>303.0</ele><time>2026-04-12T08:52:34.919Z</time></trkpt><trkpt lat="45.70523523781108" lon="8.727582182935764"><ele>304.75</ele><time>2026-04-12T08:52:36.919Z</time></trkpt><trkpt lat="45.705107373574506" lon="8.72756835577875"><ele>306.5</ele><time>2026-04-12T08:52:38.919Z</time></trkpt><trkpt lat="45.70498445886409" lon="8.727546487452424"><ele>308.25</ele><time>2026-04-12T08:52:40.919Z</time></trkpt><trkpt lat="45.70486619592931" lon="8.727534190390523"><ele>310.0</ele><time>2026-04-12T08:52:43.919Z</time></trkpt><trkpt lat="45.7047593560184" lon="8.727508015572743"><ele>310.0</ele><time>2026-04-12T08:52:45.919Z</time></trkpt><trkpt lat="45.70464307024423" lon="8.727485316048385"><ele>310.0</ele><time>2026-04-12T08:52:47.919Z</time></trkpt><trkpt lat="45.70454519943424" lon="8.727465321028818"><ele>310.0</ele><time>2026-04-12T08:52:49.919Z</time></trkpt><trkpt lat="45.70446832573012" lon="8.727438072873865"><ele>310.0</ele><time>2026-04-12T08:52:51.919Z</time></trkpt><trkpt lat="45.70438405668767" lon="8.727441662455162"><ele>310.0</ele><time>2026-04-12T08:52:54.919Z</time></trkpt><trkpt lat="45.70430540128868" lon="8.727409804311975"><ele>310.3333333333333</ele><time>2026-04-12T08:52:57.919Z</time></trkpt><trkpt lat="45.704209207774355" lon="8.727360088566016"><ele>310.66666666666663</ele><time>2026-04-12T08:52:59.919Z</time></trkpt><trkpt lat="45.704125495484625" lon="8.727301523244932"><ele>311.0</ele><time>2026-04-12T08:53:01.919Z</time></trkpt><trkpt lat="45.704052775842705" lon="8.72728331843643"><ele>311.3333333333333</ele><time>2026-04-12T08:53:03.918Z</time></trkpt><trkpt lat="45.70398946891184" lon="8.727266367076265"><ele>311.6666666666667</ele><time>2026-04-12T08:53:04.918Z</time></trkpt><trkpt lat="45.70388497912632" lon="8.727224195563346"><ele>312.0</ele><time>2026-04-12T08:53:06.918Z</time></trkpt><trkpt lat="45.703797505859626" lon="8.727211817623147"><ele>312.0</ele><time>2026-04-12T08:53:08.918Z</time></trkpt><trkpt lat="45.703702169420474" lon="8.72722067134359"><ele>312.0</ele><time>2026-04-12T08:53:10.918Z</time></trkpt><trkpt lat="45.70360319478028" lon="8.727247995992592"><ele>312.0</ele><time>2026-04-12T08:53:12.918Z</time></trkpt><trkpt lat="45.70353402925193" lon="8.727270540773308"><ele>312.0</ele><time>2026-04-12T08:53:14.918Z</time></trkpt><trkpt lat="45.70343444683524" lon="8.727320730939255"><ele>312.0</ele><time>2026-04-12T08:53:16.918Z</time></trkpt><trkpt lat="45.703348632732" lon="8.727349809988956"><ele>312.6666666666667</ele><time>2026-04-12T08:53:18.918Z</time></trkpt><trkpt lat="45.70328236449329" lon="8.727394728151408"><ele>313.3333333333333</ele><time>2026-04-12T08:53:20.918Z</time></trkpt><trkpt lat="45.70320427021069" lon="8.727461440074434"><ele>314.0</ele><time>2026-04-12T08:53:22.918Z</time></trkpt><trkpt lat="45.70312959615459" lon="8.727496098334992"><ele>314.66666666666663</ele><time>2026-04-12T08:53:24.918Z</time></trkpt><trkpt lat="45.70304986440268" lon="8.72754440115076"><ele>315.3333333333333</ele><time>2026-04-12T08:53:26.918Z</time></trkpt><trkpt lat="45.702979414020376" lon="8.7275904445085"><ele>316.0</ele><time>2026-04-12T08:53:28.918Z</time></trkpt><trkpt lat="45.702894939124285" lon="8.727630694838727"><ele>316.0</ele><time>2026-04-12T08:53:30.918Z</time></trkpt><trkpt lat="45.70277736748764" lon="8.727699901743698"><ele>316.0</ele><time>2026-04-12T08:53:32.918Z</time></trkpt><trkpt lat="45.70269948287155" lon="8.727739530029552"><ele>316.0</ele><time>2026-04-12T08:53:34.918Z</time></trkpt><trkpt lat="45.70263098457623" lon="8.727795468983476"><ele>316.0</ele><time>2026-04-12T08:53:36.918Z</time></trkpt><trkpt lat="45.702572086986606" lon="8.727841436767601"><ele>316.0</ele><time>2026-04-12T08:53:37.918Z</time></trkpt><trkpt lat="45.70250181344483" lon="8.727876660735589"><ele>316.0</ele><time>2026-04-12T08:53:38.918Z</time></trkpt><trkpt lat="45.702415588847174" lon="8.727928707153977"><ele>316.2</ele><time>2026-04-12T08:53:40.918Z</time></trkpt><trkpt lat="45.70231773244556" lon="8.727994835003846"><ele>316.40000000000003</ele><time>2026-04-12T08:53:42.918Z</time></trkpt><trkpt lat="45.70222408203633" lon="8.728052101825341"><ele>316.6</ele><time>2026-04-12T08:53:44.918Z</time></trkpt><trkpt lat="45.70214831557501" lon="8.728107428010011"><ele>316.8</ele><time>2026-04-12T08:53:46.918Z</time></trkpt><trkpt lat="45.702065104742225" lon="8.728171435047976"><ele>317.0</ele><time>2026-04-12T08:53:48.918Z</time></trkpt><trkpt lat="45.701994531362956" lon="8.728226695838305"><ele>317.83333333333337</ele><time>2026-04-12T08:53:50.918Z</time></trkpt><trkpt lat="45.70190909247075" lon="8.72824854352457"><ele>318.6666666666667</ele><time>2026-04-12T08:53:52.918Z</time></trkpt><trkpt lat="45.70183048774075" lon="8.728295729519989"><ele>319.5</ele><time>2026-04-12T08:53:54.918Z</time></trkpt><trkpt lat="45.70174117902945" lon="8.728296504748263"><ele>320.3333333333333</ele><time>2026-04-12T08:53:56.918Z</time></trkpt><trkpt lat="45.70165928441434" lon="8.728288522866906"><ele>321.16666666666663</ele><time>2026-04-12T08:53:58.918Z</time></trkpt><trkpt lat="45.70155878710946" lon="8.728293468933884"><ele>322.0</ele><time>2026-04-12T08:54:00.918Z</time></trkpt><trkpt lat="45.70145355944843" lon="8.728278071056721"><ele>322.0</ele><time>2026-04-12T08:54:02.918Z</time></trkpt><trkpt lat="45.701365265536566" lon="8.728285042772516"><ele>322.0</ele><time>2026-04-12T08:54:04.918Z</time></trkpt><trkpt lat="45.7012427254038" lon="8.728280102340111"><ele>322.0</ele><time>2026-04-12T08:54:06.918Z</time></trkpt><trkpt lat="45.7011381308011" lon="8.728269355761066"><ele>322.0</ele><time>2026-04-12T08:54:08.918Z</time></trkpt><trkpt lat="45.701015550613725" lon="8.728279306312714"><ele>322.0</ele><time>2026-04-12T08:54:10.918Z</time></trkpt><trkpt lat="45.70094626320052" lon="8.72826741391418"><ele>321.20000000000005</ele><time>2026-04-12T08:54:11.918Z</time></trkpt><trkpt lat="45.70085497679547" lon="8.728259467122083"><ele>320.40000000000003</ele><time>2026-04-12T08:54:13.917Z</time></trkpt><trkpt lat="45.70074806886395" lon="8.728251698152809"><ele>319.6</ele><time>2026-04-12T08:54:15.917Z</time></trkpt><trkpt lat="45.70061479180066" lon="8.728196371710153"><ele>318.8</ele><time>2026-04-12T08:54:17.917Z</time></trkpt><trkpt lat="45.7005112634393" lon="8.728205917587685"><ele>318.0</ele><time>2026-04-12T08:54:19.917Z</time></trkpt><trkpt lat="45.70042120429988" lon="8.728229961607397"><ele>318.0</ele><time>2026-04-12T08:54:21.917Z</time></trkpt><trkpt lat="45.700350834371804" lon="8.72821078644772"><ele>318.0</ele><time>2026-04-12T08:54:22.917Z</time></trkpt><trkpt lat="45.70026004573188" lon="8.728183285357513"><ele>318.0</ele><time>2026-04-12T08:54:23.917Z</time></trkpt><trkpt lat="45.70019656084855" lon="8.728189106824486"><ele>318.0</ele><time>2026-04-12T08:54:24.917Z</time></trkpt><trkpt lat="45.70011135784405" lon="8.728217687621633"><ele>318.0</ele><time>2026-04-12T08:54:25.917Z</time></trkpt><trkpt lat="45.700045398845184" lon="8.728227102738671"><ele>318.0</ele><time>2026-04-12T08:54:26.917Z</time></trkpt><trkpt lat="45.699939738967316" lon="8.72826279402438"><ele>318.0</ele><time>2026-04-12T08:54:28.917Z</time></trkpt><trkpt lat="45.69985326890234" lon="8.728331427911977"><ele>318.0</ele><time>2026-04-12T08:54:30.917Z</time></trkpt><trkpt lat="45.699756024738704" lon="8.728374910746199"><ele>318.0</ele><time>2026-04-12T08:54:32.917Z</time></trkpt><trkpt lat="45.699682154509" lon="8.72838815804927"><ele>318.0</ele><time>2026-04-12T08:54:33.917Z</time></trkpt><trkpt lat="45.69961528506167" lon="8.728397315665363"><ele>318.0</ele><time>2026-04-12T08:54:34.917Z</time></trkpt><trkpt lat="45.6995275906368" lon="8.728402849557087"><ele>318.0</ele><time>2026-04-12T08:54:35.917Z</time></trkpt><trkpt lat="45.69945019341813" lon="8.728421505831314"><ele>317.4</ele><time>2026-04-12T08:54:36.917Z</time></trkpt><trkpt lat="45.699347665831674" lon="8.728454730970228"><ele>316.8</ele><time>2026-04-12T08:54:37.917Z</time></trkpt><trkpt lat="45.699250570167145" lon="8.72846131667725"><ele>316.2</ele><time>2026-04-12T08:54:38.917Z</time></trkpt><trkpt lat="45.699156170736075" lon="8.728469789717199"><ele>315.6</ele><time>2026-04-12T08:54:39.917Z</time></trkpt><trkpt lat="45.69903614076962" lon="8.7284722576497"><ele>315.0</ele><time>2026-04-12T08:54:40.917Z</time></trkpt><trkpt lat="45.69895009874567" lon="8.728490997406713"><ele>315.0</ele><time>2026-04-12T08:54:41.917Z</time></trkpt><trkpt lat="45.69887695780007" lon="8.72851661054189"><ele>315.0</ele><time>2026-04-12T08:54:42.917Z</time></trkpt><trkpt lat="45.69879364263903" lon="8.72852000514042"><ele>315.0</ele><time>2026-04-12T08:54:43.917Z</time></trkpt><trkpt lat="45.698718858430986" lon="8.728531353103824"><ele>315.0</ele><time>2026-04-12T08:54:44.917Z</time></trkpt><trkpt lat="45.69865229508705" lon="8.728555162345357"><ele>315.0</ele><time>2026-04-12T08:54:45.917Z</time></trkpt><trkpt lat="45.698588349754345" lon="8.728566278010446"><ele>315.0</ele><time>2026-04-12T08:54:46.917Z</time></trkpt><trkpt lat="45.69852203079523" lon="8.728577516012864"><ele>315.0</ele><time>2026-04-12T08:54:47.917Z</time></trkpt><trkpt lat="45.69841728452171" lon="8.728608188931966"><ele>314.6</ele><time>2026-04-12T08:54:49.917Z</time></trkpt><trkpt lat="45.69831083663212" lon="8.728626057993127"><ele>314.2</ele><time>2026-04-12T08:54:51.916Z</time></trkpt><trkpt lat="45.69821316649108" lon="8.728661867522778"><ele>313.8</ele><time>2026-04-12T08:54:53.916Z</time></trkpt><trkpt lat="45.698104589066354" lon="8.728686418685662"><ele>313.4</ele><time>2026-04-12T08:54:55.916Z</time></trkpt><trkpt lat="45.69804102456467" lon="8.728706894574412"><ele>313.0</ele><time>2026-04-12T08:54:56.916Z</time></trkpt><trkpt lat="45.69795918408897" lon="8.728733806637342"><ele>313.0</ele><time>2026-04-12T08:54:58.916Z</time></trkpt><trkpt lat="45.69785023071564" lon="8.728776664228176"><ele>313.0</ele><time>2026-04-12T08:55:00.916Z</time></trkpt><trkpt lat="45.69777187313514" lon="8.728783406026198"><ele>313.0</ele><time>2026-04-12T08:55:02.916Z</time></trkpt><trkpt lat="45.69766430807238" lon="8.728795337871532"><ele>313.0</ele><time>2026-04-12T08:55:04.916Z</time></trkpt><trkpt lat="45.69756879251334" lon="8.728834057792099"><ele>313.0</ele><time>2026-04-12T08:55:06.916Z</time></trkpt><trkpt lat="45.69747450642274" lon="8.728867690634038"><ele>311.5</ele><time>2026-04-12T08:55:08.916Z</time></trkpt><trkpt lat="45.69736872417663" lon="8.728890372328701"><ele>310.0</ele><time>2026-04-12T08:55:10.916Z</time></trkpt><trkpt lat="45.697252310398525" lon="8.728959789867481"><ele>308.5</ele><time>2026-04-12T08:55:12.916Z</time></trkpt><trkpt lat="45.69710774562441" lon="8.728983190308321"><ele>307.0</ele><time>2026-04-12T08:55:14.916Z</time></trkpt><trkpt lat="45.697021647874664" lon="8.728967902484687"><ele>307.0</ele><time>2026-04-12T08:55:15.916Z</time></trkpt><trkpt lat="45.69695028983123" lon="8.72898896540675"><ele>307.0</ele><time>2026-04-12T08:55:16.916Z</time></trkpt><trkpt lat="45.696823036671574" lon="8.72902527668273"><ele>307.0</ele><time>2026-04-12T08:55:18.916Z</time></trkpt><trkpt lat="45.696735807701295" lon="8.729020218225191"><ele>307.0</ele><time>2026-04-12T08:55:19.916Z</time></trkpt><trkpt lat="45.696653471500234" lon="8.729014860741474"><ele>307.0</ele><time>2026-04-12T08:55:20.916Z</time></trkpt><trkpt lat="45.69652155389775" lon="8.72899389119957"><ele>306.16666666666663</ele><time>2026-04-12T08:55:22.916Z</time></trkpt><trkpt lat="45.69641243545475" lon="8.728977969362706"><ele>305.3333333333333</ele><time>2026-04-12T08:55:24.916Z</time></trkpt><trkpt lat="45.69632791789874" lon="8.728947507485746"><ele>304.5</ele><time>2026-04-12T08:55:26.916Z</time></trkpt><trkpt lat="45.696287734441505" lon="8.728841487022834"><ele>303.6666666666667</ele><time>2026-04-12T08:55:28.915Z</time></trkpt><trkpt lat="45.69632015595036" lon="8.728742842440925"><ele>302.83333333333337</ele><time>2026-04-12T08:55:31.915Z</time></trkpt><trkpt lat="45.69635216135861" lon="8.728637137992042"><ele>302.0</ele><time>2026-04-12T08:55:33.915Z</time></trkpt><trkpt lat="45.69640122549142" lon="8.728554822907387"><ele>302.0</ele><time>2026-04-12T08:55:35.915Z</time></trkpt><trkpt lat="45.69645725739314" lon="8.728464717325785"><ele>302.0</ele><time>2026-04-12T08:55:37.915Z</time></trkpt><trkpt lat="45.69653558067768" lon="8.728379487777449"><ele>302.0</ele><time>2026-04-12T08:55:39.915Z</time></trkpt><trkpt lat="45.6966008791882" lon="8.728308752997915"><ele>302.0</ele><time>2026-04-12T08:55:41.915Z</time></trkpt><trkpt lat="45.696686732103" lon="8.728228110005869"><ele>302.0</ele><time>2026-04-12T08:55:43.915Z</time></trkpt><trkpt lat="45.69676514242778" lon="8.728168386855403"><ele>302.0</ele><time>2026-04-12T08:55:45.916Z</time></trkpt><trkpt lat="45.69676959135138" lon="8.728066428633909"><ele>302.0</ele><time>2026-04-12T08:55:47.916Z</time></trkpt><trkpt lat="45.69674390615279" lon="8.727980611688984"><ele>302.0</ele><time>2026-04-12T08:55:49.916Z</time></trkpt><trkpt lat="45.69668901476928" lon="8.727865983736967"><ele>302.0</ele><time>2026-04-12T08:55:52.916Z</time></trkpt><trkpt lat="45.69663779043992" lon="8.727740884671359"><ele>302.0</ele><time>2026-04-12T08:55:54.916Z</time></trkpt><trkpt lat="45.69659518140537" lon="8.72763112847627"><ele>302.0</ele><time>2026-04-12T08:55:56.916Z</time></trkpt><trkpt lat="45.69654353740705" lon="8.727521908635698"><ele>302.0</ele><time>2026-04-12T08:55:58.915Z</time></trkpt><trkpt lat="45.69647839638459" lon="8.727427304478585"><ele>302.0</ele><time>2026-04-12T08:56:01.915Z</time></trkpt><trkpt lat="45.696448493970124" lon="8.727332326771013"><ele>302.0</ele><time>2026-04-12T08:56:03.915Z</time></trkpt><trkpt lat="45.696433974171775" lon="8.727210594963749"><ele>302.0</ele><time>2026-04-12T08:56:05.915Z</time></trkpt><trkpt lat="45.69648465337284" lon="8.72712528790141"><ele>302.0</ele><time>2026-04-12T08:56:07.915Z</time></trkpt><trkpt lat="45.69655927180282" lon="8.7270168271121"><ele>302.0</ele><time>2026-04-12T08:56:09.915Z</time></trkpt><trkpt lat="45.69664857879146" lon="8.726913803921475"><ele>302.4</ele><time>2026-04-12T08:56:11.915Z</time></trkpt><trkpt lat="45.69673088882398" lon="8.726821118913172"><ele>302.79999999999995</ele><time>2026-04-12T08:56:13.915Z</time></trkpt><trkpt lat="45.696827281210425" lon="8.726732570636512"><ele>303.2</ele><time>2026-04-12T08:56:15.915Z</time></trkpt><trkpt lat="45.69689478036645" lon="8.726642246328225"><ele>303.59999999999997</ele><time>2026-04-12T08:56:17.915Z</time></trkpt><trkpt lat="45.69698888978691" lon="8.726540983505691"><ele>304.0</ele><time>2026-04-12T08:56:19.915Z</time></trkpt><trkpt lat="45.697066884145165" lon="8.726428063794218"><ele>304.0</ele><time>2026-04-12T08:56:21.915Z</time></trkpt><trkpt lat="45.697112422570065" lon="8.726294694705453"><ele>304.0</ele><time>2026-04-12T08:56:24.915Z</time></trkpt><trkpt lat="45.69712856022626" lon="8.726156822952037"><ele>304.0</ele><time>2026-04-12T08:56:27.914Z</time></trkpt><trkpt lat="45.69716796678683" lon="8.726032977424437"><ele>304.0</ele><time>2026-04-12T08:56:29.914Z</time></trkpt><trkpt lat="45.697226736053125" lon="8.725907646386922"><ele>304.0</ele><time>2026-04-12T08:56:31.914Z</time></trkpt><trkpt lat="45.69727042133248" lon="8.725789878154167"><ele>304.3333333333333</ele><time>2026-04-12T08:56:33.914Z</time></trkpt><trkpt lat="45.697312663708715" lon="8.725653802798385"><ele>304.66666666666663</ele><time>2026-04-12T08:56:35.914Z</time></trkpt><trkpt lat="45.697359860535606" lon="8.725584844897432"><ele>305.0</ele><time>2026-04-12T08:56:36.914Z</time></trkpt><trkpt lat="45.69739629907792" lon="8.725508107067062"><ele>305.3333333333333</ele><time>2026-04-12T08:56:37.914Z</time></trkpt><trkpt lat="45.697459730309824" lon="8.725389258824114"><ele>305.6666666666667</ele><time>2026-04-12T08:56:39.914Z</time></trkpt><trkpt lat="45.697503971724664" lon="8.725320342437008"><ele>306.0</ele><time>2026-04-12T08:56:40.914Z</time></trkpt><trkpt lat="45.69755600080965" lon="8.725179966489947"><ele>306.6</ele><time>2026-04-12T08:56:42.914Z</time></trkpt><trkpt lat="45.69764258589895" lon="8.725093010979716"><ele>307.20000000000005</ele><time>2026-04-12T08:56:44.914Z</time></trkpt><trkpt lat="45.6977205328309" lon="8.725016629308472"><ele>307.79999999999995</ele><time>2026-04-12T08:56:46.914Z</time></trkpt><trkpt lat="45.69778916773631" lon="8.72493555348765"><ele>308.4</ele><time>2026-04-12T08:56:48.914Z</time></trkpt><trkpt lat="45.69784333955887" lon="8.724859864406978"><ele>309.0</ele><time>2026-04-12T08:56:50.914Z</time></trkpt><trkpt lat="45.69795028813333" lon="8.724773677692854"><ele>309.0</ele><time>2026-04-12T08:56:52.914Z</time></trkpt><trkpt lat="45.698048521535334" lon="8.724670049915598"><ele>309.0</ele><time>2026-04-12T08:56:54.914Z</time></trkpt><trkpt lat="45.69813638216408" lon="8.724575870916198"><ele>309.0</ele><time>2026-04-12T08:56:56.914Z</time></trkpt><trkpt lat="45.69822239530057" lon="8.724509161470063"><ele>309.0</ele><time>2026-04-12T08:56:58.914Z</time></trkpt><trkpt lat="45.698308430137544" lon="8.724464421613085"><ele>309.0</ele><time>2026-04-12T08:57:00.914Z</time></trkpt><trkpt lat="45.69839373405547" lon="8.724374678009879"><ele>309.0</ele><time>2026-04-12T08:57:02.914Z</time></trkpt><trkpt lat="45.69847326968896" lon="8.724299538437227"><ele>309.0</ele><time>2026-04-12T08:57:03.913Z</time></trkpt><trkpt lat="45.698580517164395" lon="8.72421219646502"><ele>309.0</ele><time>2026-04-12T08:57:05.913Z</time></trkpt><trkpt lat="45.698679273584155" lon="8.724147991895208"><ele>309.0</ele><time>2026-04-12T08:57:07.913Z</time></trkpt><trkpt lat="45.69876876962921" lon="8.724064746262668"><ele>309.0</ele><time>2026-04-12T08:57:09.913Z</time></trkpt><trkpt lat="45.6988232679309" lon="8.72397113359901"><ele>308.4</ele><time>2026-04-12T08:57:11.913Z</time></trkpt><trkpt lat="45.69891592040745" lon="8.723887137529644"><ele>307.79999999999995</ele><time>2026-04-12T08:57:13.913Z</time></trkpt><trkpt lat="45.69899825091338" lon="8.723772558987282"><ele>307.20000000000005</ele><time>2026-04-12T08:57:15.913Z</time></trkpt><trkpt lat="45.69907877504062" lon="8.723673496687127"><ele>306.6</ele><time>2026-04-12T08:57:17.913Z</time></trkpt><trkpt lat="45.69914926807792" lon="8.72356823083241"><ele>306.0</ele><time>2026-04-12T08:57:19.913Z</time></trkpt><trkpt lat="45.69921522584189" lon="8.723460332119652"><ele>306.0</ele><time>2026-04-12T08:57:22.913Z</time></trkpt><trkpt lat="45.699282674061045" lon="8.723356509869006"><ele>306.0</ele><time>2026-04-12T08:57:24.913Z</time></trkpt><trkpt lat="45.699351806623" lon="8.72323688612666"><ele>306.0</ele><time>2026-04-12T08:57:26.913Z</time></trkpt><trkpt lat="45.69940464041502" lon="8.723178238137677"><ele>306.0</ele><time>2026-04-12T08:57:27.913Z</time></trkpt><trkpt lat="45.699472453195" lon="8.723095780622282"><ele>306.0</ele><time>2026-04-12T08:57:29.913Z</time></trkpt><trkpt lat="45.699527488808044" lon="8.723028677352415"><ele>306.0</ele><time>2026-04-12T08:57:31.913Z</time></trkpt><trkpt lat="45.699587781805135" lon="8.722951191152655"><ele>305.6666666666667</ele><time>2026-04-12T08:57:34.913Z</time></trkpt><trkpt lat="45.699641233957415" lon="8.722860614185887"><ele>305.3333333333333</ele><time>2026-04-12T08:57:37.913Z</time></trkpt><trkpt lat="45.69970785270984" lon="8.722788059127613"><ele>305.0</ele><time>2026-04-12T08:57:39.913Z</time></trkpt><trkpt lat="45.699793450897225" lon="8.722706098994916"><ele>304.66666666666663</ele><time>2026-04-12T08:57:41.912Z</time></trkpt><trkpt lat="45.69982716037015" lon="8.722600218967642"><ele>304.3333333333333</ele><time>2026-04-12T08:57:44.912Z</time></trkpt><trkpt lat="45.69987019302737" lon="8.722501881101472"><ele>304.0</ele><time>2026-04-12T08:57:47.912Z</time></trkpt><trkpt lat="45.699852318757216" lon="8.72240635718854"><ele>304.0</ele><time>2026-04-12T08:57:50.912Z</time></trkpt><trkpt lat="45.69983000759791" lon="8.722318547796414"><ele>304.0</ele><time>2026-04-12T08:57:52.914Z</time></trkpt><trkpt lat="45.699787557046015" lon="8.72224975953635"><ele>304.0</ele><time>2026-04-12T08:57:54.913Z</time></trkpt><trkpt lat="45.699740837250424" lon="8.72216255826422"><ele>304.0</ele><time>2026-04-12T08:57:57.914Z</time></trkpt><trkpt lat="45.699710815504986" lon="8.722081181034907"><ele>304.0</ele><time>2026-04-12T08:57:59.913Z</time></trkpt><trkpt lat="45.69966445995914" lon="8.721969927373708"><ele>304.0</ele><time>2026-04-12T08:58:01.914Z</time></trkpt><trkpt lat="45.69961622455758" lon="8.721885923928754"><ele>304.0</ele><time>2026-04-12T08:58:03.914Z</time></trkpt><trkpt lat="45.699567818972774" lon="8.721778892819763"><ele>304.16666666666663</ele><time>2026-04-12T08:58:06.913Z</time></trkpt><trkpt lat="45.699516052271235" lon="8.721696928766644"><ele>304.3333333333333</ele><time>2026-04-12T08:58:08.913Z</time></trkpt><trkpt lat="45.69947243086474" lon="8.721579665117721"><ele>304.5</ele><time>2026-04-12T08:58:10.913Z</time></trkpt><trkpt lat="45.699401294574734" lon="8.721479919008344"><ele>304.6666666666667</ele><time>2026-04-12T08:58:12.913Z</time></trkpt><trkpt lat="45.69933479915831" lon="8.721400780077857"><ele>304.83333333333337</ele><time>2026-04-12T08:58:14.913Z</time></trkpt><trkpt lat="45.699295951310695" lon="8.721298138859439"><ele>305.0</ele><time>2026-04-12T08:58:16.913Z</time></trkpt><trkpt lat="45.69924529545849" lon="8.721188484295869"><ele>305.6666666666667</ele><time>2026-04-12T08:58:18.913Z</time></trkpt><trkpt lat="45.69920995304852" lon="8.721111028610078"><ele>306.33333333333337</ele><time>2026-04-12T08:58:19.913Z</time></trkpt><trkpt lat="45.69915059029262" lon="8.721016341022864"><ele>307.0</ele><time>2026-04-12T08:58:21.913Z</time></trkpt><trkpt lat="45.699095439565504" lon="8.720893417250776"><ele>307.6666666666667</ele><time>2026-04-12T08:58:23.913Z</time></trkpt><trkpt lat="45.69906068234267" lon="8.720785132081588"><ele>308.3333333333333</ele><time>2026-04-12T08:58:25.913Z</time></trkpt><trkpt lat="45.69902483125806" lon="8.72070772979782"><ele>309.0</ele><time>2026-04-12T08:58:27.913Z</time></trkpt><trkpt lat="45.69896491075319" lon="8.720576802261872"><ele>309.0</ele><time>2026-04-12T08:58:29.912Z</time></trkpt><trkpt lat="45.69893238831426" lon="8.720480719868313"><ele>309.0</ele><time>2026-04-12T08:58:31.912Z</time></trkpt><trkpt lat="45.69887581470319" lon="8.720408611089999"><ele>309.0</ele><time>2026-04-12T08:58:33.912Z</time></trkpt><trkpt lat="45.69879867326407" lon="8.720327869867011"><ele>309.0</ele><time>2026-04-12T08:58:36.912Z</time></trkpt><trkpt lat="45.69871174557187" lon="8.720237213069987"><ele>309.0</ele><time>2026-04-12T08:58:38.912Z</time></trkpt><trkpt lat="45.69864150373543" lon="8.720170966758854"><ele>309.0</ele><time>2026-04-12T08:58:40.912Z</time></trkpt><trkpt lat="45.69858891977275" lon="8.720110514099758"><ele>309.14285714285717</ele><time>2026-04-12T08:58:43.912Z</time></trkpt><trkpt lat="45.69854028500951" lon="8.720042676224315"><ele>309.2857142857143</ele><time>2026-04-12T08:58:47.912Z</time></trkpt><trkpt lat="45.69849905766845" lon="8.719969714078767"><ele>309.42857142857144</ele><time>2026-04-12T08:58:50.912Z</time></trkpt><trkpt lat="45.6984562696458" lon="8.719865242207787"><ele>309.57142857142856</ele><time>2026-04-12T08:58:54.912Z</time></trkpt><trkpt lat="45.69845003644385" lon="8.719773929437471"><ele>309.7142857142857</ele><time>2026-04-12T08:58:56.912Z</time></trkpt><trkpt lat="45.698433154721975" lon="8.719673169451319"><ele>309.8571428571429</ele><time>2026-04-12T08:58:58.912Z</time></trkpt><trkpt lat="45.698408595136115" lon="8.719585974122603"><ele>310.0</ele><time>2026-04-12T08:59:00.912Z</time></trkpt><trkpt lat="45.698356381309964" lon="8.719482727209453"><ele>309.8</ele><time>2026-04-12T08:59:02.912Z</time></trkpt><trkpt lat="45.698324847203025" lon="8.719337818872345"><ele>309.6</ele><time>2026-04-12T08:59:04.912Z</time></trkpt><trkpt lat="45.69829140458142" lon="8.719213361480595"><ele>309.4</ele><time>2026-04-12T08:59:06.911Z</time></trkpt><trkpt lat="45.698250676697434" lon="8.71905709031482"><ele>309.2</ele><time>2026-04-12T08:59:08.911Z</time></trkpt><trkpt lat="45.69823879095671" lon="8.71894441045862"><ele>309.0</ele><time>2026-04-12T08:59:10.911Z</time></trkpt><trkpt lat="45.698223506302526" lon="8.718829726974572"><ele>309.0</ele><time>2026-04-12T08:59:12.911Z</time></trkpt><trkpt lat="45.698197614949784" lon="8.718732655969875"><ele>309.0</ele><time>2026-04-12T08:59:14.911Z</time></trkpt><trkpt lat="45.698196814033594" lon="8.718631283172238"><ele>309.0</ele><time>2026-04-12T08:59:16.911Z</time></trkpt><trkpt lat="45.698173162625984" lon="8.718543818556451"><ele>309.0</ele><time>2026-04-12T08:59:18.911Z</time></trkpt><trkpt lat="45.69815750858999" lon="8.718442012681246"><ele>309.0</ele><time>2026-04-12T08:59:20.911Z</time></trkpt><trkpt lat="45.69814390724485" lon="8.71833076431676"><ele>309.0</ele><time>2026-04-12T08:59:22.911Z</time></trkpt><trkpt lat="45.69809262484569" lon="8.71821935066536"><ele>308.6666666666667</ele><time>2026-04-12T08:59:24.911Z</time></trkpt><trkpt lat="45.69804181274985" lon="8.718111031645673"><ele>308.3333333333333</ele><time>2026-04-12T08:59:26.911Z</time></trkpt><trkpt lat="45.69800451843007" lon="8.71802605153251"><ele>308.0</ele><time>2026-04-12T08:59:28.911Z</time></trkpt><trkpt lat="45.69793611093931" lon="8.717984428684712"><ele>307.66666666666663</ele><time>2026-04-12T08:59:32.911Z</time></trkpt><trkpt lat="45.69786053757152" lon="8.717922940461012"><ele>307.3333333333333</ele><time>2026-04-12T08:59:34.911Z</time></trkpt><trkpt lat="45.69777311090834" lon="8.717806438701512"><ele>307.0</ele><time>2026-04-12T08:59:36.911Z</time></trkpt><trkpt lat="45.697685912841834" lon="8.71774887230661"><ele>306.6</ele><time>2026-04-12T08:59:38.911Z</time></trkpt><trkpt lat="45.69763004649617" lon="8.717663827430572"><ele>306.2</ele><time>2026-04-12T08:59:40.911Z</time></trkpt><trkpt lat="45.69757187996441" lon="8.71758028061734"><ele>305.8</ele><time>2026-04-12T08:59:42.911Z</time></trkpt><trkpt lat="45.697536795118474" lon="8.717496847642435"><ele>305.4</ele><time>2026-04-12T08:59:44.91Z</time></trkpt><trkpt lat="45.69746431585675" lon="8.717364743721797"><ele>305.0</ele><time>2026-04-12T08:59:46.91Z</time></trkpt><trkpt lat="45.69739748973195" lon="8.717235949398109"><ele>305.0</ele><time>2026-04-12T08:59:48.91Z</time></trkpt><trkpt lat="45.69738656305213" lon="8.717081250266297"><ele>305.0</ele><time>2026-04-12T08:59:50.909Z</time></trkpt><trkpt lat="45.69733598580892" lon="8.716969025429432"><ele>305.0</ele><time>2026-04-12T08:59:52.907Z</time></trkpt><trkpt lat="45.697299227520546" lon="8.716889016125974"><ele>305.0</ele><time>2026-04-12T08:59:54.906Z</time></trkpt><trkpt lat="45.69724677268645" lon="8.716793355652351"><ele>305.0</ele><time>2026-04-12T08:59:56.906Z</time></trkpt><trkpt lat="45.6971960773986" lon="8.716701104134927"><ele>305.0</ele><time>2026-04-12T08:59:58.906Z</time></trkpt><trkpt lat="45.69713449814532" lon="8.716623991430088"><ele>305.5</ele><time>2026-04-12T09:00:00.906Z</time></trkpt><trkpt lat="45.69710372045921" lon="8.716533214415966"><ele>306.0</ele><time>2026-04-12T09:00:02.905Z</time></trkpt><trkpt lat="45.69709393260982" lon="8.71642336760374"><ele>306.5</ele><time>2026-04-12T09:00:05.904Z</time></trkpt><trkpt lat="45.69711916306851" lon="8.716336225476567"><ele>307.0</ele><time>2026-04-12T09:00:07.904Z</time></trkpt><trkpt lat="45.697168695642695" lon="8.716232443161527"><ele>307.5</ele><time>2026-04-12T09:00:09.903Z</time></trkpt><trkpt lat="45.69720948833408" lon="8.716143288971956"><ele>308.0</ele><time>2026-04-12T09:00:11.903Z</time></trkpt><trkpt lat="45.69725830706451" lon="8.716028441868387"><ele>308.6666666666667</ele><time>2026-04-12T09:00:13.903Z</time></trkpt><trkpt lat="45.69729496537919" lon="8.715925181507986"><ele>309.33333333333337</ele><time>2026-04-12T09:00:16.902Z</time></trkpt><trkpt lat="45.69734204493115" lon="8.71582105692475"><ele>310.0</ele><time>2026-04-12T09:00:20.902Z</time></trkpt><trkpt lat="45.69739868318126" lon="8.715722961659388"><ele>310.6666666666667</ele><time>2026-04-12T09:00:22.901Z</time></trkpt><trkpt lat="45.69748227666313" lon="8.715612054435963"><ele>311.3333333333333</ele><time>2026-04-12T09:00:24.901Z</time></trkpt><trkpt lat="45.69753277492316" lon="8.715542327478772"><ele>312.0</ele><time>2026-04-12T09:00:25.901Z</time></trkpt><trkpt lat="45.697597590832025" lon="8.715463177400451"><ele>312.0</ele><time>2026-04-12T09:00:26.901Z</time></trkpt><trkpt lat="45.69767713763487" lon="8.715378738146022"><ele>312.0</ele><time>2026-04-12T09:00:27.901Z</time></trkpt><trkpt lat="45.69773809230388" lon="8.715305068833876"><ele>312.0</ele><time>2026-04-12T09:00:28.901Z</time></trkpt><trkpt lat="45.69778656401946" lon="8.71523041266415"><ele>312.0</ele><time>2026-04-12T09:00:29.901Z</time></trkpt><trkpt lat="45.69783478789566" lon="8.71516265840265"><ele>312.0</ele><time>2026-04-12T09:00:30.901Z</time></trkpt><trkpt lat="45.69791148545016" lon="8.715061749070419"><ele>312.0</ele><time>2026-04-12T09:00:32.901Z</time></trkpt><trkpt lat="45.69798531247655" lon="8.714972969587912"><ele>312.0</ele><time>2026-04-12T09:00:34.9Z</time></trkpt><trkpt lat="45.698072433904954" lon="8.714893492005261"><ele>312.0</ele><time>2026-04-12T09:00:36.9Z</time></trkpt><trkpt lat="45.69814301442849" lon="8.714806647702458"><ele>312.0</ele><time>2026-04-12T09:00:37.9Z</time></trkpt><trkpt lat="45.698204389066746" lon="8.714708385165979"><ele>312.0</ele><time>2026-04-12T09:00:38.9Z</time></trkpt><trkpt lat="45.69828039153436" lon="8.71457266506079"><ele>312.0</ele><time>2026-04-12T09:00:40.9Z</time></trkpt><trkpt lat="45.69833126870886" lon="8.714495794842795"><ele>312.0</ele><time>2026-04-12T09:00:41.9Z</time></trkpt><trkpt lat="45.698381514787236" lon="8.714437613497195"><ele>312.0</ele><time>2026-04-12T09:00:42.9Z</time></trkpt><trkpt lat="45.69848731574329" lon="8.71432285306932"><ele>312.0</ele><time>2026-04-12T09:00:44.9Z</time></trkpt><trkpt lat="45.69857325997007" lon="8.714249188518332"><ele>312.0</ele><time>2026-04-12T09:00:46.9Z</time></trkpt><trkpt lat="45.69863586993399" lon="8.714195796731149"><ele>312.0</ele><time>2026-04-12T09:00:48.9Z</time></trkpt><trkpt lat="45.69869497907172" lon="8.714136505818924"><ele>312.0</ele><time>2026-04-12T09:00:49.9Z</time></trkpt><trkpt lat="45.69879485796072" lon="8.714056758460314"><ele>310.3333333333333</ele><time>2026-04-12T09:00:51.9Z</time></trkpt><trkpt lat="45.69884587788763" lon="8.714001301177378"><ele>308.6666666666667</ele><time>2026-04-12T09:00:52.9Z</time></trkpt><trkpt lat="45.698947046384156" lon="8.713922080086059"><ele>307.0</ele><time>2026-04-12T09:00:54.899Z</time></trkpt><trkpt lat="45.69903359276359" lon="8.713842870970142"><ele>305.33333333333337</ele><time>2026-04-12T09:00:56.899Z</time></trkpt><trkpt lat="45.69909982693748" lon="8.713779934869622"><ele>303.6666666666667</ele><time>2026-04-12T09:00:57.899Z</time></trkpt><trkpt lat="45.69915217579554" lon="8.713727089852144"><ele>302.0</ele><time>2026-04-12T09:00:58.899Z</time></trkpt><trkpt lat="45.69921290635711" lon="8.713684949840907"><ele>302.0</ele><time>2026-04-12T09:00:59.899Z</time></trkpt><trkpt lat="45.69929166864496" lon="8.71361556044379"><ele>302.0</ele><time>2026-04-12T09:01:01.899Z</time></trkpt><trkpt lat="45.69941731657967" lon="8.713536756977518"><ele>302.0</ele><time>2026-04-12T09:01:03.899Z</time></trkpt><trkpt lat="45.69949839114003" lon="8.713502148931664"><ele>302.0</ele><time>2026-04-12T09:01:05.899Z</time></trkpt><trkpt lat="45.69956235194571" lon="8.713495707727686"><ele>302.0</ele><time>2026-04-12T09:01:06.899Z</time></trkpt><trkpt lat="45.6996682669794" lon="8.713464029836635"><ele>301.4</ele><time>2026-04-12T09:01:08.899Z</time></trkpt><trkpt lat="45.699780551505235" lon="8.71340650717092"><ele>300.79999999999995</ele><time>2026-04-12T09:01:10.899Z</time></trkpt><trkpt lat="45.69983342231627" lon="8.713336225451378"><ele>300.2</ele><time>2026-04-12T09:01:12.899Z</time></trkpt><trkpt lat="45.69986871022831" lon="8.713244123082621"><ele>299.59999999999997</ele><time>2026-04-12T09:01:14.899Z</time></trkpt><trkpt lat="45.699824632340544" lon="8.713112306532716"><ele>299.0</ele><time>2026-04-12T09:01:17.899Z</time></trkpt><trkpt lat="45.69976767956034" lon="8.71300842318108"><ele>299.0</ele><time>2026-04-12T09:01:20.899Z</time></trkpt><trkpt lat="45.69973331762318" lon="8.712899088231257"><ele>299.0</ele><time>2026-04-12T09:01:22.899Z</time></trkpt><trkpt lat="45.69968518644328" lon="8.712796188456565"><ele>299.0</ele><time>2026-04-12T09:01:24.898Z</time></trkpt><trkpt lat="45.699632495077196" lon="8.71268853923459"><ele>299.0</ele><time>2026-04-12T09:01:26.898Z</time></trkpt><trkpt lat="45.69959253585022" lon="8.712595837064054"><ele>299.0</ele><time>2026-04-12T09:01:28.898Z</time></trkpt><trkpt lat="45.699535599525824" lon="8.712496763388105"><ele>299.0</ele><time>2026-04-12T09:01:30.898Z</time></trkpt><trkpt lat="45.69947711369317" lon="8.712362390611707"><ele>298.83333333333337</ele><time>2026-04-12T09:01:32.898Z</time></trkpt><trkpt lat="45.699450866819525" lon="8.712278302728137"><ele>298.6666666666667</ele><time>2026-04-12T09:01:33.898Z</time></trkpt><trkpt lat="45.699429426927736" lon="8.712192366133392"><ele>298.5</ele><time>2026-04-12T09:01:34.898Z</time></trkpt><trkpt lat="45.69941302606537" lon="8.712095067416703"><ele>298.3333333333333</ele><time>2026-04-12T09:01:35.898Z</time></trkpt><trkpt lat="45.69939513736913" lon="8.71200133619135"><ele>298.16666666666663</ele><time>2026-04-12T09:01:36.898Z</time></trkpt><trkpt lat="45.69934446632973" lon="8.711852173461864"><ele>298.0</ele><time>2026-04-12T09:01:38.898Z</time></trkpt><trkpt lat="45.69931004719982" lon="8.71172823684445"><ele>298.0</ele><time>2026-04-12T09:01:40.898Z</time></trkpt><trkpt lat="45.69926359088975" lon="8.71158719875567"><ele>298.0</ele><time>2026-04-12T09:01:42.898Z</time></trkpt><trkpt lat="45.699248054008265" lon="8.711435386748938"><ele>298.0</ele><time>2026-04-12T09:01:44.898Z</time></trkpt><trkpt lat="45.69921636253957" lon="8.71135673178684"><ele>298.0</ele><time>2026-04-12T09:01:45.898Z</time></trkpt><trkpt lat="45.6991790331538" lon="8.711211965550934"><ele>298.0</ele><time>2026-04-12T09:01:47.898Z</time></trkpt><trkpt lat="45.699148141662896" lon="8.711116651728272"><ele>296.66666666666663</ele><time>2026-04-12T09:01:48.898Z</time></trkpt><trkpt lat="45.699107003437746" lon="8.71104560274379"><ele>295.3333333333333</ele><time>2026-04-12T09:01:49.898Z</time></trkpt><trkpt lat="45.69907132314075" lon="8.710955651239653"><ele>294.0</ele><time>2026-04-12T09:01:50.898Z</time></trkpt><trkpt lat="45.69902760758454" lon="8.710856045296673"><ele>292.6666666666667</ele><time>2026-04-12T09:01:51.898Z</time></trkpt><trkpt lat="45.69899211574686" lon="8.710759022360103"><ele>291.33333333333337</ele><time>2026-04-12T09:01:52.898Z</time></trkpt><trkpt lat="45.698941541670195" lon="8.710576012201713"><ele>290.0</ele><time>2026-04-12T09:01:54.898Z</time></trkpt><trkpt lat="45.69890450531041" lon="8.71046793388085"><ele>290.0</ele><time>2026-04-12T09:01:55.898Z</time></trkpt><trkpt lat="45.6988753428968" lon="8.710383206571255"><ele>290.0</ele><time>2026-04-12T09:01:56.898Z</time></trkpt><trkpt lat="45.698846333706506" lon="8.710291972389225"><ele>290.0</ele><time>2026-04-12T09:01:57.897Z</time></trkpt><trkpt lat="45.698796684737815" lon="8.710163787572924"><ele>290.0</ele><time>2026-04-12T09:01:59.897Z</time></trkpt><trkpt lat="45.698709664475416" lon="8.710089516971612"><ele>290.0</ele><time>2026-04-12T09:02:02.897Z</time></trkpt><trkpt lat="45.69865785355319" lon="8.709921473377422"><ele>290.33333333333337</ele><time>2026-04-12T09:02:04.898Z</time></trkpt><trkpt lat="45.69862620853699" lon="8.709833913517409"><ele>290.6666666666667</ele><time>2026-04-12T09:02:05.898Z</time></trkpt><trkpt lat="45.69858451039752" lon="8.709765736516205"><ele>291.0</ele><time>2026-04-12T09:02:06.899Z</time></trkpt><trkpt lat="45.69852375442796" lon="8.709625988519988"><ele>291.3333333333333</ele><time>2026-04-12T09:02:08.898Z</time></trkpt><trkpt lat="45.698495207098446" lon="8.709537784958655"><ele>291.66666666666663</ele><time>2026-04-12T09:02:09.898Z</time></trkpt><trkpt lat="45.698439976710205" lon="8.709421164911568"><ele>292.0</ele><time>2026-04-12T09:02:11.898Z</time></trkpt><trkpt lat="45.69838805986073" lon="8.70934328551148"><ele>292.0</ele><time>2026-04-12T09:02:12.899Z</time></trkpt><trkpt lat="45.69831717761492" lon="8.709262355602778"><ele>292.0</ele><time>2026-04-12T09:02:13.898Z</time></trkpt><trkpt lat="45.69825414610782" lon="8.709111664472628"><ele>292.0</ele><time>2026-04-12T09:02:15.898Z</time></trkpt><trkpt lat="45.698189726857485" lon="8.708976744067524"><ele>292.0</ele><time>2026-04-12T09:02:17.898Z</time></trkpt><trkpt lat="45.698148903317474" lon="8.70886803002636"><ele>292.0</ele><time>2026-04-12T09:02:19.898Z</time></trkpt><trkpt lat="45.69807016583195" lon="8.708735077523926"><ele>292.0</ele><time>2026-04-12T09:02:21.898Z</time></trkpt><trkpt lat="45.69801592652489" lon="8.708663167511256"><ele>292.0</ele><time>2026-04-12T09:02:22.898Z</time></trkpt><trkpt lat="45.697967766854084" lon="8.708595223626519"><ele>292.0</ele><time>2026-04-12T09:02:23.898Z</time></trkpt><trkpt lat="45.69792909795134" lon="8.708521256933091"><ele>292.0</ele><time>2026-04-12T09:02:24.898Z</time></trkpt><trkpt lat="45.69787327711382" lon="8.708401032946934"><ele>292.0</ele><time>2026-04-12T09:02:26.898Z</time></trkpt><trkpt lat="45.697835097911195" lon="8.708323982586311"><ele>292.0</ele><time>2026-04-12T09:02:27.898Z</time></trkpt><trkpt lat="45.69777314758269" lon="8.70822711652966"><ele>291.5</ele><time>2026-04-12T09:02:28.898Z</time></trkpt><trkpt lat="45.697726398677645" lon="8.708127121416087"><ele>291.0</ele><time>2026-04-12T09:02:29.898Z</time></trkpt><trkpt lat="45.69767878028255" lon="8.708033831233529"><ele>290.5</ele><time>2026-04-12T09:02:30.898Z</time></trkpt><trkpt lat="45.69762093110749" lon="8.707939787778807"><ele>290.0</ele><time>2026-04-12T09:02:31.898Z</time></trkpt><trkpt lat="45.6975725907345" lon="8.707854343016155"><ele>289.5</ele><time>2026-04-12T09:02:32.897Z</time></trkpt><trkpt lat="45.6975251274526" lon="8.707770877934758"><ele>289.0</ele><time>2026-04-12T09:02:33.897Z</time></trkpt><trkpt lat="45.697478777902724" lon="8.707686571577044"><ele>287.7142857142857</ele><time>2026-04-12T09:02:34.897Z</time></trkpt><trkpt lat="45.697433404934934" lon="8.707597545403557"><ele>286.42857142857144</ele><time>2026-04-12T09:02:35.897Z</time></trkpt><trkpt lat="45.69738333445205" lon="8.707509840436993"><ele>285.1428571428571</ele><time>2026-04-12T09:02:36.897Z</time></trkpt><trkpt lat="45.697340018618924" lon="8.707426013752029"><ele>283.8571428571429</ele><time>2026-04-12T09:02:37.897Z</time></trkpt><trkpt lat="45.697296755395776" lon="8.707354748444981"><ele>282.57142857142856</ele><time>2026-04-12T09:02:38.897Z</time></trkpt><trkpt lat="45.697256671477916" lon="8.707267344040853"><ele>281.2857142857143</ele><time>2026-04-12T09:02:39.897Z</time></trkpt><trkpt lat="45.69721708386688" lon="8.70719398689599"><ele>280.0</ele><time>2026-04-12T09:02:40.897Z</time></trkpt><trkpt lat="45.69714938295426" lon="8.707082426840723"><ele>280.0</ele><time>2026-04-12T09:02:42.897Z</time></trkpt><trkpt lat="45.69709403981922" lon="8.70697581835351"><ele>280.0</ele><time>2026-04-12T09:02:44.897Z</time></trkpt><trkpt lat="45.697033726953116" lon="8.706884872766132"><ele>280.0</ele><time>2026-04-12T09:02:46.897Z</time></trkpt><trkpt lat="45.696991816355926" lon="8.706795520317993"><ele>280.0</ele><time>2026-04-12T09:02:47.897Z</time></trkpt><trkpt lat="45.696939339394156" lon="8.706668418518621"><ele>280.0</ele><time>2026-04-12T09:02:49.897Z</time></trkpt><trkpt lat="45.69688815443114" lon="8.70653193082181"><ele>280.16666666666663</ele><time>2026-04-12T09:02:51.897Z</time></trkpt><trkpt lat="45.69685132695847" lon="8.706446480710904"><ele>280.3333333333333</ele><time>2026-04-12T09:02:52.897Z</time></trkpt><trkpt lat="45.696806914066556" lon="8.706365043182494"><ele>280.5</ele><time>2026-04-12T09:02:53.897Z</time></trkpt><trkpt lat="45.69673360219342" lon="8.706209226375657"><ele>280.6666666666667</ele><time>2026-04-12T09:02:55.897Z</time></trkpt><trkpt lat="45.69668189944168" lon="8.706129756668854"><ele>280.83333333333337</ele><time>2026-04-12T09:02:56.897Z</time></trkpt><trkpt lat="45.69663682641009" lon="8.706049327527726"><ele>281.0</ele><time>2026-04-12T09:02:57.897Z</time></trkpt><trkpt lat="45.696601421291675" lon="8.705964883872442"><ele>281.0</ele><time>2026-04-12T09:02:58.897Z</time></trkpt><trkpt lat="45.696556839961666" lon="8.70589895252471"><ele>281.0</ele><time>2026-04-12T09:02:59.897Z</time></trkpt><trkpt lat="45.69648357903207" lon="8.705775009046757"><ele>281.0</ele><time>2026-04-12T09:03:01.897Z</time></trkpt><trkpt lat="45.6963983636052" lon="8.70557924331082"><ele>281.0</ele><time>2026-04-12T09:03:03.897Z</time></trkpt><trkpt lat="45.696348967668236" lon="8.705470903459656"><ele>281.0</ele><time>2026-04-12T09:03:04.897Z</time></trkpt><trkpt lat="45.69630429088616" lon="8.705368666965585"><ele>281.0</ele><time>2026-04-12T09:03:05.897Z</time></trkpt><trkpt lat="45.69626292361113" lon="8.705274605012363"><ele>281.0</ele><time>2026-04-12T09:03:06.896Z</time></trkpt><trkpt lat="45.69622645090073" lon="8.705179675474763"><ele>281.0</ele><time>2026-04-12T09:03:07.896Z</time></trkpt><trkpt lat="45.696181025476726" lon="8.705075962416613"><ele>281.0</ele><time>2026-04-12T09:03:08.896Z</time></trkpt><trkpt lat="45.69614024315704" lon="8.70496645434507"><ele>281.0</ele><time>2026-04-12T09:03:09.896Z</time></trkpt><trkpt lat="45.69610506657102" lon="8.704855446486373"><ele>281.0</ele><time>2026-04-12T09:03:10.896Z</time></trkpt><trkpt lat="45.69606745092215" lon="8.704749884704183"><ele>281.6666666666667</ele><time>2026-04-12T09:03:11.896Z</time></trkpt><trkpt lat="45.69602860036908" lon="8.704646290860234"><ele>282.33333333333337</ele><time>2026-04-12T09:03:12.896Z</time></trkpt><trkpt lat="45.69599736509637" lon="8.704533178691575"><ele>283.0</ele><time>2026-04-12T09:03:13.896Z</time></trkpt><trkpt lat="45.695959504841156" lon="8.704426603955847"><ele>283.6666666666667</ele><time>2026-04-12T09:03:14.896Z</time></trkpt><trkpt lat="45.69591451013688" lon="8.704342999297772"><ele>284.3333333333333</ele><time>2026-04-12T09:03:15.896Z</time></trkpt><trkpt lat="45.695867062792956" lon="8.70427725308557"><ele>285.0</ele><time>2026-04-12T09:03:16.896Z</time></trkpt><trkpt lat="45.695778099965516" lon="8.704139206551009"><ele>285.1666666666667</ele><time>2026-04-12T09:03:18.896Z</time></trkpt><trkpt lat="45.695728787834305" lon="8.704068313712554"><ele>285.3333333333333</ele><time>2026-04-12T09:03:19.896Z</time></trkpt><trkpt lat="45.69568602456792" lon="8.704000942168319"><ele>285.5</ele><time>2026-04-12T09:03:20.896Z</time></trkpt><trkpt lat="45.69562659313218" lon="8.703846483699335"><ele>285.66666666666663</ele><time>2026-04-12T09:03:22.896Z</time></trkpt><trkpt lat="45.69558532574411" lon="8.703680001615066"><ele>285.8333333333333</ele><time>2026-04-12T09:03:24.896Z</time></trkpt><trkpt lat="45.69557572789485" lon="8.703586334365129"><ele>286.0</ele><time>2026-04-12T09:03:25.896Z</time></trkpt><trkpt lat="45.695570454799004" lon="8.70348507796453"><ele>284.5</ele><time>2026-04-12T09:03:26.896Z</time></trkpt><trkpt lat="45.69557379827879" lon="8.70338083194594"><ele>283.0</ele><time>2026-04-12T09:03:27.896Z</time></trkpt><trkpt lat="45.69558431690636" lon="8.703272785716587"><ele>281.5</ele><time>2026-04-12T09:03:28.896Z</time></trkpt><trkpt lat="45.69558355838141" lon="8.70316645904065"><ele>280.0</ele><time>2026-04-12T09:03:29.896Z</time></trkpt><trkpt lat="45.69558456334387" lon="8.703020375612843"><ele>278.5</ele><time>2026-04-12T09:03:31.896Z</time></trkpt><trkpt lat="45.69558033634683" lon="8.702872116466226"><ele>277.0</ele><time>2026-04-12T09:03:33.896Z</time></trkpt><trkpt lat="45.69557538323675" lon="8.70275290185572"><ele>276.1428571428571</ele><time>2026-04-12T09:03:35.896Z</time></trkpt><trkpt lat="45.695571449183696" lon="8.70263884482456"><ele>275.2857142857143</ele><time>2026-04-12T09:03:37.896Z</time></trkpt><trkpt lat="45.69553639907915" lon="8.70254073857589"><ele>274.42857142857144</ele><time>2026-04-12T09:03:39.896Z</time></trkpt><trkpt lat="45.695499082539705" lon="8.702457091186375"><ele>273.57142857142856</ele><time>2026-04-12T09:03:41.895Z</time></trkpt><trkpt lat="45.69546708287" lon="8.70236963049544"><ele>272.7142857142857</ele><time>2026-04-12T09:03:42.895Z</time></trkpt><trkpt lat="45.69544180924926" lon="8.702282557196067"><ele>271.85714285714283</ele><time>2026-04-12T09:03:43.895Z</time></trkpt><trkpt lat="45.69541007376351" lon="8.702200480148063"><ele>271.0</ele><time>2026-04-12T09:03:44.895Z</time></trkpt><trkpt lat="45.695343170754825" lon="8.702038835664327"><ele>271.0</ele><time>2026-04-12T09:03:46.895Z</time></trkpt><trkpt lat="45.69530571830756" lon="8.70195388352469"><ele>271.0</ele><time>2026-04-12T09:03:47.895Z</time></trkpt><trkpt lat="45.69527271970704" lon="8.701876107243587"><ele>271.0</ele><time>2026-04-12T09:03:48.895Z</time></trkpt><trkpt lat="45.69524390351898" lon="8.7017847260312"><ele>271.0</ele><time>2026-04-12T09:03:49.895Z</time></trkpt><trkpt lat="45.695207265830575" lon="8.701702936220649"><ele>271.0</ele><time>2026-04-12T09:03:50.895Z</time></trkpt><trkpt lat="45.695179703807085" lon="8.701621199840076"><ele>271.0</ele><time>2026-04-12T09:03:51.895Z</time></trkpt><trkpt lat="45.695164168794314" lon="8.701466142237484"><ele>271.0</ele><time>2026-04-12T09:03:53.895Z</time></trkpt><trkpt lat="45.6951402994059" lon="8.701316407664152"><ele>272.0</ele><time>2026-04-12T09:03:55.895Z</time></trkpt><trkpt lat="45.69504555969598" lon="8.70125928931866"><ele>273.0</ele><time>2026-04-12T09:03:57.895Z</time></trkpt><trkpt lat="45.694942043272135" lon="8.701320655452317"><ele>274.0</ele><time>2026-04-12T09:03:59.895Z</time></trkpt><trkpt lat="45.69478535419264" lon="8.70144795823196"><ele>275.0</ele><time>2026-04-12T09:04:02.895Z</time></trkpt><trkpt lat="45.694672356737115" lon="8.701519297496409"><ele>275.0</ele><time>2026-04-12T09:04:04.895Z</time></trkpt><trkpt lat="45.6946066415313" lon="8.701546321515295"><ele>275.0</ele><time>2026-04-12T09:04:05.895Z</time></trkpt><trkpt lat="45.694492331448274" lon="8.701608891182019"><ele>275.0</ele><time>2026-04-12T09:04:07.895Z</time></trkpt><trkpt lat="45.69437920517714" lon="8.701682284643194"><ele>275.0</ele><time>2026-04-12T09:04:09.896Z</time></trkpt><trkpt lat="45.6942677940768" lon="8.701767177293751"><ele>275.0</ele><time>2026-04-12T09:04:11.896Z</time></trkpt><trkpt lat="45.69421134617637" lon="8.701809130486218"><ele>275.5</ele><time>2026-04-12T09:04:12.896Z</time></trkpt><trkpt lat="45.694148985895204" lon="8.701847150517116"><ele>276.0</ele><time>2026-04-12T09:04:13.896Z</time></trkpt><trkpt lat="45.694089976898766" lon="8.701881720649437"><ele>276.5</ele><time>2026-04-12T09:04:14.896Z</time></trkpt><trkpt lat="45.69397837955631" lon="8.701957561202272"><ele>277.0</ele><time>2026-04-12T09:04:16.896Z</time></trkpt><trkpt lat="45.69391633995182" lon="8.701995595923067"><ele>277.5</ele><time>2026-04-12T09:04:17.896Z</time></trkpt><trkpt lat="45.693856093790565" lon="8.70203470009155"><ele>278.0</ele><time>2026-04-12T09:04:18.896Z</time></trkpt><trkpt lat="45.6937951860835" lon="8.70207283405818"><ele>278.0</ele><time>2026-04-12T09:04:19.896Z</time></trkpt><trkpt lat="45.6936880402429" lon="8.70214370236753"><ele>278.0</ele><time>2026-04-12T09:04:21.895Z</time></trkpt><trkpt lat="45.69358064532255" lon="8.702230397906758"><ele>278.0</ele><time>2026-04-12T09:04:23.896Z</time></trkpt><trkpt lat="45.69351664816605" lon="8.702264367092779"><ele>278.0</ele><time>2026-04-12T09:04:24.896Z</time></trkpt><trkpt lat="45.69345330051664" lon="8.702302982373816"><ele>278.0</ele><time>2026-04-12T09:04:25.896Z</time></trkpt><trkpt lat="45.69338854574929" lon="8.70233869082571"><ele>278.0</ele><time>2026-04-12T09:04:26.896Z</time></trkpt><trkpt lat="45.6933338479669" lon="8.70238415825622"><ele>278.33333333333337</ele><time>2026-04-12T09:04:27.896Z</time></trkpt><trkpt lat="45.69321846399693" lon="8.702462876796"><ele>278.6666666666667</ele><time>2026-04-12T09:04:29.896Z</time></trkpt><trkpt lat="45.69315782336152" lon="8.702499056828918"><ele>279.0</ele><time>2026-04-12T09:04:30.896Z</time></trkpt><trkpt lat="45.69309698805791" lon="8.702538602090202"><ele>279.3333333333333</ele><time>2026-04-12T09:04:31.896Z</time></trkpt><trkpt lat="45.693035755959876" lon="8.70257732909754"><ele>279.66666666666663</ele><time>2026-04-12T09:04:32.896Z</time></trkpt><trkpt lat="45.69297299308337" lon="8.702618787573634"><ele>280.0</ele><time>2026-04-12T09:04:33.896Z</time></trkpt><trkpt lat="45.692862159629385" lon="8.702693612128584"><ele>280.0</ele><time>2026-04-12T09:04:35.895Z</time></trkpt><trkpt lat="45.69280024989244" lon="8.702723883180123"><ele>280.0</ele><time>2026-04-12T09:04:36.895Z</time></trkpt><trkpt lat="45.69269071972184" lon="8.702795166100794"><ele>280.0</ele><time>2026-04-12T09:04:38.895Z</time></trkpt><trkpt lat="45.69258406363559" lon="8.702858238964366"><ele>280.0</ele><time>2026-04-12T09:04:40.895Z</time></trkpt><trkpt lat="45.69246961361921" lon="8.702893392062515"><ele>280.0</ele><time>2026-04-12T09:04:42.895Z</time></trkpt><trkpt lat="45.69239321648058" lon="8.702890999332038"><ele>280.0</ele><time>2026-04-12T09:04:43.895Z</time></trkpt><trkpt lat="45.692318148372514" lon="8.702886289719494"><ele>280.0</ele><time>2026-04-12T09:04:44.895Z</time></trkpt><trkpt lat="45.69224701253432" lon="8.7028757383445"><ele>280.0</ele><time>2026-04-12T09:04:45.895Z</time></trkpt><trkpt lat="45.692116786289006" lon="8.702828273649882"><ele>280.0</ele><time>2026-04-12T09:04:47.895Z</time></trkpt><trkpt lat="45.69205006993426" lon="8.702798488415658"><ele>280.0</ele><time>2026-04-12T09:04:48.895Z</time></trkpt><trkpt lat="45.691988164593994" lon="8.702773767310399"><ele>280.0</ele><time>2026-04-12T09:04:49.895Z</time></trkpt><trkpt lat="45.69187029156975" lon="8.702724680410475"><ele>280.0</ele><time>2026-04-12T09:04:51.895Z</time></trkpt><trkpt lat="45.691808409785786" lon="8.70270318425175"><ele>280.0</ele><time>2026-04-12T09:04:52.895Z</time></trkpt><trkpt lat="45.6917419617099" lon="8.702681061305169"><ele>280.0</ele><time>2026-04-12T09:04:53.895Z</time></trkpt><trkpt lat="45.69162062446044" lon="8.702648323004137"><ele>280.0</ele><time>2026-04-12T09:04:55.895Z</time></trkpt><trkpt lat="45.691506231704835" lon="8.702648965253076"><ele>280.0</ele><time>2026-04-12T09:04:57.895Z</time></trkpt><trkpt lat="45.69143268053999" lon="8.70265659027409"><ele>280.0</ele><time>2026-04-12T09:04:59.895Z</time></trkpt><trkpt lat="45.691344185315714" lon="8.70269234069226"><ele>280.0</ele><time>2026-04-12T09:05:01.895Z</time></trkpt><trkpt lat="45.691257067941315" lon="8.70272955564707"><ele>280.0</ele><time>2026-04-12T09:05:03.895Z</time></trkpt><trkpt lat="45.691164799365325" lon="8.702749812638535"><ele>280.0</ele><time>2026-04-12T09:05:05.895Z</time></trkpt><trkpt lat="45.691059594843814" lon="8.702763077130479"><ele>280.0</ele><time>2026-04-12T09:05:07.895Z</time></trkpt><trkpt lat="45.69096486241996" lon="8.702786763944438"><ele>280.0</ele><time>2026-04-12T09:05:09.894Z</time></trkpt><trkpt lat="45.69086860172505" lon="8.702777858880705"><ele>280.0</ele><time>2026-04-12T09:05:11.894Z</time></trkpt><trkpt lat="45.69077745457489" lon="8.702745059833802"><ele>280.0</ele><time>2026-04-12T09:05:13.894Z</time></trkpt><trkpt lat="45.69069297697335" lon="8.702687892360318"><ele>280.0</ele><time>2026-04-12T09:05:15.894Z</time></trkpt><trkpt lat="45.69059953421412" lon="8.702611206014367"><ele>280.0</ele><time>2026-04-12T09:05:17.894Z</time></trkpt><trkpt lat="45.69053798721898" lon="8.702565413331804"><ele>280.0</ele><time>2026-04-12T09:05:18.894Z</time></trkpt><trkpt lat="45.6904761710888" lon="8.702507711680097"><ele>280.0</ele><time>2026-04-12T09:05:19.894Z</time></trkpt><trkpt lat="45.69041576741093" lon="8.702443750894494"><ele>280.0</ele><time>2026-04-12T09:05:20.894Z</time></trkpt><trkpt lat="45.690344739566115" lon="8.702380409551925"><ele>280.0</ele><time>2026-04-12T09:05:21.894Z</time></trkpt><trkpt lat="45.69027761806449" lon="8.702327494032378"><ele>280.0</ele><time>2026-04-12T09:05:22.894Z</time></trkpt><trkpt lat="45.69019938673047" lon="8.702287471634618"><ele>280.0</ele><time>2026-04-12T09:05:23.894Z</time></trkpt><trkpt lat="45.690117088397784" lon="8.702261311324216"><ele>280.0</ele><time>2026-04-12T09:05:24.894Z</time></trkpt><trkpt lat="45.69003365935686" lon="8.70224593891554"><ele>280.0</ele><time>2026-04-12T09:05:25.894Z</time></trkpt><trkpt lat="45.689948034790945" lon="8.702237556301789"><ele>279.57142857142856</ele><time>2026-04-12T09:05:26.894Z</time></trkpt><trkpt lat="45.68986289935369" lon="8.702230901031083"><ele>279.1428571428571</ele><time>2026-04-12T09:05:27.894Z</time></trkpt><trkpt lat="45.68978656355034" lon="8.70222821471722"><ele>278.7142857142857</ele><time>2026-04-12T09:05:28.894Z</time></trkpt><trkpt lat="45.6897120941903" lon="8.702215057960547"><ele>278.2857142857143</ele><time>2026-04-12T09:05:29.894Z</time></trkpt><trkpt lat="45.68964263644269" lon="8.702203439779096"><ele>277.85714285714283</ele><time>2026-04-12T09:05:30.894Z</time></trkpt><trkpt lat="45.6895692026169" lon="8.702190482027744"><ele>277.42857142857144</ele><time>2026-04-12T09:05:31.894Z</time></trkpt><trkpt lat="45.68950648047929" lon="8.702180822150607"><ele>277.0</ele><time>2026-04-12T09:05:32.894Z</time></trkpt><trkpt lat="45.689440651220444" lon="8.702162554436145"><ele>277.0</ele><time>2026-04-12T09:05:33.894Z</time></trkpt><trkpt lat="45.68932602304963" lon="8.702122336472318"><ele>277.0</ele><time>2026-04-12T09:05:35.894Z</time></trkpt><trkpt lat="45.68919512815154" lon="8.702101918197076"><ele>277.0</ele><time>2026-04-12T09:05:37.894Z</time></trkpt><trkpt lat="45.689125096356335" lon="8.7020991218327"><ele>277.0</ele><time>2026-04-12T09:05:38.894Z</time></trkpt><trkpt lat="45.68905418056772" lon="8.702095413556988"><ele>277.0</ele><time>2026-04-12T09:05:39.894Z</time></trkpt><trkpt lat="45.68897266659302" lon="8.702090513634463"><ele>277.0</ele><time>2026-04-12T09:05:40.894Z</time></trkpt><trkpt lat="45.688889522729674" lon="8.70208437520588"><ele>277.0</ele><time>2026-04-12T09:05:41.894Z</time></trkpt><trkpt lat="45.688808752504215" lon="8.702080722755593"><ele>277.0</ele><time>2026-04-12T09:05:42.894Z</time></trkpt><trkpt lat="45.68872516202923" lon="8.70207142011274"><ele>277.0</ele><time>2026-04-12T09:05:43.893Z</time></trkpt><trkpt lat="45.68864817814962" lon="8.70206677142193"><ele>277.0</ele><time>2026-04-12T09:05:44.893Z</time></trkpt><trkpt lat="45.68858140136028" lon="8.702064312685351"><ele>277.0</ele><time>2026-04-12T09:05:45.893Z</time></trkpt><trkpt lat="45.68850756589838" lon="8.702056333429464"><ele>277.0</ele><time>2026-04-12T09:05:46.893Z</time></trkpt><trkpt lat="45.688381257416786" lon="8.702047057435882"><ele>277.0</ele><time>2026-04-12T09:05:48.893Z</time></trkpt><trkpt lat="45.68830211183794" lon="8.702037491930165"><ele>277.0</ele><time>2026-04-12T09:05:49.893Z</time></trkpt><trkpt lat="45.68822448491423" lon="8.7020370047659"><ele>277.0</ele><time>2026-04-12T09:05:50.893Z</time></trkpt><trkpt lat="45.68815216930151" lon="8.70203382233949"><ele>277.0</ele><time>2026-04-12T09:05:51.893Z</time></trkpt><trkpt lat="45.68806921980204" lon="8.702033469585299"><ele>277.0</ele><time>2026-04-12T09:05:52.893Z</time></trkpt><trkpt lat="45.687992912950946" lon="8.702033298989203"><ele>277.0</ele><time>2026-04-12T09:05:53.893Z</time></trkpt><trkpt lat="45.68790718957864" lon="8.702033712715728"><ele>277.0</ele><time>2026-04-12T09:05:54.893Z</time></trkpt><trkpt lat="45.68782769066458" lon="8.702031421436095"><ele>277.0</ele><time>2026-04-12T09:05:55.893Z</time></trkpt><trkpt lat="45.68774958966862" lon="8.702027132203149"><ele>277.0</ele><time>2026-04-12T09:05:56.893Z</time></trkpt><trkpt lat="45.687668615602306" lon="8.702019284821805"><ele>277.0</ele><time>2026-04-12T09:05:57.893Z</time></trkpt><trkpt lat="45.68758341032266" lon="8.702012990541416"><ele>277.0</ele><time>2026-04-12T09:05:58.893Z</time></trkpt><trkpt lat="45.68750724579917" lon="8.70201476919721"><ele>277.5</ele><time>2026-04-12T09:05:59.893Z</time></trkpt><trkpt lat="45.68744107183897" lon="8.702022442637848"><ele>278.0</ele><time>2026-04-12T09:06:00.893Z</time></trkpt><trkpt lat="45.68735580532649" lon="8.702026157577544"><ele>278.5</ele><time>2026-04-12T09:06:01.893Z</time></trkpt><trkpt lat="45.687219053076525" lon="8.702041766992851"><ele>279.0</ele><time>2026-04-12T09:06:03.893Z</time></trkpt><trkpt lat="45.68714427736882" lon="8.702052366971792"><ele>279.5</ele><time>2026-04-12T09:06:04.893Z</time></trkpt><trkpt lat="45.687065840002376" lon="8.70205332605979"><ele>280.0</ele><time>2026-04-12T09:06:05.893Z</time></trkpt><trkpt lat="45.68698349246672" lon="8.702056995540044"><ele>279.66666666666663</ele><time>2026-04-12T09:06:06.893Z</time></trkpt><trkpt lat="45.68690553969342" lon="8.702064351523703"><ele>279.3333333333333</ele><time>2026-04-12T09:06:07.893Z</time></trkpt><trkpt lat="45.68681514586155" lon="8.702065296409103"><ele>279.0</ele><time>2026-04-12T09:06:08.893Z</time></trkpt><trkpt lat="45.68673911035954" lon="8.70206932275002"><ele>278.6666666666667</ele><time>2026-04-12T09:06:09.893Z</time></trkpt><trkpt lat="45.686660769952724" lon="8.702082866659419"><ele>278.33333333333337</ele><time>2026-04-12T09:06:10.893Z</time></trkpt><trkpt lat="45.686588735004726" lon="8.702084613307582"><ele>278.0</ele><time>2026-04-12T09:06:11.893Z</time></trkpt><trkpt lat="45.68651456580558" lon="8.702084714802282"><ele>278.0</ele><time>2026-04-12T09:06:12.893Z</time></trkpt><trkpt lat="45.68644368496849" lon="8.702077169586529"><ele>278.0</ele><time>2026-04-12T09:06:13.893Z</time></trkpt><trkpt lat="45.68630607224566" lon="8.702082365029385"><ele>278.0</ele><time>2026-04-12T09:06:15.893Z</time></trkpt><trkpt lat="45.68622777881671" lon="8.702085410020917"><ele>278.0</ele><time>2026-04-12T09:06:16.894Z</time></trkpt><trkpt lat="45.686153671890466" lon="8.702084574996535"><ele>278.0</ele><time>2026-04-12T09:06:17.894Z</time></trkpt><trkpt lat="45.686084002451565" lon="8.702081881805539"><ele>278.0</ele><time>2026-04-12T09:06:18.893Z</time></trkpt><trkpt lat="45.686010165140004" lon="8.702081501218693"><ele>277.83333333333337</ele><time>2026-04-12T09:06:19.893Z</time></trkpt><trkpt lat="45.68593778999915" lon="8.702078671251959"><ele>277.6666666666667</ele><time>2026-04-12T09:06:20.893Z</time></trkpt><trkpt lat="45.68584004272564" lon="8.702096532386948"><ele>277.5</ele><time>2026-04-12T09:06:22.893Z</time></trkpt><trkpt lat="45.685754527266596" lon="8.702094744049777"><ele>277.3333333333333</ele><time>2026-04-12T09:06:25.894Z</time></trkpt><trkpt lat="45.68569217538692" lon="8.70212972645961"><ele>277.16666666666663</ele><time>2026-04-12T09:06:27.894Z</time></trkpt><trkpt lat="45.68566042898203" lon="8.702231302103005"><ele>277.0</ele><time>2026-04-12T09:06:29.893Z</time></trkpt><trkpt lat="45.68565016412418" lon="8.702341905050307"><ele>277.0</ele><time>2026-04-12T09:06:31.893Z</time></trkpt><trkpt lat="45.68561885644435" lon="8.702425853938943"><ele>277.0</ele><time>2026-04-12T09:06:34.893Z</time></trkpt><trkpt lat="45.685663544651675" lon="8.70254888811461"><ele>277.0</ele><time>2026-04-12T09:06:37.893Z</time></trkpt><trkpt lat="45.68567956909521" lon="8.702675714481234"><ele>277.0</ele><time>2026-04-12T09:06:39.893Z</time></trkpt><trkpt lat="45.685692483784756" lon="8.702824018688647"><ele>277.0</ele><time>2026-04-12T09:06:41.893Z</time></trkpt><trkpt lat="45.6857202782" lon="8.702976611603098"><ele>277.42857142857144</ele><time>2026-04-12T09:06:43.893Z</time></trkpt><trkpt lat="45.685731721745015" lon="8.703065681722135"><ele>277.85714285714283</ele><time>2026-04-12T09:06:44.893Z</time></trkpt><trkpt lat="45.685745706585905" lon="8.703155674629027"><ele>278.2857142857143</ele><time>2026-04-12T09:06:45.893Z</time></trkpt><trkpt lat="45.68576370215467" lon="8.703258949638139"><ele>278.7142857142857</ele><time>2026-04-12T09:06:46.893Z</time></trkpt><trkpt lat="45.68577755690172" lon="8.703363476392175"><ele>279.1428571428571</ele><time>2026-04-12T09:06:47.893Z</time></trkpt><trkpt lat="45.68579179982" lon="8.703463065998893"><ele>279.57142857142856</ele><time>2026-04-12T09:06:48.893Z</time></trkpt><trkpt lat="45.68580006614742" lon="8.703559896111653"><ele>280.0</ele><time>2026-04-12T09:06:49.893Z</time></trkpt><trkpt lat="45.68581382379438" lon="8.703650833766785"><ele>280.3333333333333</ele><time>2026-04-12T09:06:50.893Z</time></trkpt><trkpt lat="45.68583640183734" lon="8.703743770556125"><ele>280.66666666666663</ele><time>2026-04-12T09:06:51.893Z</time></trkpt><trkpt lat="45.68585743013123" lon="8.703931593301773"><ele>281.0</ele><time>2026-04-12T09:06:53.893Z</time></trkpt><trkpt lat="45.68587343483142" lon="8.704026065061434"><ele>281.3333333333333</ele><time>2026-04-12T09:06:54.893Z</time></trkpt><trkpt lat="45.6858842687731" lon="8.704117033818703"><ele>281.6666666666667</ele><time>2026-04-12T09:06:55.893Z</time></trkpt><trkpt lat="45.68590405910463" lon="8.704205102136953"><ele>282.0</ele><time>2026-04-12T09:06:56.892Z</time></trkpt><trkpt lat="45.68592417165098" lon="8.704381359273253"><ele>282.3333333333333</ele><time>2026-04-12T09:06:58.892Z</time></trkpt><trkpt lat="45.685893006959375" lon="8.704545969453118"><ele>282.6666666666667</ele><time>2026-04-12T09:07:00.892Z</time></trkpt><trkpt lat="45.68589449146026" lon="8.704636766059062"><ele>283.0</ele><time>2026-04-12T09:07:01.892Z</time></trkpt><trkpt lat="45.685899835865605" lon="8.704737262917728"><ele>283.33333333333337</ele><time>2026-04-12T09:07:02.892Z</time></trkpt><trkpt lat="45.685894389733996" lon="8.704853452039547"><ele>283.6666666666667</ele><time>2026-04-12T09:07:03.892Z</time></trkpt><trkpt lat="45.68589098588121" lon="8.704973723681112"><ele>284.0</ele><time>2026-04-12T09:07:04.892Z</time></trkpt><trkpt lat="45.68582273133129" lon="8.705101536409781"><ele>284.0</ele><time>2026-04-12T09:07:06.892Z</time></trkpt><trkpt lat="45.68575630679205" lon="8.705129313688744"><ele>284.0</ele><time>2026-04-12T09:07:07.892Z</time></trkpt><trkpt lat="45.68569375736621" lon="8.705148300858799"><ele>284.0</ele><time>2026-04-12T09:07:08.892Z</time></trkpt><trkpt lat="45.68560581652064" lon="8.70520535069339"><ele>284.0</ele><time>2026-04-12T09:07:10.892Z</time></trkpt><trkpt lat="45.68551807610068" lon="8.705323850286609"><ele>284.0</ele><time>2026-04-12T09:07:12.892Z</time></trkpt><trkpt lat="45.6854169349509" lon="8.705400900786104"><ele>284.6666666666667</ele><time>2026-04-12T09:07:14.892Z</time></trkpt><trkpt lat="45.68533728142692" lon="8.705499443286897"><ele>285.33333333333337</ele><time>2026-04-12T09:07:16.892Z</time></trkpt><trkpt lat="45.68531307103288" lon="8.705617746362597"><ele>286.0</ele><time>2026-04-12T09:07:18.892Z</time></trkpt><trkpt lat="45.68532250400863" lon="8.705742207097392"><ele>286.6666666666667</ele><time>2026-04-12T09:07:20.892Z</time></trkpt><trkpt lat="45.68532767503123" lon="8.70583539650129"><ele>287.3333333333333</ele><time>2026-04-12T09:07:22.892Z</time></trkpt><trkpt lat="45.6852942007293" lon="8.705916802988666"><ele>288.0</ele><time>2026-04-12T09:07:26.892Z</time></trkpt><trkpt lat="45.68522155988857" lon="8.705926285385697"><ele>288.42857142857144</ele><time>2026-04-12T09:07:31.891Z</time></trkpt><trkpt lat="45.685150252654275" lon="8.705929720106015"><ele>288.8571428571429</ele><time>2026-04-12T09:08:45.89Z</time></trkpt><trkpt lat="45.685173875288754" lon="8.705846027980156"><ele>289.2857142857143</ele><time>2026-04-12T09:09:06.89Z</time></trkpt><trkpt lat="45.68515917573757" lon="8.705750788929986"><ele>289.7142857142857</ele><time>2026-04-12T09:10:47.888Z</time></trkpt><trkpt lat="45.685133283263156" lon="8.705842215296782"><ele>290.1428571428571</ele><time>2026-04-12T09:11:11.887Z</time></trkpt><trkpt lat="45.68510269184768" lon="8.705937376227824"><ele>290.57142857142856</ele><time>2026-04-12T09:11:21.887Z</time></trkpt><trkpt lat="45.68505877102659" lon="8.706007780556043"><ele>291.0</ele><time>2026-04-12T09:12:22.885Z</time></trkpt><trkpt lat="45.68500169008488" lon="8.70605474424065"><ele>291.0</ele><time>2026-04-12T09:12:34.885Z</time></trkpt><trkpt lat="45.68493097522194" lon="8.706070680534948"><ele>291.0</ele><time>2026-04-12T09:12:39.887Z</time></trkpt><trkpt lat="45.684856453481274" lon="8.706098072951786"><ele>291.0</ele><time>2026-04-12T09:12:44.886Z</time></trkpt><trkpt lat="45.6847864216071" lon="8.70610787717701"><ele>291.0</ele><time>2026-04-12T09:12:49.886Z</time></trkpt><trkpt lat="45.684722359579645" lon="8.706101111417594"><ele>291.0</ele><time>2026-04-12T09:12:55.886Z</time></trkpt><trkpt lat="45.68465705152412" lon="8.706112236390833"><ele>291.0</ele><time>2026-04-12T09:13:22.885Z</time></trkpt><trkpt lat="45.68459288569426" lon="8.706158833743654"><ele>291.0</ele><time>2026-04-12T09:13:28.885Z</time></trkpt><trkpt lat="45.684530095921566" lon="8.706189160940784"><ele>290.5</ele><time>2026-04-12T09:13:32.885Z</time></trkpt><trkpt lat="45.68444963038265" lon="8.70622601385708"><ele>290.0</ele><time>2026-04-12T09:13:38.885Z</time></trkpt><trkpt lat="45.684368701641766" lon="8.706275363786338"><ele>289.5</ele><time>2026-04-12T09:13:42.885Z</time></trkpt><trkpt lat="45.68428331921855" lon="8.70631748048528"><ele>289.0</ele><time>2026-04-12T09:13:44.885Z</time></trkpt><trkpt lat="45.684232864889175" lon="8.706381897803604"><ele>288.5</ele><time>2026-04-12T09:13:46.885Z</time></trkpt><trkpt lat="45.684197496816964" lon="8.706477870051314"><ele>288.0</ele><time>2026-04-12T09:13:49.884Z</time></trkpt><trkpt lat="45.68413911894045" lon="8.706586767048229"><ele>288.0</ele><time>2026-04-12T09:13:51.884Z</time></trkpt><trkpt lat="45.684087774791635" lon="8.706681383851684"><ele>288.0</ele><time>2026-04-12T09:13:53.884Z</time></trkpt><trkpt lat="45.68399641743447" lon="8.706781768622015"><ele>288.0</ele><time>2026-04-12T09:13:55.884Z</time></trkpt><trkpt lat="45.68391404582302" lon="8.706880503757747"><ele>288.0</ele><time>2026-04-12T09:13:57.884Z</time></trkpt><trkpt lat="45.68386837991831" lon="8.706974675586519"><ele>288.0</ele><time>2026-04-12T09:13:59.884Z</time></trkpt><trkpt lat="45.68382220528591" lon="8.707086274312829"><ele>287.8</ele><time>2026-04-12T09:14:01.884Z</time></trkpt><trkpt lat="45.68373478986339" lon="8.707160499414917"><ele>287.6</ele><time>2026-04-12T09:14:03.884Z</time></trkpt><trkpt lat="45.68366704126124" lon="8.70724711394295"><ele>287.4</ele><time>2026-04-12T09:14:05.884Z</time></trkpt><trkpt lat="45.68360922071593" lon="8.707314165307537"><ele>287.2</ele><time>2026-04-12T09:14:07.884Z</time></trkpt><trkpt lat="45.68352835343338" lon="8.707412231947574"><ele>287.0</ele><time>2026-04-12T09:14:09.884Z</time></trkpt><trkpt lat="45.68348267934286" lon="8.70754145080702"><ele>286.8</ele><time>2026-04-12T09:14:11.884Z</time></trkpt><trkpt lat="45.68344210290823" lon="8.70766868499902"><ele>286.6</ele><time>2026-04-12T09:14:13.884Z</time></trkpt><trkpt lat="45.68341868535265" lon="8.707821477962582"><ele>286.40000000000003</ele><time>2026-04-12T09:14:15.884Z</time></trkpt><trkpt lat="45.683393408285205" lon="8.707966163152037"><ele>286.2</ele><time>2026-04-12T09:14:17.884Z</time></trkpt><trkpt lat="45.68336072489594" lon="8.708121339294706"><ele>286.0</ele><time>2026-04-12T09:14:19.884Z</time></trkpt><trkpt lat="45.683319381261114" lon="8.708268367112348"><ele>285.8</ele><time>2026-04-12T09:14:21.883Z</time></trkpt><trkpt lat="45.68327844170634" lon="8.708428093203153"><ele>285.6</ele><time>2026-04-12T09:14:23.883Z</time></trkpt><trkpt lat="45.683256261266855" lon="8.7085143064353"><ele>285.4</ele><time>2026-04-12T09:14:24.883Z</time></trkpt><trkpt lat="45.68320969220304" lon="8.708684738250069"><ele>285.2</ele><time>2026-04-12T09:14:26.883Z</time></trkpt><trkpt lat="45.68318494654922" lon="8.708773526514408"><ele>285.0</ele><time>2026-04-12T09:14:27.883Z</time></trkpt><trkpt lat="45.683137639504984" lon="8.708940900736257"><ele>285.0</ele><time>2026-04-12T09:14:29.883Z</time></trkpt><trkpt lat="45.68309019903099" lon="8.709029461944672"><ele>285.0</ele><time>2026-04-12T09:14:30.883Z</time></trkpt><trkpt lat="45.683074079241116" lon="8.709120653620351"><ele>285.0</ele><time>2026-04-12T09:14:31.883Z</time></trkpt><trkpt lat="45.68303241418183" lon="8.709285678851487"><ele>285.0</ele><time>2026-04-12T09:14:33.883Z</time></trkpt><trkpt lat="45.68299646056309" lon="8.709366353075868"><ele>285.0</ele><time>2026-04-12T09:14:34.883Z</time></trkpt><trkpt lat="45.68294492813415" lon="8.709527605001853"><ele>285.0</ele><time>2026-04-12T09:14:36.883Z</time></trkpt><trkpt lat="45.68289652430201" lon="8.7096736156856"><ele>285.0</ele><time>2026-04-12T09:14:38.883Z</time></trkpt><trkpt lat="45.68286303874956" lon="8.709811651937466"><ele>285.0</ele><time>2026-04-12T09:14:40.883Z</time></trkpt><trkpt lat="45.68285004168977" lon="8.709948838350812"><ele>285.0</ele><time>2026-04-12T09:14:42.885Z</time></trkpt><trkpt lat="45.682822801604615" lon="8.710087206890346"><ele>285.0</ele><time>2026-04-12T09:14:44.884Z</time></trkpt><trkpt lat="45.68279808399667" lon="8.710198983211246"><ele>285.0</ele><time>2026-04-12T09:14:46.885Z</time></trkpt><trkpt lat="45.68272513348493" lon="8.710254714793962"><ele>285.0</ele><time>2026-04-12T09:14:48.884Z</time></trkpt><trkpt lat="45.682659283243964" lon="8.710264616624515"><ele>285.0</ele><time>2026-04-12T09:14:53.884Z</time></trkpt><trkpt lat="45.682583937291945" lon="8.710285902316862"><ele>285.0</ele><time>2026-04-12T09:14:57.884Z</time></trkpt><trkpt lat="45.68249580709879" lon="8.710331170369155"><ele>285.0</ele><time>2026-04-12T09:15:00.884Z</time></trkpt><trkpt lat="45.682414553130144" lon="8.710322072351618"><ele>285.0</ele><time>2026-04-12T09:15:02.884Z</time></trkpt><trkpt lat="45.682313167207965" lon="8.710293403021888"><ele>285.0</ele><time>2026-04-12T09:15:04.884Z</time></trkpt><trkpt lat="45.68219109281664" lon="8.710275294897249"><ele>285.0</ele><time>2026-04-12T09:15:06.884Z</time></trkpt><trkpt lat="45.6820813589209" lon="8.71026083271466"><ele>285.0</ele><time>2026-04-12T09:15:08.884Z</time></trkpt><trkpt lat="45.681962970611586" lon="8.710220378371865"><ele>285.0</ele><time>2026-04-12T09:15:10.884Z</time></trkpt><trkpt lat="45.68185189785696" lon="8.710164028648302"><ele>284.4</ele><time>2026-04-12T09:15:12.883Z</time></trkpt><trkpt lat="45.681726461920725" lon="8.710114113742694"><ele>283.8</ele><time>2026-04-12T09:15:14.883Z</time></trkpt><trkpt lat="45.68159326743245" lon="8.710043637232765"><ele>283.2</ele><time>2026-04-12T09:15:16.883Z</time></trkpt><trkpt lat="45.68149779785011" lon="8.710087544930886"><ele>282.6</ele><time>2026-04-12T09:15:18.883Z</time></trkpt><trkpt lat="45.68144655487719" lon="8.71015518190679"><ele>282.0</ele><time>2026-04-12T09:15:19.883Z</time></trkpt><trkpt lat="45.6813768201917" lon="8.710292924943975"><ele>281.8333333333333</ele><time>2026-04-12T09:15:21.883Z</time></trkpt><trkpt lat="45.68135133635073" lon="8.710377441282944"><ele>281.6666666666667</ele><time>2026-04-12T09:15:22.883Z</time></trkpt><trkpt lat="45.68130426355468" lon="8.710538261074003"><ele>281.5</ele><time>2026-04-12T09:15:24.883Z</time></trkpt><trkpt lat="45.6812693241664" lon="8.710668986810203"><ele>281.33333333333337</ele><time>2026-04-12T09:15:26.883Z</time></trkpt><trkpt lat="45.68122360673984" lon="8.710771878547677"><ele>281.1666666666667</ele><time>2026-04-12T09:15:28.883Z</time></trkpt><trkpt lat="45.68114915146719" lon="8.71077164587158"><ele>281.0</ele><time>2026-04-12T09:15:30.883Z</time></trkpt><trkpt lat="45.681078952284004" lon="8.71069866928652"><ele>280.6666666666667</ele><time>2026-04-12T09:15:32.883Z</time></trkpt><trkpt lat="45.681010062278986" lon="8.710642659328546"><ele>280.33333333333337</ele><time>2026-04-12T09:15:34.883Z</time></trkpt><trkpt lat="45.68092777837378" lon="8.710596075888246"><ele>280.0</ele><time>2026-04-12T09:15:36.883Z</time></trkpt><trkpt lat="45.68085906987135" lon="8.710544159264288"><ele>279.6666666666667</ele><time>2026-04-12T09:15:38.883Z</time></trkpt><trkpt lat="45.68079029392098" lon="8.710586889456211"><ele>279.3333333333333</ele><time>2026-04-12T09:15:41.883Z</time></trkpt><trkpt lat="45.68076439513477" lon="8.710673936236667"><ele>279.0</ele><time>2026-04-12T09:15:44.883Z</time></trkpt><trkpt lat="45.68070556641647" lon="8.710781947464259"><ele>279.0</ele><time>2026-04-12T09:15:46.882Z</time></trkpt><trkpt lat="45.68065520966886" lon="8.710894688367448"><ele>279.0</ele><time>2026-04-12T09:15:48.882Z</time></trkpt><trkpt lat="45.68062381494069" lon="8.710991886902912"><ele>279.0</ele><time>2026-04-12T09:15:50.882Z</time></trkpt><trkpt lat="45.68056543706248" lon="8.711103182197895"><ele>279.0</ele><time>2026-04-12T09:15:53.882Z</time></trkpt><trkpt lat="45.68053398973644" lon="8.711210712827796"><ele>279.0</ele><time>2026-04-12T09:15:55.882Z</time></trkpt><trkpt lat="45.68049644628323" lon="8.71131299901093"><ele>279.0</ele><time>2026-04-12T09:15:57.882Z</time></trkpt><trkpt lat="45.680465411140574" lon="8.711406212361112"><ele>279.1666666666667</ele><time>2026-04-12T09:15:59.882Z</time></trkpt><trkpt lat="45.68043200059398" lon="8.711527111316721"><ele>279.3333333333333</ele><time>2026-04-12T09:17:40.88Z</time></trkpt><trkpt lat="45.680505294531166" lon="8.711583316083333"><ele>279.5</ele><time>2026-04-12T09:17:45.88Z</time></trkpt><trkpt lat="45.680596856693576" lon="8.71159990644117"><ele>279.66666666666663</ele><time>2026-04-12T09:17:49.88Z</time></trkpt><trkpt lat="45.6806772980912" lon="8.711650312515319"><ele>279.8333333333333</ele><time>2026-04-12T09:17:52.88Z</time></trkpt><trkpt lat="45.680743674359086" lon="8.711647919379308"><ele>280.0</ele><time>2026-04-12T09:17:54.88Z</time></trkpt><trkpt lat="45.68082280536906" lon="8.711601096780123"><ele>280.0</ele><time>2026-04-12T09:17:57.88Z</time></trkpt><trkpt lat="45.680854985215795" lon="8.711519027619671"><ele>280.0</ele><time>2026-04-12T09:18:00.879Z</time></trkpt><trkpt lat="45.68090791173328" lon="8.711435497641679"><ele>280.0</ele><time>2026-04-12T09:18:03.879Z</time></trkpt><trkpt lat="45.68097789260398" lon="8.71148420380317"><ele>280.0</ele><time>2026-04-12T09:18:06.879Z</time></trkpt><trkpt lat="45.68108004706314" lon="8.711554373751675"><ele>280.0</ele><time>2026-04-12T09:18:08.879Z</time></trkpt><trkpt lat="45.68119018913527" lon="8.71160151556636"><ele>280.6</ele><time>2026-04-12T09:18:10.879Z</time></trkpt><trkpt lat="45.68129949672638" lon="8.711648216070783"><ele>281.2</ele><time>2026-04-12T09:18:12.879Z</time></trkpt><trkpt lat="45.68139717588052" lon="8.711700437703568"><ele>281.8</ele><time>2026-04-12T09:18:14.879Z</time></trkpt><trkpt lat="45.681488833572104" lon="8.711737083867037"><ele>282.4</ele><time>2026-04-12T09:18:16.879Z</time></trkpt><trkpt lat="45.68154866486423" lon="8.7117734541352"><ele>283.0</ele><time>2026-04-12T09:18:17.879Z</time></trkpt><trkpt lat="45.681616382266" lon="8.711830922410833"><ele>283.0</ele><time>2026-04-12T09:18:18.879Z</time></trkpt><trkpt lat="45.68166888073888" lon="8.711882713424904"><ele>283.0</ele><time>2026-04-12T09:18:19.879Z</time></trkpt><trkpt lat="45.68173227339016" lon="8.711904148054703"><ele>283.0</ele><time>2026-04-12T09:18:20.879Z</time></trkpt><trkpt lat="45.68180357185115" lon="8.711928404234618"><ele>283.0</ele><time>2026-04-12T09:18:21.879Z</time></trkpt><trkpt lat="45.68191744662789" lon="8.711936072163692"><ele>283.0</ele><time>2026-04-12T09:18:23.879Z</time></trkpt><trkpt lat="45.681968310245004" lon="8.711990950708051"><ele>283.0</ele><time>2026-04-12T09:18:24.879Z</time></trkpt><trkpt lat="45.68201995879193" lon="8.712054938474328"><ele>283.0</ele><time>2026-04-12T09:18:25.879Z</time></trkpt><trkpt lat="45.68210645811749" lon="8.712108623868172"><ele>283.2</ele><time>2026-04-12T09:18:27.879Z</time></trkpt><trkpt lat="45.68218042268634" lon="8.712152703313837"><ele>283.4</ele><time>2026-04-12T09:18:29.879Z</time></trkpt><trkpt lat="45.68217748318553" lon="8.712441333416567"><ele>283.59999999999997</ele><time>2026-04-12T09:18:34.878Z</time></trkpt><trkpt lat="45.682162340357834" lon="8.71253067028868"><ele>283.8</ele><time>2026-04-12T09:18:35.878Z</time></trkpt><trkpt lat="45.682142527352006" lon="8.712635298561684"><ele>284.0</ele><time>2026-04-12T09:18:36.878Z</time></trkpt><trkpt lat="45.68212392871794" lon="8.712731248636038"><ele>283.33333333333337</ele><time>2026-04-12T09:18:37.878Z</time></trkpt><trkpt lat="45.68210485307206" lon="8.712825449503352"><ele>282.6666666666667</ele><time>2026-04-12T09:18:38.878Z</time></trkpt><trkpt lat="45.682090017300844" lon="8.712917859454981"><ele>282.0</ele><time>2026-04-12T09:18:39.879Z</time></trkpt><trkpt lat="45.682046049618506" lon="8.713085626291647"><ele>281.3333333333333</ele><time>2026-04-12T09:18:41.88Z</time></trkpt><trkpt lat="45.68202045305739" lon="8.713172973610861"><ele>280.66666666666663</ele><time>2026-04-12T09:18:42.881Z</time></trkpt><trkpt lat="45.68199759033836" lon="8.713273473158337"><ele>280.0</ele><time>2026-04-12T09:18:43.881Z</time></trkpt><trkpt lat="45.68198091606358" lon="8.713380470732378"><ele>280.0</ele><time>2026-04-12T09:18:44.882Z</time></trkpt><trkpt lat="45.68196566983538" lon="8.713481618480072"><ele>280.0</ele><time>2026-04-12T09:18:45.883Z</time></trkpt><trkpt lat="45.681951237323545" lon="8.713578915173569"><ele>280.0</ele><time>2026-04-12T09:18:46.883Z</time></trkpt><trkpt lat="45.68194232076662" lon="8.713673128059389"><ele>280.0</ele><time>2026-04-12T09:18:47.883Z</time></trkpt><trkpt lat="45.68191799181496" lon="8.71376146786016"><ele>280.0</ele><time>2026-04-12T09:18:48.884Z</time></trkpt><trkpt lat="45.6818830749194" lon="8.713840702713297"><ele>280.0</ele><time>2026-04-12T09:18:49.884Z</time></trkpt><trkpt lat="45.68185908840358" lon="8.713925890838057"><ele>280.0</ele><time>2026-04-12T09:18:50.885Z</time></trkpt><trkpt lat="45.681846479777754" lon="8.714032899874837"><ele>279.8333333333333</ele><time>2026-04-12T09:18:51.885Z</time></trkpt><trkpt lat="45.681823152304965" lon="8.714158094748335"><ele>279.66666666666663</ele><time>2026-04-12T09:18:52.885Z</time></trkpt><trkpt lat="45.68181374063843" lon="8.714267390414463"><ele>279.5</ele><time>2026-04-12T09:18:53.886Z</time></trkpt><trkpt lat="45.681785940413896" lon="8.714376004076168"><ele>279.3333333333333</ele><time>2026-04-12T09:18:54.887Z</time></trkpt><trkpt lat="45.68175305578144" lon="8.714469404224438"><ele>279.1666666666667</ele><time>2026-04-12T09:18:55.888Z</time></trkpt><trkpt lat="45.68172813285421" lon="8.714580614003987"><ele>279.0</ele><time>2026-04-12T09:18:56.888Z</time></trkpt><trkpt lat="45.681701374725165" lon="8.71469397721744"><ele>278.8333333333333</ele><time>2026-04-12T09:18:57.889Z</time></trkpt><trkpt lat="45.68167953686231" lon="8.714799048654786"><ele>278.6666666666667</ele><time>2026-04-12T09:18:58.889Z</time></trkpt><trkpt lat="45.6816528637529" lon="8.714923387065824"><ele>278.5</ele><time>2026-04-12T09:18:59.889Z</time></trkpt><trkpt lat="45.681629430127906" lon="8.715038515471864"><ele>278.33333333333337</ele><time>2026-04-12T09:19:00.889Z</time></trkpt><trkpt lat="45.681608620087694" lon="8.715141514141418"><ele>278.1666666666667</ele><time>2026-04-12T09:19:01.889Z</time></trkpt><trkpt lat="45.681584261623506" lon="8.715243231251733"><ele>278.0</ele><time>2026-04-12T09:19:02.889Z</time></trkpt><trkpt lat="45.68155585510383" lon="8.715331736316136"><ele>278.4</ele><time>2026-04-12T09:19:03.89Z</time></trkpt><trkpt lat="45.68150991835677" lon="8.715488609179245"><ele>278.8</ele><time>2026-04-12T09:19:05.89Z</time></trkpt><trkpt lat="45.681470934859696" lon="8.715630573879338"><ele>279.2</ele><time>2026-04-12T09:19:07.889Z</time></trkpt><trkpt lat="45.68142782791915" lon="8.71571871687706"><ele>279.6</ele><time>2026-04-12T09:19:09.89Z</time></trkpt><trkpt lat="45.68138173085409" lon="8.715782701962183"><ele>280.0</ele><time>2026-04-12T09:19:12.89Z</time></trkpt><trkpt lat="45.68130846717988" lon="8.715878621042119"><ele>280.0</ele><time>2026-04-12T09:19:14.89Z</time></trkpt><trkpt lat="45.68128441742169" lon="8.716027553045882"><ele>280.0</ele><time>2026-04-12T09:19:16.89Z</time></trkpt><trkpt lat="45.681335914677405" lon="8.716183817505165"><ele>280.0</ele><time>2026-04-12T09:19:18.89Z</time></trkpt><trkpt lat="45.68131603734874" lon="8.716352491641821"><ele>280.0</ele><time>2026-04-12T09:19:20.89Z</time></trkpt><trkpt lat="45.68129123836693" lon="8.716443537439451"><ele>280.0</ele><time>2026-04-12T09:19:21.89Z</time></trkpt><trkpt lat="45.68127447163547" lon="8.716535823157395"><ele>280.0</ele><time>2026-04-12T09:19:22.89Z</time></trkpt><trkpt lat="45.68124273142228" lon="8.716710933703583"><ele>280.0</ele><time>2026-04-12T09:19:24.89Z</time></trkpt><trkpt lat="45.681225278772935" lon="8.716797525618771"><ele>280.0</ele><time>2026-04-12T09:19:25.89Z</time></trkpt><trkpt lat="45.68118010056141" lon="8.716978887919273"><ele>280.0</ele><time>2026-04-12T09:19:27.89Z</time></trkpt><trkpt lat="45.68115489741803" lon="8.71706712774655"><ele>280.0</ele><time>2026-04-12T09:19:28.89Z</time></trkpt><trkpt lat="45.68113367225407" lon="8.717155623107745"><ele>279.85714285714283</ele><time>2026-04-12T09:19:29.89Z</time></trkpt><trkpt lat="45.68111013145193" lon="8.717241260813935"><ele>279.7142857142857</ele><time>2026-04-12T09:19:30.89Z</time></trkpt><trkpt lat="45.68109774859561" lon="8.717333734440432"><ele>279.57142857142856</ele><time>2026-04-12T09:19:31.89Z</time></trkpt><trkpt lat="45.68107351802381" lon="8.717422748720237"><ele>279.42857142857144</ele><time>2026-04-12T09:19:32.89Z</time></trkpt><trkpt lat="45.68104751107323" lon="8.71751630296997"><ele>279.2857142857143</ele><time>2026-04-12T09:19:33.89Z</time></trkpt><trkpt lat="45.68103129114894" lon="8.71760387826163"><ele>279.1428571428571</ele><time>2026-04-12T09:19:34.89Z</time></trkpt><trkpt lat="45.68100298113493" lon="8.71775888091077"><ele>279.0</ele><time>2026-04-12T09:19:36.89Z</time></trkpt><trkpt lat="45.680962420542606" lon="8.717914076072384"><ele>278.8333333333333</ele><time>2026-04-12T09:19:38.89Z</time></trkpt><trkpt lat="45.68092401939105" lon="8.718065665754835"><ele>278.6666666666667</ele><time>2026-04-12T09:19:40.89Z</time></trkpt><trkpt lat="45.68090240955204" lon="8.718151237529268"><ele>278.5</ele><time>2026-04-12T09:19:41.89Z</time></trkpt><trkpt lat="45.68087756598874" lon="8.718237063728969"><ele>278.33333333333337</ele><time>2026-04-12T09:19:42.89Z</time></trkpt><trkpt lat="45.68085660105681" lon="8.718325147294113"><ele>278.1666666666667</ele><time>2026-04-12T09:19:43.89Z</time></trkpt><trkpt lat="45.68082022443733" lon="8.718497583831413"><ele>278.0</ele><time>2026-04-12T09:19:45.89Z</time></trkpt><trkpt lat="45.68079899000707" lon="8.71859149705262"><ele>277.57142857142856</ele><time>2026-04-12T09:19:46.89Z</time></trkpt><trkpt lat="45.68077661905915" lon="8.718684650761231"><ele>277.14285714285717</ele><time>2026-04-12T09:19:47.89Z</time></trkpt><trkpt lat="45.680752965888544" lon="8.718775370503918"><ele>276.7142857142857</ele><time>2026-04-12T09:19:48.89Z</time></trkpt><trkpt lat="45.680728571434564" lon="8.718861322370348"><ele>276.2857142857143</ele><time>2026-04-12T09:19:49.89Z</time></trkpt><trkpt lat="45.68070632471148" lon="8.718951705383166"><ele>275.85714285714283</ele><time>2026-04-12T09:19:50.89Z</time></trkpt><trkpt lat="45.6806864057401" lon="8.719038183684274"><ele>275.42857142857144</ele><time>2026-04-12T09:19:51.89Z</time></trkpt><trkpt lat="45.68064749907427" lon="8.719186819829158"><ele>275.0</ele><time>2026-04-12T09:19:53.89Z</time></trkpt><trkpt lat="45.680612324023194" lon="8.719336198966342"><ele>275.33333333333337</ele><time>2026-04-12T09:19:55.89Z</time></trkpt><trkpt lat="45.68058487050688" lon="8.71949434720465"><ele>275.6666666666667</ele><time>2026-04-12T09:19:57.89Z</time></trkpt><trkpt lat="45.6805675430552" lon="8.719589491775368"><ele>276.0</ele><time>2026-04-12T09:19:58.89Z</time></trkpt><trkpt lat="45.68055358202026" lon="8.719693724148982"><ele>276.3333333333333</ele><time>2026-04-12T09:19:59.89Z</time></trkpt><trkpt lat="45.680537984171934" lon="8.719797208308"><ele>276.66666666666663</ele><time>2026-04-12T09:20:00.89Z</time></trkpt><trkpt lat="45.680522840439465" lon="8.719893970975484"><ele>277.0</ele><time>2026-04-12T09:20:01.89Z</time></trkpt><trkpt lat="45.68049480552569" lon="8.720057376301542"><ele>277.0</ele><time>2026-04-12T09:20:03.89Z</time></trkpt><trkpt lat="45.68046089188242" lon="8.720187126568467"><ele>277.0</ele><time>2026-04-12T09:20:05.89Z</time></trkpt><trkpt lat="45.680454404347046" lon="8.72028831300785"><ele>277.0</ele><time>2026-04-12T09:20:08.89Z</time></trkpt><trkpt lat="45.68048960773793" lon="8.720202380427132"><ele>277.0</ele><time>2026-04-12T09:20:11.89Z</time></trkpt><trkpt lat="45.680489916280905" lon="8.72031252545361"><ele>277.0</ele><time>2026-04-12T09:20:17.89Z</time></trkpt><trkpt lat="45.68047013672487" lon="8.720443423790895"><ele>277.0</ele><time>2026-04-12T09:20:19.89Z</time></trkpt><trkpt lat="45.680441249917045" lon="8.72060319045957"><ele>277.2</ele><time>2026-04-12T09:20:21.89Z</time></trkpt><trkpt lat="45.68042546565877" lon="8.72069093438799"><ele>277.4</ele><time>2026-04-12T09:20:22.889Z</time></trkpt><trkpt lat="45.680386417303794" lon="8.720855031616226"><ele>277.6</ele><time>2026-04-12T09:20:24.889Z</time></trkpt><trkpt lat="45.680305605061726" lon="8.720995195834664"><ele>277.8</ele><time>2026-04-12T09:20:26.889Z</time></trkpt><trkpt lat="45.68031764735981" lon="8.721154191579394"><ele>278.0</ele><time>2026-04-12T09:20:28.889Z</time></trkpt><trkpt lat="45.68030507295472" lon="8.72124751128964"><ele>278.0</ele><time>2026-04-12T09:20:30.889Z</time></trkpt><trkpt lat="45.680289109075005" lon="8.72137228768852"><ele>278.0</ele><time>2026-04-12T09:20:32.889Z</time></trkpt><trkpt lat="45.6802575959497" lon="8.721511319179898"><ele>278.0</ele><time>2026-04-12T09:20:34.889Z</time></trkpt><trkpt lat="45.68024609784285" lon="8.721661262540456"><ele>278.0</ele><time>2026-04-12T09:20:36.889Z</time></trkpt><trkpt lat="45.680227775565" lon="8.721753758527251"><ele>278.0</ele><time>2026-04-12T09:20:37.889Z</time></trkpt><trkpt lat="45.6801876570223" lon="8.721895648321713"><ele>277.6666666666667</ele><time>2026-04-12T09:20:39.889Z</time></trkpt><trkpt lat="45.680152177255735" lon="8.722043338538617"><ele>277.33333333333337</ele><time>2026-04-12T09:20:41.889Z</time></trkpt><trkpt lat="45.680122570004926" lon="8.722149375120274"><ele>277.0</ele><time>2026-04-12T09:20:43.889Z</time></trkpt><trkpt lat="45.6800861993254" lon="8.722260923301961"><ele>276.6666666666667</ele><time>2026-04-12T09:20:45.889Z</time></trkpt><trkpt lat="45.68005277471434" lon="8.72235488477498"><ele>276.3333333333333</ele><time>2026-04-12T09:20:47.889Z</time></trkpt><trkpt lat="45.68003906415919" lon="8.722460401585593"><ele>276.0</ele><time>2026-04-12T09:20:50.889Z</time></trkpt><trkpt lat="45.68000483534384" lon="8.722605923226052"><ele>276.0</ele><time>2026-04-12T09:20:53.889Z</time></trkpt><trkpt lat="45.67998211971332" lon="8.72272730025953"><ele>276.0</ele><time>2026-04-12T09:20:55.889Z</time></trkpt><trkpt lat="45.67995983924587" lon="8.722839729932318"><ele>276.0</ele><time>2026-04-12T09:20:58.889Z</time></trkpt><trkpt lat="45.67996499693092" lon="8.722996111613647"><ele>276.0</ele><time>2026-04-12T09:21:03.89Z</time></trkpt><trkpt lat="45.67994716064986" lon="8.723120996985493"><ele>276.0</ele><time>2026-04-12T09:21:05.89Z</time></trkpt><trkpt lat="45.67992433968462" lon="8.723209706191808"><ele>276.0</ele><time>2026-04-12T09:21:07.89Z</time></trkpt><trkpt lat="45.67992374644144" lon="8.723309303375446"><ele>275.0</ele><time>2026-04-12T09:21:12.89Z</time></trkpt><trkpt lat="45.67992005750885" lon="8.72344045274862"><ele>275.0</ele><time>2026-04-12T09:22:14.888Z</time></trkpt></trkseg></trk></gpx>